<?xml version="1.0" encoding="UTF-8" standalone="no" ?>
<gpx xmlns="http://www.topografix.com/GPX/1/1" xmlns:xsi="http://www.w3.org/2001/XMLSchema-instance" xsi:schemaLocation="http://www.topografix.com/GPX/1/1 http://www.topografix.com/GPX/1/1/gpx.xsd" version="1.1" creator="VisuGPX - https://www.visugpx.com">
  <metadata>
    <name>un soir à la débache</name>
    <desc><![CDATA[vite fais à la débauche]]></desc>
  </metadata>
  <trk>
    <name><![CDATA[2011-07-07 16:31]]></name>
    <desc><![CDATA[]]></desc>
    <trkseg>
      <trkpt lat="45.27292" lon="1.41042">
        <ele>174</ele>
        <time>2011-07-07T14:31:22Z</time>
      </trkpt>
      <trkpt lat="45.27292" lon="1.41042">
        <ele>174</ele>
        <time>2011-07-07T14:31:22Z</time>
      </trkpt>
      <trkpt lat="45.27292" lon="1.41042">
        <ele>174</ele>
        <time>2011-07-07T14:31:34Z</time>
      </trkpt>
      <trkpt lat="45.27285" lon="1.41039">
        <ele>180</ele>
        <time>2011-07-07T14:31:35Z</time>
      </trkpt>
      <trkpt lat="45.27288" lon="1.41034">
        <ele>179</ele>
        <time>2011-07-07T14:32:09Z</time>
      </trkpt>
      <trkpt lat="45.27293" lon="1.4103">
        <ele>180</ele>
        <time>2011-07-07T14:32:11Z</time>
      </trkpt>
      <trkpt lat="45.27296" lon="1.41023">
        <ele>178</ele>
        <time>2011-07-07T14:32:13Z</time>
      </trkpt>
      <trkpt lat="45.27298" lon="1.41016">
        <ele>176</ele>
        <time>2011-07-07T14:32:15Z</time>
      </trkpt>
      <trkpt lat="45.273" lon="1.41009">
        <ele>179</ele>
        <time>2011-07-07T14:32:17Z</time>
      </trkpt>
      <trkpt lat="45.27302" lon="1.41001">
        <ele>180</ele>
        <time>2011-07-07T14:32:19Z</time>
      </trkpt>
      <trkpt lat="45.27303" lon="1.40993">
        <ele>180</ele>
        <time>2011-07-07T14:32:21Z</time>
      </trkpt>
      <trkpt lat="45.27304" lon="1.40986">
        <ele>181</ele>
        <time>2011-07-07T14:32:23Z</time>
      </trkpt>
      <trkpt lat="45.27306" lon="1.40978">
        <ele>180</ele>
        <time>2011-07-07T14:32:25Z</time>
      </trkpt>
      <trkpt lat="45.27307" lon="1.4097">
        <ele>180</ele>
        <time>2011-07-07T14:32:27Z</time>
      </trkpt>
      <trkpt lat="45.27309" lon="1.40962">
        <ele>180</ele>
        <time>2011-07-07T14:32:29Z</time>
      </trkpt>
      <trkpt lat="45.2731" lon="1.40954">
        <ele>181</ele>
        <time>2011-07-07T14:32:31Z</time>
      </trkpt>
      <trkpt lat="45.27312" lon="1.40947">
        <ele>182</ele>
        <time>2011-07-07T14:32:33Z</time>
      </trkpt>
      <trkpt lat="45.27314" lon="1.40939">
        <ele>183</ele>
        <time>2011-07-07T14:32:35Z</time>
      </trkpt>
      <trkpt lat="45.27315" lon="1.40931">
        <ele>182</ele>
        <time>2011-07-07T14:32:37Z</time>
      </trkpt>
      <trkpt lat="45.27316" lon="1.40923">
        <ele>182</ele>
        <time>2011-07-07T14:32:39Z</time>
      </trkpt>
      <trkpt lat="45.27318" lon="1.40916">
        <ele>183</ele>
        <time>2011-07-07T14:32:41Z</time>
      </trkpt>
      <trkpt lat="45.27319" lon="1.40908">
        <ele>183</ele>
        <time>2011-07-07T14:32:43Z</time>
      </trkpt>
      <trkpt lat="45.2732" lon="1.409">
        <ele>184</ele>
        <time>2011-07-07T14:32:45Z</time>
      </trkpt>
      <trkpt lat="45.27322" lon="1.40892">
        <ele>185</ele>
        <time>2011-07-07T14:32:47Z</time>
      </trkpt>
      <trkpt lat="45.27324" lon="1.40884">
        <ele>185</ele>
        <time>2011-07-07T14:32:49Z</time>
      </trkpt>
      <trkpt lat="45.27326" lon="1.40877">
        <ele>186</ele>
        <time>2011-07-07T14:32:51Z</time>
      </trkpt>
      <trkpt lat="45.27328" lon="1.4087">
        <ele>187</ele>
        <time>2011-07-07T14:32:53Z</time>
      </trkpt>
      <trkpt lat="45.2733" lon="1.40862">
        <ele>189</ele>
        <time>2011-07-07T14:32:55Z</time>
      </trkpt>
      <trkpt lat="45.27333" lon="1.40856">
        <ele>190</ele>
        <time>2011-07-07T14:32:57Z</time>
      </trkpt>
      <trkpt lat="45.27336" lon="1.40847">
        <ele>188</ele>
        <time>2011-07-07T14:32:59Z</time>
      </trkpt>
      <trkpt lat="45.27339" lon="1.4084">
        <ele>187</ele>
        <time>2011-07-07T14:33:01Z</time>
      </trkpt>
      <trkpt lat="45.27342" lon="1.40831">
        <ele>189</ele>
        <time>2011-07-07T14:33:04Z</time>
      </trkpt>
      <trkpt lat="45.27345" lon="1.40824">
        <ele>190</ele>
        <time>2011-07-07T14:33:06Z</time>
      </trkpt>
      <trkpt lat="45.27348" lon="1.40816">
        <ele>192</ele>
        <time>2011-07-07T14:33:08Z</time>
      </trkpt>
      <trkpt lat="45.27351" lon="1.4081">
        <ele>193</ele>
        <time>2011-07-07T14:33:10Z</time>
      </trkpt>
      <trkpt lat="45.27353" lon="1.40803">
        <ele>193</ele>
        <time>2011-07-07T14:33:12Z</time>
      </trkpt>
      <trkpt lat="45.27356" lon="1.40796">
        <ele>193</ele>
        <time>2011-07-07T14:33:14Z</time>
      </trkpt>
      <trkpt lat="45.27359" lon="1.40789">
        <ele>193</ele>
        <time>2011-07-07T14:33:16Z</time>
      </trkpt>
      <trkpt lat="45.27362" lon="1.40783">
        <ele>193</ele>
        <time>2011-07-07T14:33:18Z</time>
      </trkpt>
      <trkpt lat="45.27364" lon="1.40776">
        <ele>194</ele>
        <time>2011-07-07T14:33:20Z</time>
      </trkpt>
      <trkpt lat="45.27367" lon="1.4077">
        <ele>196</ele>
        <time>2011-07-07T14:33:22Z</time>
      </trkpt>
      <trkpt lat="45.2737" lon="1.40765">
        <ele>196</ele>
        <time>2011-07-07T14:33:24Z</time>
      </trkpt>
      <trkpt lat="45.27373" lon="1.40759">
        <ele>195</ele>
        <time>2011-07-07T14:33:26Z</time>
      </trkpt>
      <trkpt lat="45.27378" lon="1.40758">
        <ele>195</ele>
        <time>2011-07-07T14:33:28Z</time>
      </trkpt>
      <trkpt lat="45.27383" lon="1.4076">
        <ele>194</ele>
        <time>2011-07-07T14:33:30Z</time>
      </trkpt>
      <trkpt lat="45.27389" lon="1.40763">
        <ele>197</ele>
        <time>2011-07-07T14:33:32Z</time>
      </trkpt>
      <trkpt lat="45.27395" lon="1.40766">
        <ele>198</ele>
        <time>2011-07-07T14:33:34Z</time>
      </trkpt>
      <trkpt lat="45.27402" lon="1.40769">
        <ele>198</ele>
        <time>2011-07-07T14:33:36Z</time>
      </trkpt>
      <trkpt lat="45.2741" lon="1.40772">
        <ele>195</ele>
        <time>2011-07-07T14:33:38Z</time>
      </trkpt>
      <trkpt lat="45.27418" lon="1.40775">
        <ele>194</ele>
        <time>2011-07-07T14:33:40Z</time>
      </trkpt>
      <trkpt lat="45.27426" lon="1.40777">
        <ele>194</ele>
        <time>2011-07-07T14:33:42Z</time>
      </trkpt>
      <trkpt lat="45.27434" lon="1.40776">
        <ele>194</ele>
        <time>2011-07-07T14:33:44Z</time>
      </trkpt>
      <trkpt lat="45.2744" lon="1.40782">
        <ele>194</ele>
        <time>2011-07-07T14:33:46Z</time>
      </trkpt>
      <trkpt lat="45.27447" lon="1.40786">
        <ele>196</ele>
        <time>2011-07-07T14:33:48Z</time>
      </trkpt>
      <trkpt lat="45.27456" lon="1.4079">
        <ele>197</ele>
        <time>2011-07-07T14:33:50Z</time>
      </trkpt>
      <trkpt lat="45.2746" lon="1.40792">
        <ele>198</ele>
        <time>2011-07-07T14:33:51Z</time>
      </trkpt>
      <trkpt lat="45.27465" lon="1.40795">
        <ele>198</ele>
        <time>2011-07-07T14:33:52Z</time>
      </trkpt>
      <trkpt lat="45.27469" lon="1.40797">
        <ele>198</ele>
        <time>2011-07-07T14:33:53Z</time>
      </trkpt>
      <trkpt lat="45.27478" lon="1.40802">
        <ele>199</ele>
        <time>2011-07-07T14:33:55Z</time>
      </trkpt>
      <trkpt lat="45.27483" lon="1.40803">
        <ele>198</ele>
        <time>2011-07-07T14:33:56Z</time>
      </trkpt>
      <trkpt lat="45.27487" lon="1.40801">
        <ele>197</ele>
        <time>2011-07-07T14:33:57Z</time>
      </trkpt>
      <trkpt lat="45.27493" lon="1.40794">
        <ele>196</ele>
        <time>2011-07-07T14:33:59Z</time>
      </trkpt>
      <trkpt lat="45.27497" lon="1.40786">
        <ele>196</ele>
        <time>2011-07-07T14:34:01Z</time>
      </trkpt>
      <trkpt lat="45.275" lon="1.40777">
        <ele>195</ele>
        <time>2011-07-07T14:34:03Z</time>
      </trkpt>
      <trkpt lat="45.27503" lon="1.4077">
        <ele>201</ele>
        <time>2011-07-07T14:34:05Z</time>
      </trkpt>
      <trkpt lat="45.27506" lon="1.40761">
        <ele>195</ele>
        <time>2011-07-07T14:34:07Z</time>
      </trkpt>
      <trkpt lat="45.2751" lon="1.40756">
        <ele>196</ele>
        <time>2011-07-07T14:34:09Z</time>
      </trkpt>
      <trkpt lat="45.27515" lon="1.40755">
        <ele>194</ele>
        <time>2011-07-07T14:34:11Z</time>
      </trkpt>
      <trkpt lat="45.27521" lon="1.40757">
        <ele>194</ele>
        <time>2011-07-07T14:34:14Z</time>
      </trkpt>
      <trkpt lat="45.27527" lon="1.40759">
        <ele>197</ele>
        <time>2011-07-07T14:34:17Z</time>
      </trkpt>
      <trkpt lat="45.27532" lon="1.40761">
        <ele>201</ele>
        <time>2011-07-07T14:34:19Z</time>
      </trkpt>
      <trkpt lat="45.27537" lon="1.40763">
        <ele>203</ele>
        <time>2011-07-07T14:34:21Z</time>
      </trkpt>
      <trkpt lat="45.27542" lon="1.40765">
        <ele>202</ele>
        <time>2011-07-07T14:34:23Z</time>
      </trkpt>
      <trkpt lat="45.27548" lon="1.40767">
        <ele>203</ele>
        <time>2011-07-07T14:34:25Z</time>
      </trkpt>
      <trkpt lat="45.27552" lon="1.40768">
        <ele>201</ele>
        <time>2011-07-07T14:34:27Z</time>
      </trkpt>
      <trkpt lat="45.27556" lon="1.4077">
        <ele>199</ele>
        <time>2011-07-07T14:34:29Z</time>
      </trkpt>
      <trkpt lat="45.27561" lon="1.40772">
        <ele>199</ele>
        <time>2011-07-07T14:34:31Z</time>
      </trkpt>
      <trkpt lat="45.27568" lon="1.40773">
        <ele>203</ele>
        <time>2011-07-07T14:34:34Z</time>
      </trkpt>
      <trkpt lat="45.27573" lon="1.40774">
        <ele>202</ele>
        <time>2011-07-07T14:34:36Z</time>
      </trkpt>
      <trkpt lat="45.27579" lon="1.40773">
        <ele>202</ele>
        <time>2011-07-07T14:34:38Z</time>
      </trkpt>
      <trkpt lat="45.27586" lon="1.40774">
        <ele>201</ele>
        <time>2011-07-07T14:34:40Z</time>
      </trkpt>
      <trkpt lat="45.27593" lon="1.40775">
        <ele>202</ele>
        <time>2011-07-07T14:34:42Z</time>
      </trkpt>
      <trkpt lat="45.276" lon="1.40775">
        <ele>201</ele>
        <time>2011-07-07T14:34:44Z</time>
      </trkpt>
      <trkpt lat="45.27606" lon="1.40775">
        <ele>203</ele>
        <time>2011-07-07T14:34:46Z</time>
      </trkpt>
      <trkpt lat="45.27612" lon="1.40775">
        <ele>204</ele>
        <time>2011-07-07T14:34:48Z</time>
      </trkpt>
      <trkpt lat="45.27619" lon="1.40775">
        <ele>204</ele>
        <time>2011-07-07T14:34:50Z</time>
      </trkpt>
      <trkpt lat="45.27625" lon="1.40778">
        <ele>202</ele>
        <time>2011-07-07T14:34:52Z</time>
      </trkpt>
      <trkpt lat="45.27632" lon="1.40777">
        <ele>203</ele>
        <time>2011-07-07T14:34:54Z</time>
      </trkpt>
      <trkpt lat="45.27639" lon="1.40776">
        <ele>204</ele>
        <time>2011-07-07T14:34:56Z</time>
      </trkpt>
      <trkpt lat="45.27646" lon="1.40775">
        <ele>205</ele>
        <time>2011-07-07T14:34:58Z</time>
      </trkpt>
      <trkpt lat="45.27652" lon="1.40775">
        <ele>205</ele>
        <time>2011-07-07T14:35:00Z</time>
      </trkpt>
      <trkpt lat="45.27659" lon="1.40774">
        <ele>205</ele>
        <time>2011-07-07T14:35:02Z</time>
      </trkpt>
      <trkpt lat="45.27666" lon="1.40772">
        <ele>206</ele>
        <time>2011-07-07T14:35:04Z</time>
      </trkpt>
      <trkpt lat="45.27672" lon="1.4077">
        <ele>206</ele>
        <time>2011-07-07T14:35:06Z</time>
      </trkpt>
      <trkpt lat="45.27679" lon="1.40768">
        <ele>207</ele>
        <time>2011-07-07T14:35:08Z</time>
      </trkpt>
      <trkpt lat="45.27686" lon="1.40766">
        <ele>209</ele>
        <time>2011-07-07T14:35:10Z</time>
      </trkpt>
      <trkpt lat="45.27692" lon="1.40766">
        <ele>206</ele>
        <time>2011-07-07T14:35:12Z</time>
      </trkpt>
      <trkpt lat="45.27699" lon="1.40765">
        <ele>205</ele>
        <time>2011-07-07T14:35:14Z</time>
      </trkpt>
      <trkpt lat="45.27707" lon="1.40763">
        <ele>208</ele>
        <time>2011-07-07T14:35:16Z</time>
      </trkpt>
      <trkpt lat="45.27712" lon="1.40762">
        <ele>209</ele>
        <time>2011-07-07T14:35:17Z</time>
      </trkpt>
      <trkpt lat="45.27716" lon="1.40762">
        <ele>210</ele>
        <time>2011-07-07T14:35:18Z</time>
      </trkpt>
      <trkpt lat="45.27721" lon="1.4076">
        <ele>210</ele>
        <time>2011-07-07T14:35:19Z</time>
      </trkpt>
      <trkpt lat="45.27726" lon="1.40759">
        <ele>209</ele>
        <time>2011-07-07T14:35:20Z</time>
      </trkpt>
      <trkpt lat="45.27732" lon="1.40757">
        <ele>209</ele>
        <time>2011-07-07T14:35:21Z</time>
      </trkpt>
      <trkpt lat="45.27737" lon="1.40756">
        <ele>209</ele>
        <time>2011-07-07T14:35:22Z</time>
      </trkpt>
      <trkpt lat="45.27743" lon="1.40754">
        <ele>209</ele>
        <time>2011-07-07T14:35:23Z</time>
      </trkpt>
      <trkpt lat="45.2775" lon="1.4075">
        <ele>210</ele>
        <time>2011-07-07T14:35:24Z</time>
      </trkpt>
      <trkpt lat="45.27758" lon="1.40745">
        <ele>210</ele>
        <time>2011-07-07T14:35:25Z</time>
      </trkpt>
      <trkpt lat="45.27766" lon="1.40739">
        <ele>211</ele>
        <time>2011-07-07T14:35:26Z</time>
      </trkpt>
      <trkpt lat="45.27774" lon="1.40734">
        <ele>211</ele>
        <time>2011-07-07T14:35:27Z</time>
      </trkpt>
      <trkpt lat="45.27782" lon="1.40729">
        <ele>211</ele>
        <time>2011-07-07T14:35:28Z</time>
      </trkpt>
      <trkpt lat="45.27789" lon="1.40724">
        <ele>211</ele>
        <time>2011-07-07T14:35:29Z</time>
      </trkpt>
      <trkpt lat="45.27795" lon="1.4072">
        <ele>212</ele>
        <time>2011-07-07T14:35:30Z</time>
      </trkpt>
      <trkpt lat="45.278" lon="1.40716">
        <ele>212</ele>
        <time>2011-07-07T14:35:31Z</time>
      </trkpt>
      <trkpt lat="45.27805" lon="1.40711">
        <ele>209</ele>
        <time>2011-07-07T14:35:32Z</time>
      </trkpt>
      <trkpt lat="45.2781" lon="1.40706">
        <ele>208</ele>
        <time>2011-07-07T14:35:33Z</time>
      </trkpt>
      <trkpt lat="45.27816" lon="1.40698">
        <ele>209</ele>
        <time>2011-07-07T14:35:35Z</time>
      </trkpt>
      <trkpt lat="45.2782" lon="1.40692">
        <ele>211</ele>
        <time>2011-07-07T14:35:37Z</time>
      </trkpt>
      <trkpt lat="45.27823" lon="1.40685">
        <ele>213</ele>
        <time>2011-07-07T14:35:39Z</time>
      </trkpt>
      <trkpt lat="45.27828" lon="1.40678">
        <ele>214</ele>
        <time>2011-07-07T14:35:42Z</time>
      </trkpt>
      <trkpt lat="45.27831" lon="1.40671">
        <ele>213</ele>
        <time>2011-07-07T14:35:44Z</time>
      </trkpt>
      <trkpt lat="45.27834" lon="1.40665">
        <ele>212</ele>
        <time>2011-07-07T14:35:46Z</time>
      </trkpt>
      <trkpt lat="45.27837" lon="1.4066">
        <ele>212</ele>
        <time>2011-07-07T14:35:48Z</time>
      </trkpt>
      <trkpt lat="45.27842" lon="1.40654">
        <ele>211</ele>
        <time>2011-07-07T14:35:51Z</time>
      </trkpt>
      <trkpt lat="45.27846" lon="1.40648">
        <ele>214</ele>
        <time>2011-07-07T14:35:53Z</time>
      </trkpt>
      <trkpt lat="45.27851" lon="1.40641">
        <ele>212</ele>
        <time>2011-07-07T14:35:56Z</time>
      </trkpt>
      <trkpt lat="45.27854" lon="1.40636">
        <ele>210</ele>
        <time>2011-07-07T14:35:58Z</time>
      </trkpt>
      <trkpt lat="45.27857" lon="1.4063">
        <ele>207</ele>
        <time>2011-07-07T14:36:00Z</time>
      </trkpt>
      <trkpt lat="45.2786" lon="1.40623">
        <ele>210</ele>
        <time>2011-07-07T14:36:02Z</time>
      </trkpt>
      <trkpt lat="45.27862" lon="1.40617">
        <ele>212</ele>
        <time>2011-07-07T14:36:04Z</time>
      </trkpt>
      <trkpt lat="45.27864" lon="1.40609">
        <ele>214</ele>
        <time>2011-07-07T14:36:07Z</time>
      </trkpt>
      <trkpt lat="45.27865" lon="1.406">
        <ele>217</ele>
        <time>2011-07-07T14:36:10Z</time>
      </trkpt>
      <trkpt lat="45.27866" lon="1.40594">
        <ele>217</ele>
        <time>2011-07-07T14:36:12Z</time>
      </trkpt>
      <trkpt lat="45.27867" lon="1.40584">
        <ele>220</ele>
        <time>2011-07-07T14:36:15Z</time>
      </trkpt>
      <trkpt lat="45.27868" lon="1.40577">
        <ele>223</ele>
        <time>2011-07-07T14:36:17Z</time>
      </trkpt>
      <trkpt lat="45.2787" lon="1.4057">
        <ele>221</ele>
        <time>2011-07-07T14:36:19Z</time>
      </trkpt>
      <trkpt lat="45.2787" lon="1.40562">
        <ele>219</ele>
        <time>2011-07-07T14:36:21Z</time>
      </trkpt>
      <trkpt lat="45.27872" lon="1.40552">
        <ele>216</ele>
        <time>2011-07-07T14:36:24Z</time>
      </trkpt>
      <trkpt lat="45.27871" lon="1.40546">
        <ele>218</ele>
        <time>2011-07-07T14:36:26Z</time>
      </trkpt>
      <trkpt lat="45.27871" lon="1.40539">
        <ele>217</ele>
        <time>2011-07-07T14:36:28Z</time>
      </trkpt>
      <trkpt lat="45.2787" lon="1.40532">
        <ele>218</ele>
        <time>2011-07-07T14:36:30Z</time>
      </trkpt>
      <trkpt lat="45.27871" lon="1.40522">
        <ele>216</ele>
        <time>2011-07-07T14:36:33Z</time>
      </trkpt>
      <trkpt lat="45.27871" lon="1.40514">
        <ele>223</ele>
        <time>2011-07-07T14:36:35Z</time>
      </trkpt>
      <trkpt lat="45.27872" lon="1.40506">
        <ele>221</ele>
        <time>2011-07-07T14:36:37Z</time>
      </trkpt>
      <trkpt lat="45.27873" lon="1.40499">
        <ele>222</ele>
        <time>2011-07-07T14:36:39Z</time>
      </trkpt>
      <trkpt lat="45.27873" lon="1.40492">
        <ele>224</ele>
        <time>2011-07-07T14:36:41Z</time>
      </trkpt>
      <trkpt lat="45.27874" lon="1.40483">
        <ele>222</ele>
        <time>2011-07-07T14:36:44Z</time>
      </trkpt>
      <trkpt lat="45.27875" lon="1.40476">
        <ele>222</ele>
        <time>2011-07-07T14:36:46Z</time>
      </trkpt>
      <trkpt lat="45.27876" lon="1.40469">
        <ele>221</ele>
        <time>2011-07-07T14:36:48Z</time>
      </trkpt>
      <trkpt lat="45.27876" lon="1.4046">
        <ele>221</ele>
        <time>2011-07-07T14:36:50Z</time>
      </trkpt>
      <trkpt lat="45.27877" lon="1.40452">
        <ele>223</ele>
        <time>2011-07-07T14:36:52Z</time>
      </trkpt>
      <trkpt lat="45.27877" lon="1.40452">
        <ele>223</ele>
        <time>2011-07-07T14:36:52Z</time>
      </trkpt>
      <trkpt lat="45.27877" lon="1.40452">
        <ele>223</ele>
        <time>2011-07-07T14:36:53Z</time>
      </trkpt>
      <trkpt lat="45.27878" lon="1.40445">
        <ele>221</ele>
        <time>2011-07-07T14:36:54Z</time>
      </trkpt>
      <trkpt lat="45.27879" lon="1.40439">
        <ele>221</ele>
        <time>2011-07-07T14:36:56Z</time>
      </trkpt>
      <trkpt lat="45.2788" lon="1.40432">
        <ele>224</ele>
        <time>2011-07-07T14:36:58Z</time>
      </trkpt>
      <trkpt lat="45.2788" lon="1.40424">
        <ele>226</ele>
        <time>2011-07-07T14:37:00Z</time>
      </trkpt>
      <trkpt lat="45.2788" lon="1.40417">
        <ele>226</ele>
        <time>2011-07-07T14:37:02Z</time>
      </trkpt>
      <trkpt lat="45.27878" lon="1.4041">
        <ele>226</ele>
        <time>2011-07-07T14:37:04Z</time>
      </trkpt>
      <trkpt lat="45.27876" lon="1.40403">
        <ele>227</ele>
        <time>2011-07-07T14:37:06Z</time>
      </trkpt>
      <trkpt lat="45.27872" lon="1.40396">
        <ele>229</ele>
        <time>2011-07-07T14:37:08Z</time>
      </trkpt>
      <trkpt lat="45.27867" lon="1.4039">
        <ele>231</ele>
        <time>2011-07-07T14:37:10Z</time>
      </trkpt>
      <trkpt lat="45.27862" lon="1.40385">
        <ele>236</ele>
        <time>2011-07-07T14:37:12Z</time>
      </trkpt>
      <trkpt lat="45.27857" lon="1.40381">
        <ele>234</ele>
        <time>2011-07-07T14:37:14Z</time>
      </trkpt>
      <trkpt lat="45.27853" lon="1.40378">
        <ele>235</ele>
        <time>2011-07-07T14:37:16Z</time>
      </trkpt>
      <trkpt lat="45.27848" lon="1.40375">
        <ele>232</ele>
        <time>2011-07-07T14:37:18Z</time>
      </trkpt>
      <trkpt lat="45.27844" lon="1.40371">
        <ele>232</ele>
        <time>2011-07-07T14:37:20Z</time>
      </trkpt>
      <trkpt lat="45.2784" lon="1.40367">
        <ele>234</ele>
        <time>2011-07-07T14:37:22Z</time>
      </trkpt>
      <trkpt lat="45.27836" lon="1.40362">
        <ele>234</ele>
        <time>2011-07-07T14:37:24Z</time>
      </trkpt>
      <trkpt lat="45.27831" lon="1.40358">
        <ele>233</ele>
        <time>2011-07-07T14:37:26Z</time>
      </trkpt>
      <trkpt lat="45.27826" lon="1.40354">
        <ele>232</ele>
        <time>2011-07-07T14:37:28Z</time>
      </trkpt>
      <trkpt lat="45.2782" lon="1.40349">
        <ele>232</ele>
        <time>2011-07-07T14:37:30Z</time>
      </trkpt>
      <trkpt lat="45.27814" lon="1.40345">
        <ele>233</ele>
        <time>2011-07-07T14:37:32Z</time>
      </trkpt>
      <trkpt lat="45.27808" lon="1.4034">
        <ele>234</ele>
        <time>2011-07-07T14:37:34Z</time>
      </trkpt>
      <trkpt lat="45.27803" lon="1.40335">
        <ele>234</ele>
        <time>2011-07-07T14:37:36Z</time>
      </trkpt>
      <trkpt lat="45.27797" lon="1.40332">
        <ele>236</ele>
        <time>2011-07-07T14:37:38Z</time>
      </trkpt>
      <trkpt lat="45.2779" lon="1.40329">
        <ele>234</ele>
        <time>2011-07-07T14:37:40Z</time>
      </trkpt>
      <trkpt lat="45.27783" lon="1.40326">
        <ele>232</ele>
        <time>2011-07-07T14:37:42Z</time>
      </trkpt>
      <trkpt lat="45.27778" lon="1.40326">
        <ele>232</ele>
        <time>2011-07-07T14:37:43Z</time>
      </trkpt>
      <trkpt lat="45.27774" lon="1.40324">
        <ele>232</ele>
        <time>2011-07-07T14:37:44Z</time>
      </trkpt>
      <trkpt lat="45.27769" lon="1.40316">
        <ele>234</ele>
        <time>2011-07-07T14:37:46Z</time>
      </trkpt>
      <trkpt lat="45.27772" lon="1.40307">
        <ele>235</ele>
        <time>2011-07-07T14:37:48Z</time>
      </trkpt>
      <trkpt lat="45.27779" lon="1.40304">
        <ele>235</ele>
        <time>2011-07-07T14:37:50Z</time>
      </trkpt>
      <trkpt lat="45.27786" lon="1.40302">
        <ele>237</ele>
        <time>2011-07-07T14:37:52Z</time>
      </trkpt>
      <trkpt lat="45.27794" lon="1.403">
        <ele>237</ele>
        <time>2011-07-07T14:37:54Z</time>
      </trkpt>
      <trkpt lat="45.278" lon="1.403">
        <ele>238</ele>
        <time>2011-07-07T14:37:56Z</time>
      </trkpt>
      <trkpt lat="45.27806" lon="1.40301">
        <ele>238</ele>
        <time>2011-07-07T14:37:58Z</time>
      </trkpt>
      <trkpt lat="45.27814" lon="1.40301">
        <ele>236</ele>
        <time>2011-07-07T14:38:00Z</time>
      </trkpt>
      <trkpt lat="45.27821" lon="1.40303">
        <ele>237</ele>
        <time>2011-07-07T14:38:02Z</time>
      </trkpt>
      <trkpt lat="45.27828" lon="1.40305">
        <ele>237</ele>
        <time>2011-07-07T14:38:04Z</time>
      </trkpt>
      <trkpt lat="45.27833" lon="1.40306">
        <ele>242</ele>
        <time>2011-07-07T14:38:06Z</time>
      </trkpt>
      <trkpt lat="45.2784" lon="1.40309">
        <ele>243</ele>
        <time>2011-07-07T14:38:08Z</time>
      </trkpt>
      <trkpt lat="45.27847" lon="1.4031">
        <ele>242</ele>
        <time>2011-07-07T14:38:10Z</time>
      </trkpt>
      <trkpt lat="45.27855" lon="1.40311">
        <ele>242</ele>
        <time>2011-07-07T14:38:12Z</time>
      </trkpt>
      <trkpt lat="45.27862" lon="1.40312">
        <ele>242</ele>
        <time>2011-07-07T14:38:14Z</time>
      </trkpt>
      <trkpt lat="45.27869" lon="1.40312">
        <ele>242</ele>
        <time>2011-07-07T14:38:16Z</time>
      </trkpt>
      <trkpt lat="45.27876" lon="1.40311">
        <ele>241</ele>
        <time>2011-07-07T14:38:18Z</time>
      </trkpt>
      <trkpt lat="45.27883" lon="1.4031">
        <ele>241</ele>
        <time>2011-07-07T14:38:20Z</time>
      </trkpt>
      <trkpt lat="45.27889" lon="1.4031">
        <ele>239</ele>
        <time>2011-07-07T14:38:22Z</time>
      </trkpt>
      <trkpt lat="45.27896" lon="1.40309">
        <ele>237</ele>
        <time>2011-07-07T14:38:24Z</time>
      </trkpt>
      <trkpt lat="45.27902" lon="1.40308">
        <ele>235</ele>
        <time>2011-07-07T14:38:26Z</time>
      </trkpt>
      <trkpt lat="45.27908" lon="1.40307">
        <ele>236</ele>
        <time>2011-07-07T14:38:28Z</time>
      </trkpt>
      <trkpt lat="45.27915" lon="1.40305">
        <ele>239</ele>
        <time>2011-07-07T14:38:30Z</time>
      </trkpt>
      <trkpt lat="45.27923" lon="1.40304">
        <ele>241</ele>
        <time>2011-07-07T14:38:32Z</time>
      </trkpt>
      <trkpt lat="45.27929" lon="1.40302">
        <ele>242</ele>
        <time>2011-07-07T14:38:34Z</time>
      </trkpt>
      <trkpt lat="45.27937" lon="1.403">
        <ele>246</ele>
        <time>2011-07-07T14:38:36Z</time>
      </trkpt>
      <trkpt lat="45.27943" lon="1.40297">
        <ele>248</ele>
        <time>2011-07-07T14:38:38Z</time>
      </trkpt>
      <trkpt lat="45.2795" lon="1.40295">
        <ele>246</ele>
        <time>2011-07-07T14:38:40Z</time>
      </trkpt>
      <trkpt lat="45.27956" lon="1.40292">
        <ele>242</ele>
        <time>2011-07-07T14:38:42Z</time>
      </trkpt>
      <trkpt lat="45.27962" lon="1.4029">
        <ele>243</ele>
        <time>2011-07-07T14:38:44Z</time>
      </trkpt>
      <trkpt lat="45.27969" lon="1.40288">
        <ele>244</ele>
        <time>2011-07-07T14:38:46Z</time>
      </trkpt>
      <trkpt lat="45.27975" lon="1.40286">
        <ele>243</ele>
        <time>2011-07-07T14:38:48Z</time>
      </trkpt>
      <trkpt lat="45.2798" lon="1.40284">
        <ele>244</ele>
        <time>2011-07-07T14:38:50Z</time>
      </trkpt>
      <trkpt lat="45.27986" lon="1.40283">
        <ele>248</ele>
        <time>2011-07-07T14:38:52Z</time>
      </trkpt>
      <trkpt lat="45.27992" lon="1.40283">
        <ele>248</ele>
        <time>2011-07-07T14:38:54Z</time>
      </trkpt>
      <trkpt lat="45.27998" lon="1.40286">
        <ele>247</ele>
        <time>2011-07-07T14:38:56Z</time>
      </trkpt>
      <trkpt lat="45.28004" lon="1.40288">
        <ele>250</ele>
        <time>2011-07-07T14:38:58Z</time>
      </trkpt>
      <trkpt lat="45.28008" lon="1.40291">
        <ele>250</ele>
        <time>2011-07-07T14:39:00Z</time>
      </trkpt>
      <trkpt lat="45.28015" lon="1.40295">
        <ele>251</ele>
        <time>2011-07-07T14:39:03Z</time>
      </trkpt>
      <trkpt lat="45.2802" lon="1.40298">
        <ele>254</ele>
        <time>2011-07-07T14:39:05Z</time>
      </trkpt>
      <trkpt lat="45.28026" lon="1.403">
        <ele>256</ele>
        <time>2011-07-07T14:39:07Z</time>
      </trkpt>
      <trkpt lat="45.28032" lon="1.40303">
        <ele>257</ele>
        <time>2011-07-07T14:39:09Z</time>
      </trkpt>
      <trkpt lat="45.28038" lon="1.40305">
        <ele>256</ele>
        <time>2011-07-07T14:39:11Z</time>
      </trkpt>
      <trkpt lat="45.28044" lon="1.40306">
        <ele>255</ele>
        <time>2011-07-07T14:39:13Z</time>
      </trkpt>
      <trkpt lat="45.28049" lon="1.40307">
        <ele>254</ele>
        <time>2011-07-07T14:39:15Z</time>
      </trkpt>
      <trkpt lat="45.28054" lon="1.40308">
        <ele>255</ele>
        <time>2011-07-07T14:39:17Z</time>
      </trkpt>
      <trkpt lat="45.2806" lon="1.40308">
        <ele>257</ele>
        <time>2011-07-07T14:39:19Z</time>
      </trkpt>
      <trkpt lat="45.28065" lon="1.40309">
        <ele>256</ele>
        <time>2011-07-07T14:39:21Z</time>
      </trkpt>
      <trkpt lat="45.2807" lon="1.40309">
        <ele>255</ele>
        <time>2011-07-07T14:39:23Z</time>
      </trkpt>
      <trkpt lat="45.28075" lon="1.40309">
        <ele>257</ele>
        <time>2011-07-07T14:39:25Z</time>
      </trkpt>
      <trkpt lat="45.2808" lon="1.40309">
        <ele>257</ele>
        <time>2011-07-07T14:39:27Z</time>
      </trkpt>
      <trkpt lat="45.28086" lon="1.40308">
        <ele>259</ele>
        <time>2011-07-07T14:39:29Z</time>
      </trkpt>
      <trkpt lat="45.2809" lon="1.40307">
        <ele>262</ele>
        <time>2011-07-07T14:39:31Z</time>
      </trkpt>
      <trkpt lat="45.28096" lon="1.40306">
        <ele>259</ele>
        <time>2011-07-07T14:39:33Z</time>
      </trkpt>
      <trkpt lat="45.28101" lon="1.40305">
        <ele>259</ele>
        <time>2011-07-07T14:39:35Z</time>
      </trkpt>
      <trkpt lat="45.28106" lon="1.40304">
        <ele>257</ele>
        <time>2011-07-07T14:39:37Z</time>
      </trkpt>
      <trkpt lat="45.28111" lon="1.40304">
        <ele>259</ele>
        <time>2011-07-07T14:39:39Z</time>
      </trkpt>
      <trkpt lat="45.28116" lon="1.40303">
        <ele>260</ele>
        <time>2011-07-07T14:39:41Z</time>
      </trkpt>
      <trkpt lat="45.28121" lon="1.40302">
        <ele>261</ele>
        <time>2011-07-07T14:39:43Z</time>
      </trkpt>
      <trkpt lat="45.28126" lon="1.40302">
        <ele>262</ele>
        <time>2011-07-07T14:39:45Z</time>
      </trkpt>
      <trkpt lat="45.28131" lon="1.40302">
        <ele>258</ele>
        <time>2011-07-07T14:39:47Z</time>
      </trkpt>
      <trkpt lat="45.28137" lon="1.40302">
        <ele>260</ele>
        <time>2011-07-07T14:39:49Z</time>
      </trkpt>
      <trkpt lat="45.28143" lon="1.40303">
        <ele>261</ele>
        <time>2011-07-07T14:39:51Z</time>
      </trkpt>
      <trkpt lat="45.2815" lon="1.40304">
        <ele>259</ele>
        <time>2011-07-07T14:39:53Z</time>
      </trkpt>
      <trkpt lat="45.28158" lon="1.40306">
        <ele>264</ele>
        <time>2011-07-07T14:39:55Z</time>
      </trkpt>
      <trkpt lat="45.28165" lon="1.40308">
        <ele>264</ele>
        <time>2011-07-07T14:39:57Z</time>
      </trkpt>
      <trkpt lat="45.28172" lon="1.4031">
        <ele>265</ele>
        <time>2011-07-07T14:39:59Z</time>
      </trkpt>
      <trkpt lat="45.28179" lon="1.40312">
        <ele>263</ele>
        <time>2011-07-07T14:40:01Z</time>
      </trkpt>
      <trkpt lat="45.28186" lon="1.40314">
        <ele>264</ele>
        <time>2011-07-07T14:40:03Z</time>
      </trkpt>
      <trkpt lat="45.28193" lon="1.40317">
        <ele>265</ele>
        <time>2011-07-07T14:40:05Z</time>
      </trkpt>
      <trkpt lat="45.282" lon="1.40319">
        <ele>266</ele>
        <time>2011-07-07T14:40:07Z</time>
      </trkpt>
      <trkpt lat="45.28208" lon="1.4032">
        <ele>265</ele>
        <time>2011-07-07T14:40:09Z</time>
      </trkpt>
      <trkpt lat="45.28216" lon="1.40322">
        <ele>269</ele>
        <time>2011-07-07T14:40:11Z</time>
      </trkpt>
      <trkpt lat="45.28225" lon="1.40324">
        <ele>264</ele>
        <time>2011-07-07T14:40:13Z</time>
      </trkpt>
      <trkpt lat="45.28232" lon="1.40325">
        <ele>265</ele>
        <time>2011-07-07T14:40:15Z</time>
      </trkpt>
      <trkpt lat="45.28239" lon="1.40325">
        <ele>263</ele>
        <time>2011-07-07T14:40:17Z</time>
      </trkpt>
      <trkpt lat="45.28247" lon="1.40326">
        <ele>264</ele>
        <time>2011-07-07T14:40:19Z</time>
      </trkpt>
      <trkpt lat="45.28254" lon="1.40326">
        <ele>264</ele>
        <time>2011-07-07T14:40:21Z</time>
      </trkpt>
      <trkpt lat="45.28262" lon="1.40327">
        <ele>263</ele>
        <time>2011-07-07T14:40:23Z</time>
      </trkpt>
      <trkpt lat="45.28268" lon="1.40327">
        <ele>262</ele>
        <time>2011-07-07T14:40:25Z</time>
      </trkpt>
      <trkpt lat="45.28275" lon="1.40328">
        <ele>264</ele>
        <time>2011-07-07T14:40:27Z</time>
      </trkpt>
      <trkpt lat="45.28283" lon="1.4033">
        <ele>266</ele>
        <time>2011-07-07T14:40:29Z</time>
      </trkpt>
      <trkpt lat="45.2829" lon="1.40331">
        <ele>268</ele>
        <time>2011-07-07T14:40:31Z</time>
      </trkpt>
      <trkpt lat="45.28298" lon="1.40332">
        <ele>270</ele>
        <time>2011-07-07T14:40:33Z</time>
      </trkpt>
      <trkpt lat="45.28307" lon="1.40334">
        <ele>271</ele>
        <time>2011-07-07T14:40:35Z</time>
      </trkpt>
      <trkpt lat="45.28312" lon="1.40334">
        <ele>272</ele>
        <time>2011-07-07T14:40:36Z</time>
      </trkpt>
      <trkpt lat="45.28316" lon="1.40336">
        <ele>272</ele>
        <time>2011-07-07T14:40:37Z</time>
      </trkpt>
      <trkpt lat="45.28321" lon="1.40336">
        <ele>273</ele>
        <time>2011-07-07T14:40:38Z</time>
      </trkpt>
      <trkpt lat="45.28326" lon="1.40337">
        <ele>273</ele>
        <time>2011-07-07T14:40:39Z</time>
      </trkpt>
      <trkpt lat="45.28331" lon="1.40338">
        <ele>275</ele>
        <time>2011-07-07T14:40:40Z</time>
      </trkpt>
      <trkpt lat="45.28337" lon="1.40339">
        <ele>276</ele>
        <time>2011-07-07T14:40:41Z</time>
      </trkpt>
      <trkpt lat="45.28343" lon="1.4034">
        <ele>274</ele>
        <time>2011-07-07T14:40:42Z</time>
      </trkpt>
      <trkpt lat="45.2835" lon="1.40341">
        <ele>272</ele>
        <time>2011-07-07T14:40:43Z</time>
      </trkpt>
      <trkpt lat="45.28355" lon="1.40342">
        <ele>274</ele>
        <time>2011-07-07T14:40:44Z</time>
      </trkpt>
      <trkpt lat="45.28362" lon="1.40342">
        <ele>269</ele>
        <time>2011-07-07T14:40:45Z</time>
      </trkpt>
      <trkpt lat="45.28367" lon="1.40343">
        <ele>269</ele>
        <time>2011-07-07T14:40:46Z</time>
      </trkpt>
      <trkpt lat="45.28373" lon="1.40343">
        <ele>267</ele>
        <time>2011-07-07T14:40:47Z</time>
      </trkpt>
      <trkpt lat="45.2838" lon="1.40342">
        <ele>261</ele>
        <time>2011-07-07T14:40:48Z</time>
      </trkpt>
      <trkpt lat="45.28387" lon="1.40341">
        <ele>258</ele>
        <time>2011-07-07T14:40:49Z</time>
      </trkpt>
      <trkpt lat="45.28394" lon="1.4034">
        <ele>260</ele>
        <time>2011-07-07T14:40:50Z</time>
      </trkpt>
      <trkpt lat="45.284" lon="1.40339">
        <ele>262</ele>
        <time>2011-07-07T14:40:51Z</time>
      </trkpt>
      <trkpt lat="45.28408" lon="1.40339">
        <ele>258</ele>
        <time>2011-07-07T14:40:52Z</time>
      </trkpt>
      <trkpt lat="45.28416" lon="1.40336">
        <ele>257</ele>
        <time>2011-07-07T14:40:53Z</time>
      </trkpt>
      <trkpt lat="45.28422" lon="1.40335">
        <ele>259</ele>
        <time>2011-07-07T14:40:54Z</time>
      </trkpt>
      <trkpt lat="45.28429" lon="1.40334">
        <ele>258</ele>
        <time>2011-07-07T14:40:55Z</time>
      </trkpt>
      <trkpt lat="45.28436" lon="1.40333">
        <ele>259</ele>
        <time>2011-07-07T14:40:56Z</time>
      </trkpt>
      <trkpt lat="45.28442" lon="1.40332">
        <ele>257</ele>
        <time>2011-07-07T14:40:57Z</time>
      </trkpt>
      <trkpt lat="45.28449" lon="1.40331">
        <ele>255</ele>
        <time>2011-07-07T14:40:58Z</time>
      </trkpt>
      <trkpt lat="45.28456" lon="1.4033">
        <ele>255</ele>
        <time>2011-07-07T14:40:59Z</time>
      </trkpt>
      <trkpt lat="45.28463" lon="1.40328">
        <ele>257</ele>
        <time>2011-07-07T14:41:00Z</time>
      </trkpt>
      <trkpt lat="45.2847" lon="1.40327">
        <ele>260</ele>
        <time>2011-07-07T14:41:01Z</time>
      </trkpt>
      <trkpt lat="45.28477" lon="1.40326">
        <ele>259</ele>
        <time>2011-07-07T14:41:02Z</time>
      </trkpt>
      <trkpt lat="45.28484" lon="1.40325">
        <ele>262</ele>
        <time>2011-07-07T14:41:03Z</time>
      </trkpt>
      <trkpt lat="45.28492" lon="1.40324">
        <ele>265</ele>
        <time>2011-07-07T14:41:04Z</time>
      </trkpt>
      <trkpt lat="45.28501" lon="1.40322">
        <ele>265</ele>
        <time>2011-07-07T14:41:05Z</time>
      </trkpt>
      <trkpt lat="45.28509" lon="1.40321">
        <ele>265</ele>
        <time>2011-07-07T14:41:06Z</time>
      </trkpt>
      <trkpt lat="45.28517" lon="1.4032">
        <ele>265</ele>
        <time>2011-07-07T14:41:07Z</time>
      </trkpt>
      <trkpt lat="45.28525" lon="1.40319">
        <ele>265</ele>
        <time>2011-07-07T14:41:08Z</time>
      </trkpt>
      <trkpt lat="45.28533" lon="1.40318">
        <ele>265</ele>
        <time>2011-07-07T14:41:09Z</time>
      </trkpt>
      <trkpt lat="45.28542" lon="1.40316">
        <ele>265</ele>
        <time>2011-07-07T14:41:10Z</time>
      </trkpt>
      <trkpt lat="45.2855" lon="1.40315">
        <ele>262</ele>
        <time>2011-07-07T14:41:11Z</time>
      </trkpt>
      <trkpt lat="45.28558" lon="1.40314">
        <ele>263</ele>
        <time>2011-07-07T14:41:12Z</time>
      </trkpt>
      <trkpt lat="45.28568" lon="1.40312">
        <ele>262</ele>
        <time>2011-07-07T14:41:13Z</time>
      </trkpt>
      <trkpt lat="45.28577" lon="1.40312">
        <ele>259</ele>
        <time>2011-07-07T14:41:14Z</time>
      </trkpt>
      <trkpt lat="45.28584" lon="1.40312">
        <ele>259</ele>
        <time>2011-07-07T14:41:15Z</time>
      </trkpt>
      <trkpt lat="45.28592" lon="1.40312">
        <ele>257</ele>
        <time>2011-07-07T14:41:16Z</time>
      </trkpt>
      <trkpt lat="45.28599" lon="1.40312">
        <ele>255</ele>
        <time>2011-07-07T14:41:17Z</time>
      </trkpt>
      <trkpt lat="45.28606" lon="1.40312">
        <ele>254</ele>
        <time>2011-07-07T14:41:18Z</time>
      </trkpt>
      <trkpt lat="45.28612" lon="1.40313">
        <ele>253</ele>
        <time>2011-07-07T14:41:19Z</time>
      </trkpt>
      <trkpt lat="45.28619" lon="1.40313">
        <ele>257</ele>
        <time>2011-07-07T14:41:20Z</time>
      </trkpt>
      <trkpt lat="45.28625" lon="1.40313">
        <ele>258</ele>
        <time>2011-07-07T14:41:21Z</time>
      </trkpt>
      <trkpt lat="45.2863" lon="1.40313">
        <ele>259</ele>
        <time>2011-07-07T14:41:22Z</time>
      </trkpt>
      <trkpt lat="45.28637" lon="1.40313">
        <ele>258</ele>
        <time>2011-07-07T14:41:23Z</time>
      </trkpt>
      <trkpt lat="45.28642" lon="1.40312">
        <ele>259</ele>
        <time>2011-07-07T14:41:24Z</time>
      </trkpt>
      <trkpt lat="45.28647" lon="1.40312">
        <ele>259</ele>
        <time>2011-07-07T14:41:25Z</time>
      </trkpt>
      <trkpt lat="45.28652" lon="1.40311">
        <ele>260</ele>
        <time>2011-07-07T14:41:26Z</time>
      </trkpt>
      <trkpt lat="45.28656" lon="1.4031">
        <ele>261</ele>
        <time>2011-07-07T14:41:27Z</time>
      </trkpt>
      <trkpt lat="45.28665" lon="1.40308">
        <ele>261</ele>
        <time>2011-07-07T14:41:29Z</time>
      </trkpt>
      <trkpt lat="45.28673" lon="1.40309">
        <ele>260</ele>
        <time>2011-07-07T14:41:31Z</time>
      </trkpt>
      <trkpt lat="45.2868" lon="1.40306">
        <ele>263</ele>
        <time>2011-07-07T14:41:33Z</time>
      </trkpt>
      <trkpt lat="45.28685" lon="1.40306">
        <ele>261</ele>
        <time>2011-07-07T14:41:34Z</time>
      </trkpt>
      <trkpt lat="45.28692" lon="1.40306">
        <ele>260</ele>
        <time>2011-07-07T14:41:36Z</time>
      </trkpt>
      <trkpt lat="45.28699" lon="1.40305">
        <ele>264</ele>
        <time>2011-07-07T14:41:38Z</time>
      </trkpt>
      <trkpt lat="45.28706" lon="1.40303">
        <ele>264</ele>
        <time>2011-07-07T14:41:40Z</time>
      </trkpt>
      <trkpt lat="45.28714" lon="1.40301">
        <ele>265</ele>
        <time>2011-07-07T14:41:42Z</time>
      </trkpt>
      <trkpt lat="45.28721" lon="1.40301">
        <ele>263</ele>
        <time>2011-07-07T14:41:44Z</time>
      </trkpt>
      <trkpt lat="45.2873" lon="1.40294">
        <ele>267</ele>
        <time>2011-07-07T14:41:46Z</time>
      </trkpt>
      <trkpt lat="45.28733" lon="1.40288">
        <ele>268</ele>
        <time>2011-07-07T14:41:47Z</time>
      </trkpt>
      <trkpt lat="45.28737" lon="1.4028">
        <ele>267</ele>
        <time>2011-07-07T14:41:48Z</time>
      </trkpt>
      <trkpt lat="45.28741" lon="1.40275">
        <ele>264</ele>
        <time>2011-07-07T14:41:49Z</time>
      </trkpt>
      <trkpt lat="45.28744" lon="1.40271">
        <ele>266</ele>
        <time>2011-07-07T14:41:50Z</time>
      </trkpt>
      <trkpt lat="45.28748" lon="1.40266">
        <ele>266</ele>
        <time>2011-07-07T14:41:51Z</time>
      </trkpt>
      <trkpt lat="45.28753" lon="1.40261">
        <ele>266</ele>
        <time>2011-07-07T14:41:52Z</time>
      </trkpt>
      <trkpt lat="45.28757" lon="1.40256">
        <ele>265</ele>
        <time>2011-07-07T14:41:53Z</time>
      </trkpt>
      <trkpt lat="45.2876" lon="1.4025">
        <ele>265</ele>
        <time>2011-07-07T14:41:54Z</time>
      </trkpt>
      <trkpt lat="45.28763" lon="1.40245">
        <ele>265</ele>
        <time>2011-07-07T14:41:55Z</time>
      </trkpt>
      <trkpt lat="45.28766" lon="1.4024">
        <ele>263</ele>
        <time>2011-07-07T14:41:56Z</time>
      </trkpt>
      <trkpt lat="45.2877" lon="1.40235">
        <ele>262</ele>
        <time>2011-07-07T14:41:57Z</time>
      </trkpt>
      <trkpt lat="45.28777" lon="1.40231">
        <ele>263</ele>
        <time>2011-07-07T14:41:59Z</time>
      </trkpt>
      <trkpt lat="45.28782" lon="1.40228">
        <ele>258</ele>
        <time>2011-07-07T14:42:00Z</time>
      </trkpt>
      <trkpt lat="45.28786" lon="1.40226">
        <ele>261</ele>
        <time>2011-07-07T14:42:01Z</time>
      </trkpt>
      <trkpt lat="45.28792" lon="1.40224">
        <ele>262</ele>
        <time>2011-07-07T14:42:02Z</time>
      </trkpt>
      <trkpt lat="45.28798" lon="1.40222">
        <ele>263</ele>
        <time>2011-07-07T14:42:03Z</time>
      </trkpt>
      <trkpt lat="45.28804" lon="1.40219">
        <ele>264</ele>
        <time>2011-07-07T14:42:04Z</time>
      </trkpt>
      <trkpt lat="45.28811" lon="1.40215">
        <ele>263</ele>
        <time>2011-07-07T14:42:05Z</time>
      </trkpt>
      <trkpt lat="45.28817" lon="1.4021">
        <ele>260</ele>
        <time>2011-07-07T14:42:06Z</time>
      </trkpt>
      <trkpt lat="45.28824" lon="1.40205">
        <ele>258</ele>
        <time>2011-07-07T14:42:07Z</time>
      </trkpt>
      <trkpt lat="45.28831" lon="1.402">
        <ele>258</ele>
        <time>2011-07-07T14:42:08Z</time>
      </trkpt>
      <trkpt lat="45.28839" lon="1.40196">
        <ele>262</ele>
        <time>2011-07-07T14:42:09Z</time>
      </trkpt>
      <trkpt lat="45.28847" lon="1.40192">
        <ele>260</ele>
        <time>2011-07-07T14:42:10Z</time>
      </trkpt>
      <trkpt lat="45.28856" lon="1.40189">
        <ele>263</ele>
        <time>2011-07-07T14:42:11Z</time>
      </trkpt>
      <trkpt lat="45.28865" lon="1.40188">
        <ele>262</ele>
        <time>2011-07-07T14:42:12Z</time>
      </trkpt>
      <trkpt lat="45.28872" lon="1.40186">
        <ele>261</ele>
        <time>2011-07-07T14:42:13Z</time>
      </trkpt>
      <trkpt lat="45.28882" lon="1.40185">
        <ele>261</ele>
        <time>2011-07-07T14:42:14Z</time>
      </trkpt>
      <trkpt lat="45.28892" lon="1.40186">
        <ele>258</ele>
        <time>2011-07-07T14:42:15Z</time>
      </trkpt>
      <trkpt lat="45.28902" lon="1.40187">
        <ele>257</ele>
        <time>2011-07-07T14:42:16Z</time>
      </trkpt>
      <trkpt lat="45.28912" lon="1.40188">
        <ele>256</ele>
        <time>2011-07-07T14:42:17Z</time>
      </trkpt>
      <trkpt lat="45.28919" lon="1.40189">
        <ele>256</ele>
        <time>2011-07-07T14:42:18Z</time>
      </trkpt>
      <trkpt lat="45.28924" lon="1.40192">
        <ele>255</ele>
        <time>2011-07-07T14:42:19Z</time>
      </trkpt>
      <trkpt lat="45.2893" lon="1.40195">
        <ele>254</ele>
        <time>2011-07-07T14:42:20Z</time>
      </trkpt>
      <trkpt lat="45.28935" lon="1.402">
        <ele>256</ele>
        <time>2011-07-07T14:42:21Z</time>
      </trkpt>
      <trkpt lat="45.28941" lon="1.40204">
        <ele>254</ele>
        <time>2011-07-07T14:42:22Z</time>
      </trkpt>
      <trkpt lat="45.28948" lon="1.40206">
        <ele>251</ele>
        <time>2011-07-07T14:42:23Z</time>
      </trkpt>
      <trkpt lat="45.28954" lon="1.40209">
        <ele>249</ele>
        <time>2011-07-07T14:42:24Z</time>
      </trkpt>
      <trkpt lat="45.2896" lon="1.40211">
        <ele>249</ele>
        <time>2011-07-07T14:42:25Z</time>
      </trkpt>
      <trkpt lat="45.28966" lon="1.40212">
        <ele>248</ele>
        <time>2011-07-07T14:42:26Z</time>
      </trkpt>
      <trkpt lat="45.28972" lon="1.40212">
        <ele>246</ele>
        <time>2011-07-07T14:42:27Z</time>
      </trkpt>
      <trkpt lat="45.2898" lon="1.40212">
        <ele>245</ele>
        <time>2011-07-07T14:42:28Z</time>
      </trkpt>
      <trkpt lat="45.28987" lon="1.40215">
        <ele>244</ele>
        <time>2011-07-07T14:42:29Z</time>
      </trkpt>
      <trkpt lat="45.28994" lon="1.40219">
        <ele>245</ele>
        <time>2011-07-07T14:42:30Z</time>
      </trkpt>
      <trkpt lat="45.29002" lon="1.40224">
        <ele>244</ele>
        <time>2011-07-07T14:42:31Z</time>
      </trkpt>
      <trkpt lat="45.2901" lon="1.40229">
        <ele>239</ele>
        <time>2011-07-07T14:42:32Z</time>
      </trkpt>
      <trkpt lat="45.2902" lon="1.40229">
        <ele>239</ele>
        <time>2011-07-07T14:42:33Z</time>
      </trkpt>
      <trkpt lat="45.29029" lon="1.40228">
        <ele>239</ele>
        <time>2011-07-07T14:42:34Z</time>
      </trkpt>
      <trkpt lat="45.29038" lon="1.40228">
        <ele>237</ele>
        <time>2011-07-07T14:42:35Z</time>
      </trkpt>
      <trkpt lat="45.29047" lon="1.40226">
        <ele>238</ele>
        <time>2011-07-07T14:42:36Z</time>
      </trkpt>
      <trkpt lat="45.29056" lon="1.40224">
        <ele>235</ele>
        <time>2011-07-07T14:42:37Z</time>
      </trkpt>
      <trkpt lat="45.29064" lon="1.40222">
        <ele>234</ele>
        <time>2011-07-07T14:42:38Z</time>
      </trkpt>
      <trkpt lat="45.29073" lon="1.4022">
        <ele>234</ele>
        <time>2011-07-07T14:42:39Z</time>
      </trkpt>
      <trkpt lat="45.29082" lon="1.40218">
        <ele>236</ele>
        <time>2011-07-07T14:42:40Z</time>
      </trkpt>
      <trkpt lat="45.29092" lon="1.40216">
        <ele>237</ele>
        <time>2011-07-07T14:42:41Z</time>
      </trkpt>
      <trkpt lat="45.29101" lon="1.40215">
        <ele>238</ele>
        <time>2011-07-07T14:42:42Z</time>
      </trkpt>
      <trkpt lat="45.2911" lon="1.40213">
        <ele>235</ele>
        <time>2011-07-07T14:42:43Z</time>
      </trkpt>
      <trkpt lat="45.29118" lon="1.40211">
        <ele>234</ele>
        <time>2011-07-07T14:42:44Z</time>
      </trkpt>
      <trkpt lat="45.29127" lon="1.4021">
        <ele>235</ele>
        <time>2011-07-07T14:42:45Z</time>
      </trkpt>
      <trkpt lat="45.29136" lon="1.40209">
        <ele>234</ele>
        <time>2011-07-07T14:42:46Z</time>
      </trkpt>
      <trkpt lat="45.29144" lon="1.40209">
        <ele>235</ele>
        <time>2011-07-07T14:42:47Z</time>
      </trkpt>
      <trkpt lat="45.29153" lon="1.40208">
        <ele>228</ele>
        <time>2011-07-07T14:42:48Z</time>
      </trkpt>
      <trkpt lat="45.29162" lon="1.40207">
        <ele>229</ele>
        <time>2011-07-07T14:42:49Z</time>
      </trkpt>
      <trkpt lat="45.2917" lon="1.40206">
        <ele>228</ele>
        <time>2011-07-07T14:42:50Z</time>
      </trkpt>
      <trkpt lat="45.29178" lon="1.40205">
        <ele>228</ele>
        <time>2011-07-07T14:42:51Z</time>
      </trkpt>
      <trkpt lat="45.29185" lon="1.40204">
        <ele>225</ele>
        <time>2011-07-07T14:42:52Z</time>
      </trkpt>
      <trkpt lat="45.29192" lon="1.40203">
        <ele>227</ele>
        <time>2011-07-07T14:42:53Z</time>
      </trkpt>
      <trkpt lat="45.29198" lon="1.40202">
        <ele>228</ele>
        <time>2011-07-07T14:42:54Z</time>
      </trkpt>
      <trkpt lat="45.29205" lon="1.40202">
        <ele>229</ele>
        <time>2011-07-07T14:42:55Z</time>
      </trkpt>
      <trkpt lat="45.29212" lon="1.40201">
        <ele>229</ele>
        <time>2011-07-07T14:42:56Z</time>
      </trkpt>
      <trkpt lat="45.2922" lon="1.402">
        <ele>230</ele>
        <time>2011-07-07T14:42:57Z</time>
      </trkpt>
      <trkpt lat="45.29227" lon="1.40199">
        <ele>230</ele>
        <time>2011-07-07T14:42:58Z</time>
      </trkpt>
      <trkpt lat="45.29234" lon="1.40199">
        <ele>232</ele>
        <time>2011-07-07T14:42:59Z</time>
      </trkpt>
      <trkpt lat="45.2924" lon="1.40198">
        <ele>232</ele>
        <time>2011-07-07T14:43:00Z</time>
      </trkpt>
      <trkpt lat="45.29247" lon="1.40198">
        <ele>232</ele>
        <time>2011-07-07T14:43:01Z</time>
      </trkpt>
      <trkpt lat="45.29253" lon="1.40197">
        <ele>233</ele>
        <time>2011-07-07T14:43:02Z</time>
      </trkpt>
      <trkpt lat="45.29258" lon="1.40197">
        <ele>234</ele>
        <time>2011-07-07T14:43:03Z</time>
      </trkpt>
      <trkpt lat="45.29264" lon="1.40198">
        <ele>234</ele>
        <time>2011-07-07T14:43:04Z</time>
      </trkpt>
      <trkpt lat="45.29269" lon="1.40198">
        <ele>234</ele>
        <time>2011-07-07T14:43:05Z</time>
      </trkpt>
      <trkpt lat="45.29275" lon="1.40198">
        <ele>234</ele>
        <time>2011-07-07T14:43:06Z</time>
      </trkpt>
      <trkpt lat="45.2928" lon="1.40198">
        <ele>235</ele>
        <time>2011-07-07T14:43:07Z</time>
      </trkpt>
      <trkpt lat="45.29285" lon="1.40197">
        <ele>235</ele>
        <time>2011-07-07T14:43:08Z</time>
      </trkpt>
      <trkpt lat="45.2929" lon="1.40197">
        <ele>234</ele>
        <time>2011-07-07T14:43:09Z</time>
      </trkpt>
      <trkpt lat="45.29295" lon="1.40196">
        <ele>233</ele>
        <time>2011-07-07T14:43:10Z</time>
      </trkpt>
      <trkpt lat="45.29299" lon="1.40196">
        <ele>234</ele>
        <time>2011-07-07T14:43:11Z</time>
      </trkpt>
      <trkpt lat="45.29308" lon="1.40196">
        <ele>230</ele>
        <time>2011-07-07T14:43:13Z</time>
      </trkpt>
      <trkpt lat="45.29317" lon="1.40195">
        <ele>231</ele>
        <time>2011-07-07T14:43:15Z</time>
      </trkpt>
      <trkpt lat="45.29322" lon="1.40195">
        <ele>231</ele>
        <time>2011-07-07T14:43:16Z</time>
      </trkpt>
      <trkpt lat="45.29327" lon="1.40196">
        <ele>230</ele>
        <time>2011-07-07T14:43:17Z</time>
      </trkpt>
      <trkpt lat="45.29332" lon="1.40196">
        <ele>232</ele>
        <time>2011-07-07T14:43:18Z</time>
      </trkpt>
      <trkpt lat="45.29336" lon="1.40197">
        <ele>229</ele>
        <time>2011-07-07T14:43:19Z</time>
      </trkpt>
      <trkpt lat="45.29341" lon="1.40197">
        <ele>231</ele>
        <time>2011-07-07T14:43:20Z</time>
      </trkpt>
      <trkpt lat="45.29345" lon="1.40199">
        <ele>230</ele>
        <time>2011-07-07T14:43:21Z</time>
      </trkpt>
      <trkpt lat="45.29347" lon="1.40208">
        <ele>230</ele>
        <time>2011-07-07T14:43:23Z</time>
      </trkpt>
      <trkpt lat="45.29344" lon="1.40217">
        <ele>235</ele>
        <time>2011-07-07T14:43:25Z</time>
      </trkpt>
      <trkpt lat="45.29341" lon="1.40223">
        <ele>233</ele>
        <time>2011-07-07T14:43:26Z</time>
      </trkpt>
      <trkpt lat="45.29342" lon="1.4023">
        <ele>236</ele>
        <time>2011-07-07T14:43:27Z</time>
      </trkpt>
      <trkpt lat="45.29344" lon="1.40237">
        <ele>235</ele>
        <time>2011-07-07T14:43:28Z</time>
      </trkpt>
      <trkpt lat="45.29348" lon="1.40243">
        <ele>235</ele>
        <time>2011-07-07T14:43:29Z</time>
      </trkpt>
      <trkpt lat="45.29356" lon="1.40248">
        <ele>231</ele>
        <time>2011-07-07T14:43:31Z</time>
      </trkpt>
      <trkpt lat="45.29362" lon="1.4025">
        <ele>232</ele>
        <time>2011-07-07T14:43:32Z</time>
      </trkpt>
      <trkpt lat="45.29368" lon="1.4025">
        <ele>234</ele>
        <time>2011-07-07T14:43:33Z</time>
      </trkpt>
      <trkpt lat="45.29376" lon="1.40251">
        <ele>234</ele>
        <time>2011-07-07T14:43:34Z</time>
      </trkpt>
      <trkpt lat="45.29382" lon="1.40252">
        <ele>233</ele>
        <time>2011-07-07T14:43:35Z</time>
      </trkpt>
      <trkpt lat="45.29389" lon="1.40253">
        <ele>229</ele>
        <time>2011-07-07T14:43:36Z</time>
      </trkpt>
      <trkpt lat="45.29395" lon="1.40253">
        <ele>229</ele>
        <time>2011-07-07T14:43:37Z</time>
      </trkpt>
      <trkpt lat="45.294" lon="1.40253">
        <ele>230</ele>
        <time>2011-07-07T14:43:38Z</time>
      </trkpt>
      <trkpt lat="45.29406" lon="1.40253">
        <ele>230</ele>
        <time>2011-07-07T14:43:39Z</time>
      </trkpt>
      <trkpt lat="45.29411" lon="1.40253">
        <ele>230</ele>
        <time>2011-07-07T14:43:40Z</time>
      </trkpt>
      <trkpt lat="45.29416" lon="1.40252">
        <ele>231</ele>
        <time>2011-07-07T14:43:41Z</time>
      </trkpt>
      <trkpt lat="45.29423" lon="1.40252">
        <ele>231</ele>
        <time>2011-07-07T14:43:43Z</time>
      </trkpt>
      <trkpt lat="45.2943" lon="1.40251">
        <ele>232</ele>
        <time>2011-07-07T14:43:45Z</time>
      </trkpt>
      <trkpt lat="45.29437" lon="1.40249">
        <ele>233</ele>
        <time>2011-07-07T14:43:47Z</time>
      </trkpt>
      <trkpt lat="45.29443" lon="1.40248">
        <ele>232</ele>
        <time>2011-07-07T14:43:49Z</time>
      </trkpt>
      <trkpt lat="45.29447" lon="1.40247">
        <ele>231</ele>
        <time>2011-07-07T14:43:51Z</time>
      </trkpt>
      <trkpt lat="45.29454" lon="1.40246">
        <ele>228</ele>
        <time>2011-07-07T14:43:54Z</time>
      </trkpt>
      <trkpt lat="45.29459" lon="1.40246">
        <ele>231</ele>
        <time>2011-07-07T14:43:57Z</time>
      </trkpt>
      <trkpt lat="45.29464" lon="1.40247">
        <ele>234</ele>
        <time>2011-07-07T14:44:00Z</time>
      </trkpt>
      <trkpt lat="45.29471" lon="1.40249">
        <ele>231</ele>
        <time>2011-07-07T14:44:03Z</time>
      </trkpt>
      <trkpt lat="45.29475" lon="1.4025">
        <ele>233</ele>
        <time>2011-07-07T14:44:05Z</time>
      </trkpt>
      <trkpt lat="45.29481" lon="1.40253">
        <ele>238</ele>
        <time>2011-07-07T14:44:08Z</time>
      </trkpt>
      <trkpt lat="45.29487" lon="1.40255">
        <ele>241</ele>
        <time>2011-07-07T14:44:11Z</time>
      </trkpt>
      <trkpt lat="45.29493" lon="1.40257">
        <ele>243</ele>
        <time>2011-07-07T14:44:14Z</time>
      </trkpt>
      <trkpt lat="45.29497" lon="1.40258">
        <ele>244</ele>
        <time>2011-07-07T14:44:16Z</time>
      </trkpt>
      <trkpt lat="45.29503" lon="1.40261">
        <ele>246</ele>
        <time>2011-07-07T14:44:19Z</time>
      </trkpt>
      <trkpt lat="45.29508" lon="1.40265">
        <ele>244</ele>
        <time>2011-07-07T14:44:21Z</time>
      </trkpt>
      <trkpt lat="45.29513" lon="1.40269">
        <ele>243</ele>
        <time>2011-07-07T14:44:23Z</time>
      </trkpt>
      <trkpt lat="45.29518" lon="1.40272">
        <ele>244</ele>
        <time>2011-07-07T14:44:26Z</time>
      </trkpt>
      <trkpt lat="45.29522" lon="1.40275">
        <ele>244</ele>
        <time>2011-07-07T14:44:28Z</time>
      </trkpt>
      <trkpt lat="45.29527" lon="1.40277">
        <ele>244</ele>
        <time>2011-07-07T14:44:30Z</time>
      </trkpt>
      <trkpt lat="45.29532" lon="1.4028">
        <ele>245</ele>
        <time>2011-07-07T14:44:32Z</time>
      </trkpt>
      <trkpt lat="45.29536" lon="1.40283">
        <ele>247</ele>
        <time>2011-07-07T14:44:34Z</time>
      </trkpt>
      <trkpt lat="45.29542" lon="1.40287">
        <ele>246</ele>
        <time>2011-07-07T14:44:37Z</time>
      </trkpt>
      <trkpt lat="45.29546" lon="1.4029">
        <ele>244</ele>
        <time>2011-07-07T14:44:39Z</time>
      </trkpt>
      <trkpt lat="45.29551" lon="1.40294">
        <ele>247</ele>
        <time>2011-07-07T14:44:42Z</time>
      </trkpt>
      <trkpt lat="45.29556" lon="1.40298">
        <ele>252</ele>
        <time>2011-07-07T14:44:45Z</time>
      </trkpt>
      <trkpt lat="45.29561" lon="1.40304">
        <ele>251</ele>
        <time>2011-07-07T14:44:48Z</time>
      </trkpt>
      <trkpt lat="45.29566" lon="1.40307">
        <ele>248</ele>
        <time>2011-07-07T14:44:50Z</time>
      </trkpt>
      <trkpt lat="45.2957" lon="1.4031">
        <ele>252</ele>
        <time>2011-07-07T14:44:53Z</time>
      </trkpt>
      <trkpt lat="45.29576" lon="1.40314">
        <ele>255</ele>
        <time>2011-07-07T14:44:56Z</time>
      </trkpt>
      <trkpt lat="45.2958" lon="1.40319">
        <ele>254</ele>
        <time>2011-07-07T14:44:59Z</time>
      </trkpt>
      <trkpt lat="45.29583" lon="1.40325">
        <ele>256</ele>
        <time>2011-07-07T14:45:01Z</time>
      </trkpt>
      <trkpt lat="45.29583" lon="1.40336">
        <ele>253</ele>
        <time>2011-07-07T14:45:03Z</time>
      </trkpt>
      <trkpt lat="45.29583" lon="1.40343">
        <ele>252</ele>
        <time>2011-07-07T14:45:04Z</time>
      </trkpt>
      <trkpt lat="45.29583" lon="1.40349">
        <ele>253</ele>
        <time>2011-07-07T14:45:05Z</time>
      </trkpt>
      <trkpt lat="45.29582" lon="1.40356">
        <ele>252</ele>
        <time>2011-07-07T14:45:06Z</time>
      </trkpt>
      <trkpt lat="45.29579" lon="1.40368">
        <ele>251</ele>
        <time>2011-07-07T14:45:08Z</time>
      </trkpt>
      <trkpt lat="45.29577" lon="1.40377">
        <ele>252</ele>
        <time>2011-07-07T14:45:09Z</time>
      </trkpt>
      <trkpt lat="45.29575" lon="1.40387">
        <ele>251</ele>
        <time>2011-07-07T14:45:10Z</time>
      </trkpt>
      <trkpt lat="45.29574" lon="1.40396">
        <ele>248</ele>
        <time>2011-07-07T14:45:11Z</time>
      </trkpt>
      <trkpt lat="45.29574" lon="1.40406">
        <ele>249</ele>
        <time>2011-07-07T14:45:12Z</time>
      </trkpt>
      <trkpt lat="45.29574" lon="1.40415">
        <ele>252</ele>
        <time>2011-07-07T14:45:13Z</time>
      </trkpt>
      <trkpt lat="45.29574" lon="1.40423">
        <ele>254</ele>
        <time>2011-07-07T14:45:14Z</time>
      </trkpt>
      <trkpt lat="45.29574" lon="1.40431">
        <ele>256</ele>
        <time>2011-07-07T14:45:15Z</time>
      </trkpt>
      <trkpt lat="45.29574" lon="1.40438">
        <ele>256</ele>
        <time>2011-07-07T14:45:16Z</time>
      </trkpt>
      <trkpt lat="45.29573" lon="1.40446">
        <ele>253</ele>
        <time>2011-07-07T14:45:17Z</time>
      </trkpt>
      <trkpt lat="45.29573" lon="1.40454">
        <ele>250</ele>
        <time>2011-07-07T14:45:18Z</time>
      </trkpt>
      <trkpt lat="45.29572" lon="1.40464">
        <ele>249</ele>
        <time>2011-07-07T14:45:19Z</time>
      </trkpt>
      <trkpt lat="45.29572" lon="1.40473">
        <ele>250</ele>
        <time>2011-07-07T14:45:20Z</time>
      </trkpt>
      <trkpt lat="45.29571" lon="1.40482">
        <ele>250</ele>
        <time>2011-07-07T14:45:21Z</time>
      </trkpt>
      <trkpt lat="45.2957" lon="1.40492">
        <ele>250</ele>
        <time>2011-07-07T14:45:22Z</time>
      </trkpt>
      <trkpt lat="45.29569" lon="1.40501">
        <ele>249</ele>
        <time>2011-07-07T14:45:23Z</time>
      </trkpt>
      <trkpt lat="45.29568" lon="1.4051">
        <ele>251</ele>
        <time>2011-07-07T14:45:24Z</time>
      </trkpt>
      <trkpt lat="45.29568" lon="1.40518">
        <ele>251</ele>
        <time>2011-07-07T14:45:25Z</time>
      </trkpt>
      <trkpt lat="45.29568" lon="1.40525">
        <ele>251</ele>
        <time>2011-07-07T14:45:26Z</time>
      </trkpt>
      <trkpt lat="45.29571" lon="1.40534">
        <ele>249</ele>
        <time>2011-07-07T14:45:28Z</time>
      </trkpt>
      <trkpt lat="45.29576" lon="1.40536">
        <ele>250</ele>
        <time>2011-07-07T14:45:30Z</time>
      </trkpt>
      <trkpt lat="45.29583" lon="1.40534">
        <ele>250</ele>
        <time>2011-07-07T14:45:32Z</time>
      </trkpt>
      <trkpt lat="45.29592" lon="1.40529">
        <ele>247</ele>
        <time>2011-07-07T14:45:34Z</time>
      </trkpt>
      <trkpt lat="45.29596" lon="1.40527">
        <ele>247</ele>
        <time>2011-07-07T14:45:35Z</time>
      </trkpt>
      <trkpt lat="45.29604" lon="1.40521">
        <ele>247</ele>
        <time>2011-07-07T14:45:37Z</time>
      </trkpt>
      <trkpt lat="45.2961" lon="1.40516">
        <ele>246</ele>
        <time>2011-07-07T14:45:39Z</time>
      </trkpt>
      <trkpt lat="45.29617" lon="1.40512">
        <ele>246</ele>
        <time>2011-07-07T14:45:41Z</time>
      </trkpt>
      <trkpt lat="45.29625" lon="1.40508">
        <ele>245</ele>
        <time>2011-07-07T14:45:43Z</time>
      </trkpt>
      <trkpt lat="45.29632" lon="1.40503">
        <ele>245</ele>
        <time>2011-07-07T14:45:45Z</time>
      </trkpt>
      <trkpt lat="45.29639" lon="1.40498">
        <ele>247</ele>
        <time>2011-07-07T14:45:47Z</time>
      </trkpt>
      <trkpt lat="45.29647" lon="1.40494">
        <ele>249</ele>
        <time>2011-07-07T14:45:49Z</time>
      </trkpt>
      <trkpt lat="45.29655" lon="1.4049">
        <ele>251</ele>
        <time>2011-07-07T14:45:51Z</time>
      </trkpt>
      <trkpt lat="45.29662" lon="1.40486">
        <ele>249</ele>
        <time>2011-07-07T14:45:53Z</time>
      </trkpt>
      <trkpt lat="45.2967" lon="1.40483">
        <ele>249</ele>
        <time>2011-07-07T14:45:55Z</time>
      </trkpt>
      <trkpt lat="45.29677" lon="1.4048">
        <ele>250</ele>
        <time>2011-07-07T14:45:57Z</time>
      </trkpt>
      <trkpt lat="45.29684" lon="1.40477">
        <ele>246</ele>
        <time>2011-07-07T14:45:59Z</time>
      </trkpt>
      <trkpt lat="45.29691" lon="1.40473">
        <ele>247</ele>
        <time>2011-07-07T14:46:01Z</time>
      </trkpt>
      <trkpt lat="45.29699" lon="1.4047">
        <ele>245</ele>
        <time>2011-07-07T14:46:03Z</time>
      </trkpt>
      <trkpt lat="45.29707" lon="1.40466">
        <ele>246</ele>
        <time>2011-07-07T14:46:05Z</time>
      </trkpt>
      <trkpt lat="45.29715" lon="1.40462">
        <ele>248</ele>
        <time>2011-07-07T14:46:07Z</time>
      </trkpt>
      <trkpt lat="45.29719" lon="1.4046">
        <ele>251</ele>
        <time>2011-07-07T14:46:08Z</time>
      </trkpt>
      <trkpt lat="45.29727" lon="1.40457">
        <ele>249</ele>
        <time>2011-07-07T14:46:10Z</time>
      </trkpt>
      <trkpt lat="45.29735" lon="1.40453">
        <ele>247</ele>
        <time>2011-07-07T14:46:12Z</time>
      </trkpt>
      <trkpt lat="45.29742" lon="1.4045">
        <ele>250</ele>
        <time>2011-07-07T14:46:14Z</time>
      </trkpt>
      <trkpt lat="45.29747" lon="1.40448">
        <ele>252</ele>
        <time>2011-07-07T14:46:15Z</time>
      </trkpt>
      <trkpt lat="45.29751" lon="1.40446">
        <ele>252</ele>
        <time>2011-07-07T14:46:16Z</time>
      </trkpt>
      <trkpt lat="45.29756" lon="1.40444">
        <ele>252</ele>
        <time>2011-07-07T14:46:17Z</time>
      </trkpt>
      <trkpt lat="45.29761" lon="1.40442">
        <ele>254</ele>
        <time>2011-07-07T14:46:18Z</time>
      </trkpt>
      <trkpt lat="45.29769" lon="1.4044">
        <ele>252</ele>
        <time>2011-07-07T14:46:20Z</time>
      </trkpt>
      <trkpt lat="45.29774" lon="1.40439">
        <ele>256</ele>
        <time>2011-07-07T14:46:21Z</time>
      </trkpt>
      <trkpt lat="45.29778" lon="1.40434">
        <ele>260</ele>
        <time>2011-07-07T14:46:22Z</time>
      </trkpt>
      <trkpt lat="45.29779" lon="1.40424">
        <ele>261</ele>
        <time>2011-07-07T14:46:24Z</time>
      </trkpt>
      <trkpt lat="45.29779" lon="1.40417">
        <ele>259</ele>
        <time>2011-07-07T14:46:25Z</time>
      </trkpt>
      <trkpt lat="45.29777" lon="1.40411">
        <ele>259</ele>
        <time>2011-07-07T14:46:26Z</time>
      </trkpt>
      <trkpt lat="45.29776" lon="1.40403">
        <ele>257</ele>
        <time>2011-07-07T14:46:27Z</time>
      </trkpt>
      <trkpt lat="45.29774" lon="1.40396">
        <ele>257</ele>
        <time>2011-07-07T14:46:28Z</time>
      </trkpt>
      <trkpt lat="45.29772" lon="1.40389">
        <ele>255</ele>
        <time>2011-07-07T14:46:29Z</time>
      </trkpt>
      <trkpt lat="45.29771" lon="1.40383">
        <ele>256</ele>
        <time>2011-07-07T14:46:30Z</time>
      </trkpt>
      <trkpt lat="45.29777" lon="1.40374">
        <ele>256</ele>
        <time>2011-07-07T14:46:32Z</time>
      </trkpt>
      <trkpt lat="45.29781" lon="1.4037">
        <ele>254</ele>
        <time>2011-07-07T14:46:33Z</time>
      </trkpt>
      <trkpt lat="45.29788" lon="1.40368">
        <ele>253</ele>
        <time>2011-07-07T14:46:34Z</time>
      </trkpt>
      <trkpt lat="45.29795" lon="1.40371">
        <ele>255</ele>
        <time>2011-07-07T14:46:35Z</time>
      </trkpt>
      <trkpt lat="45.29802" lon="1.40375">
        <ele>254</ele>
        <time>2011-07-07T14:46:36Z</time>
      </trkpt>
      <trkpt lat="45.29809" lon="1.40379">
        <ele>251</ele>
        <time>2011-07-07T14:46:37Z</time>
      </trkpt>
      <trkpt lat="45.29817" lon="1.40381">
        <ele>250</ele>
        <time>2011-07-07T14:46:38Z</time>
      </trkpt>
      <trkpt lat="45.29825" lon="1.40382">
        <ele>248</ele>
        <time>2011-07-07T14:46:39Z</time>
      </trkpt>
      <trkpt lat="45.29833" lon="1.40383">
        <ele>247</ele>
        <time>2011-07-07T14:46:40Z</time>
      </trkpt>
      <trkpt lat="45.29842" lon="1.40384">
        <ele>247</ele>
        <time>2011-07-07T14:46:41Z</time>
      </trkpt>
      <trkpt lat="45.29851" lon="1.40384">
        <ele>246</ele>
        <time>2011-07-07T14:46:42Z</time>
      </trkpt>
      <trkpt lat="45.29859" lon="1.40384">
        <ele>245</ele>
        <time>2011-07-07T14:46:43Z</time>
      </trkpt>
      <trkpt lat="45.29868" lon="1.40384">
        <ele>245</ele>
        <time>2011-07-07T14:46:44Z</time>
      </trkpt>
      <trkpt lat="45.29877" lon="1.40384">
        <ele>245</ele>
        <time>2011-07-07T14:46:45Z</time>
      </trkpt>
      <trkpt lat="45.29886" lon="1.40385">
        <ele>245</ele>
        <time>2011-07-07T14:46:46Z</time>
      </trkpt>
      <trkpt lat="45.29895" lon="1.40385">
        <ele>244</ele>
        <time>2011-07-07T14:46:47Z</time>
      </trkpt>
      <trkpt lat="45.29904" lon="1.40385">
        <ele>244</ele>
        <time>2011-07-07T14:46:48Z</time>
      </trkpt>
      <trkpt lat="45.29914" lon="1.40386">
        <ele>245</ele>
        <time>2011-07-07T14:46:49Z</time>
      </trkpt>
      <trkpt lat="45.29923" lon="1.40386">
        <ele>241</ele>
        <time>2011-07-07T14:46:50Z</time>
      </trkpt>
      <trkpt lat="45.29931" lon="1.40384">
        <ele>242</ele>
        <time>2011-07-07T14:46:51Z</time>
      </trkpt>
      <trkpt lat="45.29939" lon="1.40382">
        <ele>244</ele>
        <time>2011-07-07T14:46:52Z</time>
      </trkpt>
      <trkpt lat="45.29947" lon="1.4038">
        <ele>246</ele>
        <time>2011-07-07T14:46:53Z</time>
      </trkpt>
      <trkpt lat="45.29955" lon="1.40378">
        <ele>243</ele>
        <time>2011-07-07T14:46:54Z</time>
      </trkpt>
      <trkpt lat="45.29963" lon="1.40378">
        <ele>241</ele>
        <time>2011-07-07T14:46:55Z</time>
      </trkpt>
      <trkpt lat="45.29969" lon="1.40376">
        <ele>240</ele>
        <time>2011-07-07T14:46:56Z</time>
      </trkpt>
      <trkpt lat="45.29976" lon="1.40376">
        <ele>241</ele>
        <time>2011-07-07T14:46:57Z</time>
      </trkpt>
      <trkpt lat="45.29982" lon="1.40375">
        <ele>241</ele>
        <time>2011-07-07T14:46:58Z</time>
      </trkpt>
      <trkpt lat="45.29987" lon="1.40374">
        <ele>242</ele>
        <time>2011-07-07T14:46:59Z</time>
      </trkpt>
      <trkpt lat="45.29992" lon="1.40372">
        <ele>242</ele>
        <time>2011-07-07T14:47:00Z</time>
      </trkpt>
      <trkpt lat="45.29996" lon="1.40372">
        <ele>242</ele>
        <time>2011-07-07T14:47:01Z</time>
      </trkpt>
      <trkpt lat="45.30001" lon="1.40371">
        <ele>243</ele>
        <time>2011-07-07T14:47:02Z</time>
      </trkpt>
      <trkpt lat="45.3001" lon="1.4037">
        <ele>244</ele>
        <time>2011-07-07T14:47:04Z</time>
      </trkpt>
      <trkpt lat="45.30017" lon="1.40368">
        <ele>245</ele>
        <time>2011-07-07T14:47:06Z</time>
      </trkpt>
      <trkpt lat="45.30024" lon="1.40367">
        <ele>246</ele>
        <time>2011-07-07T14:47:08Z</time>
      </trkpt>
      <trkpt lat="45.30031" lon="1.40365">
        <ele>246</ele>
        <time>2011-07-07T14:47:10Z</time>
      </trkpt>
      <trkpt lat="45.30038" lon="1.40364">
        <ele>248</ele>
        <time>2011-07-07T14:47:12Z</time>
      </trkpt>
      <trkpt lat="45.30046" lon="1.40363">
        <ele>249</ele>
        <time>2011-07-07T14:47:14Z</time>
      </trkpt>
      <trkpt lat="45.30052" lon="1.40361">
        <ele>251</ele>
        <time>2011-07-07T14:47:16Z</time>
      </trkpt>
      <trkpt lat="45.30059" lon="1.4036">
        <ele>251</ele>
        <time>2011-07-07T14:47:18Z</time>
      </trkpt>
      <trkpt lat="45.30065" lon="1.40358">
        <ele>251</ele>
        <time>2011-07-07T14:47:20Z</time>
      </trkpt>
      <trkpt lat="45.30072" lon="1.40356">
        <ele>250</ele>
        <time>2011-07-07T14:47:22Z</time>
      </trkpt>
      <trkpt lat="45.30079" lon="1.40354">
        <ele>251</ele>
        <time>2011-07-07T14:47:24Z</time>
      </trkpt>
      <trkpt lat="45.30086" lon="1.40352">
        <ele>252</ele>
        <time>2011-07-07T14:47:26Z</time>
      </trkpt>
      <trkpt lat="45.30093" lon="1.40349">
        <ele>251</ele>
        <time>2011-07-07T14:47:28Z</time>
      </trkpt>
      <trkpt lat="45.30101" lon="1.40348">
        <ele>250</ele>
        <time>2011-07-07T14:47:30Z</time>
      </trkpt>
      <trkpt lat="45.30109" lon="1.40346">
        <ele>250</ele>
        <time>2011-07-07T14:47:32Z</time>
      </trkpt>
      <trkpt lat="45.30117" lon="1.40344">
        <ele>250</ele>
        <time>2011-07-07T14:47:34Z</time>
      </trkpt>
      <trkpt lat="45.30125" lon="1.40342">
        <ele>250</ele>
        <time>2011-07-07T14:47:36Z</time>
      </trkpt>
      <trkpt lat="45.30134" lon="1.40339">
        <ele>251</ele>
        <time>2011-07-07T14:47:38Z</time>
      </trkpt>
      <trkpt lat="45.30142" lon="1.40336">
        <ele>251</ele>
        <time>2011-07-07T14:47:40Z</time>
      </trkpt>
      <trkpt lat="45.30146" lon="1.40335">
        <ele>250</ele>
        <time>2011-07-07T14:47:41Z</time>
      </trkpt>
      <trkpt lat="45.30151" lon="1.40334">
        <ele>249</ele>
        <time>2011-07-07T14:47:42Z</time>
      </trkpt>
      <trkpt lat="45.30159" lon="1.40331">
        <ele>250</ele>
        <time>2011-07-07T14:47:44Z</time>
      </trkpt>
      <trkpt lat="45.30167" lon="1.40328">
        <ele>250</ele>
        <time>2011-07-07T14:47:46Z</time>
      </trkpt>
      <trkpt lat="45.30176" lon="1.40325">
        <ele>251</ele>
        <time>2011-07-07T14:47:48Z</time>
      </trkpt>
      <trkpt lat="45.30184" lon="1.40322">
        <ele>251</ele>
        <time>2011-07-07T14:47:50Z</time>
      </trkpt>
      <trkpt lat="45.30189" lon="1.40321">
        <ele>251</ele>
        <time>2011-07-07T14:47:51Z</time>
      </trkpt>
      <trkpt lat="45.30193" lon="1.4032">
        <ele>251</ele>
        <time>2011-07-07T14:47:52Z</time>
      </trkpt>
      <trkpt lat="45.30198" lon="1.40318">
        <ele>251</ele>
        <time>2011-07-07T14:47:53Z</time>
      </trkpt>
      <trkpt lat="45.30203" lon="1.40317">
        <ele>251</ele>
        <time>2011-07-07T14:47:54Z</time>
      </trkpt>
      <trkpt lat="45.30207" lon="1.40315">
        <ele>251</ele>
        <time>2011-07-07T14:47:55Z</time>
      </trkpt>
      <trkpt lat="45.30212" lon="1.40314">
        <ele>251</ele>
        <time>2011-07-07T14:47:56Z</time>
      </trkpt>
      <trkpt lat="45.30216" lon="1.40312">
        <ele>251</ele>
        <time>2011-07-07T14:47:57Z</time>
      </trkpt>
      <trkpt lat="45.30221" lon="1.40311">
        <ele>251</ele>
        <time>2011-07-07T14:47:58Z</time>
      </trkpt>
      <trkpt lat="45.30226" lon="1.40309">
        <ele>252</ele>
        <time>2011-07-07T14:47:59Z</time>
      </trkpt>
      <trkpt lat="45.30231" lon="1.40308">
        <ele>252</ele>
        <time>2011-07-07T14:48:00Z</time>
      </trkpt>
      <trkpt lat="45.30236" lon="1.40306">
        <ele>252</ele>
        <time>2011-07-07T14:48:01Z</time>
      </trkpt>
      <trkpt lat="45.30241" lon="1.40305">
        <ele>252</ele>
        <time>2011-07-07T14:48:02Z</time>
      </trkpt>
      <trkpt lat="45.3025" lon="1.40302">
        <ele>253</ele>
        <time>2011-07-07T14:48:04Z</time>
      </trkpt>
      <trkpt lat="45.30254" lon="1.40301">
        <ele>254</ele>
        <time>2011-07-07T14:48:05Z</time>
      </trkpt>
      <trkpt lat="45.30262" lon="1.40298">
        <ele>255</ele>
        <time>2011-07-07T14:48:07Z</time>
      </trkpt>
      <trkpt lat="45.3027" lon="1.40296">
        <ele>255</ele>
        <time>2011-07-07T14:48:09Z</time>
      </trkpt>
      <trkpt lat="45.30276" lon="1.40295">
        <ele>254</ele>
        <time>2011-07-07T14:48:11Z</time>
      </trkpt>
      <trkpt lat="45.30282" lon="1.40294">
        <ele>256</ele>
        <time>2011-07-07T14:48:13Z</time>
      </trkpt>
      <trkpt lat="45.30289" lon="1.40293">
        <ele>257</ele>
        <time>2011-07-07T14:48:15Z</time>
      </trkpt>
      <trkpt lat="45.30295" lon="1.40291">
        <ele>257</ele>
        <time>2011-07-07T14:48:17Z</time>
      </trkpt>
      <trkpt lat="45.30301" lon="1.4029">
        <ele>257</ele>
        <time>2011-07-07T14:48:19Z</time>
      </trkpt>
      <trkpt lat="45.30306" lon="1.40289">
        <ele>256</ele>
        <time>2011-07-07T14:48:21Z</time>
      </trkpt>
      <trkpt lat="45.30313" lon="1.40288">
        <ele>257</ele>
        <time>2011-07-07T14:48:23Z</time>
      </trkpt>
      <trkpt lat="45.30319" lon="1.40287">
        <ele>258</ele>
        <time>2011-07-07T14:48:25Z</time>
      </trkpt>
      <trkpt lat="45.30325" lon="1.40286">
        <ele>259</ele>
        <time>2011-07-07T14:48:27Z</time>
      </trkpt>
      <trkpt lat="45.30331" lon="1.40286">
        <ele>259</ele>
        <time>2011-07-07T14:48:29Z</time>
      </trkpt>
      <trkpt lat="45.30337" lon="1.40285">
        <ele>259</ele>
        <time>2011-07-07T14:48:31Z</time>
      </trkpt>
      <trkpt lat="45.30343" lon="1.40284">
        <ele>259</ele>
        <time>2011-07-07T14:48:33Z</time>
      </trkpt>
      <trkpt lat="45.30348" lon="1.40283">
        <ele>259</ele>
        <time>2011-07-07T14:48:35Z</time>
      </trkpt>
      <trkpt lat="45.30355" lon="1.40283">
        <ele>260</ele>
        <time>2011-07-07T14:48:37Z</time>
      </trkpt>
      <trkpt lat="45.30361" lon="1.40282">
        <ele>260</ele>
        <time>2011-07-07T14:48:39Z</time>
      </trkpt>
      <trkpt lat="45.30367" lon="1.4028">
        <ele>261</ele>
        <time>2011-07-07T14:48:41Z</time>
      </trkpt>
      <trkpt lat="45.30373" lon="1.40278">
        <ele>261</ele>
        <time>2011-07-07T14:48:43Z</time>
      </trkpt>
      <trkpt lat="45.3038" lon="1.40276">
        <ele>260</ele>
        <time>2011-07-07T14:48:45Z</time>
      </trkpt>
      <trkpt lat="45.30387" lon="1.40273">
        <ele>259</ele>
        <time>2011-07-07T14:48:47Z</time>
      </trkpt>
      <trkpt lat="45.30395" lon="1.4027">
        <ele>260</ele>
        <time>2011-07-07T14:48:49Z</time>
      </trkpt>
      <trkpt lat="45.30403" lon="1.40266">
        <ele>261</ele>
        <time>2011-07-07T14:48:51Z</time>
      </trkpt>
      <trkpt lat="45.30411" lon="1.40262">
        <ele>261</ele>
        <time>2011-07-07T14:48:53Z</time>
      </trkpt>
      <trkpt lat="45.30419" lon="1.40259">
        <ele>262</ele>
        <time>2011-07-07T14:48:55Z</time>
      </trkpt>
      <trkpt lat="45.30428" lon="1.40256">
        <ele>263</ele>
        <time>2011-07-07T14:48:57Z</time>
      </trkpt>
      <trkpt lat="45.30435" lon="1.40254">
        <ele>265</ele>
        <time>2011-07-07T14:48:59Z</time>
      </trkpt>
      <trkpt lat="45.30442" lon="1.40252">
        <ele>268</ele>
        <time>2011-07-07T14:49:01Z</time>
      </trkpt>
      <trkpt lat="45.3045" lon="1.4025">
        <ele>267</ele>
        <time>2011-07-07T14:49:03Z</time>
      </trkpt>
      <trkpt lat="45.30456" lon="1.40248">
        <ele>265</ele>
        <time>2011-07-07T14:49:05Z</time>
      </trkpt>
      <trkpt lat="45.30464" lon="1.40246">
        <ele>264</ele>
        <time>2011-07-07T14:49:07Z</time>
      </trkpt>
      <trkpt lat="45.3047" lon="1.40243">
        <ele>264</ele>
        <time>2011-07-07T14:49:09Z</time>
      </trkpt>
      <trkpt lat="45.30476" lon="1.4024">
        <ele>263</ele>
        <time>2011-07-07T14:49:11Z</time>
      </trkpt>
      <trkpt lat="45.30482" lon="1.40238">
        <ele>265</ele>
        <time>2011-07-07T14:49:13Z</time>
      </trkpt>
      <trkpt lat="45.30488" lon="1.40236">
        <ele>264</ele>
        <time>2011-07-07T14:49:15Z</time>
      </trkpt>
      <trkpt lat="45.30494" lon="1.40234">
        <ele>265</ele>
        <time>2011-07-07T14:49:17Z</time>
      </trkpt>
      <trkpt lat="45.30499" lon="1.40232">
        <ele>265</ele>
        <time>2011-07-07T14:49:19Z</time>
      </trkpt>
      <trkpt lat="45.30505" lon="1.40229">
        <ele>266</ele>
        <time>2011-07-07T14:49:21Z</time>
      </trkpt>
      <trkpt lat="45.30512" lon="1.40226">
        <ele>266</ele>
        <time>2011-07-07T14:49:23Z</time>
      </trkpt>
      <trkpt lat="45.30519" lon="1.40223">
        <ele>265</ele>
        <time>2011-07-07T14:49:25Z</time>
      </trkpt>
      <trkpt lat="45.30527" lon="1.4022">
        <ele>264</ele>
        <time>2011-07-07T14:49:27Z</time>
      </trkpt>
      <trkpt lat="45.30534" lon="1.40215">
        <ele>265</ele>
        <time>2011-07-07T14:49:29Z</time>
      </trkpt>
      <trkpt lat="45.30541" lon="1.4021">
        <ele>266</ele>
        <time>2011-07-07T14:49:31Z</time>
      </trkpt>
      <trkpt lat="45.30548" lon="1.40206">
        <ele>266</ele>
        <time>2011-07-07T14:49:33Z</time>
      </trkpt>
      <trkpt lat="45.30554" lon="1.40203">
        <ele>267</ele>
        <time>2011-07-07T14:49:35Z</time>
      </trkpt>
      <trkpt lat="45.30559" lon="1.40199">
        <ele>267</ele>
        <time>2011-07-07T14:49:37Z</time>
      </trkpt>
      <trkpt lat="45.30565" lon="1.40196">
        <ele>268</ele>
        <time>2011-07-07T14:49:39Z</time>
      </trkpt>
      <trkpt lat="45.30571" lon="1.40192">
        <ele>268</ele>
        <time>2011-07-07T14:49:41Z</time>
      </trkpt>
      <trkpt lat="45.30577" lon="1.40188">
        <ele>269</ele>
        <time>2011-07-07T14:49:43Z</time>
      </trkpt>
      <trkpt lat="45.30582" lon="1.40185">
        <ele>269</ele>
        <time>2011-07-07T14:49:45Z</time>
      </trkpt>
      <trkpt lat="45.30588" lon="1.40182">
        <ele>270</ele>
        <time>2011-07-07T14:49:47Z</time>
      </trkpt>
      <trkpt lat="45.30593" lon="1.40178">
        <ele>271</ele>
        <time>2011-07-07T14:49:49Z</time>
      </trkpt>
      <trkpt lat="45.30599" lon="1.40175">
        <ele>271</ele>
        <time>2011-07-07T14:49:51Z</time>
      </trkpt>
      <trkpt lat="45.30604" lon="1.40172">
        <ele>271</ele>
        <time>2011-07-07T14:49:53Z</time>
      </trkpt>
      <trkpt lat="45.3061" lon="1.40169">
        <ele>272</ele>
        <time>2011-07-07T14:49:55Z</time>
      </trkpt>
      <trkpt lat="45.30616" lon="1.40166">
        <ele>272</ele>
        <time>2011-07-07T14:49:57Z</time>
      </trkpt>
      <trkpt lat="45.30622" lon="1.40163">
        <ele>272</ele>
        <time>2011-07-07T14:49:59Z</time>
      </trkpt>
      <trkpt lat="45.30628" lon="1.40159">
        <ele>272</ele>
        <time>2011-07-07T14:50:01Z</time>
      </trkpt>
      <trkpt lat="45.30635" lon="1.40155">
        <ele>272</ele>
        <time>2011-07-07T14:50:03Z</time>
      </trkpt>
      <trkpt lat="45.3064" lon="1.40151">
        <ele>272</ele>
        <time>2011-07-07T14:50:05Z</time>
      </trkpt>
      <trkpt lat="45.30647" lon="1.40147">
        <ele>274</ele>
        <time>2011-07-07T14:50:07Z</time>
      </trkpt>
      <trkpt lat="45.30653" lon="1.40143">
        <ele>278</ele>
        <time>2011-07-07T14:50:09Z</time>
      </trkpt>
      <trkpt lat="45.3066" lon="1.40139">
        <ele>274</ele>
        <time>2011-07-07T14:50:11Z</time>
      </trkpt>
      <trkpt lat="45.30666" lon="1.40135">
        <ele>273</ele>
        <time>2011-07-07T14:50:13Z</time>
      </trkpt>
      <trkpt lat="45.30673" lon="1.4013">
        <ele>273</ele>
        <time>2011-07-07T14:50:15Z</time>
      </trkpt>
      <trkpt lat="45.30679" lon="1.40125">
        <ele>275</ele>
        <time>2011-07-07T14:50:17Z</time>
      </trkpt>
      <trkpt lat="45.30685" lon="1.40121">
        <ele>277</ele>
        <time>2011-07-07T14:50:19Z</time>
      </trkpt>
      <trkpt lat="45.30692" lon="1.40117">
        <ele>278</ele>
        <time>2011-07-07T14:50:21Z</time>
      </trkpt>
      <trkpt lat="45.30699" lon="1.40113">
        <ele>278</ele>
        <time>2011-07-07T14:50:23Z</time>
      </trkpt>
      <trkpt lat="45.30703" lon="1.4011">
        <ele>278</ele>
        <time>2011-07-07T14:50:24Z</time>
      </trkpt>
      <trkpt lat="45.30707" lon="1.40107">
        <ele>277</ele>
        <time>2011-07-07T14:50:25Z</time>
      </trkpt>
      <trkpt lat="45.30712" lon="1.40104">
        <ele>277</ele>
        <time>2011-07-07T14:50:26Z</time>
      </trkpt>
      <trkpt lat="45.30717" lon="1.40102">
        <ele>276</ele>
        <time>2011-07-07T14:50:27Z</time>
      </trkpt>
      <trkpt lat="45.30722" lon="1.401">
        <ele>277</ele>
        <time>2011-07-07T14:50:28Z</time>
      </trkpt>
      <trkpt lat="45.30729" lon="1.40095">
        <ele>276</ele>
        <time>2011-07-07T14:50:30Z</time>
      </trkpt>
      <trkpt lat="45.30736" lon="1.40091">
        <ele>276</ele>
        <time>2011-07-07T14:50:32Z</time>
      </trkpt>
      <trkpt lat="45.30743" lon="1.40087">
        <ele>275</ele>
        <time>2011-07-07T14:50:34Z</time>
      </trkpt>
      <trkpt lat="45.3075" lon="1.40083">
        <ele>274</ele>
        <time>2011-07-07T14:50:36Z</time>
      </trkpt>
      <trkpt lat="45.30756" lon="1.4008">
        <ele>274</ele>
        <time>2011-07-07T14:50:38Z</time>
      </trkpt>
      <trkpt lat="45.30763" lon="1.40078">
        <ele>274</ele>
        <time>2011-07-07T14:50:40Z</time>
      </trkpt>
      <trkpt lat="45.3077" lon="1.4008">
        <ele>276</ele>
        <time>2011-07-07T14:50:42Z</time>
      </trkpt>
      <trkpt lat="45.30777" lon="1.40084">
        <ele>279</ele>
        <time>2011-07-07T14:50:44Z</time>
      </trkpt>
      <trkpt lat="45.30782" lon="1.40089">
        <ele>282</ele>
        <time>2011-07-07T14:50:46Z</time>
      </trkpt>
      <trkpt lat="45.30788" lon="1.40094">
        <ele>281</ele>
        <time>2011-07-07T14:50:48Z</time>
      </trkpt>
      <trkpt lat="45.30793" lon="1.40099">
        <ele>281</ele>
        <time>2011-07-07T14:50:50Z</time>
      </trkpt>
      <trkpt lat="45.30796" lon="1.40104">
        <ele>280</ele>
        <time>2011-07-07T14:50:52Z</time>
      </trkpt>
      <trkpt lat="45.308" lon="1.40108">
        <ele>279</ele>
        <time>2011-07-07T14:50:54Z</time>
      </trkpt>
      <trkpt lat="45.30805" lon="1.40112">
        <ele>280</ele>
        <time>2011-07-07T14:50:57Z</time>
      </trkpt>
      <trkpt lat="45.30809" lon="1.40116">
        <ele>279</ele>
        <time>2011-07-07T14:50:59Z</time>
      </trkpt>
      <trkpt lat="45.30814" lon="1.40121">
        <ele>280</ele>
        <time>2011-07-07T14:51:02Z</time>
      </trkpt>
      <trkpt lat="45.30819" lon="1.40123">
        <ele>282</ele>
        <time>2011-07-07T14:51:04Z</time>
      </trkpt>
      <trkpt lat="45.30824" lon="1.40126">
        <ele>283</ele>
        <time>2011-07-07T14:51:07Z</time>
      </trkpt>
      <trkpt lat="45.3083" lon="1.40129">
        <ele>285</ele>
        <time>2011-07-07T14:51:10Z</time>
      </trkpt>
      <trkpt lat="45.30835" lon="1.40132">
        <ele>286</ele>
        <time>2011-07-07T14:51:12Z</time>
      </trkpt>
      <trkpt lat="45.3084" lon="1.40134">
        <ele>288</ele>
        <time>2011-07-07T14:51:15Z</time>
      </trkpt>
      <trkpt lat="45.30844" lon="1.40136">
        <ele>291</ele>
        <time>2011-07-07T14:51:17Z</time>
      </trkpt>
      <trkpt lat="45.3085" lon="1.40138">
        <ele>290</ele>
        <time>2011-07-07T14:51:20Z</time>
      </trkpt>
      <trkpt lat="45.30856" lon="1.40141">
        <ele>290</ele>
        <time>2011-07-07T14:51:23Z</time>
      </trkpt>
      <trkpt lat="45.3086" lon="1.40146">
        <ele>292</ele>
        <time>2011-07-07T14:51:26Z</time>
      </trkpt>
      <trkpt lat="45.30864" lon="1.4015">
        <ele>292</ele>
        <time>2011-07-07T14:51:29Z</time>
      </trkpt>
      <trkpt lat="45.30871" lon="1.40151">
        <ele>291</ele>
        <time>2011-07-07T14:51:32Z</time>
      </trkpt>
      <trkpt lat="45.30876" lon="1.40151">
        <ele>289</ele>
        <time>2011-07-07T14:51:34Z</time>
      </trkpt>
      <trkpt lat="45.30882" lon="1.4015">
        <ele>289</ele>
        <time>2011-07-07T14:51:36Z</time>
      </trkpt>
      <trkpt lat="45.30888" lon="1.40149">
        <ele>288</ele>
        <time>2011-07-07T14:51:38Z</time>
      </trkpt>
      <trkpt lat="45.30894" lon="1.40148">
        <ele>290</ele>
        <time>2011-07-07T14:51:40Z</time>
      </trkpt>
      <trkpt lat="45.30901" lon="1.40148">
        <ele>291</ele>
        <time>2011-07-07T14:51:42Z</time>
      </trkpt>
      <trkpt lat="45.30908" lon="1.40146">
        <ele>291</ele>
        <time>2011-07-07T14:51:44Z</time>
      </trkpt>
      <trkpt lat="45.30914" lon="1.40145">
        <ele>291</ele>
        <time>2011-07-07T14:51:46Z</time>
      </trkpt>
      <trkpt lat="45.3092" lon="1.40143">
        <ele>291</ele>
        <time>2011-07-07T14:51:48Z</time>
      </trkpt>
      <trkpt lat="45.30927" lon="1.40142">
        <ele>291</ele>
        <time>2011-07-07T14:51:50Z</time>
      </trkpt>
      <trkpt lat="45.30934" lon="1.4014">
        <ele>290</ele>
        <time>2011-07-07T14:51:52Z</time>
      </trkpt>
      <trkpt lat="45.30942" lon="1.40138">
        <ele>290</ele>
        <time>2011-07-07T14:51:54Z</time>
      </trkpt>
      <trkpt lat="45.30949" lon="1.40138">
        <ele>291</ele>
        <time>2011-07-07T14:51:56Z</time>
      </trkpt>
      <trkpt lat="45.30956" lon="1.40137">
        <ele>289</ele>
        <time>2011-07-07T14:51:58Z</time>
      </trkpt>
      <trkpt lat="45.30963" lon="1.40135">
        <ele>291</ele>
        <time>2011-07-07T14:52:00Z</time>
      </trkpt>
      <trkpt lat="45.30971" lon="1.40132">
        <ele>290</ele>
        <time>2011-07-07T14:52:02Z</time>
      </trkpt>
      <trkpt lat="45.30979" lon="1.40129">
        <ele>289</ele>
        <time>2011-07-07T14:52:04Z</time>
      </trkpt>
      <trkpt lat="45.30988" lon="1.40125">
        <ele>289</ele>
        <time>2011-07-07T14:52:06Z</time>
      </trkpt>
      <trkpt lat="45.30996" lon="1.40122">
        <ele>288</ele>
        <time>2011-07-07T14:52:08Z</time>
      </trkpt>
      <trkpt lat="45.31003" lon="1.40119">
        <ele>289</ele>
        <time>2011-07-07T14:52:10Z</time>
      </trkpt>
      <trkpt lat="45.31011" lon="1.40114">
        <ele>290</ele>
        <time>2011-07-07T14:52:12Z</time>
      </trkpt>
      <trkpt lat="45.31018" lon="1.40109">
        <ele>290</ele>
        <time>2011-07-07T14:52:14Z</time>
      </trkpt>
      <trkpt lat="45.31022" lon="1.40107">
        <ele>291</ele>
        <time>2011-07-07T14:52:15Z</time>
      </trkpt>
      <trkpt lat="45.31027" lon="1.40104">
        <ele>291</ele>
        <time>2011-07-07T14:52:16Z</time>
      </trkpt>
      <trkpt lat="45.31031" lon="1.401">
        <ele>292</ele>
        <time>2011-07-07T14:52:17Z</time>
      </trkpt>
      <trkpt lat="45.31036" lon="1.40096">
        <ele>290</ele>
        <time>2011-07-07T14:52:18Z</time>
      </trkpt>
      <trkpt lat="45.31041" lon="1.40092">
        <ele>290</ele>
        <time>2011-07-07T14:52:19Z</time>
      </trkpt>
      <trkpt lat="45.31046" lon="1.40088">
        <ele>290</ele>
        <time>2011-07-07T14:52:20Z</time>
      </trkpt>
      <trkpt lat="45.3105" lon="1.40084">
        <ele>290</ele>
        <time>2011-07-07T14:52:21Z</time>
      </trkpt>
      <trkpt lat="45.31056" lon="1.4008">
        <ele>290</ele>
        <time>2011-07-07T14:52:22Z</time>
      </trkpt>
      <trkpt lat="45.3106" lon="1.40076">
        <ele>288</ele>
        <time>2011-07-07T14:52:23Z</time>
      </trkpt>
      <trkpt lat="45.31065" lon="1.40071">
        <ele>288</ele>
        <time>2011-07-07T14:52:24Z</time>
      </trkpt>
      <trkpt lat="45.31069" lon="1.40066">
        <ele>289</ele>
        <time>2011-07-07T14:52:25Z</time>
      </trkpt>
      <trkpt lat="45.31073" lon="1.40061">
        <ele>290</ele>
        <time>2011-07-07T14:52:26Z</time>
      </trkpt>
      <trkpt lat="45.31078" lon="1.40056">
        <ele>290</ele>
        <time>2011-07-07T14:52:27Z</time>
      </trkpt>
      <trkpt lat="45.31083" lon="1.40051">
        <ele>291</ele>
        <time>2011-07-07T14:52:28Z</time>
      </trkpt>
      <trkpt lat="45.31088" lon="1.40046">
        <ele>292</ele>
        <time>2011-07-07T14:52:29Z</time>
      </trkpt>
      <trkpt lat="45.31093" lon="1.4004">
        <ele>292</ele>
        <time>2011-07-07T14:52:30Z</time>
      </trkpt>
      <trkpt lat="45.31098" lon="1.40035">
        <ele>292</ele>
        <time>2011-07-07T14:52:31Z</time>
      </trkpt>
      <trkpt lat="45.31102" lon="1.4003">
        <ele>292</ele>
        <time>2011-07-07T14:52:32Z</time>
      </trkpt>
      <trkpt lat="45.31106" lon="1.40025">
        <ele>292</ele>
        <time>2011-07-07T14:52:33Z</time>
      </trkpt>
      <trkpt lat="45.3111" lon="1.40019">
        <ele>291</ele>
        <time>2011-07-07T14:52:34Z</time>
      </trkpt>
      <trkpt lat="45.31114" lon="1.40014">
        <ele>290</ele>
        <time>2011-07-07T14:52:35Z</time>
      </trkpt>
      <trkpt lat="45.31118" lon="1.40008">
        <ele>290</ele>
        <time>2011-07-07T14:52:36Z</time>
      </trkpt>
      <trkpt lat="45.31123" lon="1.40003">
        <ele>290</ele>
        <time>2011-07-07T14:52:37Z</time>
      </trkpt>
      <trkpt lat="45.31128" lon="1.39998">
        <ele>289</ele>
        <time>2011-07-07T14:52:38Z</time>
      </trkpt>
      <trkpt lat="45.31132" lon="1.39993">
        <ele>290</ele>
        <time>2011-07-07T14:52:39Z</time>
      </trkpt>
      <trkpt lat="45.31137" lon="1.39987">
        <ele>290</ele>
        <time>2011-07-07T14:52:40Z</time>
      </trkpt>
      <trkpt lat="45.31142" lon="1.39981">
        <ele>290</ele>
        <time>2011-07-07T14:52:41Z</time>
      </trkpt>
      <trkpt lat="45.31146" lon="1.39974">
        <ele>289</ele>
        <time>2011-07-07T14:52:42Z</time>
      </trkpt>
      <trkpt lat="45.3115" lon="1.39968">
        <ele>290</ele>
        <time>2011-07-07T14:52:43Z</time>
      </trkpt>
      <trkpt lat="45.31154" lon="1.39962">
        <ele>291</ele>
        <time>2011-07-07T14:52:44Z</time>
      </trkpt>
      <trkpt lat="45.31158" lon="1.39956">
        <ele>291</ele>
        <time>2011-07-07T14:52:45Z</time>
      </trkpt>
      <trkpt lat="45.31162" lon="1.3995">
        <ele>291</ele>
        <time>2011-07-07T14:52:46Z</time>
      </trkpt>
      <trkpt lat="45.31166" lon="1.39944">
        <ele>291</ele>
        <time>2011-07-07T14:52:47Z</time>
      </trkpt>
      <trkpt lat="45.3117" lon="1.39938">
        <ele>292</ele>
        <time>2011-07-07T14:52:48Z</time>
      </trkpt>
      <trkpt lat="45.31174" lon="1.39933">
        <ele>292</ele>
        <time>2011-07-07T14:52:49Z</time>
      </trkpt>
      <trkpt lat="45.31178" lon="1.39927">
        <ele>292</ele>
        <time>2011-07-07T14:52:50Z</time>
      </trkpt>
      <trkpt lat="45.31182" lon="1.39921">
        <ele>292</ele>
        <time>2011-07-07T14:52:51Z</time>
      </trkpt>
      <trkpt lat="45.31186" lon="1.39916">
        <ele>292</ele>
        <time>2011-07-07T14:52:52Z</time>
      </trkpt>
      <trkpt lat="45.31191" lon="1.39912">
        <ele>290</ele>
        <time>2011-07-07T14:52:53Z</time>
      </trkpt>
      <trkpt lat="45.31196" lon="1.39911">
        <ele>290</ele>
        <time>2011-07-07T14:52:54Z</time>
      </trkpt>
      <trkpt lat="45.31202" lon="1.39912">
        <ele>290</ele>
        <time>2011-07-07T14:52:55Z</time>
      </trkpt>
      <trkpt lat="45.31207" lon="1.39912">
        <ele>291</ele>
        <time>2011-07-07T14:52:56Z</time>
      </trkpt>
      <trkpt lat="45.31213" lon="1.39914">
        <ele>292</ele>
        <time>2011-07-07T14:52:57Z</time>
      </trkpt>
      <trkpt lat="45.31218" lon="1.39914">
        <ele>292</ele>
        <time>2011-07-07T14:52:58Z</time>
      </trkpt>
      <trkpt lat="45.31224" lon="1.39915">
        <ele>292</ele>
        <time>2011-07-07T14:52:59Z</time>
      </trkpt>
      <trkpt lat="45.31229" lon="1.39915">
        <ele>291</ele>
        <time>2011-07-07T14:53:00Z</time>
      </trkpt>
      <trkpt lat="45.31234" lon="1.39916">
        <ele>291</ele>
        <time>2011-07-07T14:53:01Z</time>
      </trkpt>
      <trkpt lat="45.31239" lon="1.39917">
        <ele>291</ele>
        <time>2011-07-07T14:53:02Z</time>
      </trkpt>
      <trkpt lat="45.31244" lon="1.39917">
        <ele>291</ele>
        <time>2011-07-07T14:53:03Z</time>
      </trkpt>
      <trkpt lat="45.31248" lon="1.39918">
        <ele>291</ele>
        <time>2011-07-07T14:53:04Z</time>
      </trkpt>
      <trkpt lat="45.31253" lon="1.39918">
        <ele>291</ele>
        <time>2011-07-07T14:53:05Z</time>
      </trkpt>
      <trkpt lat="45.31261" lon="1.39919">
        <ele>291</ele>
        <time>2011-07-07T14:53:07Z</time>
      </trkpt>
      <trkpt lat="45.31269" lon="1.39919">
        <ele>292</ele>
        <time>2011-07-07T14:53:09Z</time>
      </trkpt>
      <trkpt lat="45.31277" lon="1.39917">
        <ele>293</ele>
        <time>2011-07-07T14:53:11Z</time>
      </trkpt>
      <trkpt lat="45.31284" lon="1.39915">
        <ele>293</ele>
        <time>2011-07-07T14:53:13Z</time>
      </trkpt>
      <trkpt lat="45.31291" lon="1.39914">
        <ele>292</ele>
        <time>2011-07-07T14:53:15Z</time>
      </trkpt>
      <trkpt lat="45.31299" lon="1.3991">
        <ele>292</ele>
        <time>2011-07-07T14:53:17Z</time>
      </trkpt>
      <trkpt lat="45.31307" lon="1.39905">
        <ele>293</ele>
        <time>2011-07-07T14:53:19Z</time>
      </trkpt>
      <trkpt lat="45.31313" lon="1.39902">
        <ele>292</ele>
        <time>2011-07-07T14:53:21Z</time>
      </trkpt>
      <trkpt lat="45.31319" lon="1.399">
        <ele>290</ele>
        <time>2011-07-07T14:53:23Z</time>
      </trkpt>
      <trkpt lat="45.31325" lon="1.39897">
        <ele>292</ele>
        <time>2011-07-07T14:53:25Z</time>
      </trkpt>
      <trkpt lat="45.3133" lon="1.39894">
        <ele>293</ele>
        <time>2011-07-07T14:53:27Z</time>
      </trkpt>
      <trkpt lat="45.31336" lon="1.39892">
        <ele>294</ele>
        <time>2011-07-07T14:53:29Z</time>
      </trkpt>
      <trkpt lat="45.3134" lon="1.3989">
        <ele>292</ele>
        <time>2011-07-07T14:53:31Z</time>
      </trkpt>
      <trkpt lat="45.31345" lon="1.39888">
        <ele>293</ele>
        <time>2011-07-07T14:53:33Z</time>
      </trkpt>
      <trkpt lat="45.31349" lon="1.39886">
        <ele>294</ele>
        <time>2011-07-07T14:53:35Z</time>
      </trkpt>
      <trkpt lat="45.31354" lon="1.39883">
        <ele>296</ele>
        <time>2011-07-07T14:53:37Z</time>
      </trkpt>
      <trkpt lat="45.31359" lon="1.39881">
        <ele>297</ele>
        <time>2011-07-07T14:53:39Z</time>
      </trkpt>
      <trkpt lat="45.31364" lon="1.39878">
        <ele>297</ele>
        <time>2011-07-07T14:53:41Z</time>
      </trkpt>
      <trkpt lat="45.31368" lon="1.39876">
        <ele>297</ele>
        <time>2011-07-07T14:53:43Z</time>
      </trkpt>
      <trkpt lat="45.31373" lon="1.39875">
        <ele>298</ele>
        <time>2011-07-07T14:53:45Z</time>
      </trkpt>
      <trkpt lat="45.31379" lon="1.39873">
        <ele>299</ele>
        <time>2011-07-07T14:53:48Z</time>
      </trkpt>
      <trkpt lat="45.31384" lon="1.39871">
        <ele>299</ele>
        <time>2011-07-07T14:53:51Z</time>
      </trkpt>
      <trkpt lat="45.3139" lon="1.39871">
        <ele>299</ele>
        <time>2011-07-07T14:53:53Z</time>
      </trkpt>
      <trkpt lat="45.31395" lon="1.39871">
        <ele>300</ele>
        <time>2011-07-07T14:53:55Z</time>
      </trkpt>
      <trkpt lat="45.31401" lon="1.39871">
        <ele>301</ele>
        <time>2011-07-07T14:53:58Z</time>
      </trkpt>
      <trkpt lat="45.31407" lon="1.3987">
        <ele>301</ele>
        <time>2011-07-07T14:54:01Z</time>
      </trkpt>
      <trkpt lat="45.31412" lon="1.39868">
        <ele>305</ele>
        <time>2011-07-07T14:54:04Z</time>
      </trkpt>
      <trkpt lat="45.31416" lon="1.39867">
        <ele>307</ele>
        <time>2011-07-07T14:54:07Z</time>
      </trkpt>
      <trkpt lat="45.31422" lon="1.39867">
        <ele>309</ele>
        <time>2011-07-07T14:54:10Z</time>
      </trkpt>
      <trkpt lat="45.31427" lon="1.39867">
        <ele>311</ele>
        <time>2011-07-07T14:54:13Z</time>
      </trkpt>
      <trkpt lat="45.31433" lon="1.39867">
        <ele>313</ele>
        <time>2011-07-07T14:54:17Z</time>
      </trkpt>
      <trkpt lat="45.31439" lon="1.39867">
        <ele>309</ele>
        <time>2011-07-07T14:54:20Z</time>
      </trkpt>
      <trkpt lat="45.31443" lon="1.39868">
        <ele>308</ele>
        <time>2011-07-07T14:54:23Z</time>
      </trkpt>
      <trkpt lat="45.31449" lon="1.39869">
        <ele>310</ele>
        <time>2011-07-07T14:54:27Z</time>
      </trkpt>
      <trkpt lat="45.31453" lon="1.39871">
        <ele>307</ele>
        <time>2011-07-07T14:54:31Z</time>
      </trkpt>
      <trkpt lat="45.31458" lon="1.39868">
        <ele>307</ele>
        <time>2011-07-07T14:54:35Z</time>
      </trkpt>
      <trkpt lat="45.31464" lon="1.39867">
        <ele>307</ele>
        <time>2011-07-07T14:54:38Z</time>
      </trkpt>
      <trkpt lat="45.3147" lon="1.39864">
        <ele>308</ele>
        <time>2011-07-07T14:54:41Z</time>
      </trkpt>
      <trkpt lat="45.31475" lon="1.39863">
        <ele>310</ele>
        <time>2011-07-07T14:54:43Z</time>
      </trkpt>
      <trkpt lat="45.31481" lon="1.3986">
        <ele>311</ele>
        <time>2011-07-07T14:54:46Z</time>
      </trkpt>
      <trkpt lat="45.31486" lon="1.39858">
        <ele>315</ele>
        <time>2011-07-07T14:54:49Z</time>
      </trkpt>
      <trkpt lat="45.31493" lon="1.39858">
        <ele>315</ele>
        <time>2011-07-07T14:54:52Z</time>
      </trkpt>
      <trkpt lat="45.31497" lon="1.39861">
        <ele>319</ele>
        <time>2011-07-07T14:54:54Z</time>
      </trkpt>
      <trkpt lat="45.31502" lon="1.39863">
        <ele>322</ele>
        <time>2011-07-07T14:54:56Z</time>
      </trkpt>
      <trkpt lat="45.31507" lon="1.39867">
        <ele>321</ele>
        <time>2011-07-07T14:54:59Z</time>
      </trkpt>
      <trkpt lat="45.31511" lon="1.39871">
        <ele>321</ele>
        <time>2011-07-07T14:55:02Z</time>
      </trkpt>
      <trkpt lat="45.31515" lon="1.39875">
        <ele>325</ele>
        <time>2011-07-07T14:55:05Z</time>
      </trkpt>
      <trkpt lat="45.3152" lon="1.39878">
        <ele>325</ele>
        <time>2011-07-07T14:55:08Z</time>
      </trkpt>
      <trkpt lat="45.31524" lon="1.39881">
        <ele>330</ele>
        <time>2011-07-07T14:55:11Z</time>
      </trkpt>
      <trkpt lat="45.31528" lon="1.39887">
        <ele>332</ele>
        <time>2011-07-07T14:55:14Z</time>
      </trkpt>
      <trkpt lat="45.31531" lon="1.39893">
        <ele>331</ele>
        <time>2011-07-07T14:55:17Z</time>
      </trkpt>
      <trkpt lat="45.31535" lon="1.39897">
        <ele>330</ele>
        <time>2011-07-07T14:55:19Z</time>
      </trkpt>
      <trkpt lat="45.31539" lon="1.399">
        <ele>331</ele>
        <time>2011-07-07T14:55:21Z</time>
      </trkpt>
      <trkpt lat="45.31544" lon="1.39905">
        <ele>331</ele>
        <time>2011-07-07T14:55:24Z</time>
      </trkpt>
      <trkpt lat="45.31548" lon="1.39909">
        <ele>333</ele>
        <time>2011-07-07T14:55:27Z</time>
      </trkpt>
      <trkpt lat="45.31552" lon="1.39914">
        <ele>333</ele>
        <time>2011-07-07T14:55:30Z</time>
      </trkpt>
      <trkpt lat="45.31554" lon="1.39923">
        <ele>332</ele>
        <time>2011-07-07T14:55:33Z</time>
      </trkpt>
      <trkpt lat="45.31555" lon="1.39929">
        <ele>331</ele>
        <time>2011-07-07T14:55:35Z</time>
      </trkpt>
      <trkpt lat="45.31557" lon="1.39936">
        <ele>333</ele>
        <time>2011-07-07T14:55:38Z</time>
      </trkpt>
      <trkpt lat="45.31559" lon="1.39944">
        <ele>332</ele>
        <time>2011-07-07T14:55:42Z</time>
      </trkpt>
      <trkpt lat="45.31561" lon="1.39949">
        <ele>333</ele>
        <time>2011-07-07T14:55:45Z</time>
      </trkpt>
      <trkpt lat="45.31567" lon="1.39951">
        <ele>326</ele>
        <time>2011-07-07T14:55:49Z</time>
      </trkpt>
      <trkpt lat="45.31571" lon="1.39953">
        <ele>334</ele>
        <time>2011-07-07T14:55:52Z</time>
      </trkpt>
      <trkpt lat="45.31576" lon="1.39956">
        <ele>334</ele>
        <time>2011-07-07T14:55:55Z</time>
      </trkpt>
      <trkpt lat="45.31581" lon="1.39955">
        <ele>333</ele>
        <time>2011-07-07T14:55:57Z</time>
      </trkpt>
      <trkpt lat="45.31586" lon="1.39953">
        <ele>326</ele>
        <time>2011-07-07T14:56:00Z</time>
      </trkpt>
      <trkpt lat="45.31591" lon="1.39956">
        <ele>332</ele>
        <time>2011-07-07T14:56:04Z</time>
      </trkpt>
      <trkpt lat="45.31595" lon="1.3996">
        <ele>330</ele>
        <time>2011-07-07T14:56:07Z</time>
      </trkpt>
      <trkpt lat="45.316" lon="1.39964">
        <ele>338</ele>
        <time>2011-07-07T14:56:11Z</time>
      </trkpt>
      <trkpt lat="45.31603" lon="1.39972">
        <ele>338</ele>
        <time>2011-07-07T14:56:14Z</time>
      </trkpt>
      <trkpt lat="45.31604" lon="1.39978">
        <ele>338</ele>
        <time>2011-07-07T14:56:17Z</time>
      </trkpt>
      <trkpt lat="45.31604" lon="1.39985">
        <ele>334</ele>
        <time>2011-07-07T14:56:20Z</time>
      </trkpt>
      <trkpt lat="45.31603" lon="1.39992">
        <ele>330</ele>
        <time>2011-07-07T14:56:23Z</time>
      </trkpt>
      <trkpt lat="45.31604" lon="1.4">
        <ele>331</ele>
        <time>2011-07-07T14:56:27Z</time>
      </trkpt>
      <trkpt lat="45.31606" lon="1.40007">
        <ele>333</ele>
        <time>2011-07-07T14:56:30Z</time>
      </trkpt>
      <trkpt lat="45.31607" lon="1.40015">
        <ele>336</ele>
        <time>2011-07-07T14:56:34Z</time>
      </trkpt>
      <trkpt lat="45.31607" lon="1.40022">
        <ele>336</ele>
        <time>2011-07-07T14:56:37Z</time>
      </trkpt>
      <trkpt lat="45.31608" lon="1.4003">
        <ele>336</ele>
        <time>2011-07-07T14:56:40Z</time>
      </trkpt>
      <trkpt lat="45.31611" lon="1.40033">
        <ele>339</ele>
        <time>2011-07-07T14:56:43Z</time>
      </trkpt>
      <trkpt lat="45.31616" lon="1.40034">
        <ele>337</ele>
        <time>2011-07-07T14:56:46Z</time>
      </trkpt>
      <trkpt lat="45.3162" lon="1.40032">
        <ele>340</ele>
        <time>2011-07-07T14:56:49Z</time>
      </trkpt>
      <trkpt lat="45.31625" lon="1.4003">
        <ele>348</ele>
        <time>2011-07-07T14:56:52Z</time>
      </trkpt>
      <trkpt lat="45.3163" lon="1.40026">
        <ele>346</ele>
        <time>2011-07-07T14:56:56Z</time>
      </trkpt>
      <trkpt lat="45.31636" lon="1.40024">
        <ele>347</ele>
        <time>2011-07-07T14:57:00Z</time>
      </trkpt>
      <trkpt lat="45.31641" lon="1.40023">
        <ele>343</ele>
        <time>2011-07-07T14:57:06Z</time>
      </trkpt>
      <trkpt lat="45.31644" lon="1.40029">
        <ele>337</ele>
        <time>2011-07-07T14:57:22Z</time>
      </trkpt>
      <trkpt lat="45.31648" lon="1.40035">
        <ele>340</ele>
        <time>2011-07-07T14:57:27Z</time>
      </trkpt>
      <trkpt lat="45.3165" lon="1.4004">
        <ele>346</ele>
        <time>2011-07-07T14:57:32Z</time>
      </trkpt>
      <trkpt lat="45.31652" lon="1.40047">
        <ele>349</ele>
        <time>2011-07-07T14:57:36Z</time>
      </trkpt>
      <trkpt lat="45.31655" lon="1.40054">
        <ele>347</ele>
        <time>2011-07-07T14:57:40Z</time>
      </trkpt>
      <trkpt lat="45.31658" lon="1.4006">
        <ele>349</ele>
        <time>2011-07-07T14:57:44Z</time>
      </trkpt>
      <trkpt lat="45.31661" lon="1.40066">
        <ele>348</ele>
        <time>2011-07-07T14:57:48Z</time>
      </trkpt>
      <trkpt lat="45.31664" lon="1.40072">
        <ele>348</ele>
        <time>2011-07-07T14:57:52Z</time>
      </trkpt>
      <trkpt lat="45.31666" lon="1.40078">
        <ele>351</ele>
        <time>2011-07-07T14:57:55Z</time>
      </trkpt>
      <trkpt lat="45.31669" lon="1.40084">
        <ele>352</ele>
        <time>2011-07-07T14:57:59Z</time>
      </trkpt>
      <trkpt lat="45.31672" lon="1.4009">
        <ele>356</ele>
        <time>2011-07-07T14:58:03Z</time>
      </trkpt>
      <trkpt lat="45.31678" lon="1.40092">
        <ele>353</ele>
        <time>2011-07-07T14:58:07Z</time>
      </trkpt>
      <trkpt lat="45.31682" lon="1.40094">
        <ele>354</ele>
        <time>2011-07-07T14:58:10Z</time>
      </trkpt>
      <trkpt lat="45.31686" lon="1.40099">
        <ele>354</ele>
        <time>2011-07-07T14:58:14Z</time>
      </trkpt>
      <trkpt lat="45.31689" lon="1.40104">
        <ele>354</ele>
        <time>2011-07-07T14:58:18Z</time>
      </trkpt>
      <trkpt lat="45.31692" lon="1.4011">
        <ele>356</ele>
        <time>2011-07-07T14:58:22Z</time>
      </trkpt>
      <trkpt lat="45.31695" lon="1.40115">
        <ele>359</ele>
        <time>2011-07-07T14:58:25Z</time>
      </trkpt>
      <trkpt lat="45.31699" lon="1.4012">
        <ele>357</ele>
        <time>2011-07-07T14:58:28Z</time>
      </trkpt>
      <trkpt lat="45.31702" lon="1.40125">
        <ele>353</ele>
        <time>2011-07-07T14:58:31Z</time>
      </trkpt>
      <trkpt lat="45.31707" lon="1.40131">
        <ele>359</ele>
        <time>2011-07-07T14:58:34Z</time>
      </trkpt>
      <trkpt lat="45.3171" lon="1.40137">
        <ele>366</ele>
        <time>2011-07-07T14:58:38Z</time>
      </trkpt>
      <trkpt lat="45.31715" lon="1.40143">
        <ele>363</ele>
        <time>2011-07-07T14:58:41Z</time>
      </trkpt>
      <trkpt lat="45.31719" lon="1.40147">
        <ele>370</ele>
        <time>2011-07-07T14:58:44Z</time>
      </trkpt>
      <trkpt lat="45.31724" lon="1.40151">
        <ele>368</ele>
        <time>2011-07-07T14:58:47Z</time>
      </trkpt>
      <trkpt lat="45.31729" lon="1.40155">
        <ele>364</ele>
        <time>2011-07-07T14:58:51Z</time>
      </trkpt>
      <trkpt lat="45.31733" lon="1.40157">
        <ele>369</ele>
        <time>2011-07-07T14:58:54Z</time>
      </trkpt>
      <trkpt lat="45.31738" lon="1.40159">
        <ele>367</ele>
        <time>2011-07-07T14:58:57Z</time>
      </trkpt>
      <trkpt lat="45.31744" lon="1.4016">
        <ele>363</ele>
        <time>2011-07-07T14:59:00Z</time>
      </trkpt>
      <trkpt lat="45.3175" lon="1.40162">
        <ele>365</ele>
        <time>2011-07-07T14:59:03Z</time>
      </trkpt>
      <trkpt lat="45.31755" lon="1.40162">
        <ele>365</ele>
        <time>2011-07-07T14:59:06Z</time>
      </trkpt>
      <trkpt lat="45.31761" lon="1.40162">
        <ele>365</ele>
        <time>2011-07-07T14:59:09Z</time>
      </trkpt>
      <trkpt lat="45.31766" lon="1.40162">
        <ele>366</ele>
        <time>2011-07-07T14:59:12Z</time>
      </trkpt>
      <trkpt lat="45.3177" lon="1.40163">
        <ele>366</ele>
        <time>2011-07-07T14:59:15Z</time>
      </trkpt>
      <trkpt lat="45.31775" lon="1.40162">
        <ele>363</ele>
        <time>2011-07-07T14:59:18Z</time>
      </trkpt>
      <trkpt lat="45.31782" lon="1.40162">
        <ele>364</ele>
        <time>2011-07-07T14:59:21Z</time>
      </trkpt>
      <trkpt lat="45.31786" lon="1.40163">
        <ele>366</ele>
        <time>2011-07-07T14:59:23Z</time>
      </trkpt>
      <trkpt lat="45.31793" lon="1.40165">
        <ele>368</ele>
        <time>2011-07-07T14:59:26Z</time>
      </trkpt>
      <trkpt lat="45.31798" lon="1.40168">
        <ele>365</ele>
        <time>2011-07-07T14:59:29Z</time>
      </trkpt>
      <trkpt lat="45.31804" lon="1.4017">
        <ele>373</ele>
        <time>2011-07-07T14:59:32Z</time>
      </trkpt>
      <trkpt lat="45.31808" lon="1.40171">
        <ele>374</ele>
        <time>2011-07-07T14:59:34Z</time>
      </trkpt>
      <trkpt lat="45.31814" lon="1.40176">
        <ele>371</ele>
        <time>2011-07-07T14:59:37Z</time>
      </trkpt>
      <trkpt lat="45.3182" lon="1.4018">
        <ele>369</ele>
        <time>2011-07-07T14:59:40Z</time>
      </trkpt>
      <trkpt lat="45.31824" lon="1.40184">
        <ele>376</ele>
        <time>2011-07-07T14:59:43Z</time>
      </trkpt>
      <trkpt lat="45.31831" lon="1.40187">
        <ele>377</ele>
        <time>2011-07-07T14:59:46Z</time>
      </trkpt>
      <trkpt lat="45.31836" lon="1.4019">
        <ele>376</ele>
        <time>2011-07-07T14:59:49Z</time>
      </trkpt>
      <trkpt lat="45.31841" lon="1.40193">
        <ele>383</ele>
        <time>2011-07-07T14:59:51Z</time>
      </trkpt>
      <trkpt lat="45.31845" lon="1.40196">
        <ele>385</ele>
        <time>2011-07-07T14:59:53Z</time>
      </trkpt>
      <trkpt lat="45.3185" lon="1.40201">
        <ele>383</ele>
        <time>2011-07-07T14:59:55Z</time>
      </trkpt>
      <trkpt lat="45.31855" lon="1.40206">
        <ele>383</ele>
        <time>2011-07-07T14:59:57Z</time>
      </trkpt>
      <trkpt lat="45.3186" lon="1.40211">
        <ele>387</ele>
        <time>2011-07-07T14:59:59Z</time>
      </trkpt>
      <trkpt lat="45.31866" lon="1.4022">
        <ele>386</ele>
        <time>2011-07-07T15:00:01Z</time>
      </trkpt>
      <trkpt lat="45.31869" lon="1.40225">
        <ele>385</ele>
        <time>2011-07-07T15:00:02Z</time>
      </trkpt>
      <trkpt lat="45.3187" lon="1.40231">
        <ele>381</ele>
        <time>2011-07-07T15:00:03Z</time>
      </trkpt>
      <trkpt lat="45.31871" lon="1.40241">
        <ele>376</ele>
        <time>2011-07-07T15:00:05Z</time>
      </trkpt>
      <trkpt lat="45.3187" lon="1.4025">
        <ele>375</ele>
        <time>2011-07-07T15:00:07Z</time>
      </trkpt>
      <trkpt lat="45.31869" lon="1.40258">
        <ele>373</ele>
        <time>2011-07-07T15:00:09Z</time>
      </trkpt>
      <trkpt lat="45.31866" lon="1.40267">
        <ele>373</ele>
        <time>2011-07-07T15:00:11Z</time>
      </trkpt>
      <trkpt lat="45.31862" lon="1.40277">
        <ele>372</ele>
        <time>2011-07-07T15:00:13Z</time>
      </trkpt>
      <trkpt lat="45.31858" lon="1.40286">
        <ele>372</ele>
        <time>2011-07-07T15:00:15Z</time>
      </trkpt>
      <trkpt lat="45.31854" lon="1.40296">
        <ele>371</ele>
        <time>2011-07-07T15:00:17Z</time>
      </trkpt>
      <trkpt lat="45.31851" lon="1.40307">
        <ele>370</ele>
        <time>2011-07-07T15:00:19Z</time>
      </trkpt>
      <trkpt lat="45.31853" lon="1.40315">
        <ele>372</ele>
        <time>2011-07-07T15:00:21Z</time>
      </trkpt>
      <trkpt lat="45.31857" lon="1.40321">
        <ele>373</ele>
        <time>2011-07-07T15:00:23Z</time>
      </trkpt>
      <trkpt lat="45.31861" lon="1.40326">
        <ele>371</ele>
        <time>2011-07-07T15:00:25Z</time>
      </trkpt>
      <trkpt lat="45.31865" lon="1.40331">
        <ele>370</ele>
        <time>2011-07-07T15:00:27Z</time>
      </trkpt>
      <trkpt lat="45.31869" lon="1.40336">
        <ele>371</ele>
        <time>2011-07-07T15:00:29Z</time>
      </trkpt>
      <trkpt lat="45.31873" lon="1.4034">
        <ele>372</ele>
        <time>2011-07-07T15:00:31Z</time>
      </trkpt>
      <trkpt lat="45.31877" lon="1.40344">
        <ele>373</ele>
        <time>2011-07-07T15:00:33Z</time>
      </trkpt>
      <trkpt lat="45.31881" lon="1.40348">
        <ele>374</ele>
        <time>2011-07-07T15:00:35Z</time>
      </trkpt>
      <trkpt lat="45.31885" lon="1.40351">
        <ele>375</ele>
        <time>2011-07-07T15:00:37Z</time>
      </trkpt>
      <trkpt lat="45.31889" lon="1.40354">
        <ele>377</ele>
        <time>2011-07-07T15:00:39Z</time>
      </trkpt>
      <trkpt lat="45.31893" lon="1.40358">
        <ele>378</ele>
        <time>2011-07-07T15:00:41Z</time>
      </trkpt>
      <trkpt lat="45.31897" lon="1.40362">
        <ele>377</ele>
        <time>2011-07-07T15:00:43Z</time>
      </trkpt>
      <trkpt lat="45.31901" lon="1.40368">
        <ele>382</ele>
        <time>2011-07-07T15:00:45Z</time>
      </trkpt>
      <trkpt lat="45.31906" lon="1.40372">
        <ele>381</ele>
        <time>2011-07-07T15:00:48Z</time>
      </trkpt>
      <trkpt lat="45.3191" lon="1.40376">
        <ele>378</ele>
        <time>2011-07-07T15:00:50Z</time>
      </trkpt>
      <trkpt lat="45.31914" lon="1.4038">
        <ele>379</ele>
        <time>2011-07-07T15:00:52Z</time>
      </trkpt>
      <trkpt lat="45.31918" lon="1.40384">
        <ele>381</ele>
        <time>2011-07-07T15:00:54Z</time>
      </trkpt>
      <trkpt lat="45.31922" lon="1.40388">
        <ele>381</ele>
        <time>2011-07-07T15:00:56Z</time>
      </trkpt>
      <trkpt lat="45.31926" lon="1.40393">
        <ele>380</ele>
        <time>2011-07-07T15:00:58Z</time>
      </trkpt>
      <trkpt lat="45.31931" lon="1.40396">
        <ele>377</ele>
        <time>2011-07-07T15:01:00Z</time>
      </trkpt>
      <trkpt lat="45.31936" lon="1.40399">
        <ele>378</ele>
        <time>2011-07-07T15:01:02Z</time>
      </trkpt>
      <trkpt lat="45.31937" lon="1.40405">
        <ele>379</ele>
        <time>2011-07-07T15:01:04Z</time>
      </trkpt>
      <trkpt lat="45.31931" lon="1.40415">
        <ele>378</ele>
        <time>2011-07-07T15:01:06Z</time>
      </trkpt>
      <trkpt lat="45.31927" lon="1.40421">
        <ele>377</ele>
        <time>2011-07-07T15:01:07Z</time>
      </trkpt>
      <trkpt lat="45.31924" lon="1.40428">
        <ele>375</ele>
        <time>2011-07-07T15:01:08Z</time>
      </trkpt>
      <trkpt lat="45.31921" lon="1.40435">
        <ele>375</ele>
        <time>2011-07-07T15:01:09Z</time>
      </trkpt>
      <trkpt lat="45.31918" lon="1.40444">
        <ele>375</ele>
        <time>2011-07-07T15:01:10Z</time>
      </trkpt>
      <trkpt lat="45.31914" lon="1.40454">
        <ele>377</ele>
        <time>2011-07-07T15:01:11Z</time>
      </trkpt>
      <trkpt lat="45.31909" lon="1.40465">
        <ele>375</ele>
        <time>2011-07-07T15:01:12Z</time>
      </trkpt>
      <trkpt lat="45.31904" lon="1.40476">
        <ele>372</ele>
        <time>2011-07-07T15:01:13Z</time>
      </trkpt>
      <trkpt lat="45.31899" lon="1.40488">
        <ele>373</ele>
        <time>2011-07-07T15:01:14Z</time>
      </trkpt>
      <trkpt lat="45.31892" lon="1.40501">
        <ele>370</ele>
        <time>2011-07-07T15:01:15Z</time>
      </trkpt>
      <trkpt lat="45.31888" lon="1.40517">
        <ele>366</ele>
        <time>2011-07-07T15:01:16Z</time>
      </trkpt>
      <trkpt lat="45.31884" lon="1.40533">
        <ele>365</ele>
        <time>2011-07-07T15:01:17Z</time>
      </trkpt>
      <trkpt lat="45.31883" lon="1.40546">
        <ele>364</ele>
        <time>2011-07-07T15:01:18Z</time>
      </trkpt>
      <trkpt lat="45.31881" lon="1.40558">
        <ele>363</ele>
        <time>2011-07-07T15:01:19Z</time>
      </trkpt>
      <trkpt lat="45.31877" lon="1.40567">
        <ele>361</ele>
        <time>2011-07-07T15:01:20Z</time>
      </trkpt>
      <trkpt lat="45.31874" lon="1.40573">
        <ele>360</ele>
        <time>2011-07-07T15:01:21Z</time>
      </trkpt>
      <trkpt lat="45.3187" lon="1.40576">
        <ele>361</ele>
        <time>2011-07-07T15:01:22Z</time>
      </trkpt>
      <trkpt lat="45.31861" lon="1.40582">
        <ele>363</ele>
        <time>2011-07-07T15:01:24Z</time>
      </trkpt>
      <trkpt lat="45.31857" lon="1.40587">
        <ele>364</ele>
        <time>2011-07-07T15:01:25Z</time>
      </trkpt>
      <trkpt lat="45.31852" lon="1.40592">
        <ele>364</ele>
        <time>2011-07-07T15:01:26Z</time>
      </trkpt>
      <trkpt lat="45.31849" lon="1.406">
        <ele>369</ele>
        <time>2011-07-07T15:01:27Z</time>
      </trkpt>
      <trkpt lat="45.31845" lon="1.40609">
        <ele>370</ele>
        <time>2011-07-07T15:01:28Z</time>
      </trkpt>
      <trkpt lat="45.31841" lon="1.40617">
        <ele>371</ele>
        <time>2011-07-07T15:01:29Z</time>
      </trkpt>
      <trkpt lat="45.31837" lon="1.40624">
        <ele>370</ele>
        <time>2011-07-07T15:01:30Z</time>
      </trkpt>
      <trkpt lat="45.31832" lon="1.40631">
        <ele>370</ele>
        <time>2011-07-07T15:01:31Z</time>
      </trkpt>
      <trkpt lat="45.31826" lon="1.40635">
        <ele>370</ele>
        <time>2011-07-07T15:01:32Z</time>
      </trkpt>
      <trkpt lat="45.3182" lon="1.40638">
        <ele>370</ele>
        <time>2011-07-07T15:01:33Z</time>
      </trkpt>
      <trkpt lat="45.31814" lon="1.40642">
        <ele>369</ele>
        <time>2011-07-07T15:01:34Z</time>
      </trkpt>
      <trkpt lat="45.31806" lon="1.40644">
        <ele>369</ele>
        <time>2011-07-07T15:01:35Z</time>
      </trkpt>
      <trkpt lat="45.31797" lon="1.40646">
        <ele>369</ele>
        <time>2011-07-07T15:01:36Z</time>
      </trkpt>
      <trkpt lat="45.31788" lon="1.40646">
        <ele>370</ele>
        <time>2011-07-07T15:01:37Z</time>
      </trkpt>
      <trkpt lat="45.3178" lon="1.40647">
        <ele>368</ele>
        <time>2011-07-07T15:01:38Z</time>
      </trkpt>
      <trkpt lat="45.31772" lon="1.40646">
        <ele>367</ele>
        <time>2011-07-07T15:01:39Z</time>
      </trkpt>
      <trkpt lat="45.31763" lon="1.40646">
        <ele>368</ele>
        <time>2011-07-07T15:01:40Z</time>
      </trkpt>
      <trkpt lat="45.31753" lon="1.40645">
        <ele>369</ele>
        <time>2011-07-07T15:01:41Z</time>
      </trkpt>
      <trkpt lat="45.31744" lon="1.40645">
        <ele>368</ele>
        <time>2011-07-07T15:01:42Z</time>
      </trkpt>
      <trkpt lat="45.31734" lon="1.40644">
        <ele>367</ele>
        <time>2011-07-07T15:01:43Z</time>
      </trkpt>
      <trkpt lat="45.31724" lon="1.40644">
        <ele>368</ele>
        <time>2011-07-07T15:01:44Z</time>
      </trkpt>
      <trkpt lat="45.31713" lon="1.40644">
        <ele>368</ele>
        <time>2011-07-07T15:01:45Z</time>
      </trkpt>
      <trkpt lat="45.31704" lon="1.40645">
        <ele>368</ele>
        <time>2011-07-07T15:01:46Z</time>
      </trkpt>
      <trkpt lat="45.31695" lon="1.40647">
        <ele>370</ele>
        <time>2011-07-07T15:01:47Z</time>
      </trkpt>
      <trkpt lat="45.31686" lon="1.40649">
        <ele>370</ele>
        <time>2011-07-07T15:01:48Z</time>
      </trkpt>
      <trkpt lat="45.31676" lon="1.40656">
        <ele>375</ele>
        <time>2011-07-07T15:01:49Z</time>
      </trkpt>
      <trkpt lat="45.31667" lon="1.40663">
        <ele>374</ele>
        <time>2011-07-07T15:01:50Z</time>
      </trkpt>
      <trkpt lat="45.31658" lon="1.40667">
        <ele>374</ele>
        <time>2011-07-07T15:01:51Z</time>
      </trkpt>
      <trkpt lat="45.3165" lon="1.40672">
        <ele>374</ele>
        <time>2011-07-07T15:01:52Z</time>
      </trkpt>
      <trkpt lat="45.31642" lon="1.40677">
        <ele>374</ele>
        <time>2011-07-07T15:01:53Z</time>
      </trkpt>
      <trkpt lat="45.31633" lon="1.40683">
        <ele>374</ele>
        <time>2011-07-07T15:01:54Z</time>
      </trkpt>
      <trkpt lat="45.31626" lon="1.40692">
        <ele>370</ele>
        <time>2011-07-07T15:01:55Z</time>
      </trkpt>
      <trkpt lat="45.3162" lon="1.407">
        <ele>371</ele>
        <time>2011-07-07T15:01:56Z</time>
      </trkpt>
      <trkpt lat="45.31614" lon="1.40708">
        <ele>371</ele>
        <time>2011-07-07T15:01:57Z</time>
      </trkpt>
      <trkpt lat="45.31609" lon="1.40717">
        <ele>368</ele>
        <time>2011-07-07T15:01:58Z</time>
      </trkpt>
      <trkpt lat="45.31602" lon="1.40726">
        <ele>367</ele>
        <time>2011-07-07T15:01:59Z</time>
      </trkpt>
      <trkpt lat="45.31594" lon="1.40737">
        <ele>362</ele>
        <time>2011-07-07T15:02:00Z</time>
      </trkpt>
      <trkpt lat="45.31584" lon="1.40744">
        <ele>362</ele>
        <time>2011-07-07T15:02:01Z</time>
      </trkpt>
      <trkpt lat="45.31575" lon="1.40746">
        <ele>365</ele>
        <time>2011-07-07T15:02:02Z</time>
      </trkpt>
      <trkpt lat="45.31566" lon="1.40745">
        <ele>364</ele>
        <time>2011-07-07T15:02:03Z</time>
      </trkpt>
      <trkpt lat="45.31558" lon="1.40742">
        <ele>361</ele>
        <time>2011-07-07T15:02:04Z</time>
      </trkpt>
      <trkpt lat="45.3155" lon="1.40738">
        <ele>360</ele>
        <time>2011-07-07T15:02:05Z</time>
      </trkpt>
      <trkpt lat="45.31543" lon="1.40733">
        <ele>359</ele>
        <time>2011-07-07T15:02:06Z</time>
      </trkpt>
      <trkpt lat="45.31537" lon="1.40726">
        <ele>359</ele>
        <time>2011-07-07T15:02:07Z</time>
      </trkpt>
      <trkpt lat="45.3153" lon="1.40719">
        <ele>359</ele>
        <time>2011-07-07T15:02:08Z</time>
      </trkpt>
      <trkpt lat="45.31522" lon="1.40714">
        <ele>359</ele>
        <time>2011-07-07T15:02:09Z</time>
      </trkpt>
      <trkpt lat="45.31515" lon="1.40712">
        <ele>352</ele>
        <time>2011-07-07T15:02:10Z</time>
      </trkpt>
      <trkpt lat="45.31507" lon="1.4071">
        <ele>352</ele>
        <time>2011-07-07T15:02:11Z</time>
      </trkpt>
      <trkpt lat="45.31499" lon="1.40707">
        <ele>352</ele>
        <time>2011-07-07T15:02:12Z</time>
      </trkpt>
      <trkpt lat="45.31491" lon="1.40709">
        <ele>352</ele>
        <time>2011-07-07T15:02:13Z</time>
      </trkpt>
      <trkpt lat="45.31482" lon="1.40713">
        <ele>349</ele>
        <time>2011-07-07T15:02:14Z</time>
      </trkpt>
      <trkpt lat="45.31472" lon="1.40718">
        <ele>349</ele>
        <time>2011-07-07T15:02:15Z</time>
      </trkpt>
      <trkpt lat="45.31463" lon="1.40723">
        <ele>347</ele>
        <time>2011-07-07T15:02:16Z</time>
      </trkpt>
      <trkpt lat="45.31454" lon="1.40728">
        <ele>347</ele>
        <time>2011-07-07T15:02:17Z</time>
      </trkpt>
      <trkpt lat="45.31444" lon="1.40733">
        <ele>348</ele>
        <time>2011-07-07T15:02:18Z</time>
      </trkpt>
      <trkpt lat="45.31433" lon="1.40737">
        <ele>346</ele>
        <time>2011-07-07T15:02:19Z</time>
      </trkpt>
      <trkpt lat="45.31423" lon="1.40742">
        <ele>345</ele>
        <time>2011-07-07T15:02:20Z</time>
      </trkpt>
      <trkpt lat="45.31411" lon="1.40747">
        <ele>344</ele>
        <time>2011-07-07T15:02:21Z</time>
      </trkpt>
      <trkpt lat="45.314" lon="1.40752">
        <ele>345</ele>
        <time>2011-07-07T15:02:22Z</time>
      </trkpt>
      <trkpt lat="45.31389" lon="1.40757">
        <ele>346</ele>
        <time>2011-07-07T15:02:23Z</time>
      </trkpt>
      <trkpt lat="45.31379" lon="1.40762">
        <ele>346</ele>
        <time>2011-07-07T15:02:24Z</time>
      </trkpt>
      <trkpt lat="45.31367" lon="1.40767">
        <ele>343</ele>
        <time>2011-07-07T15:02:25Z</time>
      </trkpt>
      <trkpt lat="45.31355" lon="1.40772">
        <ele>343</ele>
        <time>2011-07-07T15:02:26Z</time>
      </trkpt>
      <trkpt lat="45.31344" lon="1.40777">
        <ele>340</ele>
        <time>2011-07-07T15:02:27Z</time>
      </trkpt>
      <trkpt lat="45.31334" lon="1.40782">
        <ele>338</ele>
        <time>2011-07-07T15:02:28Z</time>
      </trkpt>
      <trkpt lat="45.31326" lon="1.4079">
        <ele>336</ele>
        <time>2011-07-07T15:02:29Z</time>
      </trkpt>
      <trkpt lat="45.31318" lon="1.40797">
        <ele>334</ele>
        <time>2011-07-07T15:02:30Z</time>
      </trkpt>
      <trkpt lat="45.31312" lon="1.40804">
        <ele>333</ele>
        <time>2011-07-07T15:02:31Z</time>
      </trkpt>
      <trkpt lat="45.31308" lon="1.40814">
        <ele>331</ele>
        <time>2011-07-07T15:02:32Z</time>
      </trkpt>
      <trkpt lat="45.31306" lon="1.40825">
        <ele>331</ele>
        <time>2011-07-07T15:02:33Z</time>
      </trkpt>
      <trkpt lat="45.31304" lon="1.40837">
        <ele>329</ele>
        <time>2011-07-07T15:02:34Z</time>
      </trkpt>
      <trkpt lat="45.31302" lon="1.4085">
        <ele>327</ele>
        <time>2011-07-07T15:02:35Z</time>
      </trkpt>
      <trkpt lat="45.313" lon="1.40863">
        <ele>326</ele>
        <time>2011-07-07T15:02:36Z</time>
      </trkpt>
      <trkpt lat="45.31298" lon="1.40879">
        <ele>325</ele>
        <time>2011-07-07T15:02:37Z</time>
      </trkpt>
      <trkpt lat="45.31295" lon="1.40895">
        <ele>327</ele>
        <time>2011-07-07T15:02:38Z</time>
      </trkpt>
      <trkpt lat="45.31292" lon="1.40907">
        <ele>324</ele>
        <time>2011-07-07T15:02:39Z</time>
      </trkpt>
      <trkpt lat="45.31288" lon="1.40914">
        <ele>323</ele>
        <time>2011-07-07T15:02:40Z</time>
      </trkpt>
      <trkpt lat="45.31282" lon="1.40919">
        <ele>320</ele>
        <time>2011-07-07T15:02:41Z</time>
      </trkpt>
      <trkpt lat="45.31276" lon="1.40918">
        <ele>319</ele>
        <time>2011-07-07T15:02:42Z</time>
      </trkpt>
      <trkpt lat="45.3127" lon="1.40916">
        <ele>316</ele>
        <time>2011-07-07T15:02:43Z</time>
      </trkpt>
      <trkpt lat="45.31264" lon="1.40912">
        <ele>313</ele>
        <time>2011-07-07T15:02:44Z</time>
      </trkpt>
      <trkpt lat="45.31258" lon="1.40907">
        <ele>312</ele>
        <time>2011-07-07T15:02:45Z</time>
      </trkpt>
      <trkpt lat="45.31253" lon="1.40901">
        <ele>312</ele>
        <time>2011-07-07T15:02:46Z</time>
      </trkpt>
      <trkpt lat="45.31248" lon="1.40895">
        <ele>312</ele>
        <time>2011-07-07T15:02:47Z</time>
      </trkpt>
      <trkpt lat="45.31243" lon="1.4089">
        <ele>311</ele>
        <time>2011-07-07T15:02:48Z</time>
      </trkpt>
      <trkpt lat="45.31238" lon="1.40886">
        <ele>312</ele>
        <time>2011-07-07T15:02:49Z</time>
      </trkpt>
      <trkpt lat="45.31232" lon="1.40882">
        <ele>312</ele>
        <time>2011-07-07T15:02:50Z</time>
      </trkpt>
      <trkpt lat="45.31227" lon="1.4088">
        <ele>313</ele>
        <time>2011-07-07T15:02:51Z</time>
      </trkpt>
      <trkpt lat="45.31221" lon="1.4088">
        <ele>313</ele>
        <time>2011-07-07T15:02:52Z</time>
      </trkpt>
      <trkpt lat="45.31216" lon="1.40881">
        <ele>313</ele>
        <time>2011-07-07T15:02:53Z</time>
      </trkpt>
      <trkpt lat="45.31211" lon="1.40883">
        <ele>312</ele>
        <time>2011-07-07T15:02:54Z</time>
      </trkpt>
      <trkpt lat="45.31206" lon="1.40885">
        <ele>312</ele>
        <time>2011-07-07T15:02:55Z</time>
      </trkpt>
      <trkpt lat="45.31201" lon="1.40887">
        <ele>311</ele>
        <time>2011-07-07T15:02:56Z</time>
      </trkpt>
      <trkpt lat="45.31197" lon="1.40889">
        <ele>310</ele>
        <time>2011-07-07T15:02:57Z</time>
      </trkpt>
      <trkpt lat="45.31192" lon="1.40892">
        <ele>310</ele>
        <time>2011-07-07T15:02:58Z</time>
      </trkpt>
      <trkpt lat="45.31189" lon="1.40896">
        <ele>309</ele>
        <time>2011-07-07T15:02:59Z</time>
      </trkpt>
      <trkpt lat="45.31184" lon="1.40906">
        <ele>308</ele>
        <time>2011-07-07T15:03:01Z</time>
      </trkpt>
      <trkpt lat="45.31183" lon="1.40916">
        <ele>306</ele>
        <time>2011-07-07T15:03:03Z</time>
      </trkpt>
      <trkpt lat="45.31184" lon="1.40922">
        <ele>306</ele>
        <time>2011-07-07T15:03:04Z</time>
      </trkpt>
      <trkpt lat="45.31186" lon="1.40932">
        <ele>308</ele>
        <time>2011-07-07T15:03:06Z</time>
      </trkpt>
      <trkpt lat="45.31188" lon="1.4094">
        <ele>310</ele>
        <time>2011-07-07T15:03:08Z</time>
      </trkpt>
      <trkpt lat="45.3119" lon="1.4095">
        <ele>308</ele>
        <time>2011-07-07T15:03:10Z</time>
      </trkpt>
      <trkpt lat="45.3119" lon="1.4096">
        <ele>308</ele>
        <time>2011-07-07T15:03:12Z</time>
      </trkpt>
      <trkpt lat="45.3119" lon="1.40969">
        <ele>310</ele>
        <time>2011-07-07T15:03:14Z</time>
      </trkpt>
      <trkpt lat="45.31188" lon="1.40977">
        <ele>309</ele>
        <time>2011-07-07T15:03:16Z</time>
      </trkpt>
      <trkpt lat="45.31183" lon="1.40983">
        <ele>311</ele>
        <time>2011-07-07T15:03:18Z</time>
      </trkpt>
      <trkpt lat="45.31174" lon="1.40985">
        <ele>312</ele>
        <time>2011-07-07T15:03:20Z</time>
      </trkpt>
      <trkpt lat="45.3117" lon="1.40988">
        <ele>312</ele>
        <time>2011-07-07T15:03:21Z</time>
      </trkpt>
      <trkpt lat="45.31166" lon="1.4099">
        <ele>310</ele>
        <time>2011-07-07T15:03:22Z</time>
      </trkpt>
      <trkpt lat="45.31161" lon="1.40995">
        <ele>309</ele>
        <time>2011-07-07T15:03:23Z</time>
      </trkpt>
      <trkpt lat="45.31157" lon="1.41001">
        <ele>307</ele>
        <time>2011-07-07T15:03:24Z</time>
      </trkpt>
      <trkpt lat="45.31152" lon="1.41006">
        <ele>308</ele>
        <time>2011-07-07T15:03:25Z</time>
      </trkpt>
      <trkpt lat="45.31147" lon="1.41013">
        <ele>311</ele>
        <time>2011-07-07T15:03:26Z</time>
      </trkpt>
      <trkpt lat="45.31143" lon="1.41019">
        <ele>312</ele>
        <time>2011-07-07T15:03:27Z</time>
      </trkpt>
      <trkpt lat="45.31137" lon="1.41027">
        <ele>311</ele>
        <time>2011-07-07T15:03:28Z</time>
      </trkpt>
      <trkpt lat="45.31131" lon="1.41034">
        <ele>309</ele>
        <time>2011-07-07T15:03:29Z</time>
      </trkpt>
      <trkpt lat="45.31125" lon="1.41041">
        <ele>308</ele>
        <time>2011-07-07T15:03:30Z</time>
      </trkpt>
      <trkpt lat="45.31118" lon="1.41048">
        <ele>308</ele>
        <time>2011-07-07T15:03:31Z</time>
      </trkpt>
      <trkpt lat="45.31112" lon="1.41054">
        <ele>306</ele>
        <time>2011-07-07T15:03:32Z</time>
      </trkpt>
      <trkpt lat="45.31105" lon="1.4106">
        <ele>306</ele>
        <time>2011-07-07T15:03:33Z</time>
      </trkpt>
      <trkpt lat="45.31098" lon="1.41067">
        <ele>305</ele>
        <time>2011-07-07T15:03:34Z</time>
      </trkpt>
      <trkpt lat="45.31093" lon="1.41076">
        <ele>303</ele>
        <time>2011-07-07T15:03:35Z</time>
      </trkpt>
      <trkpt lat="45.31088" lon="1.41086">
        <ele>303</ele>
        <time>2011-07-07T15:03:36Z</time>
      </trkpt>
      <trkpt lat="45.31086" lon="1.41098">
        <ele>303</ele>
        <time>2011-07-07T15:03:37Z</time>
      </trkpt>
      <trkpt lat="45.31084" lon="1.41108">
        <ele>302</ele>
        <time>2011-07-07T15:03:38Z</time>
      </trkpt>
      <trkpt lat="45.31084" lon="1.41119">
        <ele>301</ele>
        <time>2011-07-07T15:03:39Z</time>
      </trkpt>
      <trkpt lat="45.31083" lon="1.41128">
        <ele>301</ele>
        <time>2011-07-07T15:03:40Z</time>
      </trkpt>
      <trkpt lat="45.31082" lon="1.41136">
        <ele>301</ele>
        <time>2011-07-07T15:03:41Z</time>
      </trkpt>
      <trkpt lat="45.3108" lon="1.41143">
        <ele>301</ele>
        <time>2011-07-07T15:03:42Z</time>
      </trkpt>
      <trkpt lat="45.31076" lon="1.41147">
        <ele>302</ele>
        <time>2011-07-07T15:03:43Z</time>
      </trkpt>
      <trkpt lat="45.3107" lon="1.41146">
        <ele>303</ele>
        <time>2011-07-07T15:03:44Z</time>
      </trkpt>
      <trkpt lat="45.31065" lon="1.41143">
        <ele>304</ele>
        <time>2011-07-07T15:03:45Z</time>
      </trkpt>
      <trkpt lat="45.31062" lon="1.41135">
        <ele>303</ele>
        <time>2011-07-07T15:03:46Z</time>
      </trkpt>
      <trkpt lat="45.31061" lon="1.41124">
        <ele>301</ele>
        <time>2011-07-07T15:03:47Z</time>
      </trkpt>
      <trkpt lat="45.31061" lon="1.41112">
        <ele>301</ele>
        <time>2011-07-07T15:03:48Z</time>
      </trkpt>
      <trkpt lat="45.31061" lon="1.41099">
        <ele>300</ele>
        <time>2011-07-07T15:03:49Z</time>
      </trkpt>
      <trkpt lat="45.31062" lon="1.41085">
        <ele>299</ele>
        <time>2011-07-07T15:03:50Z</time>
      </trkpt>
      <trkpt lat="45.31063" lon="1.41072">
        <ele>299</ele>
        <time>2011-07-07T15:03:51Z</time>
      </trkpt>
      <trkpt lat="45.31064" lon="1.41061">
        <ele>298</ele>
        <time>2011-07-07T15:03:52Z</time>
      </trkpt>
      <trkpt lat="45.31067" lon="1.41048">
        <ele>299</ele>
        <time>2011-07-07T15:03:53Z</time>
      </trkpt>
      <trkpt lat="45.3107" lon="1.41035">
        <ele>299</ele>
        <time>2011-07-07T15:03:54Z</time>
      </trkpt>
      <trkpt lat="45.31073" lon="1.41023">
        <ele>298</ele>
        <time>2011-07-07T15:03:55Z</time>
      </trkpt>
      <trkpt lat="45.31076" lon="1.4101">
        <ele>298</ele>
        <time>2011-07-07T15:03:56Z</time>
      </trkpt>
      <trkpt lat="45.3108" lon="1.40996">
        <ele>294</ele>
        <time>2011-07-07T15:03:57Z</time>
      </trkpt>
      <trkpt lat="45.31083" lon="1.40983">
        <ele>292</ele>
        <time>2011-07-07T15:03:58Z</time>
      </trkpt>
      <trkpt lat="45.31088" lon="1.40974">
        <ele>291</ele>
        <time>2011-07-07T15:03:59Z</time>
      </trkpt>
      <trkpt lat="45.31093" lon="1.40966">
        <ele>291</ele>
        <time>2011-07-07T15:04:00Z</time>
      </trkpt>
      <trkpt lat="45.31096" lon="1.40961">
        <ele>288</ele>
        <time>2011-07-07T15:04:01Z</time>
      </trkpt>
      <trkpt lat="45.31098" lon="1.40954">
        <ele>287</ele>
        <time>2011-07-07T15:04:02Z</time>
      </trkpt>
      <trkpt lat="45.31093" lon="1.40953">
        <ele>287</ele>
        <time>2011-07-07T15:04:05Z</time>
      </trkpt>
      <trkpt lat="45.31086" lon="1.40963">
        <ele>287</ele>
        <time>2011-07-07T15:04:07Z</time>
      </trkpt>
      <trkpt lat="45.31081" lon="1.40969">
        <ele>287</ele>
        <time>2011-07-07T15:04:08Z</time>
      </trkpt>
      <trkpt lat="45.31076" lon="1.40975">
        <ele>286</ele>
        <time>2011-07-07T15:04:09Z</time>
      </trkpt>
      <trkpt lat="45.31071" lon="1.40981">
        <ele>287</ele>
        <time>2011-07-07T15:04:10Z</time>
      </trkpt>
      <trkpt lat="45.31065" lon="1.40988">
        <ele>287</ele>
        <time>2011-07-07T15:04:11Z</time>
      </trkpt>
      <trkpt lat="45.31059" lon="1.40996">
        <ele>286</ele>
        <time>2011-07-07T15:04:12Z</time>
      </trkpt>
      <trkpt lat="45.31053" lon="1.41003">
        <ele>288</ele>
        <time>2011-07-07T15:04:13Z</time>
      </trkpt>
      <trkpt lat="45.31047" lon="1.41011">
        <ele>287</ele>
        <time>2011-07-07T15:04:14Z</time>
      </trkpt>
      <trkpt lat="45.31041" lon="1.41019">
        <ele>287</ele>
        <time>2011-07-07T15:04:15Z</time>
      </trkpt>
      <trkpt lat="45.31034" lon="1.41029">
        <ele>287</ele>
        <time>2011-07-07T15:04:16Z</time>
      </trkpt>
      <trkpt lat="45.31027" lon="1.4104">
        <ele>288</ele>
        <time>2011-07-07T15:04:17Z</time>
      </trkpt>
      <trkpt lat="45.3102" lon="1.4105">
        <ele>286</ele>
        <time>2011-07-07T15:04:18Z</time>
      </trkpt>
      <trkpt lat="45.31014" lon="1.41062">
        <ele>285</ele>
        <time>2011-07-07T15:04:19Z</time>
      </trkpt>
      <trkpt lat="45.31008" lon="1.41073">
        <ele>284</ele>
        <time>2011-07-07T15:04:20Z</time>
      </trkpt>
      <trkpt lat="45.31003" lon="1.41084">
        <ele>284</ele>
        <time>2011-07-07T15:04:21Z</time>
      </trkpt>
      <trkpt lat="45.31001" lon="1.41094">
        <ele>282</ele>
        <time>2011-07-07T15:04:22Z</time>
      </trkpt>
      <trkpt lat="45.31" lon="1.41104">
        <ele>281</ele>
        <time>2011-07-07T15:04:23Z</time>
      </trkpt>
      <trkpt lat="45.31001" lon="1.41115">
        <ele>284</ele>
        <time>2011-07-07T15:04:24Z</time>
      </trkpt>
      <trkpt lat="45.31001" lon="1.41125">
        <ele>284</ele>
        <time>2011-07-07T15:04:25Z</time>
      </trkpt>
      <trkpt lat="45.31002" lon="1.41136">
        <ele>283</ele>
        <time>2011-07-07T15:04:26Z</time>
      </trkpt>
      <trkpt lat="45.31002" lon="1.41146">
        <ele>284</ele>
        <time>2011-07-07T15:04:27Z</time>
      </trkpt>
      <trkpt lat="45.31001" lon="1.41154">
        <ele>282</ele>
        <time>2011-07-07T15:04:28Z</time>
      </trkpt>
      <trkpt lat="45.30999" lon="1.4116">
        <ele>284</ele>
        <time>2011-07-07T15:04:29Z</time>
      </trkpt>
      <trkpt lat="45.30991" lon="1.41169">
        <ele>278</ele>
        <time>2011-07-07T15:04:31Z</time>
      </trkpt>
      <trkpt lat="45.30984" lon="1.41171">
        <ele>275</ele>
        <time>2011-07-07T15:04:32Z</time>
      </trkpt>
      <trkpt lat="45.30976" lon="1.41172">
        <ele>274</ele>
        <time>2011-07-07T15:04:33Z</time>
      </trkpt>
      <trkpt lat="45.30967" lon="1.41174">
        <ele>273</ele>
        <time>2011-07-07T15:04:34Z</time>
      </trkpt>
      <trkpt lat="45.30958" lon="1.41177">
        <ele>273</ele>
        <time>2011-07-07T15:04:35Z</time>
      </trkpt>
      <trkpt lat="45.3095" lon="1.41181">
        <ele>272</ele>
        <time>2011-07-07T15:04:36Z</time>
      </trkpt>
      <trkpt lat="45.30941" lon="1.41187">
        <ele>268</ele>
        <time>2011-07-07T15:04:37Z</time>
      </trkpt>
      <trkpt lat="45.30932" lon="1.41194">
        <ele>266</ele>
        <time>2011-07-07T15:04:38Z</time>
      </trkpt>
      <trkpt lat="45.30924" lon="1.41202">
        <ele>264</ele>
        <time>2011-07-07T15:04:39Z</time>
      </trkpt>
      <trkpt lat="45.30916" lon="1.4121">
        <ele>265</ele>
        <time>2011-07-07T15:04:40Z</time>
      </trkpt>
      <trkpt lat="45.30908" lon="1.41219">
        <ele>266</ele>
        <time>2011-07-07T15:04:41Z</time>
      </trkpt>
      <trkpt lat="45.30899" lon="1.41228">
        <ele>265</ele>
        <time>2011-07-07T15:04:42Z</time>
      </trkpt>
      <trkpt lat="45.30891" lon="1.41239">
        <ele>256</ele>
        <time>2011-07-07T15:04:43Z</time>
      </trkpt>
      <trkpt lat="45.30881" lon="1.41252">
        <ele>252</ele>
        <time>2011-07-07T15:04:44Z</time>
      </trkpt>
      <trkpt lat="45.30872" lon="1.41265">
        <ele>250</ele>
        <time>2011-07-07T15:04:45Z</time>
      </trkpt>
      <trkpt lat="45.30864" lon="1.41277">
        <ele>250</ele>
        <time>2011-07-07T15:04:46Z</time>
      </trkpt>
      <trkpt lat="45.30856" lon="1.4129">
        <ele>249</ele>
        <time>2011-07-07T15:04:47Z</time>
      </trkpt>
      <trkpt lat="45.30849" lon="1.413">
        <ele>250</ele>
        <time>2011-07-07T15:04:48Z</time>
      </trkpt>
      <trkpt lat="45.30841" lon="1.41312">
        <ele>249</ele>
        <time>2011-07-07T15:04:49Z</time>
      </trkpt>
      <trkpt lat="45.30833" lon="1.41326">
        <ele>251</ele>
        <time>2011-07-07T15:04:50Z</time>
      </trkpt>
      <trkpt lat="45.30828" lon="1.41342">
        <ele>245</ele>
        <time>2011-07-07T15:04:51Z</time>
      </trkpt>
      <trkpt lat="45.30823" lon="1.41356">
        <ele>244</ele>
        <time>2011-07-07T15:04:52Z</time>
      </trkpt>
      <trkpt lat="45.30818" lon="1.4137">
        <ele>242</ele>
        <time>2011-07-07T15:04:53Z</time>
      </trkpt>
      <trkpt lat="45.30814" lon="1.41383">
        <ele>243</ele>
        <time>2011-07-07T15:04:54Z</time>
      </trkpt>
      <trkpt lat="45.3081" lon="1.41397">
        <ele>242</ele>
        <time>2011-07-07T15:04:55Z</time>
      </trkpt>
      <trkpt lat="45.30806" lon="1.41412">
        <ele>238</ele>
        <time>2011-07-07T15:04:56Z</time>
      </trkpt>
      <trkpt lat="45.30806" lon="1.41427">
        <ele>239</ele>
        <time>2011-07-07T15:04:57Z</time>
      </trkpt>
      <trkpt lat="45.30806" lon="1.41442">
        <ele>241</ele>
        <time>2011-07-07T15:04:58Z</time>
      </trkpt>
      <trkpt lat="45.30806" lon="1.41455">
        <ele>244</ele>
        <time>2011-07-07T15:04:59Z</time>
      </trkpt>
      <trkpt lat="45.30808" lon="1.4147">
        <ele>243</ele>
        <time>2011-07-07T15:05:00Z</time>
      </trkpt>
      <trkpt lat="45.30811" lon="1.41484">
        <ele>243</ele>
        <time>2011-07-07T15:05:01Z</time>
      </trkpt>
      <trkpt lat="45.30813" lon="1.41499">
        <ele>245</ele>
        <time>2011-07-07T15:05:02Z</time>
      </trkpt>
      <trkpt lat="45.30816" lon="1.41512">
        <ele>237</ele>
        <time>2011-07-07T15:05:03Z</time>
      </trkpt>
      <trkpt lat="45.30816" lon="1.41525">
        <ele>236</ele>
        <time>2011-07-07T15:05:04Z</time>
      </trkpt>
      <trkpt lat="45.30817" lon="1.41538">
        <ele>238</ele>
        <time>2011-07-07T15:05:05Z</time>
      </trkpt>
      <trkpt lat="45.30817" lon="1.41551">
        <ele>237</ele>
        <time>2011-07-07T15:05:06Z</time>
      </trkpt>
      <trkpt lat="45.30818" lon="1.41565">
        <ele>237</ele>
        <time>2011-07-07T15:05:07Z</time>
      </trkpt>
      <trkpt lat="45.30818" lon="1.41578">
        <ele>235</ele>
        <time>2011-07-07T15:05:08Z</time>
      </trkpt>
      <trkpt lat="45.30819" lon="1.41591">
        <ele>235</ele>
        <time>2011-07-07T15:05:09Z</time>
      </trkpt>
      <trkpt lat="45.30821" lon="1.41601">
        <ele>234</ele>
        <time>2011-07-07T15:05:10Z</time>
      </trkpt>
      <trkpt lat="45.30822" lon="1.41607">
        <ele>230</ele>
        <time>2011-07-07T15:05:11Z</time>
      </trkpt>
      <trkpt lat="45.30821" lon="1.41616">
        <ele>230</ele>
        <time>2011-07-07T15:05:13Z</time>
      </trkpt>
      <trkpt lat="45.30812" lon="1.41618">
        <ele>228</ele>
        <time>2011-07-07T15:05:16Z</time>
      </trkpt>
      <trkpt lat="45.30807" lon="1.41618">
        <ele>226</ele>
        <time>2011-07-07T15:05:17Z</time>
      </trkpt>
      <trkpt lat="45.30801" lon="1.41617">
        <ele>226</ele>
        <time>2011-07-07T15:05:18Z</time>
      </trkpt>
      <trkpt lat="45.30793" lon="1.41619">
        <ele>226</ele>
        <time>2011-07-07T15:05:19Z</time>
      </trkpt>
      <trkpt lat="45.30785" lon="1.41622">
        <ele>225</ele>
        <time>2011-07-07T15:05:20Z</time>
      </trkpt>
      <trkpt lat="45.30776" lon="1.41622">
        <ele>225</ele>
        <time>2011-07-07T15:05:21Z</time>
      </trkpt>
      <trkpt lat="45.30766" lon="1.41623">
        <ele>224</ele>
        <time>2011-07-07T15:05:22Z</time>
      </trkpt>
      <trkpt lat="45.30757" lon="1.41625">
        <ele>221</ele>
        <time>2011-07-07T15:05:23Z</time>
      </trkpt>
      <trkpt lat="45.3075" lon="1.41626">
        <ele>219</ele>
        <time>2011-07-07T15:05:24Z</time>
      </trkpt>
      <trkpt lat="45.30741" lon="1.41627">
        <ele>220</ele>
        <time>2011-07-07T15:05:25Z</time>
      </trkpt>
      <trkpt lat="45.30733" lon="1.41622">
        <ele>212</ele>
        <time>2011-07-07T15:05:26Z</time>
      </trkpt>
      <trkpt lat="45.30727" lon="1.41615">
        <ele>208</ele>
        <time>2011-07-07T15:05:27Z</time>
      </trkpt>
      <trkpt lat="45.30721" lon="1.41606">
        <ele>211</ele>
        <time>2011-07-07T15:05:28Z</time>
      </trkpt>
      <trkpt lat="45.30715" lon="1.41599">
        <ele>210</ele>
        <time>2011-07-07T15:05:29Z</time>
      </trkpt>
      <trkpt lat="45.30709" lon="1.41591">
        <ele>211</ele>
        <time>2011-07-07T15:05:30Z</time>
      </trkpt>
      <trkpt lat="45.30702" lon="1.41582">
        <ele>210</ele>
        <time>2011-07-07T15:05:31Z</time>
      </trkpt>
      <trkpt lat="45.30698" lon="1.41571">
        <ele>210</ele>
        <time>2011-07-07T15:05:32Z</time>
      </trkpt>
      <trkpt lat="45.30697" lon="1.41559">
        <ele>207</ele>
        <time>2011-07-07T15:05:33Z</time>
      </trkpt>
      <trkpt lat="45.30697" lon="1.4155">
        <ele>208</ele>
        <time>2011-07-07T15:05:34Z</time>
      </trkpt>
      <trkpt lat="45.307" lon="1.41542">
        <ele>206</ele>
        <time>2011-07-07T15:05:35Z</time>
      </trkpt>
      <trkpt lat="45.30706" lon="1.41534">
        <ele>203</ele>
        <time>2011-07-07T15:05:36Z</time>
      </trkpt>
      <trkpt lat="45.3071" lon="1.41524">
        <ele>203</ele>
        <time>2011-07-07T15:05:37Z</time>
      </trkpt>
      <trkpt lat="45.30713" lon="1.41518">
        <ele>202</ele>
        <time>2011-07-07T15:05:38Z</time>
      </trkpt>
      <trkpt lat="45.30716" lon="1.41513">
        <ele>201</ele>
        <time>2011-07-07T15:05:39Z</time>
      </trkpt>
      <trkpt lat="45.3072" lon="1.41504">
        <ele>201</ele>
        <time>2011-07-07T15:05:41Z</time>
      </trkpt>
      <trkpt lat="45.30724" lon="1.41495">
        <ele>201</ele>
        <time>2011-07-07T15:05:43Z</time>
      </trkpt>
      <trkpt lat="45.30723" lon="1.41485">
        <ele>202</ele>
        <time>2011-07-07T15:05:45Z</time>
      </trkpt>
      <trkpt lat="45.30718" lon="1.41477">
        <ele>202</ele>
        <time>2011-07-07T15:05:47Z</time>
      </trkpt>
      <trkpt lat="45.30711" lon="1.4147">
        <ele>203</ele>
        <time>2011-07-07T15:05:49Z</time>
      </trkpt>
      <trkpt lat="45.30704" lon="1.41463">
        <ele>203</ele>
        <time>2011-07-07T15:05:51Z</time>
      </trkpt>
      <trkpt lat="45.30701" lon="1.41459">
        <ele>204</ele>
        <time>2011-07-07T15:05:52Z</time>
      </trkpt>
      <trkpt lat="45.30697" lon="1.41455">
        <ele>204</ele>
        <time>2011-07-07T15:05:53Z</time>
      </trkpt>
      <trkpt lat="45.30693" lon="1.4145">
        <ele>204</ele>
        <time>2011-07-07T15:05:54Z</time>
      </trkpt>
      <trkpt lat="45.3069" lon="1.41445">
        <ele>204</ele>
        <time>2011-07-07T15:05:55Z</time>
      </trkpt>
      <trkpt lat="45.30683" lon="1.41436">
        <ele>203</ele>
        <time>2011-07-07T15:05:57Z</time>
      </trkpt>
      <trkpt lat="45.30677" lon="1.41434">
        <ele>203</ele>
        <time>2011-07-07T15:05:58Z</time>
      </trkpt>
      <trkpt lat="45.30672" lon="1.41437">
        <ele>204</ele>
        <time>2011-07-07T15:05:59Z</time>
      </trkpt>
      <trkpt lat="45.30666" lon="1.41441">
        <ele>203</ele>
        <time>2011-07-07T15:06:00Z</time>
      </trkpt>
      <trkpt lat="45.3066" lon="1.41448">
        <ele>202</ele>
        <time>2011-07-07T15:06:01Z</time>
      </trkpt>
      <trkpt lat="45.30653" lon="1.41456">
        <ele>202</ele>
        <time>2011-07-07T15:06:02Z</time>
      </trkpt>
      <trkpt lat="45.30648" lon="1.41464">
        <ele>201</ele>
        <time>2011-07-07T15:06:03Z</time>
      </trkpt>
      <trkpt lat="45.30642" lon="1.41471">
        <ele>200</ele>
        <time>2011-07-07T15:06:04Z</time>
      </trkpt>
      <trkpt lat="45.30637" lon="1.41478">
        <ele>200</ele>
        <time>2011-07-07T15:06:05Z</time>
      </trkpt>
      <trkpt lat="45.30631" lon="1.41486">
        <ele>200</ele>
        <time>2011-07-07T15:06:06Z</time>
      </trkpt>
      <trkpt lat="45.30626" lon="1.41493">
        <ele>199</ele>
        <time>2011-07-07T15:06:07Z</time>
      </trkpt>
      <trkpt lat="45.30621" lon="1.415">
        <ele>199</ele>
        <time>2011-07-07T15:06:08Z</time>
      </trkpt>
      <trkpt lat="45.30617" lon="1.41506">
        <ele>198</ele>
        <time>2011-07-07T15:06:09Z</time>
      </trkpt>
      <trkpt lat="45.30613" lon="1.41512">
        <ele>199</ele>
        <time>2011-07-07T15:06:10Z</time>
      </trkpt>
      <trkpt lat="45.30609" lon="1.41518">
        <ele>200</ele>
        <time>2011-07-07T15:06:11Z</time>
      </trkpt>
      <trkpt lat="45.30604" lon="1.41525">
        <ele>200</ele>
        <time>2011-07-07T15:06:12Z</time>
      </trkpt>
      <trkpt lat="45.306" lon="1.41531">
        <ele>200</ele>
        <time>2011-07-07T15:06:13Z</time>
      </trkpt>
      <trkpt lat="45.30595" lon="1.41538">
        <ele>200</ele>
        <time>2011-07-07T15:06:14Z</time>
      </trkpt>
      <trkpt lat="45.3059" lon="1.41544">
        <ele>201</ele>
        <time>2011-07-07T15:06:15Z</time>
      </trkpt>
      <trkpt lat="45.30585" lon="1.4155">
        <ele>201</ele>
        <time>2011-07-07T15:06:16Z</time>
      </trkpt>
      <trkpt lat="45.3058" lon="1.41556">
        <ele>201</ele>
        <time>2011-07-07T15:06:17Z</time>
      </trkpt>
      <trkpt lat="45.30574" lon="1.41561">
        <ele>201</ele>
        <time>2011-07-07T15:06:18Z</time>
      </trkpt>
      <trkpt lat="45.30569" lon="1.41564">
        <ele>202</ele>
        <time>2011-07-07T15:06:19Z</time>
      </trkpt>
      <trkpt lat="45.30563" lon="1.41568">
        <ele>202</ele>
        <time>2011-07-07T15:06:20Z</time>
      </trkpt>
      <trkpt lat="45.30557" lon="1.41571">
        <ele>203</ele>
        <time>2011-07-07T15:06:21Z</time>
      </trkpt>
      <trkpt lat="45.3055" lon="1.41574">
        <ele>204</ele>
        <time>2011-07-07T15:06:22Z</time>
      </trkpt>
      <trkpt lat="45.30544" lon="1.41576">
        <ele>204</ele>
        <time>2011-07-07T15:06:23Z</time>
      </trkpt>
      <trkpt lat="45.30537" lon="1.41577">
        <ele>205</ele>
        <time>2011-07-07T15:06:24Z</time>
      </trkpt>
      <trkpt lat="45.30531" lon="1.41578">
        <ele>206</ele>
        <time>2011-07-07T15:06:25Z</time>
      </trkpt>
      <trkpt lat="45.30525" lon="1.41579">
        <ele>206</ele>
        <time>2011-07-07T15:06:26Z</time>
      </trkpt>
      <trkpt lat="45.30519" lon="1.41579">
        <ele>208</ele>
        <time>2011-07-07T15:06:27Z</time>
      </trkpt>
      <trkpt lat="45.30513" lon="1.41579">
        <ele>208</ele>
        <time>2011-07-07T15:06:28Z</time>
      </trkpt>
      <trkpt lat="45.30506" lon="1.41578">
        <ele>209</ele>
        <time>2011-07-07T15:06:29Z</time>
      </trkpt>
      <trkpt lat="45.305" lon="1.41577">
        <ele>205</ele>
        <time>2011-07-07T15:06:30Z</time>
      </trkpt>
      <trkpt lat="45.30495" lon="1.41576">
        <ele>202</ele>
        <time>2011-07-07T15:06:31Z</time>
      </trkpt>
      <trkpt lat="45.30489" lon="1.41575">
        <ele>201</ele>
        <time>2011-07-07T15:06:32Z</time>
      </trkpt>
      <trkpt lat="45.30482" lon="1.41574">
        <ele>200</ele>
        <time>2011-07-07T15:06:33Z</time>
      </trkpt>
      <trkpt lat="45.30476" lon="1.41574">
        <ele>200</ele>
        <time>2011-07-07T15:06:34Z</time>
      </trkpt>
      <trkpt lat="45.30469" lon="1.41574">
        <ele>199</ele>
        <time>2011-07-07T15:06:35Z</time>
      </trkpt>
      <trkpt lat="45.30463" lon="1.41575">
        <ele>199</ele>
        <time>2011-07-07T15:06:36Z</time>
      </trkpt>
      <trkpt lat="45.30457" lon="1.41577">
        <ele>199</ele>
        <time>2011-07-07T15:06:37Z</time>
      </trkpt>
      <trkpt lat="45.30451" lon="1.41579">
        <ele>197</ele>
        <time>2011-07-07T15:06:38Z</time>
      </trkpt>
      <trkpt lat="45.30446" lon="1.41581">
        <ele>197</ele>
        <time>2011-07-07T15:06:39Z</time>
      </trkpt>
      <trkpt lat="45.3044" lon="1.41585">
        <ele>195</ele>
        <time>2011-07-07T15:06:40Z</time>
      </trkpt>
      <trkpt lat="45.30434" lon="1.41588">
        <ele>197</ele>
        <time>2011-07-07T15:06:41Z</time>
      </trkpt>
      <trkpt lat="45.30429" lon="1.41592">
        <ele>197</ele>
        <time>2011-07-07T15:06:42Z</time>
      </trkpt>
      <trkpt lat="45.30424" lon="1.41595">
        <ele>198</ele>
        <time>2011-07-07T15:06:43Z</time>
      </trkpt>
      <trkpt lat="45.30419" lon="1.416">
        <ele>199</ele>
        <time>2011-07-07T15:06:44Z</time>
      </trkpt>
      <trkpt lat="45.30413" lon="1.41604">
        <ele>199</ele>
        <time>2011-07-07T15:06:45Z</time>
      </trkpt>
      <trkpt lat="45.30408" lon="1.41608">
        <ele>199</ele>
        <time>2011-07-07T15:06:46Z</time>
      </trkpt>
      <trkpt lat="45.30403" lon="1.41612">
        <ele>199</ele>
        <time>2011-07-07T15:06:47Z</time>
      </trkpt>
      <trkpt lat="45.30397" lon="1.41617">
        <ele>200</ele>
        <time>2011-07-07T15:06:48Z</time>
      </trkpt>
      <trkpt lat="45.30392" lon="1.41622">
        <ele>199</ele>
        <time>2011-07-07T15:06:49Z</time>
      </trkpt>
      <trkpt lat="45.30386" lon="1.41626">
        <ele>199</ele>
        <time>2011-07-07T15:06:50Z</time>
      </trkpt>
      <trkpt lat="45.30381" lon="1.41631">
        <ele>199</ele>
        <time>2011-07-07T15:06:51Z</time>
      </trkpt>
      <trkpt lat="45.30375" lon="1.41636">
        <ele>200</ele>
        <time>2011-07-07T15:06:52Z</time>
      </trkpt>
      <trkpt lat="45.3037" lon="1.41642">
        <ele>200</ele>
        <time>2011-07-07T15:06:53Z</time>
      </trkpt>
      <trkpt lat="45.30365" lon="1.41647">
        <ele>199</ele>
        <time>2011-07-07T15:06:54Z</time>
      </trkpt>
      <trkpt lat="45.3036" lon="1.41653">
        <ele>199</ele>
        <time>2011-07-07T15:06:55Z</time>
      </trkpt>
      <trkpt lat="45.30356" lon="1.41659">
        <ele>198</ele>
        <time>2011-07-07T15:06:56Z</time>
      </trkpt>
      <trkpt lat="45.30352" lon="1.41665">
        <ele>196</ele>
        <time>2011-07-07T15:06:57Z</time>
      </trkpt>
      <trkpt lat="45.30349" lon="1.4167">
        <ele>196</ele>
        <time>2011-07-07T15:06:58Z</time>
      </trkpt>
      <trkpt lat="45.30345" lon="1.41676">
        <ele>197</ele>
        <time>2011-07-07T15:06:59Z</time>
      </trkpt>
      <trkpt lat="45.30342" lon="1.41681">
        <ele>197</ele>
        <time>2011-07-07T15:07:00Z</time>
      </trkpt>
      <trkpt lat="45.30339" lon="1.41686">
        <ele>198</ele>
        <time>2011-07-07T15:07:01Z</time>
      </trkpt>
      <trkpt lat="45.30334" lon="1.41695">
        <ele>199</ele>
        <time>2011-07-07T15:07:03Z</time>
      </trkpt>
      <trkpt lat="45.30329" lon="1.41704">
        <ele>199</ele>
        <time>2011-07-07T15:07:05Z</time>
      </trkpt>
      <trkpt lat="45.30324" lon="1.41712">
        <ele>199</ele>
        <time>2011-07-07T15:07:07Z</time>
      </trkpt>
      <trkpt lat="45.3032" lon="1.41718">
        <ele>200</ele>
        <time>2011-07-07T15:07:09Z</time>
      </trkpt>
      <trkpt lat="45.30317" lon="1.41727">
        <ele>201</ele>
        <time>2011-07-07T15:07:11Z</time>
      </trkpt>
      <trkpt lat="45.30319" lon="1.41734">
        <ele>201</ele>
        <time>2011-07-07T15:07:13Z</time>
      </trkpt>
      <trkpt lat="45.30321" lon="1.4174">
        <ele>200</ele>
        <time>2011-07-07T15:07:15Z</time>
      </trkpt>
      <trkpt lat="45.30324" lon="1.41745">
        <ele>199</ele>
        <time>2011-07-07T15:07:17Z</time>
      </trkpt>
      <trkpt lat="45.30327" lon="1.41751">
        <ele>199</ele>
        <time>2011-07-07T15:07:19Z</time>
      </trkpt>
      <trkpt lat="45.3033" lon="1.41758">
        <ele>201</ele>
        <time>2011-07-07T15:07:22Z</time>
      </trkpt>
      <trkpt lat="45.30332" lon="1.41766">
        <ele>203</ele>
        <time>2011-07-07T15:07:25Z</time>
      </trkpt>
      <trkpt lat="45.30334" lon="1.41774">
        <ele>200</ele>
        <time>2011-07-07T15:07:28Z</time>
      </trkpt>
      <trkpt lat="45.30335" lon="1.41781">
        <ele>200</ele>
        <time>2011-07-07T15:07:31Z</time>
      </trkpt>
      <trkpt lat="45.30336" lon="1.4179">
        <ele>202</ele>
        <time>2011-07-07T15:07:34Z</time>
      </trkpt>
      <trkpt lat="45.30336" lon="1.41798">
        <ele>204</ele>
        <time>2011-07-07T15:07:37Z</time>
      </trkpt>
      <trkpt lat="45.30337" lon="1.41806">
        <ele>204</ele>
        <time>2011-07-07T15:07:40Z</time>
      </trkpt>
      <trkpt lat="45.30338" lon="1.41813">
        <ele>203</ele>
        <time>2011-07-07T15:07:43Z</time>
      </trkpt>
      <trkpt lat="45.30338" lon="1.4182">
        <ele>199</ele>
        <time>2011-07-07T15:07:46Z</time>
      </trkpt>
      <trkpt lat="45.30337" lon="1.41827">
        <ele>205</ele>
        <time>2011-07-07T15:07:49Z</time>
      </trkpt>
      <trkpt lat="45.30336" lon="1.41834">
        <ele>202</ele>
        <time>2011-07-07T15:07:52Z</time>
      </trkpt>
      <trkpt lat="45.30333" lon="1.4184">
        <ele>203</ele>
        <time>2011-07-07T15:07:56Z</time>
      </trkpt>
      <trkpt lat="45.30333" lon="1.4184">
        <ele>203</ele>
        <time>2011-07-07T15:07:56Z</time>
      </trkpt>
      <trkpt lat="45.30333" lon="1.4184">
        <ele>203</ele>
        <time>2011-07-07T15:08:02Z</time>
      </trkpt>
      <trkpt lat="45.30327" lon="1.4185">
        <ele>208</ele>
        <time>2011-07-07T15:08:03Z</time>
      </trkpt>
      <trkpt lat="45.30327" lon="1.4185">
        <ele>208</ele>
        <time>2011-07-07T15:08:03Z</time>
      </trkpt>
      <trkpt lat="45.30327" lon="1.4185">
        <ele>208</ele>
        <time>2011-07-07T15:08:17Z</time>
      </trkpt>
      <trkpt lat="45.30336" lon="1.41856">
        <ele>207</ele>
        <time>2011-07-07T15:08:18Z</time>
      </trkpt>
      <trkpt lat="45.30336" lon="1.41856">
        <ele>207</ele>
        <time>2011-07-07T15:08:18Z</time>
      </trkpt>
      <trkpt lat="45.30336" lon="1.41856">
        <ele>207</ele>
        <time>2011-07-07T15:08:21Z</time>
      </trkpt>
      <trkpt lat="45.30342" lon="1.41848">
        <ele>206</ele>
        <time>2011-07-07T15:08:22Z</time>
      </trkpt>
      <trkpt lat="45.30346" lon="1.41844">
        <ele>209</ele>
        <time>2011-07-07T15:08:24Z</time>
      </trkpt>
      <trkpt lat="45.30346" lon="1.41844">
        <ele>209</ele>
        <time>2011-07-07T15:08:24Z</time>
      </trkpt>
      <trkpt lat="45.30346" lon="1.41844">
        <ele>209</ele>
        <time>2011-07-07T15:08:25Z</time>
      </trkpt>
      <trkpt lat="45.30352" lon="1.4184">
        <ele>215</ele>
        <time>2011-07-07T15:08:28Z</time>
      </trkpt>
      <trkpt lat="45.3036" lon="1.41837">
        <ele>222</ele>
        <time>2011-07-07T15:08:33Z</time>
      </trkpt>
      <trkpt lat="45.30365" lon="1.41835">
        <ele>223</ele>
        <time>2011-07-07T15:08:37Z</time>
      </trkpt>
      <trkpt lat="45.30374" lon="1.41823">
        <ele>208</ele>
        <time>2011-07-07T15:08:46Z</time>
      </trkpt>
      <trkpt lat="45.30374" lon="1.41823">
        <ele>208</ele>
        <time>2011-07-07T15:08:46Z</time>
      </trkpt>
      <trkpt lat="45.30374" lon="1.41823">
        <ele>208</ele>
        <time>2011-07-07T15:08:47Z</time>
      </trkpt>
      <trkpt lat="45.30379" lon="1.41821">
        <ele>208</ele>
        <time>2011-07-07T15:08:49Z</time>
      </trkpt>
      <trkpt lat="45.30379" lon="1.41821">
        <ele>208</ele>
        <time>2011-07-07T15:08:49Z</time>
      </trkpt>
      <trkpt lat="45.30379" lon="1.41821">
        <ele>208</ele>
        <time>2011-07-07T15:08:50Z</time>
      </trkpt>
      <trkpt lat="45.30385" lon="1.41821">
        <ele>210</ele>
        <time>2011-07-07T15:08:52Z</time>
      </trkpt>
      <trkpt lat="45.30385" lon="1.41821">
        <ele>210</ele>
        <time>2011-07-07T15:08:52Z</time>
      </trkpt>
      <trkpt lat="45.30385" lon="1.41821">
        <ele>210</ele>
        <time>2011-07-07T15:08:53Z</time>
      </trkpt>
      <trkpt lat="45.30391" lon="1.4182">
        <ele>204</ele>
        <time>2011-07-07T15:08:55Z</time>
      </trkpt>
      <trkpt lat="45.30391" lon="1.4182">
        <ele>204</ele>
        <time>2011-07-07T15:08:55Z</time>
      </trkpt>
      <trkpt lat="45.30391" lon="1.4182">
        <ele>204</ele>
        <time>2011-07-07T15:08:56Z</time>
      </trkpt>
      <trkpt lat="45.30396" lon="1.4182">
        <ele>212</ele>
        <time>2011-07-07T15:08:58Z</time>
      </trkpt>
      <trkpt lat="45.30401" lon="1.4182">
        <ele>204</ele>
        <time>2011-07-07T15:09:02Z</time>
      </trkpt>
      <trkpt lat="45.30406" lon="1.4182">
        <ele>212</ele>
        <time>2011-07-07T15:09:05Z</time>
      </trkpt>
      <trkpt lat="45.30406" lon="1.4182">
        <ele>212</ele>
        <time>2011-07-07T15:09:05Z</time>
      </trkpt>
      <trkpt lat="45.30406" lon="1.4182">
        <ele>212</ele>
        <time>2011-07-07T15:09:06Z</time>
      </trkpt>
      <trkpt lat="45.30411" lon="1.4182">
        <ele>215</ele>
        <time>2011-07-07T15:09:08Z</time>
      </trkpt>
      <trkpt lat="45.30416" lon="1.41821">
        <ele>221</ele>
        <time>2011-07-07T15:09:11Z</time>
      </trkpt>
      <trkpt lat="45.30421" lon="1.41823">
        <ele>220</ele>
        <time>2011-07-07T15:09:16Z</time>
      </trkpt>
      <trkpt lat="45.30426" lon="1.41824">
        <ele>223</ele>
        <time>2011-07-07T15:09:22Z</time>
      </trkpt>
      <trkpt lat="45.30433" lon="1.41824">
        <ele>217</ele>
        <time>2011-07-07T15:09:27Z</time>
      </trkpt>
      <trkpt lat="45.30438" lon="1.41824">
        <ele>224</ele>
        <time>2011-07-07T15:09:31Z</time>
      </trkpt>
      <trkpt lat="45.30444" lon="1.41828">
        <ele>230</ele>
        <time>2011-07-07T15:09:37Z</time>
      </trkpt>
      <trkpt lat="45.30444" lon="1.41828">
        <ele>230</ele>
        <time>2011-07-07T15:09:37Z</time>
      </trkpt>
      <trkpt lat="45.30444" lon="1.41828">
        <ele>230</ele>
        <time>2011-07-07T15:09:40Z</time>
      </trkpt>
      <trkpt lat="45.30456" lon="1.41825">
        <ele>237</ele>
        <time>2011-07-07T15:09:47Z</time>
      </trkpt>
      <trkpt lat="45.3046" lon="1.41826">
        <ele>233</ele>
        <time>2011-07-07T15:09:50Z</time>
      </trkpt>
      <trkpt lat="45.30465" lon="1.41828">
        <ele>232</ele>
        <time>2011-07-07T15:09:55Z</time>
      </trkpt>
      <trkpt lat="45.30465" lon="1.41828">
        <ele>232</ele>
        <time>2011-07-07T15:09:55Z</time>
      </trkpt>
      <trkpt lat="45.30465" lon="1.41828">
        <ele>232</ele>
        <time>2011-07-07T15:09:57Z</time>
      </trkpt>
      <trkpt lat="45.30469" lon="1.41832">
        <ele>224</ele>
        <time>2011-07-07T15:10:00Z</time>
      </trkpt>
      <trkpt lat="45.30472" lon="1.41837">
        <ele>233</ele>
        <time>2011-07-07T15:10:04Z</time>
      </trkpt>
      <trkpt lat="45.30472" lon="1.41837">
        <ele>233</ele>
        <time>2011-07-07T15:10:04Z</time>
      </trkpt>
      <trkpt lat="45.30472" lon="1.41837">
        <ele>233</ele>
        <time>2011-07-07T15:10:08Z</time>
      </trkpt>
      <trkpt lat="45.30476" lon="1.41846">
        <ele>236</ele>
        <time>2011-07-07T15:10:09Z</time>
      </trkpt>
      <trkpt lat="45.30476" lon="1.41846">
        <ele>236</ele>
        <time>2011-07-07T15:10:09Z</time>
      </trkpt>
      <trkpt lat="45.30476" lon="1.41846">
        <ele>236</ele>
        <time>2011-07-07T15:10:10Z</time>
      </trkpt>
      <trkpt lat="45.30479" lon="1.41851">
        <ele>242</ele>
        <time>2011-07-07T15:10:12Z</time>
      </trkpt>
      <trkpt lat="45.30482" lon="1.41856">
        <ele>243</ele>
        <time>2011-07-07T15:10:15Z</time>
      </trkpt>
      <trkpt lat="45.30486" lon="1.41861">
        <ele>242</ele>
        <time>2011-07-07T15:10:18Z</time>
      </trkpt>
      <trkpt lat="45.30486" lon="1.41861">
        <ele>242</ele>
        <time>2011-07-07T15:10:18Z</time>
      </trkpt>
      <trkpt lat="45.30486" lon="1.41861">
        <ele>242</ele>
        <time>2011-07-07T15:10:23Z</time>
      </trkpt>
      <trkpt lat="45.30488" lon="1.41868">
        <ele>246</ele>
        <time>2011-07-07T15:10:24Z</time>
      </trkpt>
      <trkpt lat="45.30488" lon="1.41878">
        <ele>253</ele>
        <time>2011-07-07T15:10:33Z</time>
      </trkpt>
      <trkpt lat="45.30483" lon="1.41877">
        <ele>256</ele>
        <time>2011-07-07T15:10:38Z</time>
      </trkpt>
      <trkpt lat="45.30477" lon="1.41877">
        <ele>260</ele>
        <time>2011-07-07T15:10:42Z</time>
      </trkpt>
      <trkpt lat="45.30473" lon="1.41879">
        <ele>255</ele>
        <time>2011-07-07T15:10:47Z</time>
      </trkpt>
      <trkpt lat="45.30473" lon="1.41879">
        <ele>255</ele>
        <time>2011-07-07T15:10:47Z</time>
      </trkpt>
      <trkpt lat="45.30473" lon="1.41879">
        <ele>255</ele>
        <time>2011-07-07T15:10:48Z</time>
      </trkpt>
      <trkpt lat="45.30467" lon="1.4188">
        <ele>258</ele>
        <time>2011-07-07T15:10:51Z</time>
      </trkpt>
      <trkpt lat="45.30462" lon="1.41884">
        <ele>259</ele>
        <time>2011-07-07T15:10:56Z</time>
      </trkpt>
      <trkpt lat="45.30462" lon="1.41884">
        <ele>259</ele>
        <time>2011-07-07T15:10:56Z</time>
      </trkpt>
      <trkpt lat="45.30462" lon="1.41884">
        <ele>259</ele>
        <time>2011-07-07T15:10:58Z</time>
      </trkpt>
      <trkpt lat="45.30456" lon="1.41888">
        <ele>257</ele>
        <time>2011-07-07T15:11:00Z</time>
      </trkpt>
      <trkpt lat="45.30456" lon="1.41888">
        <ele>257</ele>
        <time>2011-07-07T15:11:00Z</time>
      </trkpt>
      <trkpt lat="45.30456" lon="1.41888">
        <ele>257</ele>
        <time>2011-07-07T15:11:01Z</time>
      </trkpt>
      <trkpt lat="45.30452" lon="1.41891">
        <ele>258</ele>
        <time>2011-07-07T15:11:03Z</time>
      </trkpt>
      <trkpt lat="45.30444" lon="1.41896">
        <ele>262</ele>
        <time>2011-07-07T15:11:08Z</time>
      </trkpt>
      <trkpt lat="45.30444" lon="1.41896">
        <ele>262</ele>
        <time>2011-07-07T15:11:08Z</time>
      </trkpt>
      <trkpt lat="45.30444" lon="1.41896">
        <ele>262</ele>
        <time>2011-07-07T15:11:10Z</time>
      </trkpt>
      <trkpt lat="45.30438" lon="1.419">
        <ele>261</ele>
        <time>2011-07-07T15:11:11Z</time>
      </trkpt>
      <trkpt lat="45.30438" lon="1.419">
        <ele>261</ele>
        <time>2011-07-07T15:11:11Z</time>
      </trkpt>
      <trkpt lat="45.30438" lon="1.419">
        <ele>261</ele>
        <time>2011-07-07T15:11:15Z</time>
      </trkpt>
      <trkpt lat="45.30431" lon="1.41904">
        <ele>265</ele>
        <time>2011-07-07T15:11:16Z</time>
      </trkpt>
      <trkpt lat="45.30426" lon="1.41908">
        <ele>262</ele>
        <time>2011-07-07T15:11:18Z</time>
      </trkpt>
      <trkpt lat="45.30422" lon="1.41911">
        <ele>263</ele>
        <time>2011-07-07T15:11:20Z</time>
      </trkpt>
      <trkpt lat="45.30417" lon="1.41914">
        <ele>264</ele>
        <time>2011-07-07T15:11:22Z</time>
      </trkpt>
      <trkpt lat="45.30412" lon="1.41918">
        <ele>263</ele>
        <time>2011-07-07T15:11:25Z</time>
      </trkpt>
      <trkpt lat="45.30407" lon="1.41923">
        <ele>263</ele>
        <time>2011-07-07T15:11:28Z</time>
      </trkpt>
      <trkpt lat="45.30407" lon="1.41923">
        <ele>263</ele>
        <time>2011-07-07T15:11:28Z</time>
      </trkpt>
      <trkpt lat="45.30407" lon="1.41923">
        <ele>263</ele>
        <time>2011-07-07T15:11:29Z</time>
      </trkpt>
      <trkpt lat="45.30402" lon="1.41928">
        <ele>266</ele>
        <time>2011-07-07T15:11:31Z</time>
      </trkpt>
      <trkpt lat="45.30391" lon="1.41934">
        <ele>268</ele>
        <time>2011-07-07T15:11:37Z</time>
      </trkpt>
      <trkpt lat="45.30391" lon="1.41934">
        <ele>268</ele>
        <time>2011-07-07T15:11:37Z</time>
      </trkpt>
      <trkpt lat="45.30391" lon="1.41934">
        <ele>268</ele>
        <time>2011-07-07T15:11:41Z</time>
      </trkpt>
      <trkpt lat="45.30382" lon="1.41942">
        <ele>269</ele>
        <time>2011-07-07T15:11:42Z</time>
      </trkpt>
      <trkpt lat="45.30382" lon="1.41942">
        <ele>269</ele>
        <time>2011-07-07T15:11:42Z</time>
      </trkpt>
      <trkpt lat="45.30382" lon="1.41942">
        <ele>269</ele>
        <time>2011-07-07T15:11:46Z</time>
      </trkpt>
      <trkpt lat="45.30378" lon="1.4195">
        <ele>265</ele>
        <time>2011-07-07T15:11:47Z</time>
      </trkpt>
      <trkpt lat="45.30376" lon="1.41956">
        <ele>264</ele>
        <time>2011-07-07T15:11:49Z</time>
      </trkpt>
      <trkpt lat="45.30376" lon="1.41956">
        <ele>264</ele>
        <time>2011-07-07T15:11:49Z</time>
      </trkpt>
      <trkpt lat="45.30376" lon="1.41956">
        <ele>264</ele>
        <time>2011-07-07T15:11:50Z</time>
      </trkpt>
      <trkpt lat="45.30373" lon="1.41962">
        <ele>264</ele>
        <time>2011-07-07T15:11:51Z</time>
      </trkpt>
      <trkpt lat="45.30368" lon="1.41969">
        <ele>262</ele>
        <time>2011-07-07T15:11:54Z</time>
      </trkpt>
      <trkpt lat="45.30365" lon="1.41975">
        <ele>260</ele>
        <time>2011-07-07T15:11:57Z</time>
      </trkpt>
      <trkpt lat="45.30363" lon="1.41981">
        <ele>264</ele>
        <time>2011-07-07T15:12:01Z</time>
      </trkpt>
      <trkpt lat="45.3036" lon="1.41987">
        <ele>267</ele>
        <time>2011-07-07T15:12:05Z</time>
      </trkpt>
      <trkpt lat="45.30358" lon="1.41993">
        <ele>265</ele>
        <time>2011-07-07T15:12:08Z</time>
      </trkpt>
      <trkpt lat="45.30355" lon="1.42">
        <ele>266</ele>
        <time>2011-07-07T15:12:12Z</time>
      </trkpt>
      <trkpt lat="45.30354" lon="1.42006">
        <ele>265</ele>
        <time>2011-07-07T15:12:15Z</time>
      </trkpt>
      <trkpt lat="45.30355" lon="1.42012">
        <ele>263</ele>
        <time>2011-07-07T15:12:19Z</time>
      </trkpt>
      <trkpt lat="45.30359" lon="1.42017">
        <ele>264</ele>
        <time>2011-07-07T15:12:24Z</time>
      </trkpt>
      <trkpt lat="45.30363" lon="1.42014">
        <ele>268</ele>
        <time>2011-07-07T15:12:32Z</time>
      </trkpt>
      <trkpt lat="45.30367" lon="1.4201">
        <ele>270</ele>
        <time>2011-07-07T15:12:38Z</time>
      </trkpt>
      <trkpt lat="45.30372" lon="1.42007">
        <ele>267</ele>
        <time>2011-07-07T15:12:42Z</time>
      </trkpt>
      <trkpt lat="45.30377" lon="1.42007">
        <ele>270</ele>
        <time>2011-07-07T15:12:45Z</time>
      </trkpt>
      <trkpt lat="45.30382" lon="1.42006">
        <ele>274</ele>
        <time>2011-07-07T15:12:51Z</time>
      </trkpt>
      <trkpt lat="45.30387" lon="1.42006">
        <ele>275</ele>
        <time>2011-07-07T15:12:54Z</time>
      </trkpt>
      <trkpt lat="45.30392" lon="1.42005">
        <ele>286</ele>
        <time>2011-07-07T15:12:58Z</time>
      </trkpt>
      <trkpt lat="45.30397" lon="1.42007">
        <ele>281</ele>
        <time>2011-07-07T15:13:02Z</time>
      </trkpt>
      <trkpt lat="45.30403" lon="1.4201">
        <ele>278</ele>
        <time>2011-07-07T15:13:06Z</time>
      </trkpt>
      <trkpt lat="45.30407" lon="1.42006">
        <ele>276</ele>
        <time>2011-07-07T15:13:10Z</time>
      </trkpt>
      <trkpt lat="45.30412" lon="1.42004">
        <ele>275</ele>
        <time>2011-07-07T15:13:15Z</time>
      </trkpt>
      <trkpt lat="45.30417" lon="1.42003">
        <ele>282</ele>
        <time>2011-07-07T15:13:21Z</time>
      </trkpt>
      <trkpt lat="45.30421" lon="1.42">
        <ele>282</ele>
        <time>2011-07-07T15:13:27Z</time>
      </trkpt>
      <trkpt lat="45.30427" lon="1.42001">
        <ele>280</ele>
        <time>2011-07-07T15:13:30Z</time>
      </trkpt>
      <trkpt lat="45.30431" lon="1.42">
        <ele>279</ele>
        <time>2011-07-07T15:13:33Z</time>
      </trkpt>
      <trkpt lat="45.30436" lon="1.41999">
        <ele>285</ele>
        <time>2011-07-07T15:13:37Z</time>
      </trkpt>
      <trkpt lat="45.30441" lon="1.41998">
        <ele>280</ele>
        <time>2011-07-07T15:13:42Z</time>
      </trkpt>
      <trkpt lat="45.30446" lon="1.41997">
        <ele>277</ele>
        <time>2011-07-07T15:13:46Z</time>
      </trkpt>
      <trkpt lat="45.3045" lon="1.41999">
        <ele>286</ele>
        <time>2011-07-07T15:13:58Z</time>
      </trkpt>
      <trkpt lat="45.30456" lon="1.42001">
        <ele>288</ele>
        <time>2011-07-07T15:14:05Z</time>
      </trkpt>
      <trkpt lat="45.30461" lon="1.42002">
        <ele>283</ele>
        <time>2011-07-07T15:14:08Z</time>
      </trkpt>
      <trkpt lat="45.30466" lon="1.42002">
        <ele>285</ele>
        <time>2011-07-07T15:14:10Z</time>
      </trkpt>
      <trkpt lat="45.30471" lon="1.42003">
        <ele>279</ele>
        <time>2011-07-07T15:14:14Z</time>
      </trkpt>
      <trkpt lat="45.30477" lon="1.42004">
        <ele>288</ele>
        <time>2011-07-07T15:14:19Z</time>
      </trkpt>
      <trkpt lat="45.30482" lon="1.42004">
        <ele>288</ele>
        <time>2011-07-07T15:14:23Z</time>
      </trkpt>
      <trkpt lat="45.30487" lon="1.42005">
        <ele>287</ele>
        <time>2011-07-07T15:14:26Z</time>
      </trkpt>
      <trkpt lat="45.30492" lon="1.42005">
        <ele>287</ele>
        <time>2011-07-07T15:14:30Z</time>
      </trkpt>
      <trkpt lat="45.30497" lon="1.42005">
        <ele>291</ele>
        <time>2011-07-07T15:14:34Z</time>
      </trkpt>
      <trkpt lat="45.30502" lon="1.42006">
        <ele>290</ele>
        <time>2011-07-07T15:14:37Z</time>
      </trkpt>
      <trkpt lat="45.30508" lon="1.42006">
        <ele>287</ele>
        <time>2011-07-07T15:14:41Z</time>
      </trkpt>
      <trkpt lat="45.30514" lon="1.42008">
        <ele>294</ele>
        <time>2011-07-07T15:14:44Z</time>
      </trkpt>
      <trkpt lat="45.30518" lon="1.4201">
        <ele>295</ele>
        <time>2011-07-07T15:14:47Z</time>
      </trkpt>
      <trkpt lat="45.30523" lon="1.42011">
        <ele>299</ele>
        <time>2011-07-07T15:14:50Z</time>
      </trkpt>
      <trkpt lat="45.30527" lon="1.42014">
        <ele>298</ele>
        <time>2011-07-07T15:14:54Z</time>
      </trkpt>
      <trkpt lat="45.30524" lon="1.42019">
        <ele>300</ele>
        <time>2011-07-07T15:15:00Z</time>
      </trkpt>
      <trkpt lat="45.30519" lon="1.42023">
        <ele>302</ele>
        <time>2011-07-07T15:15:04Z</time>
      </trkpt>
      <trkpt lat="45.30514" lon="1.42024">
        <ele>305</ele>
        <time>2011-07-07T15:15:08Z</time>
      </trkpt>
      <trkpt lat="45.3051" lon="1.42027">
        <ele>301</ele>
        <time>2011-07-07T15:15:11Z</time>
      </trkpt>
      <trkpt lat="45.30505" lon="1.4203">
        <ele>303</ele>
        <time>2011-07-07T15:15:15Z</time>
      </trkpt>
      <trkpt lat="45.30499" lon="1.42032">
        <ele>310</ele>
        <time>2011-07-07T15:15:19Z</time>
      </trkpt>
      <trkpt lat="45.30493" lon="1.42035">
        <ele>310</ele>
        <time>2011-07-07T15:15:23Z</time>
      </trkpt>
      <trkpt lat="45.30488" lon="1.42038">
        <ele>310</ele>
        <time>2011-07-07T15:15:27Z</time>
      </trkpt>
      <trkpt lat="45.30483" lon="1.4204">
        <ele>309</ele>
        <time>2011-07-07T15:15:30Z</time>
      </trkpt>
      <trkpt lat="45.30479" lon="1.42044">
        <ele>310</ele>
        <time>2011-07-07T15:15:33Z</time>
      </trkpt>
      <trkpt lat="45.30473" lon="1.42046">
        <ele>312</ele>
        <time>2011-07-07T15:15:37Z</time>
      </trkpt>
      <trkpt lat="45.30468" lon="1.42051">
        <ele>313</ele>
        <time>2011-07-07T15:15:41Z</time>
      </trkpt>
      <trkpt lat="45.30464" lon="1.42057">
        <ele>314</ele>
        <time>2011-07-07T15:15:44Z</time>
      </trkpt>
      <trkpt lat="45.3046" lon="1.42065">
        <ele>311</ele>
        <time>2011-07-07T15:15:48Z</time>
      </trkpt>
      <trkpt lat="45.30459" lon="1.42071">
        <ele>311</ele>
        <time>2011-07-07T15:15:50Z</time>
      </trkpt>
      <trkpt lat="45.30458" lon="1.42079">
        <ele>310</ele>
        <time>2011-07-07T15:15:53Z</time>
      </trkpt>
      <trkpt lat="45.30457" lon="1.42086">
        <ele>311</ele>
        <time>2011-07-07T15:15:56Z</time>
      </trkpt>
      <trkpt lat="45.30456" lon="1.42094">
        <ele>311</ele>
        <time>2011-07-07T15:16:00Z</time>
      </trkpt>
      <trkpt lat="45.30456" lon="1.42101">
        <ele>308</ele>
        <time>2011-07-07T15:16:04Z</time>
      </trkpt>
      <trkpt lat="45.30456" lon="1.42108">
        <ele>309</ele>
        <time>2011-07-07T15:16:07Z</time>
      </trkpt>
      <trkpt lat="45.30454" lon="1.42115">
        <ele>308</ele>
        <time>2011-07-07T15:16:10Z</time>
      </trkpt>
      <trkpt lat="45.30454" lon="1.42123">
        <ele>309</ele>
        <time>2011-07-07T15:16:14Z</time>
      </trkpt>
      <trkpt lat="45.30455" lon="1.4213">
        <ele>316</ele>
        <time>2011-07-07T15:16:18Z</time>
      </trkpt>
      <trkpt lat="45.30459" lon="1.42132">
        <ele>315</ele>
        <time>2011-07-07T15:16:23Z</time>
      </trkpt>
      <trkpt lat="45.30464" lon="1.42129">
        <ele>320</ele>
        <time>2011-07-07T15:16:29Z</time>
      </trkpt>
      <trkpt lat="45.30469" lon="1.42125">
        <ele>320</ele>
        <time>2011-07-07T15:16:33Z</time>
      </trkpt>
      <trkpt lat="45.30474" lon="1.42122">
        <ele>315</ele>
        <time>2011-07-07T15:16:36Z</time>
      </trkpt>
      <trkpt lat="45.30479" lon="1.42118">
        <ele>314</ele>
        <time>2011-07-07T15:16:40Z</time>
      </trkpt>
      <trkpt lat="45.30483" lon="1.42115">
        <ele>317</ele>
        <time>2011-07-07T15:16:43Z</time>
      </trkpt>
      <trkpt lat="45.30487" lon="1.42111">
        <ele>313</ele>
        <time>2011-07-07T15:16:47Z</time>
      </trkpt>
      <trkpt lat="45.30493" lon="1.42112">
        <ele>312</ele>
        <time>2011-07-07T15:16:51Z</time>
      </trkpt>
      <trkpt lat="45.30499" lon="1.42112">
        <ele>301</ele>
        <time>2011-07-07T15:16:54Z</time>
      </trkpt>
      <trkpt lat="45.30506" lon="1.42112">
        <ele>304</ele>
        <time>2011-07-07T15:16:57Z</time>
      </trkpt>
      <trkpt lat="45.3051" lon="1.42111">
        <ele>301</ele>
        <time>2011-07-07T15:16:59Z</time>
      </trkpt>
      <trkpt lat="45.30515" lon="1.4211">
        <ele>304</ele>
        <time>2011-07-07T15:17:01Z</time>
      </trkpt>
      <trkpt lat="45.30519" lon="1.42107">
        <ele>303</ele>
        <time>2011-07-07T15:17:04Z</time>
      </trkpt>
      <trkpt lat="45.30524" lon="1.42105">
        <ele>308</ele>
        <time>2011-07-07T15:17:06Z</time>
      </trkpt>
      <trkpt lat="45.30528" lon="1.42105">
        <ele>308</ele>
        <time>2011-07-07T15:17:08Z</time>
      </trkpt>
      <trkpt lat="45.30534" lon="1.42104">
        <ele>310</ele>
        <time>2011-07-07T15:17:11Z</time>
      </trkpt>
      <trkpt lat="45.30539" lon="1.42102">
        <ele>308</ele>
        <time>2011-07-07T15:17:14Z</time>
      </trkpt>
      <trkpt lat="45.30544" lon="1.421">
        <ele>307</ele>
        <time>2011-07-07T15:17:16Z</time>
      </trkpt>
      <trkpt lat="45.30549" lon="1.42098">
        <ele>309</ele>
        <time>2011-07-07T15:17:19Z</time>
      </trkpt>
      <trkpt lat="45.30556" lon="1.42096">
        <ele>308</ele>
        <time>2011-07-07T15:17:22Z</time>
      </trkpt>
      <trkpt lat="45.3056" lon="1.42093">
        <ele>307</ele>
        <time>2011-07-07T15:17:24Z</time>
      </trkpt>
      <trkpt lat="45.30565" lon="1.4209">
        <ele>311</ele>
        <time>2011-07-07T15:17:27Z</time>
      </trkpt>
      <trkpt lat="45.3057" lon="1.42088">
        <ele>314</ele>
        <time>2011-07-07T15:17:31Z</time>
      </trkpt>
      <trkpt lat="45.30574" lon="1.42089">
        <ele>314</ele>
        <time>2011-07-07T15:17:34Z</time>
      </trkpt>
      <trkpt lat="45.3058" lon="1.4209">
        <ele>320</ele>
        <time>2011-07-07T15:17:37Z</time>
      </trkpt>
      <trkpt lat="45.30586" lon="1.42088">
        <ele>316</ele>
        <time>2011-07-07T15:17:41Z</time>
      </trkpt>
      <trkpt lat="45.3059" lon="1.42088">
        <ele>318</ele>
        <time>2011-07-07T15:17:44Z</time>
      </trkpt>
      <trkpt lat="45.30592" lon="1.42095">
        <ele>328</ele>
        <time>2011-07-07T15:17:53Z</time>
      </trkpt>
      <trkpt lat="45.30588" lon="1.421">
        <ele>330</ele>
        <time>2011-07-07T15:17:58Z</time>
      </trkpt>
      <trkpt lat="45.30584" lon="1.42104">
        <ele>328</ele>
        <time>2011-07-07T15:18:02Z</time>
      </trkpt>
      <trkpt lat="45.3058" lon="1.42107">
        <ele>331</ele>
        <time>2011-07-07T15:18:05Z</time>
      </trkpt>
      <trkpt lat="45.30577" lon="1.42114">
        <ele>326</ele>
        <time>2011-07-07T15:18:09Z</time>
      </trkpt>
      <trkpt lat="45.30582" lon="1.42113">
        <ele>332</ele>
        <time>2011-07-07T15:18:15Z</time>
      </trkpt>
      <trkpt lat="45.30588" lon="1.42109">
        <ele>329</ele>
        <time>2011-07-07T15:18:19Z</time>
      </trkpt>
      <trkpt lat="45.30593" lon="1.42102">
        <ele>331</ele>
        <time>2011-07-07T15:18:21Z</time>
      </trkpt>
      <trkpt lat="45.30596" lon="1.42098">
        <ele>330</ele>
        <time>2011-07-07T15:18:22Z</time>
      </trkpt>
      <trkpt lat="45.306" lon="1.42093">
        <ele>329</ele>
        <time>2011-07-07T15:18:23Z</time>
      </trkpt>
      <trkpt lat="45.30604" lon="1.42088">
        <ele>330</ele>
        <time>2011-07-07T15:18:24Z</time>
      </trkpt>
      <trkpt lat="45.3061" lon="1.42082">
        <ele>334</ele>
        <time>2011-07-07T15:18:25Z</time>
      </trkpt>
      <trkpt lat="45.30616" lon="1.42075">
        <ele>330</ele>
        <time>2011-07-07T15:18:26Z</time>
      </trkpt>
      <trkpt lat="45.30625" lon="1.42071">
        <ele>329</ele>
        <time>2011-07-07T15:18:27Z</time>
      </trkpt>
      <trkpt lat="45.30633" lon="1.42066">
        <ele>329</ele>
        <time>2011-07-07T15:18:28Z</time>
      </trkpt>
      <trkpt lat="45.3064" lon="1.42061">
        <ele>324</ele>
        <time>2011-07-07T15:18:29Z</time>
      </trkpt>
      <trkpt lat="45.30649" lon="1.42055">
        <ele>325</ele>
        <time>2011-07-07T15:18:30Z</time>
      </trkpt>
      <trkpt lat="45.3066" lon="1.42047">
        <ele>326</ele>
        <time>2011-07-07T15:18:31Z</time>
      </trkpt>
      <trkpt lat="45.3067" lon="1.42041">
        <ele>326</ele>
        <time>2011-07-07T15:18:32Z</time>
      </trkpt>
      <trkpt lat="45.30681" lon="1.42036">
        <ele>327</ele>
        <time>2011-07-07T15:18:33Z</time>
      </trkpt>
      <trkpt lat="45.30692" lon="1.42032">
        <ele>325</ele>
        <time>2011-07-07T15:18:34Z</time>
      </trkpt>
      <trkpt lat="45.30702" lon="1.4203">
        <ele>327</ele>
        <time>2011-07-07T15:18:35Z</time>
      </trkpt>
      <trkpt lat="45.30711" lon="1.42027">
        <ele>328</ele>
        <time>2011-07-07T15:18:36Z</time>
      </trkpt>
      <trkpt lat="45.30721" lon="1.42025">
        <ele>324</ele>
        <time>2011-07-07T15:18:37Z</time>
      </trkpt>
      <trkpt lat="45.30729" lon="1.42023">
        <ele>322</ele>
        <time>2011-07-07T15:18:38Z</time>
      </trkpt>
      <trkpt lat="45.30738" lon="1.42021">
        <ele>322</ele>
        <time>2011-07-07T15:18:39Z</time>
      </trkpt>
      <trkpt lat="45.30746" lon="1.42019">
        <ele>322</ele>
        <time>2011-07-07T15:18:40Z</time>
      </trkpt>
      <trkpt lat="45.30753" lon="1.4202">
        <ele>322</ele>
        <time>2011-07-07T15:18:41Z</time>
      </trkpt>
      <trkpt lat="45.30759" lon="1.4202">
        <ele>320</ele>
        <time>2011-07-07T15:18:42Z</time>
      </trkpt>
      <trkpt lat="45.30764" lon="1.42021">
        <ele>318</ele>
        <time>2011-07-07T15:18:43Z</time>
      </trkpt>
      <trkpt lat="45.30771" lon="1.42024">
        <ele>323</ele>
        <time>2011-07-07T15:18:45Z</time>
      </trkpt>
      <trkpt lat="45.30775" lon="1.42026">
        <ele>321</ele>
        <time>2011-07-07T15:18:47Z</time>
      </trkpt>
      <trkpt lat="45.30781" lon="1.4203">
        <ele>324</ele>
        <time>2011-07-07T15:18:50Z</time>
      </trkpt>
      <trkpt lat="45.30787" lon="1.42032">
        <ele>323</ele>
        <time>2011-07-07T15:18:52Z</time>
      </trkpt>
      <trkpt lat="45.30793" lon="1.42034">
        <ele>327</ele>
        <time>2011-07-07T15:18:55Z</time>
      </trkpt>
      <trkpt lat="45.30798" lon="1.42036">
        <ele>328</ele>
        <time>2011-07-07T15:18:59Z</time>
      </trkpt>
      <trkpt lat="45.30803" lon="1.42038">
        <ele>326</ele>
        <time>2011-07-07T15:19:02Z</time>
      </trkpt>
      <trkpt lat="45.30808" lon="1.4204">
        <ele>325</ele>
        <time>2011-07-07T15:19:05Z</time>
      </trkpt>
      <trkpt lat="45.30814" lon="1.42041">
        <ele>325</ele>
        <time>2011-07-07T15:19:09Z</time>
      </trkpt>
      <trkpt lat="45.30819" lon="1.42043">
        <ele>327</ele>
        <time>2011-07-07T15:19:12Z</time>
      </trkpt>
      <trkpt lat="45.30825" lon="1.42044">
        <ele>327</ele>
        <time>2011-07-07T15:19:15Z</time>
      </trkpt>
      <trkpt lat="45.3083" lon="1.42046">
        <ele>327</ele>
        <time>2011-07-07T15:19:18Z</time>
      </trkpt>
      <trkpt lat="45.30835" lon="1.42048">
        <ele>326</ele>
        <time>2011-07-07T15:19:21Z</time>
      </trkpt>
      <trkpt lat="45.3084" lon="1.4205">
        <ele>327</ele>
        <time>2011-07-07T15:19:24Z</time>
      </trkpt>
      <trkpt lat="45.30846" lon="1.42052">
        <ele>330</ele>
        <time>2011-07-07T15:19:28Z</time>
      </trkpt>
      <trkpt lat="45.30856" lon="1.42058">
        <ele>329</ele>
        <time>2011-07-07T15:19:35Z</time>
      </trkpt>
      <trkpt lat="45.30861" lon="1.4206">
        <ele>331</ele>
        <time>2011-07-07T15:19:38Z</time>
      </trkpt>
      <trkpt lat="45.30865" lon="1.42062">
        <ele>329</ele>
        <time>2011-07-07T15:19:41Z</time>
      </trkpt>
      <trkpt lat="45.30871" lon="1.42064">
        <ele>326</ele>
        <time>2011-07-07T15:19:45Z</time>
      </trkpt>
      <trkpt lat="45.30876" lon="1.42067">
        <ele>330</ele>
        <time>2011-07-07T15:19:48Z</time>
      </trkpt>
      <trkpt lat="45.30882" lon="1.42069">
        <ele>332</ele>
        <time>2011-07-07T15:19:51Z</time>
      </trkpt>
      <trkpt lat="45.30886" lon="1.4207">
        <ele>336</ele>
        <time>2011-07-07T15:19:54Z</time>
      </trkpt>
      <trkpt lat="45.30891" lon="1.42071">
        <ele>337</ele>
        <time>2011-07-07T15:19:57Z</time>
      </trkpt>
      <trkpt lat="45.30896" lon="1.42072">
        <ele>336</ele>
        <time>2011-07-07T15:20:00Z</time>
      </trkpt>
      <trkpt lat="45.30902" lon="1.42071">
        <ele>327</ele>
        <time>2011-07-07T15:20:03Z</time>
      </trkpt>
      <trkpt lat="45.30907" lon="1.42071">
        <ele>331</ele>
        <time>2011-07-07T15:20:05Z</time>
      </trkpt>
      <trkpt lat="45.30913" lon="1.42071">
        <ele>339</ele>
        <time>2011-07-07T15:20:08Z</time>
      </trkpt>
      <trkpt lat="45.30918" lon="1.42071">
        <ele>343</ele>
        <time>2011-07-07T15:20:11Z</time>
      </trkpt>
      <trkpt lat="45.30924" lon="1.42071">
        <ele>339</ele>
        <time>2011-07-07T15:20:14Z</time>
      </trkpt>
      <trkpt lat="45.30924" lon="1.42071">
        <ele>339</ele>
        <time>2011-07-07T15:20:14Z</time>
      </trkpt>
      <trkpt lat="45.30924" lon="1.42071">
        <ele>339</ele>
        <time>2011-07-07T15:20:20Z</time>
      </trkpt>
      <trkpt lat="45.30934" lon="1.42072">
        <ele>336</ele>
        <time>2011-07-07T15:20:21Z</time>
      </trkpt>
      <trkpt lat="45.30934" lon="1.42072">
        <ele>336</ele>
        <time>2011-07-07T15:20:21Z</time>
      </trkpt>
      <trkpt lat="45.30934" lon="1.42072">
        <ele>336</ele>
        <time>2011-07-07T15:20:23Z</time>
      </trkpt>
      <trkpt lat="45.3094" lon="1.4207">
        <ele>346</ele>
        <time>2011-07-07T15:20:24Z</time>
      </trkpt>
      <trkpt lat="45.30949" lon="1.42067">
        <ele>346</ele>
        <time>2011-07-07T15:20:28Z</time>
      </trkpt>
      <trkpt lat="45.30949" lon="1.42067">
        <ele>346</ele>
        <time>2011-07-07T15:20:28Z</time>
      </trkpt>
      <trkpt lat="45.30949" lon="1.42067">
        <ele>346</ele>
        <time>2011-07-07T15:20:30Z</time>
      </trkpt>
      <trkpt lat="45.30954" lon="1.42066">
        <ele>341</ele>
        <time>2011-07-07T15:20:31Z</time>
      </trkpt>
      <trkpt lat="45.30954" lon="1.42066">
        <ele>341</ele>
        <time>2011-07-07T15:20:31Z</time>
      </trkpt>
      <trkpt lat="45.30954" lon="1.42066">
        <ele>341</ele>
        <time>2011-07-07T15:20:33Z</time>
      </trkpt>
      <trkpt lat="45.30962" lon="1.42063">
        <ele>342</ele>
        <time>2011-07-07T15:20:34Z</time>
      </trkpt>
      <trkpt lat="45.30968" lon="1.4206">
        <ele>338</ele>
        <time>2011-07-07T15:20:36Z</time>
      </trkpt>
      <trkpt lat="45.30976" lon="1.42054">
        <ele>344</ele>
        <time>2011-07-07T15:20:38Z</time>
      </trkpt>
      <trkpt lat="45.30985" lon="1.42052">
        <ele>346</ele>
        <time>2011-07-07T15:20:40Z</time>
      </trkpt>
      <trkpt lat="45.3099" lon="1.4205">
        <ele>346</ele>
        <time>2011-07-07T15:20:41Z</time>
      </trkpt>
      <trkpt lat="45.30996" lon="1.42046">
        <ele>340</ele>
        <time>2011-07-07T15:20:42Z</time>
      </trkpt>
      <trkpt lat="45.31" lon="1.42043">
        <ele>342</ele>
        <time>2011-07-07T15:20:43Z</time>
      </trkpt>
      <trkpt lat="45.31005" lon="1.42039">
        <ele>348</ele>
        <time>2011-07-07T15:20:44Z</time>
      </trkpt>
      <trkpt lat="45.3101" lon="1.42034">
        <ele>347</ele>
        <time>2011-07-07T15:20:45Z</time>
      </trkpt>
      <trkpt lat="45.31016" lon="1.4203">
        <ele>345</ele>
        <time>2011-07-07T15:20:46Z</time>
      </trkpt>
      <trkpt lat="45.31023" lon="1.42027">
        <ele>342</ele>
        <time>2011-07-07T15:20:47Z</time>
      </trkpt>
      <trkpt lat="45.31031" lon="1.42025">
        <ele>345</ele>
        <time>2011-07-07T15:20:48Z</time>
      </trkpt>
      <trkpt lat="45.31039" lon="1.42025">
        <ele>345</ele>
        <time>2011-07-07T15:20:49Z</time>
      </trkpt>
      <trkpt lat="45.31047" lon="1.42024">
        <ele>345</ele>
        <time>2011-07-07T15:20:50Z</time>
      </trkpt>
      <trkpt lat="45.31055" lon="1.42023">
        <ele>350</ele>
        <time>2011-07-07T15:20:51Z</time>
      </trkpt>
      <trkpt lat="45.31063" lon="1.42022">
        <ele>348</ele>
        <time>2011-07-07T15:20:52Z</time>
      </trkpt>
      <trkpt lat="45.31071" lon="1.42022">
        <ele>345</ele>
        <time>2011-07-07T15:20:53Z</time>
      </trkpt>
      <trkpt lat="45.31079" lon="1.42021">
        <ele>346</ele>
        <time>2011-07-07T15:20:54Z</time>
      </trkpt>
      <trkpt lat="45.31086" lon="1.42018">
        <ele>345</ele>
        <time>2011-07-07T15:20:55Z</time>
      </trkpt>
      <trkpt lat="45.31094" lon="1.42015">
        <ele>344</ele>
        <time>2011-07-07T15:20:56Z</time>
      </trkpt>
      <trkpt lat="45.31102" lon="1.42014">
        <ele>343</ele>
        <time>2011-07-07T15:20:57Z</time>
      </trkpt>
      <trkpt lat="45.31109" lon="1.42013">
        <ele>341</ele>
        <time>2011-07-07T15:20:58Z</time>
      </trkpt>
      <trkpt lat="45.31117" lon="1.42012">
        <ele>341</ele>
        <time>2011-07-07T15:20:59Z</time>
      </trkpt>
      <trkpt lat="45.31124" lon="1.42012">
        <ele>343</ele>
        <time>2011-07-07T15:21:00Z</time>
      </trkpt>
      <trkpt lat="45.31133" lon="1.42011">
        <ele>341</ele>
        <time>2011-07-07T15:21:01Z</time>
      </trkpt>
      <trkpt lat="45.31142" lon="1.42011">
        <ele>336</ele>
        <time>2011-07-07T15:21:02Z</time>
      </trkpt>
      <trkpt lat="45.31149" lon="1.42011">
        <ele>334</ele>
        <time>2011-07-07T15:21:03Z</time>
      </trkpt>
      <trkpt lat="45.31157" lon="1.42011">
        <ele>335</ele>
        <time>2011-07-07T15:21:04Z</time>
      </trkpt>
      <trkpt lat="45.31164" lon="1.42011">
        <ele>333</ele>
        <time>2011-07-07T15:21:05Z</time>
      </trkpt>
      <trkpt lat="45.31171" lon="1.42011">
        <ele>336</ele>
        <time>2011-07-07T15:21:06Z</time>
      </trkpt>
      <trkpt lat="45.31179" lon="1.4201">
        <ele>337</ele>
        <time>2011-07-07T15:21:07Z</time>
      </trkpt>
      <trkpt lat="45.31187" lon="1.42009">
        <ele>333</ele>
        <time>2011-07-07T15:21:08Z</time>
      </trkpt>
      <trkpt lat="45.31195" lon="1.42008">
        <ele>332</ele>
        <time>2011-07-07T15:21:09Z</time>
      </trkpt>
      <trkpt lat="45.31203" lon="1.42007">
        <ele>337</ele>
        <time>2011-07-07T15:21:10Z</time>
      </trkpt>
      <trkpt lat="45.31212" lon="1.42006">
        <ele>340</ele>
        <time>2011-07-07T15:21:11Z</time>
      </trkpt>
      <trkpt lat="45.31221" lon="1.42005">
        <ele>339</ele>
        <time>2011-07-07T15:21:12Z</time>
      </trkpt>
      <trkpt lat="45.3123" lon="1.42006">
        <ele>338</ele>
        <time>2011-07-07T15:21:13Z</time>
      </trkpt>
      <trkpt lat="45.31238" lon="1.42009">
        <ele>335</ele>
        <time>2011-07-07T15:21:14Z</time>
      </trkpt>
      <trkpt lat="45.31244" lon="1.42015">
        <ele>333</ele>
        <time>2011-07-07T15:21:15Z</time>
      </trkpt>
      <trkpt lat="45.31248" lon="1.42021">
        <ele>328</ele>
        <time>2011-07-07T15:21:16Z</time>
      </trkpt>
      <trkpt lat="45.3125" lon="1.42028">
        <ele>328</ele>
        <time>2011-07-07T15:21:18Z</time>
      </trkpt>
      <trkpt lat="45.31251" lon="1.42037">
        <ele>328</ele>
        <time>2011-07-07T15:21:21Z</time>
      </trkpt>
      <trkpt lat="45.31251" lon="1.42045">
        <ele>326</ele>
        <time>2011-07-07T15:21:24Z</time>
      </trkpt>
      <trkpt lat="45.3125" lon="1.42052">
        <ele>325</ele>
        <time>2011-07-07T15:21:28Z</time>
      </trkpt>
      <trkpt lat="45.3125" lon="1.42052">
        <ele>325</ele>
        <time>2011-07-07T15:21:28Z</time>
      </trkpt>
      <trkpt lat="45.3125" lon="1.42052">
        <ele>325</ele>
        <time>2011-07-07T15:21:29Z</time>
      </trkpt>
      <trkpt lat="45.31251" lon="1.42059">
        <ele>332</ele>
        <time>2011-07-07T15:21:32Z</time>
      </trkpt>
      <trkpt lat="45.31252" lon="1.42069">
        <ele>335</ele>
        <time>2011-07-07T15:21:38Z</time>
      </trkpt>
      <trkpt lat="45.31252" lon="1.42069">
        <ele>335</ele>
        <time>2011-07-07T15:21:38Z</time>
      </trkpt>
      <trkpt lat="45.31252" lon="1.42069">
        <ele>335</ele>
        <time>2011-07-07T15:21:39Z</time>
      </trkpt>
      <trkpt lat="45.31254" lon="1.42076">
        <ele>331</ele>
        <time>2011-07-07T15:21:43Z</time>
      </trkpt>
      <trkpt lat="45.31254" lon="1.42076">
        <ele>331</ele>
        <time>2011-07-07T15:21:43Z</time>
      </trkpt>
      <trkpt lat="45.31254" lon="1.42076">
        <ele>331</ele>
        <time>2011-07-07T15:21:46Z</time>
      </trkpt>
      <trkpt lat="45.31255" lon="1.4209">
        <ele>337</ele>
        <time>2011-07-07T15:21:53Z</time>
      </trkpt>
      <trkpt lat="45.31257" lon="1.421">
        <ele>340</ele>
        <time>2011-07-07T15:21:59Z</time>
      </trkpt>
      <trkpt lat="45.31257" lon="1.421">
        <ele>340</ele>
        <time>2011-07-07T15:21:59Z</time>
      </trkpt>
      <trkpt lat="45.31257" lon="1.421">
        <ele>340</ele>
        <time>2011-07-07T15:22:01Z</time>
      </trkpt>
      <trkpt lat="45.31256" lon="1.42109">
        <ele>342</ele>
        <time>2011-07-07T15:22:04Z</time>
      </trkpt>
      <trkpt lat="45.31256" lon="1.42109">
        <ele>342</ele>
        <time>2011-07-07T15:22:04Z</time>
      </trkpt>
      <trkpt lat="45.31256" lon="1.42109">
        <ele>342</ele>
        <time>2011-07-07T15:22:07Z</time>
      </trkpt>
      <trkpt lat="45.31256" lon="1.42116">
        <ele>342</ele>
        <time>2011-07-07T15:22:08Z</time>
      </trkpt>
      <trkpt lat="45.31257" lon="1.42123">
        <ele>341</ele>
        <time>2011-07-07T15:22:11Z</time>
      </trkpt>
      <trkpt lat="45.31258" lon="1.42135">
        <ele>340</ele>
        <time>2011-07-07T15:22:17Z</time>
      </trkpt>
      <trkpt lat="45.3126" lon="1.42145">
        <ele>340</ele>
        <time>2011-07-07T15:22:22Z</time>
      </trkpt>
      <trkpt lat="45.3126" lon="1.42145">
        <ele>340</ele>
        <time>2011-07-07T15:22:22Z</time>
      </trkpt>
      <trkpt lat="45.3126" lon="1.42145">
        <ele>340</ele>
        <time>2011-07-07T15:22:23Z</time>
      </trkpt>
      <trkpt lat="45.3126" lon="1.42153">
        <ele>345</ele>
        <time>2011-07-07T15:22:26Z</time>
      </trkpt>
      <trkpt lat="45.31259" lon="1.4216">
        <ele>344</ele>
        <time>2011-07-07T15:22:30Z</time>
      </trkpt>
      <trkpt lat="45.31259" lon="1.4216">
        <ele>344</ele>
        <time>2011-07-07T15:22:30Z</time>
      </trkpt>
      <trkpt lat="45.31259" lon="1.4216">
        <ele>344</ele>
        <time>2011-07-07T15:22:32Z</time>
      </trkpt>
      <trkpt lat="45.31255" lon="1.42166">
        <ele>344</ele>
        <time>2011-07-07T15:22:36Z</time>
      </trkpt>
      <trkpt lat="45.31249" lon="1.42176">
        <ele>343</ele>
        <time>2011-07-07T15:22:42Z</time>
      </trkpt>
      <trkpt lat="45.31249" lon="1.42176">
        <ele>343</ele>
        <time>2011-07-07T15:22:42Z</time>
      </trkpt>
      <trkpt lat="45.31249" lon="1.42176">
        <ele>343</ele>
        <time>2011-07-07T15:22:43Z</time>
      </trkpt>
      <trkpt lat="45.31245" lon="1.42182">
        <ele>342</ele>
        <time>2011-07-07T15:22:45Z</time>
      </trkpt>
      <trkpt lat="45.31241" lon="1.42195">
        <ele>348</ele>
        <time>2011-07-07T15:22:55Z</time>
      </trkpt>
      <trkpt lat="45.31239" lon="1.42202">
        <ele>350</ele>
        <time>2011-07-07T15:23:00Z</time>
      </trkpt>
      <trkpt lat="45.31236" lon="1.42216">
        <ele>354</ele>
        <time>2011-07-07T15:23:11Z</time>
      </trkpt>
      <trkpt lat="45.31234" lon="1.42224">
        <ele>349</ele>
        <time>2011-07-07T15:23:17Z</time>
      </trkpt>
      <trkpt lat="45.31233" lon="1.42236">
        <ele>356</ele>
        <time>2011-07-07T15:23:23Z</time>
      </trkpt>
      <trkpt lat="45.31232" lon="1.42242">
        <ele>356</ele>
        <time>2011-07-07T15:23:27Z</time>
      </trkpt>
      <trkpt lat="45.31229" lon="1.42249">
        <ele>354</ele>
        <time>2011-07-07T15:23:31Z</time>
      </trkpt>
      <trkpt lat="45.31223" lon="1.4226">
        <ele>361</ele>
        <time>2011-07-07T15:23:38Z</time>
      </trkpt>
      <trkpt lat="45.3122" lon="1.42266">
        <ele>355</ele>
        <time>2011-07-07T15:23:40Z</time>
      </trkpt>
      <trkpt lat="45.31218" lon="1.42274">
        <ele>360</ele>
        <time>2011-07-07T15:23:43Z</time>
      </trkpt>
      <trkpt lat="45.31217" lon="1.42282">
        <ele>361</ele>
        <time>2011-07-07T15:23:46Z</time>
      </trkpt>
      <trkpt lat="45.31217" lon="1.42282">
        <ele>361</ele>
        <time>2011-07-07T15:23:46Z</time>
      </trkpt>
      <trkpt lat="45.31217" lon="1.42282">
        <ele>361</ele>
        <time>2011-07-07T15:23:47Z</time>
      </trkpt>
      <trkpt lat="45.31216" lon="1.42289">
        <ele>362</ele>
        <time>2011-07-07T15:23:50Z</time>
      </trkpt>
      <trkpt lat="45.31216" lon="1.42296">
        <ele>363</ele>
        <time>2011-07-07T15:23:55Z</time>
      </trkpt>
      <trkpt lat="45.31212" lon="1.42303">
        <ele>363</ele>
        <time>2011-07-07T15:23:59Z</time>
      </trkpt>
      <trkpt lat="45.31209" lon="1.42309">
        <ele>362</ele>
        <time>2011-07-07T15:24:02Z</time>
      </trkpt>
      <trkpt lat="45.31207" lon="1.42317">
        <ele>359</ele>
        <time>2011-07-07T15:24:05Z</time>
      </trkpt>
      <trkpt lat="45.31205" lon="1.42324">
        <ele>357</ele>
        <time>2011-07-07T15:24:08Z</time>
      </trkpt>
      <trkpt lat="45.31203" lon="1.42331">
        <ele>358</ele>
        <time>2011-07-07T15:24:12Z</time>
      </trkpt>
      <trkpt lat="45.31201" lon="1.42337">
        <ele>363</ele>
        <time>2011-07-07T15:24:16Z</time>
      </trkpt>
      <trkpt lat="45.31201" lon="1.42337">
        <ele>363</ele>
        <time>2011-07-07T15:24:16Z</time>
      </trkpt>
      <trkpt lat="45.31201" lon="1.42337">
        <ele>363</ele>
        <time>2011-07-07T15:24:17Z</time>
      </trkpt>
      <trkpt lat="45.31196" lon="1.42355">
        <ele>366</ele>
        <time>2011-07-07T15:24:24Z</time>
      </trkpt>
      <trkpt lat="45.31196" lon="1.42355">
        <ele>366</ele>
        <time>2011-07-07T15:24:24Z</time>
      </trkpt>
      <trkpt lat="45.31196" lon="1.42355">
        <ele>366</ele>
        <time>2011-07-07T15:24:25Z</time>
      </trkpt>
      <trkpt lat="45.31196" lon="1.42367">
        <ele>368</ele>
        <time>2011-07-07T15:24:29Z</time>
      </trkpt>
      <trkpt lat="45.31198" lon="1.42376">
        <ele>369</ele>
        <time>2011-07-07T15:24:33Z</time>
      </trkpt>
      <trkpt lat="45.31198" lon="1.42384">
        <ele>367</ele>
        <time>2011-07-07T15:24:37Z</time>
      </trkpt>
      <trkpt lat="45.31193" lon="1.42392">
        <ele>373</ele>
        <time>2011-07-07T15:24:46Z</time>
      </trkpt>
      <trkpt lat="45.31193" lon="1.42401">
        <ele>377</ele>
        <time>2011-07-07T15:24:52Z</time>
      </trkpt>
      <trkpt lat="45.31193" lon="1.42401">
        <ele>377</ele>
        <time>2011-07-07T15:24:52Z</time>
      </trkpt>
      <trkpt lat="45.31193" lon="1.42401">
        <ele>377</ele>
        <time>2011-07-07T15:24:55Z</time>
      </trkpt>
      <trkpt lat="45.31194" lon="1.4241">
        <ele>384</ele>
        <time>2011-07-07T15:24:59Z</time>
      </trkpt>
      <trkpt lat="45.31194" lon="1.4241">
        <ele>384</ele>
        <time>2011-07-07T15:24:59Z</time>
      </trkpt>
      <trkpt lat="45.31194" lon="1.4241">
        <ele>384</ele>
        <time>2011-07-07T15:25:00Z</time>
      </trkpt>
      <trkpt lat="45.31194" lon="1.42418">
        <ele>387</ele>
        <time>2011-07-07T15:25:04Z</time>
      </trkpt>
      <trkpt lat="45.31191" lon="1.42425">
        <ele>383</ele>
        <time>2011-07-07T15:25:10Z</time>
      </trkpt>
      <trkpt lat="45.31187" lon="1.42428">
        <ele>383</ele>
        <time>2011-07-07T15:25:13Z</time>
      </trkpt>
      <trkpt lat="45.31182" lon="1.42432">
        <ele>377</ele>
        <time>2011-07-07T15:25:18Z</time>
      </trkpt>
      <trkpt lat="45.31182" lon="1.42432">
        <ele>377</ele>
        <time>2011-07-07T15:25:18Z</time>
      </trkpt>
      <trkpt lat="45.31182" lon="1.42432">
        <ele>377</ele>
        <time>2011-07-07T15:25:19Z</time>
      </trkpt>
      <trkpt lat="45.31178" lon="1.42436">
        <ele>377</ele>
        <time>2011-07-07T15:25:24Z</time>
      </trkpt>
      <trkpt lat="45.31172" lon="1.42438">
        <ele>380</ele>
        <time>2011-07-07T15:25:29Z</time>
      </trkpt>
      <trkpt lat="45.31161" lon="1.42442">
        <ele>377</ele>
        <time>2011-07-07T15:25:40Z</time>
      </trkpt>
      <trkpt lat="45.31161" lon="1.42442">
        <ele>377</ele>
        <time>2011-07-07T15:25:40Z</time>
      </trkpt>
      <trkpt lat="45.31161" lon="1.42442">
        <ele>377</ele>
        <time>2011-07-07T15:25:41Z</time>
      </trkpt>
      <trkpt lat="45.3115" lon="1.42448">
        <ele>381</ele>
        <time>2011-07-07T15:25:49Z</time>
      </trkpt>
      <trkpt lat="45.3115" lon="1.42448">
        <ele>381</ele>
        <time>2011-07-07T15:25:49Z</time>
      </trkpt>
      <trkpt lat="45.3115" lon="1.42448">
        <ele>381</ele>
        <time>2011-07-07T15:25:50Z</time>
      </trkpt>
      <trkpt lat="45.31145" lon="1.42449">
        <ele>384</ele>
        <time>2011-07-07T15:25:51Z</time>
      </trkpt>
      <trkpt lat="45.3114" lon="1.42452">
        <ele>385</ele>
        <time>2011-07-07T15:25:54Z</time>
      </trkpt>
      <trkpt lat="45.31135" lon="1.42454">
        <ele>384</ele>
        <time>2011-07-07T15:25:57Z</time>
      </trkpt>
      <trkpt lat="45.31129" lon="1.42455">
        <ele>385</ele>
        <time>2011-07-07T15:26:01Z</time>
      </trkpt>
      <trkpt lat="45.31124" lon="1.42457">
        <ele>386</ele>
        <time>2011-07-07T15:26:05Z</time>
      </trkpt>
      <trkpt lat="45.3112" lon="1.4246">
        <ele>388</ele>
        <time>2011-07-07T15:26:08Z</time>
      </trkpt>
      <trkpt lat="45.31116" lon="1.42461">
        <ele>387</ele>
        <time>2011-07-07T15:26:11Z</time>
      </trkpt>
      <trkpt lat="45.31111" lon="1.42464">
        <ele>386</ele>
        <time>2011-07-07T15:26:14Z</time>
      </trkpt>
      <trkpt lat="45.31106" lon="1.42467">
        <ele>389</ele>
        <time>2011-07-07T15:26:18Z</time>
      </trkpt>
      <trkpt lat="45.31103" lon="1.42472">
        <ele>383</ele>
        <time>2011-07-07T15:26:21Z</time>
      </trkpt>
      <trkpt lat="45.31102" lon="1.4248">
        <ele>381</ele>
        <time>2011-07-07T15:26:24Z</time>
      </trkpt>
      <trkpt lat="45.31103" lon="1.42487">
        <ele>381</ele>
        <time>2011-07-07T15:26:27Z</time>
      </trkpt>
      <trkpt lat="45.31104" lon="1.42494">
        <ele>380</ele>
        <time>2011-07-07T15:26:29Z</time>
      </trkpt>
      <trkpt lat="45.31105" lon="1.42502">
        <ele>380</ele>
        <time>2011-07-07T15:26:31Z</time>
      </trkpt>
      <trkpt lat="45.31107" lon="1.42509">
        <ele>380</ele>
        <time>2011-07-07T15:26:33Z</time>
      </trkpt>
      <trkpt lat="45.31108" lon="1.42515">
        <ele>382</ele>
        <time>2011-07-07T15:26:35Z</time>
      </trkpt>
      <trkpt lat="45.31109" lon="1.42521">
        <ele>383</ele>
        <time>2011-07-07T15:26:37Z</time>
      </trkpt>
      <trkpt lat="45.31109" lon="1.42528">
        <ele>384</ele>
        <time>2011-07-07T15:26:39Z</time>
      </trkpt>
      <trkpt lat="45.31109" lon="1.42537">
        <ele>385</ele>
        <time>2011-07-07T15:26:42Z</time>
      </trkpt>
      <trkpt lat="45.3111" lon="1.42545">
        <ele>386</ele>
        <time>2011-07-07T15:26:45Z</time>
      </trkpt>
      <trkpt lat="45.3111" lon="1.42552">
        <ele>383</ele>
        <time>2011-07-07T15:26:48Z</time>
      </trkpt>
      <trkpt lat="45.31111" lon="1.42558">
        <ele>383</ele>
        <time>2011-07-07T15:26:51Z</time>
      </trkpt>
      <trkpt lat="45.31111" lon="1.42565">
        <ele>384</ele>
        <time>2011-07-07T15:26:54Z</time>
      </trkpt>
      <trkpt lat="45.31112" lon="1.42573">
        <ele>386</ele>
        <time>2011-07-07T15:26:58Z</time>
      </trkpt>
      <trkpt lat="45.31114" lon="1.42582">
        <ele>387</ele>
        <time>2011-07-07T15:27:02Z</time>
      </trkpt>
      <trkpt lat="45.31115" lon="1.42589">
        <ele>391</ele>
        <time>2011-07-07T15:27:05Z</time>
      </trkpt>
      <trkpt lat="45.31115" lon="1.42597">
        <ele>390</ele>
        <time>2011-07-07T15:27:08Z</time>
      </trkpt>
      <trkpt lat="45.31112" lon="1.42603">
        <ele>394</ele>
        <time>2011-07-07T15:27:11Z</time>
      </trkpt>
      <trkpt lat="45.31108" lon="1.42608">
        <ele>394</ele>
        <time>2011-07-07T15:27:14Z</time>
      </trkpt>
      <trkpt lat="45.31104" lon="1.42611">
        <ele>390</ele>
        <time>2011-07-07T15:27:17Z</time>
      </trkpt>
      <trkpt lat="45.31098" lon="1.42615">
        <ele>388</ele>
        <time>2011-07-07T15:27:21Z</time>
      </trkpt>
      <trkpt lat="45.31093" lon="1.42619">
        <ele>392</ele>
        <time>2011-07-07T15:27:25Z</time>
      </trkpt>
      <trkpt lat="45.31089" lon="1.42625">
        <ele>391</ele>
        <time>2011-07-07T15:27:30Z</time>
      </trkpt>
      <trkpt lat="45.31087" lon="1.42631">
        <ele>390</ele>
        <time>2011-07-07T15:27:34Z</time>
      </trkpt>
      <trkpt lat="45.31085" lon="1.42637">
        <ele>389</ele>
        <time>2011-07-07T15:27:36Z</time>
      </trkpt>
      <trkpt lat="45.31082" lon="1.42644">
        <ele>388</ele>
        <time>2011-07-07T15:27:38Z</time>
      </trkpt>
      <trkpt lat="45.3108" lon="1.42652">
        <ele>388</ele>
        <time>2011-07-07T15:27:40Z</time>
      </trkpt>
      <trkpt lat="45.31077" lon="1.42658">
        <ele>394</ele>
        <time>2011-07-07T15:27:42Z</time>
      </trkpt>
      <trkpt lat="45.31072" lon="1.42664">
        <ele>395</ele>
        <time>2011-07-07T15:27:44Z</time>
      </trkpt>
      <trkpt lat="45.31068" lon="1.42669">
        <ele>396</ele>
        <time>2011-07-07T15:27:46Z</time>
      </trkpt>
      <trkpt lat="45.31063" lon="1.42672">
        <ele>396</ele>
        <time>2011-07-07T15:27:48Z</time>
      </trkpt>
      <trkpt lat="45.31058" lon="1.42674">
        <ele>392</ele>
        <time>2011-07-07T15:27:50Z</time>
      </trkpt>
      <trkpt lat="45.31053" lon="1.42677">
        <ele>395</ele>
        <time>2011-07-07T15:27:52Z</time>
      </trkpt>
      <trkpt lat="45.31049" lon="1.4268">
        <ele>397</ele>
        <time>2011-07-07T15:27:54Z</time>
      </trkpt>
      <trkpt lat="45.31045" lon="1.42684">
        <ele>397</ele>
        <time>2011-07-07T15:27:56Z</time>
      </trkpt>
      <trkpt lat="45.3104" lon="1.42687">
        <ele>400</ele>
        <time>2011-07-07T15:27:58Z</time>
      </trkpt>
      <trkpt lat="45.31034" lon="1.4269">
        <ele>400</ele>
        <time>2011-07-07T15:28:01Z</time>
      </trkpt>
      <trkpt lat="45.31029" lon="1.42693">
        <ele>398</ele>
        <time>2011-07-07T15:28:04Z</time>
      </trkpt>
      <trkpt lat="45.31023" lon="1.42695">
        <ele>396</ele>
        <time>2011-07-07T15:28:07Z</time>
      </trkpt>
      <trkpt lat="45.31019" lon="1.42698">
        <ele>395</ele>
        <time>2011-07-07T15:28:09Z</time>
      </trkpt>
      <trkpt lat="45.31014" lon="1.42702">
        <ele>396</ele>
        <time>2011-07-07T15:28:11Z</time>
      </trkpt>
      <trkpt lat="45.31009" lon="1.42705">
        <ele>397</ele>
        <time>2011-07-07T15:28:13Z</time>
      </trkpt>
      <trkpt lat="45.31003" lon="1.42709">
        <ele>399</ele>
        <time>2011-07-07T15:28:15Z</time>
      </trkpt>
      <trkpt lat="45.30998" lon="1.42712">
        <ele>400</ele>
        <time>2011-07-07T15:28:17Z</time>
      </trkpt>
      <trkpt lat="45.30993" lon="1.42716">
        <ele>399</ele>
        <time>2011-07-07T15:28:19Z</time>
      </trkpt>
      <trkpt lat="45.30989" lon="1.4272">
        <ele>402</ele>
        <time>2011-07-07T15:28:21Z</time>
      </trkpt>
      <trkpt lat="45.30985" lon="1.42723">
        <ele>402</ele>
        <time>2011-07-07T15:28:23Z</time>
      </trkpt>
      <trkpt lat="45.3098" lon="1.42727">
        <ele>397</ele>
        <time>2011-07-07T15:28:25Z</time>
      </trkpt>
      <trkpt lat="45.30976" lon="1.42731">
        <ele>400</ele>
        <time>2011-07-07T15:28:27Z</time>
      </trkpt>
      <trkpt lat="45.30972" lon="1.42735">
        <ele>402</ele>
        <time>2011-07-07T15:28:29Z</time>
      </trkpt>
      <trkpt lat="45.30968" lon="1.42738">
        <ele>402</ele>
        <time>2011-07-07T15:28:31Z</time>
      </trkpt>
      <trkpt lat="45.30963" lon="1.42741">
        <ele>401</ele>
        <time>2011-07-07T15:28:33Z</time>
      </trkpt>
      <trkpt lat="45.30959" lon="1.42745">
        <ele>401</ele>
        <time>2011-07-07T15:28:35Z</time>
      </trkpt>
      <trkpt lat="45.30953" lon="1.42748">
        <ele>404</ele>
        <time>2011-07-07T15:28:38Z</time>
      </trkpt>
      <trkpt lat="45.30949" lon="1.42751">
        <ele>403</ele>
        <time>2011-07-07T15:28:40Z</time>
      </trkpt>
      <trkpt lat="45.30943" lon="1.42754">
        <ele>404</ele>
        <time>2011-07-07T15:28:43Z</time>
      </trkpt>
      <trkpt lat="45.30936" lon="1.42757">
        <ele>405</ele>
        <time>2011-07-07T15:28:46Z</time>
      </trkpt>
      <trkpt lat="45.30931" lon="1.42761">
        <ele>405</ele>
        <time>2011-07-07T15:28:49Z</time>
      </trkpt>
      <trkpt lat="45.30927" lon="1.42765">
        <ele>406</ele>
        <time>2011-07-07T15:28:51Z</time>
      </trkpt>
      <trkpt lat="45.30923" lon="1.42767">
        <ele>406</ele>
        <time>2011-07-07T15:28:53Z</time>
      </trkpt>
      <trkpt lat="45.30917" lon="1.42771">
        <ele>407</ele>
        <time>2011-07-07T15:28:56Z</time>
      </trkpt>
      <trkpt lat="45.30912" lon="1.42775">
        <ele>411</ele>
        <time>2011-07-07T15:28:59Z</time>
      </trkpt>
      <trkpt lat="45.30906" lon="1.4278">
        <ele>409</ele>
        <time>2011-07-07T15:29:02Z</time>
      </trkpt>
      <trkpt lat="45.30902" lon="1.42785">
        <ele>412</ele>
        <time>2011-07-07T15:29:04Z</time>
      </trkpt>
      <trkpt lat="45.30898" lon="1.4279">
        <ele>412</ele>
        <time>2011-07-07T15:29:06Z</time>
      </trkpt>
      <trkpt lat="45.30895" lon="1.42794">
        <ele>412</ele>
        <time>2011-07-07T15:29:08Z</time>
      </trkpt>
      <trkpt lat="45.30892" lon="1.42799">
        <ele>409</ele>
        <time>2011-07-07T15:29:10Z</time>
      </trkpt>
      <trkpt lat="45.30888" lon="1.42806">
        <ele>407</ele>
        <time>2011-07-07T15:29:12Z</time>
      </trkpt>
      <trkpt lat="45.30887" lon="1.42814">
        <ele>404</ele>
        <time>2011-07-07T15:29:14Z</time>
      </trkpt>
      <trkpt lat="45.30888" lon="1.42827">
        <ele>405</ele>
        <time>2011-07-07T15:29:16Z</time>
      </trkpt>
      <trkpt lat="45.30889" lon="1.42834">
        <ele>404</ele>
        <time>2011-07-07T15:29:17Z</time>
      </trkpt>
      <trkpt lat="45.30889" lon="1.42842">
        <ele>402</ele>
        <time>2011-07-07T15:29:18Z</time>
      </trkpt>
      <trkpt lat="45.30889" lon="1.42851">
        <ele>402</ele>
        <time>2011-07-07T15:29:19Z</time>
      </trkpt>
      <trkpt lat="45.30887" lon="1.42861">
        <ele>403</ele>
        <time>2011-07-07T15:29:20Z</time>
      </trkpt>
      <trkpt lat="45.30886" lon="1.42872">
        <ele>405</ele>
        <time>2011-07-07T15:29:21Z</time>
      </trkpt>
      <trkpt lat="45.30884" lon="1.42882">
        <ele>405</ele>
        <time>2011-07-07T15:29:22Z</time>
      </trkpt>
      <trkpt lat="45.30882" lon="1.42893">
        <ele>405</ele>
        <time>2011-07-07T15:29:23Z</time>
      </trkpt>
      <trkpt lat="45.30881" lon="1.42904">
        <ele>405</ele>
        <time>2011-07-07T15:29:24Z</time>
      </trkpt>
      <trkpt lat="45.30879" lon="1.42914">
        <ele>403</ele>
        <time>2011-07-07T15:29:25Z</time>
      </trkpt>
      <trkpt lat="45.30878" lon="1.42923">
        <ele>404</ele>
        <time>2011-07-07T15:29:26Z</time>
      </trkpt>
      <trkpt lat="45.30877" lon="1.42931">
        <ele>403</ele>
        <time>2011-07-07T15:29:28Z</time>
      </trkpt>
      <trkpt lat="45.30877" lon="1.42931">
        <ele>403</ele>
        <time>2011-07-07T15:29:28Z</time>
      </trkpt>
      <trkpt lat="45.30877" lon="1.42931">
        <ele>403</ele>
        <time>2011-07-07T15:29:31Z</time>
      </trkpt>
      <trkpt lat="45.3088" lon="1.42937">
        <ele>404</ele>
        <time>2011-07-07T15:29:32Z</time>
      </trkpt>
      <trkpt lat="45.30886" lon="1.42938">
        <ele>402</ele>
        <time>2011-07-07T15:29:34Z</time>
      </trkpt>
      <trkpt lat="45.30891" lon="1.42937">
        <ele>404</ele>
        <time>2011-07-07T15:29:35Z</time>
      </trkpt>
      <trkpt lat="45.30898" lon="1.42936">
        <ele>400</ele>
        <time>2011-07-07T15:29:36Z</time>
      </trkpt>
      <trkpt lat="45.30906" lon="1.42934">
        <ele>396</ele>
        <time>2011-07-07T15:29:37Z</time>
      </trkpt>
      <trkpt lat="45.30914" lon="1.42932">
        <ele>399</ele>
        <time>2011-07-07T15:29:38Z</time>
      </trkpt>
      <trkpt lat="45.30921" lon="1.42931">
        <ele>396</ele>
        <time>2011-07-07T15:29:39Z</time>
      </trkpt>
      <trkpt lat="45.30928" lon="1.42929">
        <ele>394</ele>
        <time>2011-07-07T15:29:40Z</time>
      </trkpt>
      <trkpt lat="45.30922" lon="1.42929">
        <ele>393</ele>
        <time>2011-07-07T15:30:23Z</time>
      </trkpt>
      <trkpt lat="45.30915" lon="1.42931">
        <ele>393</ele>
        <time>2011-07-07T15:30:27Z</time>
      </trkpt>
      <trkpt lat="45.30926" lon="1.42926">
        <ele>396</ele>
        <time>2011-07-07T15:30:48Z</time>
      </trkpt>
      <trkpt lat="45.30926" lon="1.42926">
        <ele>396</ele>
        <time>2011-07-07T15:30:48Z</time>
      </trkpt>
      <trkpt lat="45.30926" lon="1.42926">
        <ele>396</ele>
        <time>2011-07-07T15:30:50Z</time>
      </trkpt>
      <trkpt lat="45.30931" lon="1.42914">
        <ele>392</ele>
        <time>2011-07-07T15:30:51Z</time>
      </trkpt>
      <trkpt lat="45.30932" lon="1.42907">
        <ele>393</ele>
        <time>2011-07-07T15:30:53Z</time>
      </trkpt>
      <trkpt lat="45.30935" lon="1.42901">
        <ele>390</ele>
        <time>2011-07-07T15:30:55Z</time>
      </trkpt>
      <trkpt lat="45.30939" lon="1.42894">
        <ele>389</ele>
        <time>2011-07-07T15:30:57Z</time>
      </trkpt>
      <trkpt lat="45.30943" lon="1.42886">
        <ele>393</ele>
        <time>2011-07-07T15:30:59Z</time>
      </trkpt>
      <trkpt lat="45.30947" lon="1.42877">
        <ele>393</ele>
        <time>2011-07-07T15:31:01Z</time>
      </trkpt>
      <trkpt lat="45.30951" lon="1.42871">
        <ele>392</ele>
        <time>2011-07-07T15:31:02Z</time>
      </trkpt>
      <trkpt lat="45.30954" lon="1.42866">
        <ele>393</ele>
        <time>2011-07-07T15:31:03Z</time>
      </trkpt>
      <trkpt lat="45.30961" lon="1.42852">
        <ele>396</ele>
        <time>2011-07-07T15:31:07Z</time>
      </trkpt>
      <trkpt lat="45.30965" lon="1.42846">
        <ele>390</ele>
        <time>2011-07-07T15:31:08Z</time>
      </trkpt>
      <trkpt lat="45.30969" lon="1.42841">
        <ele>391</ele>
        <time>2011-07-07T15:31:09Z</time>
      </trkpt>
      <trkpt lat="45.30973" lon="1.42836">
        <ele>388</ele>
        <time>2011-07-07T15:31:10Z</time>
      </trkpt>
      <trkpt lat="45.3098" lon="1.42828">
        <ele>388</ele>
        <time>2011-07-07T15:31:12Z</time>
      </trkpt>
      <trkpt lat="45.30984" lon="1.42823">
        <ele>387</ele>
        <time>2011-07-07T15:31:13Z</time>
      </trkpt>
      <trkpt lat="45.30988" lon="1.42818">
        <ele>386</ele>
        <time>2011-07-07T15:31:14Z</time>
      </trkpt>
      <trkpt lat="45.30992" lon="1.42813">
        <ele>385</ele>
        <time>2011-07-07T15:31:15Z</time>
      </trkpt>
      <trkpt lat="45.30996" lon="1.42809">
        <ele>389</ele>
        <time>2011-07-07T15:31:16Z</time>
      </trkpt>
      <trkpt lat="45.31" lon="1.42806">
        <ele>388</ele>
        <time>2011-07-07T15:31:17Z</time>
      </trkpt>
      <trkpt lat="45.31006" lon="1.42803">
        <ele>379</ele>
        <time>2011-07-07T15:31:18Z</time>
      </trkpt>
      <trkpt lat="45.31012" lon="1.42802">
        <ele>373</ele>
        <time>2011-07-07T15:31:19Z</time>
      </trkpt>
      <trkpt lat="45.31017" lon="1.428">
        <ele>374</ele>
        <time>2011-07-07T15:31:20Z</time>
      </trkpt>
      <trkpt lat="45.31017" lon="1.428">
        <ele>374</ele>
        <time>2011-07-07T15:31:20Z</time>
      </trkpt>
      <trkpt lat="45.31017" lon="1.428">
        <ele>374</ele>
        <time>2011-07-07T15:31:21Z</time>
      </trkpt>
      <trkpt lat="45.31025" lon="1.42797">
        <ele>382</ele>
        <time>2011-07-07T15:31:22Z</time>
      </trkpt>
      <trkpt lat="45.31036" lon="1.42796">
        <ele>379</ele>
        <time>2011-07-07T15:31:40Z</time>
      </trkpt>
      <trkpt lat="45.31036" lon="1.42796">
        <ele>379</ele>
        <time>2011-07-07T15:31:40Z</time>
      </trkpt>
      <trkpt lat="45.31036" lon="1.42796">
        <ele>379</ele>
        <time>2011-07-07T15:31:49Z</time>
      </trkpt>
      <trkpt lat="45.31047" lon="1.42798">
        <ele>380</ele>
        <time>2011-07-07T15:31:50Z</time>
      </trkpt>
      <trkpt lat="45.31047" lon="1.42798">
        <ele>380</ele>
        <time>2011-07-07T15:31:50Z</time>
      </trkpt>
      <trkpt lat="45.31047" lon="1.42798">
        <ele>380</ele>
        <time>2011-07-07T15:31:56Z</time>
      </trkpt>
      <trkpt lat="45.31059" lon="1.42796">
        <ele>382</ele>
        <time>2011-07-07T15:31:57Z</time>
      </trkpt>
      <trkpt lat="45.31066" lon="1.42794">
        <ele>378</ele>
        <time>2011-07-07T15:31:59Z</time>
      </trkpt>
      <trkpt lat="45.31074" lon="1.42791">
        <ele>375</ele>
        <time>2011-07-07T15:32:01Z</time>
      </trkpt>
      <trkpt lat="45.31078" lon="1.42789">
        <ele>374</ele>
        <time>2011-07-07T15:32:02Z</time>
      </trkpt>
      <trkpt lat="45.31083" lon="1.42785">
        <ele>373</ele>
        <time>2011-07-07T15:32:03Z</time>
      </trkpt>
      <trkpt lat="45.31083" lon="1.42785">
        <ele>373</ele>
        <time>2011-07-07T15:32:03Z</time>
      </trkpt>
      <trkpt lat="45.31083" lon="1.42785">
        <ele>373</ele>
        <time>2011-07-07T15:32:04Z</time>
      </trkpt>
      <trkpt lat="45.3109" lon="1.42785">
        <ele>367</ele>
        <time>2011-07-07T15:32:07Z</time>
      </trkpt>
      <trkpt lat="45.31098" lon="1.42784">
        <ele>365</ele>
        <time>2011-07-07T15:32:09Z</time>
      </trkpt>
      <trkpt lat="45.31098" lon="1.42784">
        <ele>365</ele>
        <time>2011-07-07T15:32:09Z</time>
      </trkpt>
      <trkpt lat="45.31098" lon="1.42784">
        <ele>365</ele>
        <time>2011-07-07T15:32:39Z</time>
      </trkpt>
      <trkpt lat="45.311" lon="1.4277">
        <ele>380</ele>
        <time>2011-07-07T15:32:40Z</time>
      </trkpt>
      <trkpt lat="45.311" lon="1.4277">
        <ele>380</ele>
        <time>2011-07-07T15:32:40Z</time>
      </trkpt>
      <trkpt lat="45.311" lon="1.4277">
        <ele>380</ele>
        <time>2011-07-07T15:32:49Z</time>
      </trkpt>
      <trkpt lat="45.31104" lon="1.42765">
        <ele>388</ele>
        <time>2011-07-07T15:32:57Z</time>
      </trkpt>
      <trkpt lat="45.31112" lon="1.4276">
        <ele>385</ele>
        <time>2011-07-07T15:33:02Z</time>
      </trkpt>
      <trkpt lat="45.31117" lon="1.42757">
        <ele>385</ele>
        <time>2011-07-07T15:33:04Z</time>
      </trkpt>
      <trkpt lat="45.31124" lon="1.42752">
        <ele>386</ele>
        <time>2011-07-07T15:33:06Z</time>
      </trkpt>
      <trkpt lat="45.31124" lon="1.42752">
        <ele>386</ele>
        <time>2011-07-07T15:33:06Z</time>
      </trkpt>
      <trkpt lat="45.31124" lon="1.42752">
        <ele>386</ele>
        <time>2011-07-07T15:33:11Z</time>
      </trkpt>
      <trkpt lat="45.31132" lon="1.42746">
        <ele>380</ele>
        <time>2011-07-07T15:33:12Z</time>
      </trkpt>
      <trkpt lat="45.31132" lon="1.42746">
        <ele>380</ele>
        <time>2011-07-07T15:33:12Z</time>
      </trkpt>
      <trkpt lat="45.31132" lon="1.42746">
        <ele>380</ele>
        <time>2011-07-07T15:33:13Z</time>
      </trkpt>
      <trkpt lat="45.31144" lon="1.42738">
        <ele>380</ele>
        <time>2011-07-07T15:33:14Z</time>
      </trkpt>
      <trkpt lat="45.31149" lon="1.42734">
        <ele>374</ele>
        <time>2011-07-07T15:33:15Z</time>
      </trkpt>
      <trkpt lat="45.31153" lon="1.42732">
        <ele>376</ele>
        <time>2011-07-07T15:33:16Z</time>
      </trkpt>
      <trkpt lat="45.31158" lon="1.4273">
        <ele>374</ele>
        <time>2011-07-07T15:33:17Z</time>
      </trkpt>
      <trkpt lat="45.31163" lon="1.42728">
        <ele>373</ele>
        <time>2011-07-07T15:33:18Z</time>
      </trkpt>
      <trkpt lat="45.31169" lon="1.42725">
        <ele>371</ele>
        <time>2011-07-07T15:33:19Z</time>
      </trkpt>
      <trkpt lat="45.31176" lon="1.42719">
        <ele>371</ele>
        <time>2011-07-07T15:33:21Z</time>
      </trkpt>
      <trkpt lat="45.31182" lon="1.42714">
        <ele>369</ele>
        <time>2011-07-07T15:33:22Z</time>
      </trkpt>
      <trkpt lat="45.31188" lon="1.42706">
        <ele>369</ele>
        <time>2011-07-07T15:33:23Z</time>
      </trkpt>
      <trkpt lat="45.31193" lon="1.42699">
        <ele>369</ele>
        <time>2011-07-07T15:33:24Z</time>
      </trkpt>
      <trkpt lat="45.31198" lon="1.42691">
        <ele>366</ele>
        <time>2011-07-07T15:33:25Z</time>
      </trkpt>
      <trkpt lat="45.31203" lon="1.42681">
        <ele>364</ele>
        <time>2011-07-07T15:33:26Z</time>
      </trkpt>
      <trkpt lat="45.31208" lon="1.42671">
        <ele>362</ele>
        <time>2011-07-07T15:33:27Z</time>
      </trkpt>
      <trkpt lat="45.31214" lon="1.42659">
        <ele>363</ele>
        <time>2011-07-07T15:33:28Z</time>
      </trkpt>
      <trkpt lat="45.31219" lon="1.42649">
        <ele>363</ele>
        <time>2011-07-07T15:33:29Z</time>
      </trkpt>
      <trkpt lat="45.31223" lon="1.42638">
        <ele>361</ele>
        <time>2011-07-07T15:33:30Z</time>
      </trkpt>
      <trkpt lat="45.31227" lon="1.42627">
        <ele>364</ele>
        <time>2011-07-07T15:33:31Z</time>
      </trkpt>
      <trkpt lat="45.31231" lon="1.42617">
        <ele>361</ele>
        <time>2011-07-07T15:33:32Z</time>
      </trkpt>
      <trkpt lat="45.31233" lon="1.4261">
        <ele>357</ele>
        <time>2011-07-07T15:33:33Z</time>
      </trkpt>
      <trkpt lat="45.31237" lon="1.42603">
        <ele>363</ele>
        <time>2011-07-07T15:33:34Z</time>
      </trkpt>
      <trkpt lat="45.31237" lon="1.42603">
        <ele>363</ele>
        <time>2011-07-07T15:33:34Z</time>
      </trkpt>
      <trkpt lat="45.31237" lon="1.42603">
        <ele>363</ele>
        <time>2011-07-07T15:33:38Z</time>
      </trkpt>
      <trkpt lat="45.31243" lon="1.42602">
        <ele>355</ele>
        <time>2011-07-07T15:33:39Z</time>
      </trkpt>
      <trkpt lat="45.31243" lon="1.42602">
        <ele>355</ele>
        <time>2011-07-07T15:33:39Z</time>
      </trkpt>
      <trkpt lat="45.31243" lon="1.42602">
        <ele>355</ele>
        <time>2011-07-07T15:33:44Z</time>
      </trkpt>
      <trkpt lat="45.31245" lon="1.42618">
        <ele>365</ele>
        <time>2011-07-07T15:33:45Z</time>
      </trkpt>
      <trkpt lat="45.31245" lon="1.42618">
        <ele>365</ele>
        <time>2011-07-07T15:33:45Z</time>
      </trkpt>
      <trkpt lat="45.31245" lon="1.42618">
        <ele>365</ele>
        <time>2011-07-07T15:33:47Z</time>
      </trkpt>
      <trkpt lat="45.31242" lon="1.42634">
        <ele>362</ele>
        <time>2011-07-07T15:33:48Z</time>
      </trkpt>
      <trkpt lat="45.31241" lon="1.42641">
        <ele>353</ele>
        <time>2011-07-07T15:33:49Z</time>
      </trkpt>
      <trkpt lat="45.3124" lon="1.42648">
        <ele>348</ele>
        <time>2011-07-07T15:33:50Z</time>
      </trkpt>
      <trkpt lat="45.31238" lon="1.42656">
        <ele>348</ele>
        <time>2011-07-07T15:33:51Z</time>
      </trkpt>
      <trkpt lat="45.31236" lon="1.42663">
        <ele>345</ele>
        <time>2011-07-07T15:33:52Z</time>
      </trkpt>
      <trkpt lat="45.31236" lon="1.42671">
        <ele>346</ele>
        <time>2011-07-07T15:33:53Z</time>
      </trkpt>
      <trkpt lat="45.31236" lon="1.4268">
        <ele>345</ele>
        <time>2011-07-07T15:33:54Z</time>
      </trkpt>
      <trkpt lat="45.31236" lon="1.42689">
        <ele>341</ele>
        <time>2011-07-07T15:33:55Z</time>
      </trkpt>
      <trkpt lat="45.31236" lon="1.42696">
        <ele>342</ele>
        <time>2011-07-07T15:33:56Z</time>
      </trkpt>
      <trkpt lat="45.31236" lon="1.42703">
        <ele>341</ele>
        <time>2011-07-07T15:33:57Z</time>
      </trkpt>
      <trkpt lat="45.31236" lon="1.42711">
        <ele>342</ele>
        <time>2011-07-07T15:33:58Z</time>
      </trkpt>
      <trkpt lat="45.31235" lon="1.42718">
        <ele>339</ele>
        <time>2011-07-07T15:33:59Z</time>
      </trkpt>
      <trkpt lat="45.31235" lon="1.42718">
        <ele>339</ele>
        <time>2011-07-07T15:33:59Z</time>
      </trkpt>
      <trkpt lat="45.31235" lon="1.42718">
        <ele>339</ele>
        <time>2011-07-07T15:34:00Z</time>
      </trkpt>
      <trkpt lat="45.31238" lon="1.42724">
        <ele>356</ele>
        <time>2011-07-07T15:34:03Z</time>
      </trkpt>
      <trkpt lat="45.31238" lon="1.42724">
        <ele>356</ele>
        <time>2011-07-07T15:34:03Z</time>
      </trkpt>
      <trkpt lat="45.31238" lon="1.42724">
        <ele>356</ele>
        <time>2011-07-07T15:34:04Z</time>
      </trkpt>
      <trkpt lat="45.31244" lon="1.42727">
        <ele>353</ele>
        <time>2011-07-07T15:34:05Z</time>
      </trkpt>
      <trkpt lat="45.31251" lon="1.42728">
        <ele>361</ele>
        <time>2011-07-07T15:34:07Z</time>
      </trkpt>
      <trkpt lat="45.31259" lon="1.42729">
        <ele>368</ele>
        <time>2011-07-07T15:34:09Z</time>
      </trkpt>
      <trkpt lat="45.31269" lon="1.42729">
        <ele>364</ele>
        <time>2011-07-07T15:34:11Z</time>
      </trkpt>
      <trkpt lat="45.31277" lon="1.42729">
        <ele>359</ele>
        <time>2011-07-07T15:34:12Z</time>
      </trkpt>
      <trkpt lat="45.31285" lon="1.4273">
        <ele>358</ele>
        <time>2011-07-07T15:34:13Z</time>
      </trkpt>
      <trkpt lat="45.31292" lon="1.42732">
        <ele>358</ele>
        <time>2011-07-07T15:34:14Z</time>
      </trkpt>
      <trkpt lat="45.31299" lon="1.42734">
        <ele>355</ele>
        <time>2011-07-07T15:34:15Z</time>
      </trkpt>
      <trkpt lat="45.31305" lon="1.42736">
        <ele>354</ele>
        <time>2011-07-07T15:34:16Z</time>
      </trkpt>
      <trkpt lat="45.3131" lon="1.42738">
        <ele>351</ele>
        <time>2011-07-07T15:34:17Z</time>
      </trkpt>
      <trkpt lat="45.31316" lon="1.4274">
        <ele>348</ele>
        <time>2011-07-07T15:34:18Z</time>
      </trkpt>
      <trkpt lat="45.31321" lon="1.42743">
        <ele>346</ele>
        <time>2011-07-07T15:34:19Z</time>
      </trkpt>
      <trkpt lat="45.31325" lon="1.42755">
        <ele>327</ele>
        <time>2011-07-07T15:34:20Z</time>
      </trkpt>
      <trkpt lat="45.31331" lon="1.42773">
        <ele>326</ele>
        <time>2011-07-07T15:34:21Z</time>
      </trkpt>
      <trkpt lat="45.31334" lon="1.42789">
        <ele>316</ele>
        <time>2011-07-07T15:34:22Z</time>
      </trkpt>
      <trkpt lat="45.31336" lon="1.42802">
        <ele>312</ele>
        <time>2011-07-07T15:34:23Z</time>
      </trkpt>
      <trkpt lat="45.31339" lon="1.42816">
        <ele>308</ele>
        <time>2011-07-07T15:34:24Z</time>
      </trkpt>
      <trkpt lat="45.31342" lon="1.42829">
        <ele>305</ele>
        <time>2011-07-07T15:34:25Z</time>
      </trkpt>
      <trkpt lat="45.31346" lon="1.42842">
        <ele>306</ele>
        <time>2011-07-07T15:34:26Z</time>
      </trkpt>
      <trkpt lat="45.31349" lon="1.42855">
        <ele>302</ele>
        <time>2011-07-07T15:34:27Z</time>
      </trkpt>
      <trkpt lat="45.31351" lon="1.42866">
        <ele>299</ele>
        <time>2011-07-07T15:34:28Z</time>
      </trkpt>
      <trkpt lat="45.31353" lon="1.42876">
        <ele>296</ele>
        <time>2011-07-07T15:34:29Z</time>
      </trkpt>
      <trkpt lat="45.31353" lon="1.42883">
        <ele>288</ele>
        <time>2011-07-07T15:34:30Z</time>
      </trkpt>
      <trkpt lat="45.31354" lon="1.42891">
        <ele>286</ele>
        <time>2011-07-07T15:34:31Z</time>
      </trkpt>
      <trkpt lat="45.31354" lon="1.42898">
        <ele>288</ele>
        <time>2011-07-07T15:34:32Z</time>
      </trkpt>
      <trkpt lat="45.31355" lon="1.42909">
        <ele>287</ele>
        <time>2011-07-07T15:34:34Z</time>
      </trkpt>
      <trkpt lat="45.31356" lon="1.42918">
        <ele>286</ele>
        <time>2011-07-07T15:34:36Z</time>
      </trkpt>
      <trkpt lat="45.31355" lon="1.42924">
        <ele>287</ele>
        <time>2011-07-07T15:34:41Z</time>
      </trkpt>
      <trkpt lat="45.31353" lon="1.42934">
        <ele>280</ele>
        <time>2011-07-07T15:34:44Z</time>
      </trkpt>
      <trkpt lat="45.31352" lon="1.42946">
        <ele>283</ele>
        <time>2011-07-07T15:34:46Z</time>
      </trkpt>
      <trkpt lat="45.31352" lon="1.42953">
        <ele>284</ele>
        <time>2011-07-07T15:34:47Z</time>
      </trkpt>
      <trkpt lat="45.31352" lon="1.42962">
        <ele>283</ele>
        <time>2011-07-07T15:34:48Z</time>
      </trkpt>
      <trkpt lat="45.31352" lon="1.4297">
        <ele>280</ele>
        <time>2011-07-07T15:34:49Z</time>
      </trkpt>
      <trkpt lat="45.31351" lon="1.42978">
        <ele>283</ele>
        <time>2011-07-07T15:34:50Z</time>
      </trkpt>
      <trkpt lat="45.31351" lon="1.42992">
        <ele>279</ele>
        <time>2011-07-07T15:34:52Z</time>
      </trkpt>
      <trkpt lat="45.3135" lon="1.43005">
        <ele>295</ele>
        <time>2011-07-07T15:34:54Z</time>
      </trkpt>
      <trkpt lat="45.3135" lon="1.43014">
        <ele>303</ele>
        <time>2011-07-07T15:34:55Z</time>
      </trkpt>
      <trkpt lat="45.31349" lon="1.43021">
        <ele>309</ele>
        <time>2011-07-07T15:34:56Z</time>
      </trkpt>
      <trkpt lat="45.31348" lon="1.43028">
        <ele>312</ele>
        <time>2011-07-07T15:34:57Z</time>
      </trkpt>
      <trkpt lat="45.31348" lon="1.43028">
        <ele>312</ele>
        <time>2011-07-07T15:34:57Z</time>
      </trkpt>
      <trkpt lat="45.31348" lon="1.43028">
        <ele>312</ele>
        <time>2011-07-07T15:35:13Z</time>
      </trkpt>
      <trkpt lat="45.31355" lon="1.43018">
        <ele>361</ele>
        <time>2011-07-07T15:35:14Z</time>
      </trkpt>
      <trkpt lat="45.31355" lon="1.43018">
        <ele>361</ele>
        <time>2011-07-07T15:35:14Z</time>
      </trkpt>
      <trkpt lat="45.31355" lon="1.43018">
        <ele>361</ele>
        <time>2011-07-07T15:35:30Z</time>
      </trkpt>
      <trkpt lat="45.31365" lon="1.4302">
        <ele>385</ele>
        <time>2011-07-07T15:35:31Z</time>
      </trkpt>
      <trkpt lat="45.31365" lon="1.4302">
        <ele>385</ele>
        <time>2011-07-07T15:35:31Z</time>
      </trkpt>
      <trkpt lat="45.31365" lon="1.4302">
        <ele>385</ele>
        <time>2011-07-07T15:35:40Z</time>
      </trkpt>
      <trkpt lat="45.31377" lon="1.43022">
        <ele>384</ele>
        <time>2011-07-07T15:35:41Z</time>
      </trkpt>
      <trkpt lat="45.31377" lon="1.43022">
        <ele>384</ele>
        <time>2011-07-07T15:35:41Z</time>
      </trkpt>
      <trkpt lat="45.31377" lon="1.43022">
        <ele>384</ele>
        <time>2011-07-07T15:35:43Z</time>
      </trkpt>
      <trkpt lat="45.31386" lon="1.43015">
        <ele>387</ele>
        <time>2011-07-07T15:35:44Z</time>
      </trkpt>
      <trkpt lat="45.31391" lon="1.43007">
        <ele>386</ele>
        <time>2011-07-07T15:35:46Z</time>
      </trkpt>
      <trkpt lat="45.31394" lon="1.42997">
        <ele>386</ele>
        <time>2011-07-07T15:35:48Z</time>
      </trkpt>
      <trkpt lat="45.31397" lon="1.4299">
        <ele>384</ele>
        <time>2011-07-07T15:35:49Z</time>
      </trkpt>
      <trkpt lat="45.314" lon="1.42983">
        <ele>383</ele>
        <time>2011-07-07T15:35:50Z</time>
      </trkpt>
      <trkpt lat="45.31404" lon="1.4298">
        <ele>385</ele>
        <time>2011-07-07T15:35:51Z</time>
      </trkpt>
      <trkpt lat="45.31408" lon="1.42974">
        <ele>383</ele>
        <time>2011-07-07T15:35:52Z</time>
      </trkpt>
      <trkpt lat="45.31413" lon="1.42968">
        <ele>382</ele>
        <time>2011-07-07T15:35:53Z</time>
      </trkpt>
      <trkpt lat="45.31418" lon="1.42963">
        <ele>384</ele>
        <time>2011-07-07T15:35:54Z</time>
      </trkpt>
      <trkpt lat="45.31423" lon="1.42957">
        <ele>383</ele>
        <time>2011-07-07T15:35:55Z</time>
      </trkpt>
      <trkpt lat="45.31429" lon="1.42952">
        <ele>383</ele>
        <time>2011-07-07T15:35:56Z</time>
      </trkpt>
      <trkpt lat="45.31435" lon="1.42948">
        <ele>379</ele>
        <time>2011-07-07T15:35:57Z</time>
      </trkpt>
      <trkpt lat="45.31441" lon="1.42945">
        <ele>381</ele>
        <time>2011-07-07T15:35:58Z</time>
      </trkpt>
      <trkpt lat="45.31447" lon="1.42941">
        <ele>383</ele>
        <time>2011-07-07T15:35:59Z</time>
      </trkpt>
      <trkpt lat="45.31452" lon="1.42936">
        <ele>385</ele>
        <time>2011-07-07T15:36:00Z</time>
      </trkpt>
      <trkpt lat="45.31457" lon="1.42934">
        <ele>377</ele>
        <time>2011-07-07T15:36:01Z</time>
      </trkpt>
      <trkpt lat="45.31462" lon="1.42931">
        <ele>372</ele>
        <time>2011-07-07T15:36:02Z</time>
      </trkpt>
      <trkpt lat="45.31466" lon="1.42929">
        <ele>371</ele>
        <time>2011-07-07T15:36:03Z</time>
      </trkpt>
      <trkpt lat="45.31471" lon="1.42929">
        <ele>363</ele>
        <time>2011-07-07T15:36:04Z</time>
      </trkpt>
      <trkpt lat="45.31476" lon="1.42928">
        <ele>360</ele>
        <time>2011-07-07T15:36:05Z</time>
      </trkpt>
      <trkpt lat="45.31481" lon="1.42928">
        <ele>353</ele>
        <time>2011-07-07T15:36:06Z</time>
      </trkpt>
      <trkpt lat="45.31486" lon="1.42928">
        <ele>350</ele>
        <time>2011-07-07T15:36:07Z</time>
      </trkpt>
      <trkpt lat="45.31492" lon="1.42928">
        <ele>348</ele>
        <time>2011-07-07T15:36:08Z</time>
      </trkpt>
      <trkpt lat="45.31496" lon="1.42927">
        <ele>342</ele>
        <time>2011-07-07T15:36:09Z</time>
      </trkpt>
      <trkpt lat="45.31502" lon="1.42927">
        <ele>337</ele>
        <time>2011-07-07T15:36:10Z</time>
      </trkpt>
      <trkpt lat="45.3151" lon="1.42926">
        <ele>334</ele>
        <time>2011-07-07T15:36:12Z</time>
      </trkpt>
      <trkpt lat="45.31519" lon="1.42926">
        <ele>333</ele>
        <time>2011-07-07T15:36:14Z</time>
      </trkpt>
      <trkpt lat="45.31524" lon="1.42926">
        <ele>328</ele>
        <time>2011-07-07T15:36:15Z</time>
      </trkpt>
      <trkpt lat="45.31529" lon="1.42926">
        <ele>325</ele>
        <time>2011-07-07T15:36:16Z</time>
      </trkpt>
      <trkpt lat="45.31534" lon="1.42925">
        <ele>323</ele>
        <time>2011-07-07T15:36:17Z</time>
      </trkpt>
      <trkpt lat="45.3154" lon="1.42925">
        <ele>326</ele>
        <time>2011-07-07T15:36:18Z</time>
      </trkpt>
      <trkpt lat="45.31544" lon="1.42925">
        <ele>324</ele>
        <time>2011-07-07T15:36:19Z</time>
      </trkpt>
      <trkpt lat="45.31554" lon="1.42925">
        <ele>323</ele>
        <time>2011-07-07T15:36:21Z</time>
      </trkpt>
      <trkpt lat="45.31559" lon="1.42924">
        <ele>320</ele>
        <time>2011-07-07T15:36:22Z</time>
      </trkpt>
      <trkpt lat="45.31565" lon="1.42925">
        <ele>318</ele>
        <time>2011-07-07T15:36:23Z</time>
      </trkpt>
      <trkpt lat="45.3157" lon="1.42925">
        <ele>317</ele>
        <time>2011-07-07T15:36:24Z</time>
      </trkpt>
      <trkpt lat="45.31576" lon="1.42925">
        <ele>315</ele>
        <time>2011-07-07T15:36:25Z</time>
      </trkpt>
      <trkpt lat="45.31581" lon="1.42925">
        <ele>312</ele>
        <time>2011-07-07T15:36:26Z</time>
      </trkpt>
      <trkpt lat="45.31587" lon="1.42925">
        <ele>310</ele>
        <time>2011-07-07T15:36:27Z</time>
      </trkpt>
      <trkpt lat="45.31592" lon="1.42925">
        <ele>312</ele>
        <time>2011-07-07T15:36:28Z</time>
      </trkpt>
      <trkpt lat="45.31597" lon="1.42926">
        <ele>311</ele>
        <time>2011-07-07T15:36:29Z</time>
      </trkpt>
      <trkpt lat="45.31602" lon="1.42926">
        <ele>312</ele>
        <time>2011-07-07T15:36:30Z</time>
      </trkpt>
      <trkpt lat="45.31607" lon="1.42926">
        <ele>309</ele>
        <time>2011-07-07T15:36:31Z</time>
      </trkpt>
      <trkpt lat="45.31615" lon="1.42928">
        <ele>309</ele>
        <time>2011-07-07T15:36:33Z</time>
      </trkpt>
      <trkpt lat="45.31622" lon="1.42928">
        <ele>300</ele>
        <time>2011-07-07T15:36:35Z</time>
      </trkpt>
      <trkpt lat="45.31629" lon="1.42927">
        <ele>297</ele>
        <time>2011-07-07T15:36:37Z</time>
      </trkpt>
      <trkpt lat="45.31635" lon="1.42924">
        <ele>298</ele>
        <time>2011-07-07T15:36:39Z</time>
      </trkpt>
      <trkpt lat="45.3164" lon="1.42921">
        <ele>299</ele>
        <time>2011-07-07T15:36:40Z</time>
      </trkpt>
      <trkpt lat="45.31647" lon="1.42916">
        <ele>300</ele>
        <time>2011-07-07T15:36:42Z</time>
      </trkpt>
      <trkpt lat="45.31652" lon="1.42913">
        <ele>298</ele>
        <time>2011-07-07T15:36:43Z</time>
      </trkpt>
      <trkpt lat="45.3166" lon="1.42908">
        <ele>299</ele>
        <time>2011-07-07T15:36:45Z</time>
      </trkpt>
      <trkpt lat="45.31673" lon="1.42903">
        <ele>296</ele>
        <time>2011-07-07T15:36:50Z</time>
      </trkpt>
      <trkpt lat="45.31686" lon="1.42897">
        <ele>295</ele>
        <time>2011-07-07T15:36:57Z</time>
      </trkpt>
      <trkpt lat="45.31686" lon="1.42897">
        <ele>295</ele>
        <time>2011-07-07T15:36:57Z</time>
      </trkpt>
      <trkpt lat="45.31686" lon="1.42897">
        <ele>295</ele>
        <time>2011-07-07T15:37:04Z</time>
      </trkpt>
      <trkpt lat="45.31697" lon="1.42888">
        <ele>295</ele>
        <time>2011-07-07T15:37:05Z</time>
      </trkpt>
      <trkpt lat="45.31697" lon="1.42888">
        <ele>295</ele>
        <time>2011-07-07T15:37:05Z</time>
      </trkpt>
      <trkpt lat="45.31697" lon="1.42888">
        <ele>295</ele>
        <time>2011-07-07T15:37:07Z</time>
      </trkpt>
      <trkpt lat="45.31702" lon="1.42885">
        <ele>294</ele>
        <time>2011-07-07T15:37:08Z</time>
      </trkpt>
      <trkpt lat="45.31702" lon="1.42885">
        <ele>294</ele>
        <time>2011-07-07T15:37:08Z</time>
      </trkpt>
      <trkpt lat="45.31702" lon="1.42885">
        <ele>294</ele>
        <time>2011-07-07T15:37:11Z</time>
      </trkpt>
      <trkpt lat="45.31711" lon="1.42879">
        <ele>294</ele>
        <time>2011-07-07T15:37:12Z</time>
      </trkpt>
      <trkpt lat="45.31718" lon="1.42884">
        <ele>300</ele>
        <time>2011-07-07T15:37:25Z</time>
      </trkpt>
      <trkpt lat="45.31718" lon="1.42884">
        <ele>300</ele>
        <time>2011-07-07T15:37:25Z</time>
      </trkpt>
      <trkpt lat="45.31718" lon="1.42884">
        <ele>300</ele>
        <time>2011-07-07T15:37:28Z</time>
      </trkpt>
      <trkpt lat="45.31711" lon="1.42901">
        <ele>294</ele>
        <time>2011-07-07T15:37:37Z</time>
      </trkpt>
      <trkpt lat="45.31711" lon="1.42901">
        <ele>294</ele>
        <time>2011-07-07T15:37:37Z</time>
      </trkpt>
      <trkpt lat="45.31711" lon="1.42901">
        <ele>294</ele>
        <time>2011-07-07T15:37:39Z</time>
      </trkpt>
      <trkpt lat="45.31706" lon="1.42905">
        <ele>295</ele>
        <time>2011-07-07T15:37:42Z</time>
      </trkpt>
      <trkpt lat="45.31703" lon="1.42912">
        <ele>300</ele>
        <time>2011-07-07T15:37:47Z</time>
      </trkpt>
      <trkpt lat="45.31703" lon="1.42912">
        <ele>300</ele>
        <time>2011-07-07T15:37:47Z</time>
      </trkpt>
      <trkpt lat="45.31703" lon="1.42912">
        <ele>300</ele>
        <time>2011-07-07T15:37:48Z</time>
      </trkpt>
      <trkpt lat="45.31702" lon="1.4292">
        <ele>297</ele>
        <time>2011-07-07T15:37:50Z</time>
      </trkpt>
      <trkpt lat="45.31702" lon="1.42928">
        <ele>302</ele>
        <time>2011-07-07T15:37:53Z</time>
      </trkpt>
      <trkpt lat="45.31699" lon="1.42935">
        <ele>304</ele>
        <time>2011-07-07T15:37:57Z</time>
      </trkpt>
      <trkpt lat="45.31694" lon="1.42945">
        <ele>303</ele>
        <time>2011-07-07T15:38:03Z</time>
      </trkpt>
      <trkpt lat="45.31694" lon="1.42945">
        <ele>303</ele>
        <time>2011-07-07T15:38:03Z</time>
      </trkpt>
      <trkpt lat="45.31694" lon="1.42945">
        <ele>303</ele>
        <time>2011-07-07T15:38:04Z</time>
      </trkpt>
      <trkpt lat="45.31692" lon="1.42951">
        <ele>294</ele>
        <time>2011-07-07T15:38:06Z</time>
      </trkpt>
      <trkpt lat="45.31692" lon="1.42951">
        <ele>294</ele>
        <time>2011-07-07T15:38:06Z</time>
      </trkpt>
      <trkpt lat="45.31692" lon="1.42951">
        <ele>294</ele>
        <time>2011-07-07T15:38:08Z</time>
      </trkpt>
      <trkpt lat="45.31686" lon="1.42968">
        <ele>302</ele>
        <time>2011-07-07T15:38:18Z</time>
      </trkpt>
      <trkpt lat="45.31686" lon="1.42968">
        <ele>302</ele>
        <time>2011-07-07T15:38:18Z</time>
      </trkpt>
      <trkpt lat="45.31686" lon="1.42968">
        <ele>302</ele>
        <time>2011-07-07T15:38:23Z</time>
      </trkpt>
      <trkpt lat="45.31684" lon="1.42975">
        <ele>303</ele>
        <time>2011-07-07T15:38:24Z</time>
      </trkpt>
      <trkpt lat="45.31684" lon="1.42975">
        <ele>303</ele>
        <time>2011-07-07T15:38:24Z</time>
      </trkpt>
      <trkpt lat="45.31684" lon="1.42975">
        <ele>303</ele>
        <time>2011-07-07T15:38:29Z</time>
      </trkpt>
      <trkpt lat="45.31689" lon="1.42972">
        <ele>309</ele>
        <time>2011-07-07T15:38:34Z</time>
      </trkpt>
      <trkpt lat="45.31694" lon="1.42969">
        <ele>305</ele>
        <time>2011-07-07T15:38:38Z</time>
      </trkpt>
      <trkpt lat="45.31694" lon="1.42969">
        <ele>305</ele>
        <time>2011-07-07T15:38:38Z</time>
      </trkpt>
      <trkpt lat="45.31694" lon="1.42969">
        <ele>305</ele>
        <time>2011-07-07T15:38:39Z</time>
      </trkpt>
      <trkpt lat="45.31698" lon="1.42966">
        <ele>307</ele>
        <time>2011-07-07T15:38:42Z</time>
      </trkpt>
      <trkpt lat="45.31698" lon="1.42966">
        <ele>307</ele>
        <time>2011-07-07T15:38:42Z</time>
      </trkpt>
      <trkpt lat="45.31698" lon="1.42966">
        <ele>307</ele>
        <time>2011-07-07T15:38:45Z</time>
      </trkpt>
      <trkpt lat="45.31706" lon="1.4296">
        <ele>309</ele>
        <time>2011-07-07T15:38:48Z</time>
      </trkpt>
      <trkpt lat="45.31716" lon="1.42955">
        <ele>303</ele>
        <time>2011-07-07T15:38:55Z</time>
      </trkpt>
      <trkpt lat="45.31716" lon="1.42955">
        <ele>303</ele>
        <time>2011-07-07T15:38:55Z</time>
      </trkpt>
      <trkpt lat="45.31716" lon="1.42955">
        <ele>303</ele>
        <time>2011-07-07T15:38:57Z</time>
      </trkpt>
      <trkpt lat="45.31721" lon="1.42954">
        <ele>304</ele>
        <time>2011-07-07T15:38:58Z</time>
      </trkpt>
      <trkpt lat="45.31721" lon="1.42954">
        <ele>304</ele>
        <time>2011-07-07T15:38:58Z</time>
      </trkpt>
      <trkpt lat="45.31721" lon="1.42954">
        <ele>304</ele>
        <time>2011-07-07T15:39:05Z</time>
      </trkpt>
      <trkpt lat="45.3173" lon="1.42952">
        <ele>306</ele>
        <time>2011-07-07T15:39:06Z</time>
      </trkpt>
      <trkpt lat="45.3173" lon="1.42952">
        <ele>306</ele>
        <time>2011-07-07T15:39:06Z</time>
      </trkpt>
      <trkpt lat="45.3173" lon="1.42952">
        <ele>306</ele>
        <time>2011-07-07T15:39:07Z</time>
      </trkpt>
      <trkpt lat="45.31737" lon="1.4295">
        <ele>301</ele>
        <time>2011-07-07T15:39:10Z</time>
      </trkpt>
      <trkpt lat="45.31737" lon="1.4295">
        <ele>301</ele>
        <time>2011-07-07T15:39:10Z</time>
      </trkpt>
      <trkpt lat="45.31737" lon="1.4295">
        <ele>301</ele>
        <time>2011-07-07T15:39:17Z</time>
      </trkpt>
      <trkpt lat="45.31743" lon="1.4295">
        <ele>301</ele>
        <time>2011-07-07T15:39:18Z</time>
      </trkpt>
      <trkpt lat="45.31743" lon="1.4295">
        <ele>301</ele>
        <time>2011-07-07T15:39:18Z</time>
      </trkpt>
      <trkpt lat="45.31743" lon="1.4295">
        <ele>301</ele>
        <time>2011-07-07T15:39:19Z</time>
      </trkpt>
      <trkpt lat="45.31746" lon="1.42956">
        <ele>303</ele>
        <time>2011-07-07T15:39:24Z</time>
      </trkpt>
      <trkpt lat="45.31742" lon="1.42962">
        <ele>306</ele>
        <time>2011-07-07T15:39:28Z</time>
      </trkpt>
      <trkpt lat="45.31739" lon="1.42967">
        <ele>304</ele>
        <time>2011-07-07T15:39:33Z</time>
      </trkpt>
      <trkpt lat="45.31736" lon="1.42973">
        <ele>300</ele>
        <time>2011-07-07T15:39:37Z</time>
      </trkpt>
      <trkpt lat="45.31736" lon="1.42973">
        <ele>300</ele>
        <time>2011-07-07T15:39:37Z</time>
      </trkpt>
      <trkpt lat="45.31736" lon="1.42973">
        <ele>300</ele>
        <time>2011-07-07T15:39:40Z</time>
      </trkpt>
      <trkpt lat="45.31731" lon="1.42981">
        <ele>304</ele>
        <time>2011-07-07T15:39:45Z</time>
      </trkpt>
      <trkpt lat="45.31728" lon="1.42987">
        <ele>302</ele>
        <time>2011-07-07T15:39:49Z</time>
      </trkpt>
      <trkpt lat="45.31724" lon="1.42992">
        <ele>308</ele>
        <time>2011-07-07T15:39:53Z</time>
      </trkpt>
      <trkpt lat="45.3172" lon="1.42998">
        <ele>312</ele>
        <time>2011-07-07T15:39:58Z</time>
      </trkpt>
      <trkpt lat="45.31716" lon="1.43003">
        <ele>317</ele>
        <time>2011-07-07T15:40:02Z</time>
      </trkpt>
      <trkpt lat="45.31712" lon="1.43008">
        <ele>319</ele>
        <time>2011-07-07T15:40:06Z</time>
      </trkpt>
      <trkpt lat="45.31708" lon="1.43012">
        <ele>314</ele>
        <time>2011-07-07T15:40:11Z</time>
      </trkpt>
      <trkpt lat="45.31704" lon="1.43018">
        <ele>316</ele>
        <time>2011-07-07T15:40:16Z</time>
      </trkpt>
      <trkpt lat="45.31701" lon="1.43023">
        <ele>318</ele>
        <time>2011-07-07T15:40:21Z</time>
      </trkpt>
      <trkpt lat="45.31697" lon="1.43028">
        <ele>315</ele>
        <time>2011-07-07T15:40:25Z</time>
      </trkpt>
      <trkpt lat="45.31693" lon="1.43032">
        <ele>318</ele>
        <time>2011-07-07T15:40:30Z</time>
      </trkpt>
      <trkpt lat="45.31688" lon="1.43036">
        <ele>322</ele>
        <time>2011-07-07T15:40:35Z</time>
      </trkpt>
      <trkpt lat="45.31686" lon="1.43042">
        <ele>328</ele>
        <time>2011-07-07T15:40:39Z</time>
      </trkpt>
      <trkpt lat="45.31682" lon="1.43048">
        <ele>321</ele>
        <time>2011-07-07T15:40:45Z</time>
      </trkpt>
      <trkpt lat="45.31678" lon="1.43052">
        <ele>322</ele>
        <time>2011-07-07T15:40:49Z</time>
      </trkpt>
      <trkpt lat="45.31675" lon="1.43057">
        <ele>321</ele>
        <time>2011-07-07T15:40:53Z</time>
      </trkpt>
      <trkpt lat="45.31671" lon="1.43062">
        <ele>332</ele>
        <time>2011-07-07T15:40:58Z</time>
      </trkpt>
      <trkpt lat="45.31668" lon="1.43066">
        <ele>341</ele>
        <time>2011-07-07T15:41:06Z</time>
      </trkpt>
      <trkpt lat="45.31664" lon="1.43071">
        <ele>344</ele>
        <time>2011-07-07T15:41:11Z</time>
      </trkpt>
      <trkpt lat="45.31659" lon="1.43073">
        <ele>347</ele>
        <time>2011-07-07T15:41:15Z</time>
      </trkpt>
      <trkpt lat="45.31654" lon="1.43075">
        <ele>348</ele>
        <time>2011-07-07T15:41:19Z</time>
      </trkpt>
      <trkpt lat="45.3165" lon="1.43078">
        <ele>353</ele>
        <time>2011-07-07T15:41:25Z</time>
      </trkpt>
      <trkpt lat="45.31646" lon="1.43084">
        <ele>353</ele>
        <time>2011-07-07T15:41:32Z</time>
      </trkpt>
      <trkpt lat="45.31641" lon="1.43088">
        <ele>351</ele>
        <time>2011-07-07T15:41:36Z</time>
      </trkpt>
      <trkpt lat="45.31636" lon="1.4309">
        <ele>353</ele>
        <time>2011-07-07T15:41:40Z</time>
      </trkpt>
      <trkpt lat="45.31633" lon="1.43093">
        <ele>354</ele>
        <time>2011-07-07T15:41:45Z</time>
      </trkpt>
      <trkpt lat="45.31628" lon="1.43096">
        <ele>354</ele>
        <time>2011-07-07T15:41:51Z</time>
      </trkpt>
      <trkpt lat="45.31624" lon="1.431">
        <ele>363</ele>
        <time>2011-07-07T15:41:56Z</time>
      </trkpt>
      <trkpt lat="45.3162" lon="1.431">
        <ele>365</ele>
        <time>2011-07-07T15:42:02Z</time>
      </trkpt>
      <trkpt lat="45.31616" lon="1.43104">
        <ele>379</ele>
        <time>2011-07-07T15:42:09Z</time>
      </trkpt>
      <trkpt lat="45.31611" lon="1.43106">
        <ele>371</ele>
        <time>2011-07-07T15:42:17Z</time>
      </trkpt>
      <trkpt lat="45.31607" lon="1.43109">
        <ele>369</ele>
        <time>2011-07-07T15:42:22Z</time>
      </trkpt>
      <trkpt lat="45.31602" lon="1.43113">
        <ele>366</ele>
        <time>2011-07-07T15:42:26Z</time>
      </trkpt>
      <trkpt lat="45.31598" lon="1.43115">
        <ele>372</ele>
        <time>2011-07-07T15:42:30Z</time>
      </trkpt>
      <trkpt lat="45.31593" lon="1.43119">
        <ele>375</ele>
        <time>2011-07-07T15:42:35Z</time>
      </trkpt>
      <trkpt lat="45.31588" lon="1.43122">
        <ele>383</ele>
        <time>2011-07-07T15:42:42Z</time>
      </trkpt>
      <trkpt lat="45.31583" lon="1.43125">
        <ele>375</ele>
        <time>2011-07-07T15:42:47Z</time>
      </trkpt>
      <trkpt lat="45.31577" lon="1.43126">
        <ele>377</ele>
        <time>2011-07-07T15:42:51Z</time>
      </trkpt>
      <trkpt lat="45.31572" lon="1.43125">
        <ele>379</ele>
        <time>2011-07-07T15:42:57Z</time>
      </trkpt>
      <trkpt lat="45.31567" lon="1.43128">
        <ele>387</ele>
        <time>2011-07-07T15:43:03Z</time>
      </trkpt>
      <trkpt lat="45.31562" lon="1.43126">
        <ele>396</ele>
        <time>2011-07-07T15:43:07Z</time>
      </trkpt>
      <trkpt lat="45.31557" lon="1.43128">
        <ele>398</ele>
        <time>2011-07-07T15:43:13Z</time>
      </trkpt>
      <trkpt lat="45.31552" lon="1.43131">
        <ele>401</ele>
        <time>2011-07-07T15:43:20Z</time>
      </trkpt>
      <trkpt lat="45.31547" lon="1.43133">
        <ele>401</ele>
        <time>2011-07-07T15:43:24Z</time>
      </trkpt>
      <trkpt lat="45.31543" lon="1.43138">
        <ele>406</ele>
        <time>2011-07-07T15:43:28Z</time>
      </trkpt>
      <trkpt lat="45.31539" lon="1.4314">
        <ele>404</ele>
        <time>2011-07-07T15:43:33Z</time>
      </trkpt>
      <trkpt lat="45.31533" lon="1.43142">
        <ele>394</ele>
        <time>2011-07-07T15:43:38Z</time>
      </trkpt>
      <trkpt lat="45.31528" lon="1.43144">
        <ele>395</ele>
        <time>2011-07-07T15:43:42Z</time>
      </trkpt>
      <trkpt lat="45.31522" lon="1.43145">
        <ele>394</ele>
        <time>2011-07-07T15:43:45Z</time>
      </trkpt>
      <trkpt lat="45.31516" lon="1.43146">
        <ele>396</ele>
        <time>2011-07-07T15:43:49Z</time>
      </trkpt>
      <trkpt lat="45.3151" lon="1.4315">
        <ele>400</ele>
        <time>2011-07-07T15:43:52Z</time>
      </trkpt>
      <trkpt lat="45.31505" lon="1.4315">
        <ele>398</ele>
        <time>2011-07-07T15:43:55Z</time>
      </trkpt>
      <trkpt lat="45.31499" lon="1.43151">
        <ele>395</ele>
        <time>2011-07-07T15:43:58Z</time>
      </trkpt>
      <trkpt lat="45.31494" lon="1.43152">
        <ele>400</ele>
        <time>2011-07-07T15:44:00Z</time>
      </trkpt>
      <trkpt lat="45.31489" lon="1.43154">
        <ele>401</ele>
        <time>2011-07-07T15:44:03Z</time>
      </trkpt>
      <trkpt lat="45.31484" lon="1.43155">
        <ele>399</ele>
        <time>2011-07-07T15:44:06Z</time>
      </trkpt>
      <trkpt lat="45.31479" lon="1.43157">
        <ele>401</ele>
        <time>2011-07-07T15:44:08Z</time>
      </trkpt>
      <trkpt lat="45.31473" lon="1.4316">
        <ele>397</ele>
        <time>2011-07-07T15:44:11Z</time>
      </trkpt>
      <trkpt lat="45.31468" lon="1.43162">
        <ele>401</ele>
        <time>2011-07-07T15:44:13Z</time>
      </trkpt>
      <trkpt lat="45.31464" lon="1.43164">
        <ele>398</ele>
        <time>2011-07-07T15:44:15Z</time>
      </trkpt>
      <trkpt lat="45.31458" lon="1.43166">
        <ele>392</ele>
        <time>2011-07-07T15:44:17Z</time>
      </trkpt>
      <trkpt lat="45.31454" lon="1.43167">
        <ele>394</ele>
        <time>2011-07-07T15:44:19Z</time>
      </trkpt>
      <trkpt lat="45.31449" lon="1.43169">
        <ele>393</ele>
        <time>2011-07-07T15:44:21Z</time>
      </trkpt>
      <trkpt lat="45.31444" lon="1.4317">
        <ele>394</ele>
        <time>2011-07-07T15:44:23Z</time>
      </trkpt>
      <trkpt lat="45.31438" lon="1.43171">
        <ele>396</ele>
        <time>2011-07-07T15:44:25Z</time>
      </trkpt>
      <trkpt lat="45.31432" lon="1.43174">
        <ele>395</ele>
        <time>2011-07-07T15:44:27Z</time>
      </trkpt>
      <trkpt lat="45.31426" lon="1.43177">
        <ele>395</ele>
        <time>2011-07-07T15:44:29Z</time>
      </trkpt>
      <trkpt lat="45.31418" lon="1.4318">
        <ele>386</ele>
        <time>2011-07-07T15:44:31Z</time>
      </trkpt>
      <trkpt lat="45.31411" lon="1.43183">
        <ele>385</ele>
        <time>2011-07-07T15:44:33Z</time>
      </trkpt>
      <trkpt lat="45.31406" lon="1.43187">
        <ele>388</ele>
        <time>2011-07-07T15:44:35Z</time>
      </trkpt>
      <trkpt lat="45.314" lon="1.4319">
        <ele>387</ele>
        <time>2011-07-07T15:44:37Z</time>
      </trkpt>
      <trkpt lat="45.31394" lon="1.43194">
        <ele>391</ele>
        <time>2011-07-07T15:44:39Z</time>
      </trkpt>
      <trkpt lat="45.31386" lon="1.43198">
        <ele>392</ele>
        <time>2011-07-07T15:44:41Z</time>
      </trkpt>
      <trkpt lat="45.31381" lon="1.43203">
        <ele>389</ele>
        <time>2011-07-07T15:44:43Z</time>
      </trkpt>
      <trkpt lat="45.31376" lon="1.43208">
        <ele>387</ele>
        <time>2011-07-07T15:44:45Z</time>
      </trkpt>
      <trkpt lat="45.31372" lon="1.43212">
        <ele>390</ele>
        <time>2011-07-07T15:44:47Z</time>
      </trkpt>
      <trkpt lat="45.31366" lon="1.43217">
        <ele>384</ele>
        <time>2011-07-07T15:44:50Z</time>
      </trkpt>
      <trkpt lat="45.31361" lon="1.43223">
        <ele>383</ele>
        <time>2011-07-07T15:44:53Z</time>
      </trkpt>
      <trkpt lat="45.31357" lon="1.43226">
        <ele>379</ele>
        <time>2011-07-07T15:44:55Z</time>
      </trkpt>
      <trkpt lat="45.31352" lon="1.43231">
        <ele>383</ele>
        <time>2011-07-07T15:44:57Z</time>
      </trkpt>
      <trkpt lat="45.31347" lon="1.43235">
        <ele>387</ele>
        <time>2011-07-07T15:44:59Z</time>
      </trkpt>
      <trkpt lat="45.31343" lon="1.43238">
        <ele>389</ele>
        <time>2011-07-07T15:45:01Z</time>
      </trkpt>
      <trkpt lat="45.31337" lon="1.4324">
        <ele>395</ele>
        <time>2011-07-07T15:45:04Z</time>
      </trkpt>
      <trkpt lat="45.31332" lon="1.43244">
        <ele>398</ele>
        <time>2011-07-07T15:45:08Z</time>
      </trkpt>
      <trkpt lat="45.31328" lon="1.43248">
        <ele>399</ele>
        <time>2011-07-07T15:45:13Z</time>
      </trkpt>
      <trkpt lat="45.31325" lon="1.43254">
        <ele>405</ele>
        <time>2011-07-07T15:45:18Z</time>
      </trkpt>
      <trkpt lat="45.31321" lon="1.43258">
        <ele>405</ele>
        <time>2011-07-07T15:45:22Z</time>
      </trkpt>
      <trkpt lat="45.31316" lon="1.43262">
        <ele>407</ele>
        <time>2011-07-07T15:45:25Z</time>
      </trkpt>
      <trkpt lat="45.31311" lon="1.43266">
        <ele>404</ele>
        <time>2011-07-07T15:45:29Z</time>
      </trkpt>
      <trkpt lat="45.31307" lon="1.43269">
        <ele>400</ele>
        <time>2011-07-07T15:45:33Z</time>
      </trkpt>
      <trkpt lat="45.31302" lon="1.43273">
        <ele>398</ele>
        <time>2011-07-07T15:45:37Z</time>
      </trkpt>
      <trkpt lat="45.31298" lon="1.4327">
        <ele>398</ele>
        <time>2011-07-07T15:45:45Z</time>
      </trkpt>
      <trkpt lat="45.31292" lon="1.43271">
        <ele>392</ele>
        <time>2011-07-07T15:45:48Z</time>
      </trkpt>
      <trkpt lat="45.31287" lon="1.43274">
        <ele>385</ele>
        <time>2011-07-07T15:45:52Z</time>
      </trkpt>
      <trkpt lat="45.31283" lon="1.43277">
        <ele>384</ele>
        <time>2011-07-07T15:45:55Z</time>
      </trkpt>
      <trkpt lat="45.31278" lon="1.4328">
        <ele>386</ele>
        <time>2011-07-07T15:45:59Z</time>
      </trkpt>
      <trkpt lat="45.31273" lon="1.43281">
        <ele>385</ele>
        <time>2011-07-07T15:46:02Z</time>
      </trkpt>
      <trkpt lat="45.31268" lon="1.43284">
        <ele>381</ele>
        <time>2011-07-07T15:46:05Z</time>
      </trkpt>
      <trkpt lat="45.31262" lon="1.43285">
        <ele>386</ele>
        <time>2011-07-07T15:46:08Z</time>
      </trkpt>
      <trkpt lat="45.31257" lon="1.43284">
        <ele>388</ele>
        <time>2011-07-07T15:46:11Z</time>
      </trkpt>
      <trkpt lat="45.31252" lon="1.43284">
        <ele>391</ele>
        <time>2011-07-07T15:46:14Z</time>
      </trkpt>
      <trkpt lat="45.31245" lon="1.43283">
        <ele>391</ele>
        <time>2011-07-07T15:46:17Z</time>
      </trkpt>
      <trkpt lat="45.3124" lon="1.43284">
        <ele>392</ele>
        <time>2011-07-07T15:46:20Z</time>
      </trkpt>
      <trkpt lat="45.31235" lon="1.43285">
        <ele>392</ele>
        <time>2011-07-07T15:46:23Z</time>
      </trkpt>
      <trkpt lat="45.3123" lon="1.43285">
        <ele>389</ele>
        <time>2011-07-07T15:46:26Z</time>
      </trkpt>
      <trkpt lat="45.31225" lon="1.43284">
        <ele>391</ele>
        <time>2011-07-07T15:46:28Z</time>
      </trkpt>
      <trkpt lat="45.3122" lon="1.43283">
        <ele>393</ele>
        <time>2011-07-07T15:46:30Z</time>
      </trkpt>
      <trkpt lat="45.31215" lon="1.43283">
        <ele>391</ele>
        <time>2011-07-07T15:46:33Z</time>
      </trkpt>
      <trkpt lat="45.31208" lon="1.43284">
        <ele>391</ele>
        <time>2011-07-07T15:46:36Z</time>
      </trkpt>
      <trkpt lat="45.31204" lon="1.43284">
        <ele>389</ele>
        <time>2011-07-07T15:46:38Z</time>
      </trkpt>
      <trkpt lat="45.31199" lon="1.43286">
        <ele>390</ele>
        <time>2011-07-07T15:46:40Z</time>
      </trkpt>
      <trkpt lat="45.31194" lon="1.43287">
        <ele>390</ele>
        <time>2011-07-07T15:46:42Z</time>
      </trkpt>
      <trkpt lat="45.31188" lon="1.43289">
        <ele>390</ele>
        <time>2011-07-07T15:46:44Z</time>
      </trkpt>
      <trkpt lat="45.31183" lon="1.4329">
        <ele>389</ele>
        <time>2011-07-07T15:46:46Z</time>
      </trkpt>
      <trkpt lat="45.31178" lon="1.4329">
        <ele>390</ele>
        <time>2011-07-07T15:46:48Z</time>
      </trkpt>
      <trkpt lat="45.31174" lon="1.43294">
        <ele>387</ele>
        <time>2011-07-07T15:46:51Z</time>
      </trkpt>
      <trkpt lat="45.3117" lon="1.43299">
        <ele>391</ele>
        <time>2011-07-07T15:46:55Z</time>
      </trkpt>
      <trkpt lat="45.31166" lon="1.43303">
        <ele>394</ele>
        <time>2011-07-07T15:46:59Z</time>
      </trkpt>
      <trkpt lat="45.31171" lon="1.43305">
        <ele>395</ele>
        <time>2011-07-07T15:47:07Z</time>
      </trkpt>
      <trkpt lat="45.31175" lon="1.43307">
        <ele>394</ele>
        <time>2011-07-07T15:47:12Z</time>
      </trkpt>
      <trkpt lat="45.3118" lon="1.43308">
        <ele>397</ele>
        <time>2011-07-07T15:47:16Z</time>
      </trkpt>
      <trkpt lat="45.31185" lon="1.4331">
        <ele>393</ele>
        <time>2011-07-07T15:47:19Z</time>
      </trkpt>
      <trkpt lat="45.3119" lon="1.43313">
        <ele>389</ele>
        <time>2011-07-07T15:47:22Z</time>
      </trkpt>
      <trkpt lat="45.31196" lon="1.43314">
        <ele>387</ele>
        <time>2011-07-07T15:47:25Z</time>
      </trkpt>
      <trkpt lat="45.312" lon="1.43317">
        <ele>388</ele>
        <time>2011-07-07T15:47:28Z</time>
      </trkpt>
      <trkpt lat="45.31205" lon="1.43318">
        <ele>392</ele>
        <time>2011-07-07T15:47:32Z</time>
      </trkpt>
      <trkpt lat="45.31211" lon="1.4332">
        <ele>396</ele>
        <time>2011-07-07T15:47:35Z</time>
      </trkpt>
      <trkpt lat="45.31216" lon="1.43319">
        <ele>399</ele>
        <time>2011-07-07T15:47:39Z</time>
      </trkpt>
      <trkpt lat="45.31221" lon="1.43322">
        <ele>396</ele>
        <time>2011-07-07T15:47:43Z</time>
      </trkpt>
      <trkpt lat="45.31224" lon="1.43327">
        <ele>396</ele>
        <time>2011-07-07T15:47:47Z</time>
      </trkpt>
      <trkpt lat="45.31222" lon="1.43334">
        <ele>409</ele>
        <time>2011-07-07T15:47:52Z</time>
      </trkpt>
      <trkpt lat="45.31219" lon="1.43337">
        <ele>403</ele>
        <time>2011-07-07T15:47:57Z</time>
      </trkpt>
      <trkpt lat="45.31214" lon="1.43339">
        <ele>399</ele>
        <time>2011-07-07T15:48:03Z</time>
      </trkpt>
      <trkpt lat="45.31208" lon="1.4334">
        <ele>396</ele>
        <time>2011-07-07T15:48:07Z</time>
      </trkpt>
      <trkpt lat="45.31203" lon="1.43342">
        <ele>397</ele>
        <time>2011-07-07T15:48:10Z</time>
      </trkpt>
      <trkpt lat="45.31198" lon="1.43343">
        <ele>400</ele>
        <time>2011-07-07T15:48:13Z</time>
      </trkpt>
      <trkpt lat="45.31192" lon="1.43346">
        <ele>403</ele>
        <time>2011-07-07T15:48:17Z</time>
      </trkpt>
      <trkpt lat="45.31186" lon="1.43347">
        <ele>399</ele>
        <time>2011-07-07T15:48:21Z</time>
      </trkpt>
      <trkpt lat="45.31181" lon="1.43351">
        <ele>400</ele>
        <time>2011-07-07T15:48:24Z</time>
      </trkpt>
      <trkpt lat="45.31177" lon="1.43354">
        <ele>400</ele>
        <time>2011-07-07T15:48:28Z</time>
      </trkpt>
      <trkpt lat="45.31172" lon="1.43356">
        <ele>391</ele>
        <time>2011-07-07T15:48:31Z</time>
      </trkpt>
      <trkpt lat="45.31166" lon="1.43359">
        <ele>398</ele>
        <time>2011-07-07T15:48:34Z</time>
      </trkpt>
      <trkpt lat="45.31161" lon="1.43361">
        <ele>400</ele>
        <time>2011-07-07T15:48:36Z</time>
      </trkpt>
      <trkpt lat="45.31154" lon="1.43365">
        <ele>396</ele>
        <time>2011-07-07T15:48:38Z</time>
      </trkpt>
      <trkpt lat="45.3115" lon="1.43368">
        <ele>398</ele>
        <time>2011-07-07T15:48:40Z</time>
      </trkpt>
      <trkpt lat="45.31144" lon="1.43371">
        <ele>398</ele>
        <time>2011-07-07T15:48:42Z</time>
      </trkpt>
      <trkpt lat="45.31139" lon="1.43373">
        <ele>397</ele>
        <time>2011-07-07T15:48:44Z</time>
      </trkpt>
      <trkpt lat="45.31134" lon="1.43377">
        <ele>397</ele>
        <time>2011-07-07T15:48:46Z</time>
      </trkpt>
      <trkpt lat="45.3113" lon="1.43381">
        <ele>399</ele>
        <time>2011-07-07T15:48:48Z</time>
      </trkpt>
      <trkpt lat="45.31125" lon="1.43385">
        <ele>400</ele>
        <time>2011-07-07T15:48:50Z</time>
      </trkpt>
      <trkpt lat="45.31119" lon="1.43388">
        <ele>397</ele>
        <time>2011-07-07T15:48:52Z</time>
      </trkpt>
      <trkpt lat="45.31113" lon="1.43392">
        <ele>400</ele>
        <time>2011-07-07T15:48:55Z</time>
      </trkpt>
      <trkpt lat="45.31108" lon="1.43395">
        <ele>397</ele>
        <time>2011-07-07T15:48:57Z</time>
      </trkpt>
      <trkpt lat="45.31102" lon="1.43399">
        <ele>397</ele>
        <time>2011-07-07T15:49:00Z</time>
      </trkpt>
      <trkpt lat="45.31096" lon="1.43401">
        <ele>397</ele>
        <time>2011-07-07T15:49:02Z</time>
      </trkpt>
      <trkpt lat="45.3109" lon="1.43403">
        <ele>396</ele>
        <time>2011-07-07T15:49:04Z</time>
      </trkpt>
      <trkpt lat="45.31084" lon="1.43406">
        <ele>397</ele>
        <time>2011-07-07T15:49:07Z</time>
      </trkpt>
      <trkpt lat="45.3108" lon="1.4341">
        <ele>395</ele>
        <time>2011-07-07T15:49:09Z</time>
      </trkpt>
      <trkpt lat="45.31076" lon="1.43416">
        <ele>392</ele>
        <time>2011-07-07T15:49:11Z</time>
      </trkpt>
      <trkpt lat="45.31072" lon="1.43423">
        <ele>392</ele>
        <time>2011-07-07T15:49:13Z</time>
      </trkpt>
      <trkpt lat="45.31069" lon="1.43431">
        <ele>398</ele>
        <time>2011-07-07T15:49:15Z</time>
      </trkpt>
      <trkpt lat="45.31065" lon="1.43438">
        <ele>398</ele>
        <time>2011-07-07T15:49:17Z</time>
      </trkpt>
      <trkpt lat="45.31062" lon="1.43444">
        <ele>396</ele>
        <time>2011-07-07T15:49:19Z</time>
      </trkpt>
      <trkpt lat="45.31057" lon="1.43448">
        <ele>396</ele>
        <time>2011-07-07T15:49:21Z</time>
      </trkpt>
      <trkpt lat="45.31052" lon="1.43448">
        <ele>395</ele>
        <time>2011-07-07T15:49:23Z</time>
      </trkpt>
      <trkpt lat="45.31046" lon="1.4344">
        <ele>394</ele>
        <time>2011-07-07T15:49:26Z</time>
      </trkpt>
      <trkpt lat="45.31042" lon="1.43432">
        <ele>394</ele>
        <time>2011-07-07T15:49:28Z</time>
      </trkpt>
      <trkpt lat="45.31039" lon="1.43426">
        <ele>394</ele>
        <time>2011-07-07T15:49:29Z</time>
      </trkpt>
      <trkpt lat="45.31036" lon="1.43415">
        <ele>396</ele>
        <time>2011-07-07T15:49:31Z</time>
      </trkpt>
      <trkpt lat="45.3103" lon="1.43407">
        <ele>397</ele>
        <time>2011-07-07T15:49:33Z</time>
      </trkpt>
      <trkpt lat="45.31024" lon="1.43401">
        <ele>397</ele>
        <time>2011-07-07T15:49:35Z</time>
      </trkpt>
      <trkpt lat="45.31018" lon="1.43397">
        <ele>392</ele>
        <time>2011-07-07T15:49:37Z</time>
      </trkpt>
      <trkpt lat="45.31011" lon="1.43393">
        <ele>393</ele>
        <time>2011-07-07T15:49:39Z</time>
      </trkpt>
      <trkpt lat="45.31006" lon="1.43392">
        <ele>398</ele>
        <time>2011-07-07T15:49:41Z</time>
      </trkpt>
      <trkpt lat="45.30999" lon="1.4339">
        <ele>398</ele>
        <time>2011-07-07T15:49:43Z</time>
      </trkpt>
      <trkpt lat="45.30994" lon="1.43389">
        <ele>398</ele>
        <time>2011-07-07T15:49:43Z</time>
      </trkpt>
      <trkpt lat="45.30989" lon="1.43388">
        <ele>399</ele>
        <time>2011-07-07T15:49:45Z</time>
      </trkpt>
      <trkpt lat="45.30984" lon="1.43389">
        <ele>399</ele>
        <time>2011-07-07T15:49:46Z</time>
      </trkpt>
      <trkpt lat="45.30979" lon="1.4339">
        <ele>400</ele>
        <time>2011-07-07T15:49:47Z</time>
      </trkpt>
      <trkpt lat="45.30974" lon="1.43389">
        <ele>402</ele>
        <time>2011-07-07T15:49:48Z</time>
      </trkpt>
      <trkpt lat="45.30967" lon="1.43389">
        <ele>405</ele>
        <time>2011-07-07T15:49:49Z</time>
      </trkpt>
      <trkpt lat="45.30961" lon="1.43388">
        <ele>405</ele>
        <time>2011-07-07T15:49:50Z</time>
      </trkpt>
      <trkpt lat="45.30955" lon="1.43388">
        <ele>404</ele>
        <time>2011-07-07T15:49:51Z</time>
      </trkpt>
      <trkpt lat="45.30949" lon="1.43388">
        <ele>402</ele>
        <time>2011-07-07T15:49:52Z</time>
      </trkpt>
      <trkpt lat="45.30944" lon="1.43385">
        <ele>400</ele>
        <time>2011-07-07T15:49:53Z</time>
      </trkpt>
      <trkpt lat="45.30939" lon="1.43382">
        <ele>401</ele>
        <time>2011-07-07T15:49:54Z</time>
      </trkpt>
      <trkpt lat="45.30935" lon="1.43378">
        <ele>399</ele>
        <time>2011-07-07T15:49:55Z</time>
      </trkpt>
      <trkpt lat="45.30932" lon="1.43372">
        <ele>400</ele>
        <time>2011-07-07T15:49:56Z</time>
      </trkpt>
      <trkpt lat="45.3093" lon="1.43366">
        <ele>402</ele>
        <time>2011-07-07T15:49:57Z</time>
      </trkpt>
      <trkpt lat="45.30924" lon="1.43358">
        <ele>403</ele>
        <time>2011-07-07T15:49:59Z</time>
      </trkpt>
      <trkpt lat="45.30918" lon="1.43355">
        <ele>403</ele>
        <time>2011-07-07T15:50:01Z</time>
      </trkpt>
      <trkpt lat="45.30913" lon="1.43355">
        <ele>404</ele>
        <time>2011-07-07T15:50:05Z</time>
      </trkpt>
      <trkpt lat="45.30908" lon="1.43358">
        <ele>401</ele>
        <time>2011-07-07T15:50:08Z</time>
      </trkpt>
      <trkpt lat="45.30902" lon="1.43362">
        <ele>402</ele>
        <time>2011-07-07T15:50:12Z</time>
      </trkpt>
      <trkpt lat="45.30898" lon="1.43364">
        <ele>402</ele>
        <time>2011-07-07T15:50:14Z</time>
      </trkpt>
      <trkpt lat="45.30893" lon="1.43366">
        <ele>400</ele>
        <time>2011-07-07T15:50:16Z</time>
      </trkpt>
      <trkpt lat="45.30889" lon="1.43368">
        <ele>400</ele>
        <time>2011-07-07T15:50:18Z</time>
      </trkpt>
      <trkpt lat="45.30884" lon="1.43369">
        <ele>401</ele>
        <time>2011-07-07T15:50:21Z</time>
      </trkpt>
      <trkpt lat="45.30879" lon="1.4337">
        <ele>402</ele>
        <time>2011-07-07T15:50:25Z</time>
      </trkpt>
      <trkpt lat="45.30874" lon="1.43371">
        <ele>403</ele>
        <time>2011-07-07T15:50:28Z</time>
      </trkpt>
      <trkpt lat="45.30869" lon="1.43372">
        <ele>404</ele>
        <time>2011-07-07T15:50:31Z</time>
      </trkpt>
      <trkpt lat="45.30864" lon="1.43374">
        <ele>403</ele>
        <time>2011-07-07T15:50:34Z</time>
      </trkpt>
      <trkpt lat="45.30859" lon="1.43375">
        <ele>403</ele>
        <time>2011-07-07T15:50:37Z</time>
      </trkpt>
      <trkpt lat="45.30854" lon="1.43376">
        <ele>405</ele>
        <time>2011-07-07T15:50:40Z</time>
      </trkpt>
      <trkpt lat="45.3085" lon="1.43378">
        <ele>407</ele>
        <time>2011-07-07T15:50:43Z</time>
      </trkpt>
      <trkpt lat="45.30844" lon="1.4338">
        <ele>408</ele>
        <time>2011-07-07T15:50:47Z</time>
      </trkpt>
      <trkpt lat="45.30839" lon="1.43382">
        <ele>408</ele>
        <time>2011-07-07T15:50:50Z</time>
      </trkpt>
      <trkpt lat="45.30834" lon="1.43382">
        <ele>408</ele>
        <time>2011-07-07T15:50:53Z</time>
      </trkpt>
      <trkpt lat="45.30829" lon="1.43382">
        <ele>408</ele>
        <time>2011-07-07T15:50:56Z</time>
      </trkpt>
      <trkpt lat="45.30824" lon="1.4338">
        <ele>405</ele>
        <time>2011-07-07T15:51:00Z</time>
      </trkpt>
      <trkpt lat="45.30819" lon="1.43383">
        <ele>405</ele>
        <time>2011-07-07T15:51:02Z</time>
      </trkpt>
      <trkpt lat="45.30816" lon="1.43392">
        <ele>405</ele>
        <time>2011-07-07T15:51:04Z</time>
      </trkpt>
      <trkpt lat="45.30816" lon="1.43404">
        <ele>404</ele>
        <time>2011-07-07T15:51:06Z</time>
      </trkpt>
      <trkpt lat="45.30817" lon="1.43416">
        <ele>403</ele>
        <time>2011-07-07T15:51:08Z</time>
      </trkpt>
      <trkpt lat="45.30819" lon="1.43425">
        <ele>405</ele>
        <time>2011-07-07T15:51:10Z</time>
      </trkpt>
      <trkpt lat="45.30822" lon="1.43435">
        <ele>403</ele>
        <time>2011-07-07T15:51:12Z</time>
      </trkpt>
      <trkpt lat="45.30825" lon="1.43445">
        <ele>406</ele>
        <time>2011-07-07T15:51:14Z</time>
      </trkpt>
      <trkpt lat="45.30827" lon="1.43454">
        <ele>406</ele>
        <time>2011-07-07T15:51:16Z</time>
      </trkpt>
      <trkpt lat="45.3083" lon="1.43461">
        <ele>405</ele>
        <time>2011-07-07T15:51:18Z</time>
      </trkpt>
      <trkpt lat="45.30834" lon="1.43468">
        <ele>407</ele>
        <time>2011-07-07T15:51:20Z</time>
      </trkpt>
      <trkpt lat="45.30837" lon="1.43476">
        <ele>407</ele>
        <time>2011-07-07T15:51:22Z</time>
      </trkpt>
      <trkpt lat="45.30841" lon="1.43485">
        <ele>409</ele>
        <time>2011-07-07T15:51:24Z</time>
      </trkpt>
      <trkpt lat="45.30845" lon="1.43494">
        <ele>409</ele>
        <time>2011-07-07T15:51:26Z</time>
      </trkpt>
      <trkpt lat="45.30849" lon="1.43503">
        <ele>409</ele>
        <time>2011-07-07T15:51:28Z</time>
      </trkpt>
      <trkpt lat="45.30853" lon="1.43513">
        <ele>410</ele>
        <time>2011-07-07T15:51:30Z</time>
      </trkpt>
      <trkpt lat="45.30856" lon="1.43518">
        <ele>412</ele>
        <time>2011-07-07T15:51:31Z</time>
      </trkpt>
      <trkpt lat="45.3086" lon="1.43526">
        <ele>412</ele>
        <time>2011-07-07T15:51:33Z</time>
      </trkpt>
      <trkpt lat="45.30864" lon="1.43533">
        <ele>411</ele>
        <time>2011-07-07T15:51:35Z</time>
      </trkpt>
      <trkpt lat="45.30868" lon="1.43539">
        <ele>408</ele>
        <time>2011-07-07T15:51:37Z</time>
      </trkpt>
      <trkpt lat="45.30873" lon="1.43548">
        <ele>408</ele>
        <time>2011-07-07T15:51:39Z</time>
      </trkpt>
      <trkpt lat="45.30878" lon="1.43556">
        <ele>408</ele>
        <time>2011-07-07T15:51:41Z</time>
      </trkpt>
      <trkpt lat="45.30878" lon="1.43564">
        <ele>408</ele>
        <time>2011-07-07T15:51:43Z</time>
      </trkpt>
      <trkpt lat="45.30875" lon="1.43576">
        <ele>405</ele>
        <time>2011-07-07T15:51:45Z</time>
      </trkpt>
      <trkpt lat="45.30873" lon="1.43583">
        <ele>401</ele>
        <time>2011-07-07T15:51:46Z</time>
      </trkpt>
      <trkpt lat="45.30871" lon="1.4359">
        <ele>402</ele>
        <time>2011-07-07T15:51:47Z</time>
      </trkpt>
      <trkpt lat="45.30868" lon="1.43597">
        <ele>398</ele>
        <time>2011-07-07T15:51:48Z</time>
      </trkpt>
      <trkpt lat="45.30865" lon="1.43603">
        <ele>400</ele>
        <time>2011-07-07T15:51:49Z</time>
      </trkpt>
      <trkpt lat="45.30863" lon="1.4361">
        <ele>402</ele>
        <time>2011-07-07T15:51:50Z</time>
      </trkpt>
      <trkpt lat="45.3086" lon="1.43618">
        <ele>403</ele>
        <time>2011-07-07T15:51:51Z</time>
      </trkpt>
      <trkpt lat="45.30857" lon="1.43626">
        <ele>403</ele>
        <time>2011-07-07T15:51:52Z</time>
      </trkpt>
      <trkpt lat="45.30854" lon="1.43635">
        <ele>402</ele>
        <time>2011-07-07T15:51:53Z</time>
      </trkpt>
      <trkpt lat="45.30851" lon="1.43644">
        <ele>402</ele>
        <time>2011-07-07T15:51:54Z</time>
      </trkpt>
      <trkpt lat="45.30848" lon="1.43651">
        <ele>401</ele>
        <time>2011-07-07T15:51:55Z</time>
      </trkpt>
      <trkpt lat="45.30844" lon="1.43658">
        <ele>402</ele>
        <time>2011-07-07T15:51:56Z</time>
      </trkpt>
      <trkpt lat="45.30842" lon="1.43664">
        <ele>400</ele>
        <time>2011-07-07T15:51:57Z</time>
      </trkpt>
      <trkpt lat="45.3084" lon="1.4367">
        <ele>402</ele>
        <time>2011-07-07T15:51:58Z</time>
      </trkpt>
      <trkpt lat="45.30837" lon="1.43676">
        <ele>403</ele>
        <time>2011-07-07T15:51:59Z</time>
      </trkpt>
      <trkpt lat="45.30835" lon="1.43685">
        <ele>403</ele>
        <time>2011-07-07T15:52:00Z</time>
      </trkpt>
      <trkpt lat="45.30833" lon="1.43694">
        <ele>405</ele>
        <time>2011-07-07T15:52:01Z</time>
      </trkpt>
      <trkpt lat="45.30833" lon="1.43702">
        <ele>405</ele>
        <time>2011-07-07T15:52:02Z</time>
      </trkpt>
      <trkpt lat="45.30832" lon="1.43712">
        <ele>403</ele>
        <time>2011-07-07T15:52:03Z</time>
      </trkpt>
      <trkpt lat="45.30832" lon="1.43722">
        <ele>402</ele>
        <time>2011-07-07T15:52:04Z</time>
      </trkpt>
      <trkpt lat="45.30832" lon="1.43732">
        <ele>399</ele>
        <time>2011-07-07T15:52:05Z</time>
      </trkpt>
      <trkpt lat="45.30832" lon="1.43741">
        <ele>404</ele>
        <time>2011-07-07T15:52:06Z</time>
      </trkpt>
      <trkpt lat="45.30833" lon="1.4375">
        <ele>402</ele>
        <time>2011-07-07T15:52:07Z</time>
      </trkpt>
      <trkpt lat="45.30833" lon="1.43759">
        <ele>401</ele>
        <time>2011-07-07T15:52:08Z</time>
      </trkpt>
      <trkpt lat="45.30833" lon="1.43768">
        <ele>401</ele>
        <time>2011-07-07T15:52:09Z</time>
      </trkpt>
      <trkpt lat="45.30832" lon="1.43776">
        <ele>400</ele>
        <time>2011-07-07T15:52:10Z</time>
      </trkpt>
      <trkpt lat="45.30831" lon="1.43785">
        <ele>400</ele>
        <time>2011-07-07T15:52:11Z</time>
      </trkpt>
      <trkpt lat="45.3083" lon="1.43794">
        <ele>402</ele>
        <time>2011-07-07T15:52:12Z</time>
      </trkpt>
      <trkpt lat="45.30828" lon="1.43803">
        <ele>403</ele>
        <time>2011-07-07T15:52:13Z</time>
      </trkpt>
      <trkpt lat="45.30826" lon="1.43812">
        <ele>403</ele>
        <time>2011-07-07T15:52:14Z</time>
      </trkpt>
      <trkpt lat="45.30824" lon="1.43822">
        <ele>400</ele>
        <time>2011-07-07T15:52:15Z</time>
      </trkpt>
      <trkpt lat="45.30823" lon="1.43831">
        <ele>398</ele>
        <time>2011-07-07T15:52:16Z</time>
      </trkpt>
      <trkpt lat="45.30822" lon="1.4384">
        <ele>399</ele>
        <time>2011-07-07T15:52:17Z</time>
      </trkpt>
      <trkpt lat="45.3082" lon="1.4385">
        <ele>399</ele>
        <time>2011-07-07T15:52:18Z</time>
      </trkpt>
      <trkpt lat="45.30818" lon="1.43859">
        <ele>396</ele>
        <time>2011-07-07T15:52:19Z</time>
      </trkpt>
      <trkpt lat="45.30815" lon="1.43869">
        <ele>396</ele>
        <time>2011-07-07T15:52:20Z</time>
      </trkpt>
      <trkpt lat="45.30812" lon="1.43879">
        <ele>395</ele>
        <time>2011-07-07T15:52:21Z</time>
      </trkpt>
      <trkpt lat="45.30809" lon="1.43889">
        <ele>396</ele>
        <time>2011-07-07T15:52:22Z</time>
      </trkpt>
      <trkpt lat="45.30805" lon="1.439">
        <ele>395</ele>
        <time>2011-07-07T15:52:23Z</time>
      </trkpt>
      <trkpt lat="45.308" lon="1.43909">
        <ele>397</ele>
        <time>2011-07-07T15:52:24Z</time>
      </trkpt>
      <trkpt lat="45.30796" lon="1.43919">
        <ele>398</ele>
        <time>2011-07-07T15:52:25Z</time>
      </trkpt>
      <trkpt lat="45.30792" lon="1.43928">
        <ele>398</ele>
        <time>2011-07-07T15:52:26Z</time>
      </trkpt>
      <trkpt lat="45.3079" lon="1.43936">
        <ele>399</ele>
        <time>2011-07-07T15:52:27Z</time>
      </trkpt>
      <trkpt lat="45.30788" lon="1.43944">
        <ele>400</ele>
        <time>2011-07-07T15:52:28Z</time>
      </trkpt>
      <trkpt lat="45.30788" lon="1.43951">
        <ele>400</ele>
        <time>2011-07-07T15:52:29Z</time>
      </trkpt>
      <trkpt lat="45.30787" lon="1.43959">
        <ele>399</ele>
        <time>2011-07-07T15:52:30Z</time>
      </trkpt>
      <trkpt lat="45.30784" lon="1.43966">
        <ele>397</ele>
        <time>2011-07-07T15:52:31Z</time>
      </trkpt>
      <trkpt lat="45.30779" lon="1.4397">
        <ele>398</ele>
        <time>2011-07-07T15:52:32Z</time>
      </trkpt>
      <trkpt lat="45.30774" lon="1.43972">
        <ele>399</ele>
        <time>2011-07-07T15:52:33Z</time>
      </trkpt>
      <trkpt lat="45.30768" lon="1.43971">
        <ele>398</ele>
        <time>2011-07-07T15:52:34Z</time>
      </trkpt>
      <trkpt lat="45.30764" lon="1.43967">
        <ele>399</ele>
        <time>2011-07-07T15:52:35Z</time>
      </trkpt>
      <trkpt lat="45.3076" lon="1.43962">
        <ele>399</ele>
        <time>2011-07-07T15:52:36Z</time>
      </trkpt>
      <trkpt lat="45.30757" lon="1.43956">
        <ele>399</ele>
        <time>2011-07-07T15:52:37Z</time>
      </trkpt>
      <trkpt lat="45.30754" lon="1.4395">
        <ele>399</ele>
        <time>2011-07-07T15:52:38Z</time>
      </trkpt>
      <trkpt lat="45.30749" lon="1.4394">
        <ele>399</ele>
        <time>2011-07-07T15:52:40Z</time>
      </trkpt>
      <trkpt lat="45.30745" lon="1.43932">
        <ele>398</ele>
        <time>2011-07-07T15:52:42Z</time>
      </trkpt>
      <trkpt lat="45.30741" lon="1.43925">
        <ele>399</ele>
        <time>2011-07-07T15:52:44Z</time>
      </trkpt>
      <trkpt lat="45.30738" lon="1.43917">
        <ele>400</ele>
        <time>2011-07-07T15:52:46Z</time>
      </trkpt>
      <trkpt lat="45.30737" lon="1.4391">
        <ele>402</ele>
        <time>2011-07-07T15:52:49Z</time>
      </trkpt>
      <trkpt lat="45.30736" lon="1.43903">
        <ele>402</ele>
        <time>2011-07-07T15:52:51Z</time>
      </trkpt>
      <trkpt lat="45.30733" lon="1.43898">
        <ele>401</ele>
        <time>2011-07-07T15:52:53Z</time>
      </trkpt>
      <trkpt lat="45.30729" lon="1.43891">
        <ele>403</ele>
        <time>2011-07-07T15:52:56Z</time>
      </trkpt>
      <trkpt lat="45.30726" lon="1.43884">
        <ele>403</ele>
        <time>2011-07-07T15:52:59Z</time>
      </trkpt>
      <trkpt lat="45.30722" lon="1.43877">
        <ele>408</ele>
        <time>2011-07-07T15:53:02Z</time>
      </trkpt>
      <trkpt lat="45.30718" lon="1.43871">
        <ele>407</ele>
        <time>2011-07-07T15:53:05Z</time>
      </trkpt>
      <trkpt lat="45.30714" lon="1.43868">
        <ele>406</ele>
        <time>2011-07-07T15:53:07Z</time>
      </trkpt>
      <trkpt lat="45.30709" lon="1.43866">
        <ele>406</ele>
        <time>2011-07-07T15:53:09Z</time>
      </trkpt>
      <trkpt lat="45.30703" lon="1.43865">
        <ele>411</ele>
        <time>2011-07-07T15:53:12Z</time>
      </trkpt>
      <trkpt lat="45.30696" lon="1.43863">
        <ele>409</ele>
        <time>2011-07-07T15:53:15Z</time>
      </trkpt>
      <trkpt lat="45.30691" lon="1.43861">
        <ele>405</ele>
        <time>2011-07-07T15:53:17Z</time>
      </trkpt>
      <trkpt lat="45.30686" lon="1.43858">
        <ele>401</ele>
        <time>2011-07-07T15:53:19Z</time>
      </trkpt>
      <trkpt lat="45.30681" lon="1.43856">
        <ele>399</ele>
        <time>2011-07-07T15:53:21Z</time>
      </trkpt>
      <trkpt lat="45.30675" lon="1.43852">
        <ele>401</ele>
        <time>2011-07-07T15:53:23Z</time>
      </trkpt>
      <trkpt lat="45.30667" lon="1.43851">
        <ele>402</ele>
        <time>2011-07-07T15:53:25Z</time>
      </trkpt>
      <trkpt lat="45.30662" lon="1.43851">
        <ele>401</ele>
        <time>2011-07-07T15:53:26Z</time>
      </trkpt>
      <trkpt lat="45.30657" lon="1.4385">
        <ele>400</ele>
        <time>2011-07-07T15:53:27Z</time>
      </trkpt>
      <trkpt lat="45.3065" lon="1.43851">
        <ele>407</ele>
        <time>2011-07-07T15:53:28Z</time>
      </trkpt>
      <trkpt lat="45.30644" lon="1.4385">
        <ele>406</ele>
        <time>2011-07-07T15:53:29Z</time>
      </trkpt>
      <trkpt lat="45.30638" lon="1.43849">
        <ele>402</ele>
        <time>2011-07-07T15:53:30Z</time>
      </trkpt>
      <trkpt lat="45.30634" lon="1.43845">
        <ele>403</ele>
        <time>2011-07-07T15:53:31Z</time>
      </trkpt>
      <trkpt lat="45.30634" lon="1.43845">
        <ele>403</ele>
        <time>2011-07-07T15:53:31Z</time>
      </trkpt>
      <trkpt lat="45.30634" lon="1.43845">
        <ele>403</ele>
        <time>2011-07-07T15:53:32Z</time>
      </trkpt>
      <trkpt lat="45.30627" lon="1.43836">
        <ele>405</ele>
        <time>2011-07-07T15:53:34Z</time>
      </trkpt>
      <trkpt lat="45.30624" lon="1.4383">
        <ele>406</ele>
        <time>2011-07-07T15:53:35Z</time>
      </trkpt>
      <trkpt lat="45.30617" lon="1.43822">
        <ele>409</ele>
        <time>2011-07-07T15:53:37Z</time>
      </trkpt>
      <trkpt lat="45.30613" lon="1.43816">
        <ele>409</ele>
        <time>2011-07-07T15:53:39Z</time>
      </trkpt>
      <trkpt lat="45.30609" lon="1.43811">
        <ele>409</ele>
        <time>2011-07-07T15:53:41Z</time>
      </trkpt>
      <trkpt lat="45.30605" lon="1.43807">
        <ele>411</ele>
        <time>2011-07-07T15:53:44Z</time>
      </trkpt>
      <trkpt lat="45.306" lon="1.43805">
        <ele>411</ele>
        <time>2011-07-07T15:53:46Z</time>
      </trkpt>
      <trkpt lat="45.30593" lon="1.438">
        <ele>410</ele>
        <time>2011-07-07T15:53:49Z</time>
      </trkpt>
      <trkpt lat="45.30588" lon="1.43795">
        <ele>412</ele>
        <time>2011-07-07T15:53:52Z</time>
      </trkpt>
      <trkpt lat="45.30588" lon="1.43795">
        <ele>412</ele>
        <time>2011-07-07T15:53:52Z</time>
      </trkpt>
      <trkpt lat="45.30588" lon="1.43795">
        <ele>412</ele>
        <time>2011-07-07T15:53:55Z</time>
      </trkpt>
      <trkpt lat="45.3058" lon="1.43785">
        <ele>411</ele>
        <time>2011-07-07T15:54:00Z</time>
      </trkpt>
      <trkpt lat="45.30575" lon="1.43781">
        <ele>417</ele>
        <time>2011-07-07T15:54:02Z</time>
      </trkpt>
      <trkpt lat="45.30568" lon="1.43775">
        <ele>415</ele>
        <time>2011-07-07T15:54:04Z</time>
      </trkpt>
      <trkpt lat="45.30568" lon="1.43775">
        <ele>415</ele>
        <time>2011-07-07T15:54:04Z</time>
      </trkpt>
      <trkpt lat="45.30568" lon="1.43775">
        <ele>415</ele>
        <time>2011-07-07T15:54:06Z</time>
      </trkpt>
      <trkpt lat="45.30559" lon="1.4377">
        <ele>414</ele>
        <time>2011-07-07T15:54:07Z</time>
      </trkpt>
      <trkpt lat="45.30552" lon="1.43766">
        <ele>415</ele>
        <time>2011-07-07T15:54:09Z</time>
      </trkpt>
      <trkpt lat="45.30546" lon="1.43758">
        <ele>417</ele>
        <time>2011-07-07T15:54:11Z</time>
      </trkpt>
      <trkpt lat="45.30541" lon="1.43754">
        <ele>418</ele>
        <time>2011-07-07T15:54:12Z</time>
      </trkpt>
      <trkpt lat="45.30534" lon="1.43753">
        <ele>417</ele>
        <time>2011-07-07T15:54:13Z</time>
      </trkpt>
      <trkpt lat="45.30527" lon="1.43754">
        <ele>419</ele>
        <time>2011-07-07T15:54:14Z</time>
      </trkpt>
      <trkpt lat="45.30521" lon="1.43756">
        <ele>417</ele>
        <time>2011-07-07T15:54:15Z</time>
      </trkpt>
      <trkpt lat="45.30516" lon="1.43758">
        <ele>416</ele>
        <time>2011-07-07T15:54:16Z</time>
      </trkpt>
      <trkpt lat="45.30509" lon="1.43762">
        <ele>415</ele>
        <time>2011-07-07T15:54:17Z</time>
      </trkpt>
      <trkpt lat="45.30503" lon="1.43763">
        <ele>417</ele>
        <time>2011-07-07T15:54:18Z</time>
      </trkpt>
      <trkpt lat="45.30497" lon="1.43762">
        <ele>416</ele>
        <time>2011-07-07T15:54:19Z</time>
      </trkpt>
      <trkpt lat="45.3049" lon="1.43759">
        <ele>417</ele>
        <time>2011-07-07T15:54:20Z</time>
      </trkpt>
      <trkpt lat="45.30485" lon="1.43755">
        <ele>414</ele>
        <time>2011-07-07T15:54:21Z</time>
      </trkpt>
      <trkpt lat="45.30479" lon="1.43751">
        <ele>415</ele>
        <time>2011-07-07T15:54:22Z</time>
      </trkpt>
      <trkpt lat="45.30474" lon="1.43747">
        <ele>416</ele>
        <time>2011-07-07T15:54:23Z</time>
      </trkpt>
      <trkpt lat="45.30468" lon="1.43742">
        <ele>413</ele>
        <time>2011-07-07T15:54:24Z</time>
      </trkpt>
      <trkpt lat="45.30464" lon="1.43738">
        <ele>410</ele>
        <time>2011-07-07T15:54:25Z</time>
      </trkpt>
      <trkpt lat="45.3046" lon="1.43735">
        <ele>414</ele>
        <time>2011-07-07T15:54:26Z</time>
      </trkpt>
      <trkpt lat="45.30455" lon="1.43734">
        <ele>412</ele>
        <time>2011-07-07T15:54:27Z</time>
      </trkpt>
      <trkpt lat="45.30447" lon="1.43732">
        <ele>411</ele>
        <time>2011-07-07T15:54:29Z</time>
      </trkpt>
      <trkpt lat="45.30441" lon="1.43733">
        <ele>408</ele>
        <time>2011-07-07T15:54:31Z</time>
      </trkpt>
      <trkpt lat="45.30434" lon="1.43734">
        <ele>410</ele>
        <time>2011-07-07T15:54:33Z</time>
      </trkpt>
      <trkpt lat="45.30425" lon="1.43734">
        <ele>411</ele>
        <time>2011-07-07T15:54:35Z</time>
      </trkpt>
      <trkpt lat="45.30418" lon="1.43735">
        <ele>411</ele>
        <time>2011-07-07T15:54:37Z</time>
      </trkpt>
      <trkpt lat="45.30411" lon="1.43738">
        <ele>412</ele>
        <time>2011-07-07T15:54:39Z</time>
      </trkpt>
      <trkpt lat="45.30403" lon="1.4374">
        <ele>413</ele>
        <time>2011-07-07T15:54:41Z</time>
      </trkpt>
      <trkpt lat="45.30396" lon="1.43745">
        <ele>409</ele>
        <time>2011-07-07T15:54:43Z</time>
      </trkpt>
      <trkpt lat="45.3039" lon="1.43749">
        <ele>411</ele>
        <time>2011-07-07T15:54:45Z</time>
      </trkpt>
      <trkpt lat="45.30383" lon="1.43753">
        <ele>413</ele>
        <time>2011-07-07T15:54:47Z</time>
      </trkpt>
      <trkpt lat="45.30378" lon="1.43757">
        <ele>408</ele>
        <time>2011-07-07T15:54:49Z</time>
      </trkpt>
      <trkpt lat="45.30371" lon="1.4376">
        <ele>411</ele>
        <time>2011-07-07T15:54:51Z</time>
      </trkpt>
      <trkpt lat="45.30364" lon="1.43764">
        <ele>412</ele>
        <time>2011-07-07T15:54:53Z</time>
      </trkpt>
      <trkpt lat="45.30358" lon="1.43768">
        <ele>414</ele>
        <time>2011-07-07T15:54:55Z</time>
      </trkpt>
      <trkpt lat="45.30352" lon="1.43772">
        <ele>416</ele>
        <time>2011-07-07T15:54:57Z</time>
      </trkpt>
      <trkpt lat="45.30345" lon="1.43777">
        <ele>411</ele>
        <time>2011-07-07T15:54:59Z</time>
      </trkpt>
      <trkpt lat="45.30338" lon="1.4378">
        <ele>410</ele>
        <time>2011-07-07T15:55:01Z</time>
      </trkpt>
      <trkpt lat="45.30332" lon="1.43783">
        <ele>409</ele>
        <time>2011-07-07T15:55:03Z</time>
      </trkpt>
      <trkpt lat="45.30326" lon="1.43785">
        <ele>408</ele>
        <time>2011-07-07T15:55:05Z</time>
      </trkpt>
      <trkpt lat="45.30318" lon="1.43787">
        <ele>408</ele>
        <time>2011-07-07T15:55:07Z</time>
      </trkpt>
      <trkpt lat="45.3031" lon="1.4379">
        <ele>407</ele>
        <time>2011-07-07T15:55:09Z</time>
      </trkpt>
      <trkpt lat="45.30302" lon="1.43793">
        <ele>407</ele>
        <time>2011-07-07T15:55:11Z</time>
      </trkpt>
      <trkpt lat="45.30297" lon="1.43795">
        <ele>405</ele>
        <time>2011-07-07T15:55:12Z</time>
      </trkpt>
      <trkpt lat="45.30292" lon="1.43796">
        <ele>409</ele>
        <time>2011-07-07T15:55:13Z</time>
      </trkpt>
      <trkpt lat="45.30283" lon="1.43795">
        <ele>407</ele>
        <time>2011-07-07T15:55:15Z</time>
      </trkpt>
      <trkpt lat="45.30276" lon="1.43791">
        <ele>409</ele>
        <time>2011-07-07T15:55:17Z</time>
      </trkpt>
      <trkpt lat="45.30269" lon="1.43786">
        <ele>416</ele>
        <time>2011-07-07T15:55:19Z</time>
      </trkpt>
      <trkpt lat="45.30264" lon="1.43781">
        <ele>418</ele>
        <time>2011-07-07T15:55:20Z</time>
      </trkpt>
      <trkpt lat="45.3026" lon="1.43776">
        <ele>418</ele>
        <time>2011-07-07T15:55:21Z</time>
      </trkpt>
      <trkpt lat="45.30255" lon="1.4377">
        <ele>415</ele>
        <time>2011-07-07T15:55:22Z</time>
      </trkpt>
      <trkpt lat="45.30249" lon="1.43762">
        <ele>411</ele>
        <time>2011-07-07T15:55:24Z</time>
      </trkpt>
      <trkpt lat="45.30244" lon="1.43756">
        <ele>408</ele>
        <time>2011-07-07T15:55:26Z</time>
      </trkpt>
      <trkpt lat="45.30241" lon="1.43751">
        <ele>409</ele>
        <time>2011-07-07T15:55:28Z</time>
      </trkpt>
      <trkpt lat="45.30235" lon="1.43745">
        <ele>407</ele>
        <time>2011-07-07T15:55:30Z</time>
      </trkpt>
      <trkpt lat="45.3023" lon="1.4374">
        <ele>411</ele>
        <time>2011-07-07T15:55:32Z</time>
      </trkpt>
      <trkpt lat="45.30224" lon="1.43736">
        <ele>412</ele>
        <time>2011-07-07T15:55:34Z</time>
      </trkpt>
      <trkpt lat="45.30219" lon="1.43732">
        <ele>412</ele>
        <time>2011-07-07T15:55:36Z</time>
      </trkpt>
      <trkpt lat="45.30214" lon="1.4373">
        <ele>411</ele>
        <time>2011-07-07T15:55:38Z</time>
      </trkpt>
      <trkpt lat="45.3021" lon="1.43728">
        <ele>412</ele>
        <time>2011-07-07T15:55:40Z</time>
      </trkpt>
      <trkpt lat="45.30204" lon="1.43725">
        <ele>414</ele>
        <time>2011-07-07T15:55:43Z</time>
      </trkpt>
      <trkpt lat="45.30197" lon="1.43721">
        <ele>413</ele>
        <time>2011-07-07T15:55:46Z</time>
      </trkpt>
      <trkpt lat="45.30191" lon="1.43718">
        <ele>414</ele>
        <time>2011-07-07T15:55:49Z</time>
      </trkpt>
      <trkpt lat="45.30185" lon="1.43716">
        <ele>414</ele>
        <time>2011-07-07T15:55:51Z</time>
      </trkpt>
      <trkpt lat="45.30179" lon="1.43716">
        <ele>414</ele>
        <time>2011-07-07T15:55:53Z</time>
      </trkpt>
      <trkpt lat="45.30173" lon="1.43716">
        <ele>414</ele>
        <time>2011-07-07T15:55:55Z</time>
      </trkpt>
      <trkpt lat="45.30167" lon="1.43716">
        <ele>415</ele>
        <time>2011-07-07T15:55:57Z</time>
      </trkpt>
      <trkpt lat="45.30162" lon="1.43717">
        <ele>412</ele>
        <time>2011-07-07T15:55:58Z</time>
      </trkpt>
      <trkpt lat="45.30154" lon="1.43717">
        <ele>412</ele>
        <time>2011-07-07T15:56:00Z</time>
      </trkpt>
      <trkpt lat="45.30147" lon="1.43718">
        <ele>412</ele>
        <time>2011-07-07T15:56:02Z</time>
      </trkpt>
      <trkpt lat="45.30139" lon="1.43719">
        <ele>412</ele>
        <time>2011-07-07T15:56:04Z</time>
      </trkpt>
      <trkpt lat="45.3013" lon="1.43722">
        <ele>412</ele>
        <time>2011-07-07T15:56:06Z</time>
      </trkpt>
      <trkpt lat="45.30124" lon="1.43724">
        <ele>412</ele>
        <time>2011-07-07T15:56:07Z</time>
      </trkpt>
      <trkpt lat="45.30118" lon="1.43727">
        <ele>413</ele>
        <time>2011-07-07T15:56:08Z</time>
      </trkpt>
      <trkpt lat="45.30113" lon="1.4373">
        <ele>412</ele>
        <time>2011-07-07T15:56:09Z</time>
      </trkpt>
      <trkpt lat="45.30106" lon="1.43734">
        <ele>410</ele>
        <time>2011-07-07T15:56:10Z</time>
      </trkpt>
      <trkpt lat="45.301" lon="1.43737">
        <ele>409</ele>
        <time>2011-07-07T15:56:11Z</time>
      </trkpt>
      <trkpt lat="45.30094" lon="1.43741">
        <ele>409</ele>
        <time>2011-07-07T15:56:12Z</time>
      </trkpt>
      <trkpt lat="45.30086" lon="1.43744">
        <ele>410</ele>
        <time>2011-07-07T15:56:13Z</time>
      </trkpt>
      <trkpt lat="45.30078" lon="1.43748">
        <ele>409</ele>
        <time>2011-07-07T15:56:14Z</time>
      </trkpt>
      <trkpt lat="45.30071" lon="1.43752">
        <ele>409</ele>
        <time>2011-07-07T15:56:15Z</time>
      </trkpt>
      <trkpt lat="45.30062" lon="1.43756">
        <ele>409</ele>
        <time>2011-07-07T15:56:16Z</time>
      </trkpt>
      <trkpt lat="45.30053" lon="1.43761">
        <ele>408</ele>
        <time>2011-07-07T15:56:17Z</time>
      </trkpt>
      <trkpt lat="45.30044" lon="1.43767">
        <ele>405</ele>
        <time>2011-07-07T15:56:18Z</time>
      </trkpt>
      <trkpt lat="45.30036" lon="1.43772">
        <ele>402</ele>
        <time>2011-07-07T15:56:19Z</time>
      </trkpt>
      <trkpt lat="45.3003" lon="1.43776">
        <ele>400</ele>
        <time>2011-07-07T15:56:20Z</time>
      </trkpt>
      <trkpt lat="45.30026" lon="1.43779">
        <ele>397</ele>
        <time>2011-07-07T15:56:21Z</time>
      </trkpt>
      <trkpt lat="45.30019" lon="1.43781">
        <ele>398</ele>
        <time>2011-07-07T15:56:23Z</time>
      </trkpt>
      <trkpt lat="45.30013" lon="1.43779">
        <ele>399</ele>
        <time>2011-07-07T15:56:25Z</time>
      </trkpt>
      <trkpt lat="45.30004" lon="1.43776">
        <ele>401</ele>
        <time>2011-07-07T15:56:27Z</time>
      </trkpt>
      <trkpt lat="45.29998" lon="1.43774">
        <ele>400</ele>
        <time>2011-07-07T15:56:28Z</time>
      </trkpt>
      <trkpt lat="45.29992" lon="1.43771">
        <ele>400</ele>
        <time>2011-07-07T15:56:29Z</time>
      </trkpt>
      <trkpt lat="45.29985" lon="1.43768">
        <ele>400</ele>
        <time>2011-07-07T15:56:30Z</time>
      </trkpt>
      <trkpt lat="45.29978" lon="1.43766">
        <ele>401</ele>
        <time>2011-07-07T15:56:31Z</time>
      </trkpt>
      <trkpt lat="45.29971" lon="1.43763">
        <ele>402</ele>
        <time>2011-07-07T15:56:32Z</time>
      </trkpt>
      <trkpt lat="45.29961" lon="1.4376">
        <ele>400</ele>
        <time>2011-07-07T15:56:33Z</time>
      </trkpt>
      <trkpt lat="45.29951" lon="1.43758">
        <ele>401</ele>
        <time>2011-07-07T15:56:34Z</time>
      </trkpt>
      <trkpt lat="45.2994" lon="1.43755">
        <ele>401</ele>
        <time>2011-07-07T15:56:35Z</time>
      </trkpt>
      <trkpt lat="45.29928" lon="1.43753">
        <ele>398</ele>
        <time>2011-07-07T15:56:36Z</time>
      </trkpt>
      <trkpt lat="45.29917" lon="1.4375">
        <ele>396</ele>
        <time>2011-07-07T15:56:37Z</time>
      </trkpt>
      <trkpt lat="45.29905" lon="1.43748">
        <ele>394</ele>
        <time>2011-07-07T15:56:38Z</time>
      </trkpt>
      <trkpt lat="45.29894" lon="1.43744">
        <ele>392</ele>
        <time>2011-07-07T15:56:39Z</time>
      </trkpt>
      <trkpt lat="45.29882" lon="1.4374">
        <ele>389</ele>
        <time>2011-07-07T15:56:40Z</time>
      </trkpt>
      <trkpt lat="45.2987" lon="1.43737">
        <ele>385</ele>
        <time>2011-07-07T15:56:41Z</time>
      </trkpt>
      <trkpt lat="45.29858" lon="1.43734">
        <ele>385</ele>
        <time>2011-07-07T15:56:42Z</time>
      </trkpt>
      <trkpt lat="45.29846" lon="1.43731">
        <ele>385</ele>
        <time>2011-07-07T15:56:43Z</time>
      </trkpt>
      <trkpt lat="45.29834" lon="1.43729">
        <ele>383</ele>
        <time>2011-07-07T15:56:44Z</time>
      </trkpt>
      <trkpt lat="45.29824" lon="1.43728">
        <ele>382</ele>
        <time>2011-07-07T15:56:45Z</time>
      </trkpt>
      <trkpt lat="45.29818" lon="1.43727">
        <ele>380</ele>
        <time>2011-07-07T15:56:46Z</time>
      </trkpt>
      <trkpt lat="45.29812" lon="1.43727">
        <ele>379</ele>
        <time>2011-07-07T15:56:47Z</time>
      </trkpt>
      <trkpt lat="45.29805" lon="1.43729">
        <ele>380</ele>
        <time>2011-07-07T15:56:48Z</time>
      </trkpt>
      <trkpt lat="45.29799" lon="1.43731">
        <ele>380</ele>
        <time>2011-07-07T15:56:49Z</time>
      </trkpt>
      <trkpt lat="45.29792" lon="1.43733">
        <ele>381</ele>
        <time>2011-07-07T15:56:50Z</time>
      </trkpt>
      <trkpt lat="45.29786" lon="1.43737">
        <ele>382</ele>
        <time>2011-07-07T15:56:51Z</time>
      </trkpt>
      <trkpt lat="45.29783" lon="1.43742">
        <ele>382</ele>
        <time>2011-07-07T15:56:52Z</time>
      </trkpt>
      <trkpt lat="45.29783" lon="1.43749">
        <ele>381</ele>
        <time>2011-07-07T15:56:53Z</time>
      </trkpt>
      <trkpt lat="45.29786" lon="1.43754">
        <ele>381</ele>
        <time>2011-07-07T15:56:54Z</time>
      </trkpt>
      <trkpt lat="45.29791" lon="1.43758">
        <ele>379</ele>
        <time>2011-07-07T15:56:55Z</time>
      </trkpt>
      <trkpt lat="45.29796" lon="1.43762">
        <ele>379</ele>
        <time>2011-07-07T15:56:56Z</time>
      </trkpt>
      <trkpt lat="45.29801" lon="1.43765">
        <ele>380</ele>
        <time>2011-07-07T15:56:57Z</time>
      </trkpt>
      <trkpt lat="45.29807" lon="1.43767">
        <ele>380</ele>
        <time>2011-07-07T15:56:58Z</time>
      </trkpt>
      <trkpt lat="45.29814" lon="1.43769">
        <ele>380</ele>
        <time>2011-07-07T15:56:59Z</time>
      </trkpt>
      <trkpt lat="45.29821" lon="1.43771">
        <ele>380</ele>
        <time>2011-07-07T15:57:00Z</time>
      </trkpt>
      <trkpt lat="45.29828" lon="1.43773">
        <ele>379</ele>
        <time>2011-07-07T15:57:01Z</time>
      </trkpt>
      <trkpt lat="45.29836" lon="1.43776">
        <ele>379</ele>
        <time>2011-07-07T15:57:02Z</time>
      </trkpt>
      <trkpt lat="45.29844" lon="1.4378">
        <ele>379</ele>
        <time>2011-07-07T15:57:03Z</time>
      </trkpt>
      <trkpt lat="45.29852" lon="1.43784">
        <ele>378</ele>
        <time>2011-07-07T15:57:04Z</time>
      </trkpt>
      <trkpt lat="45.29859" lon="1.43788">
        <ele>379</ele>
        <time>2011-07-07T15:57:05Z</time>
      </trkpt>
      <trkpt lat="45.29865" lon="1.43793">
        <ele>378</ele>
        <time>2011-07-07T15:57:06Z</time>
      </trkpt>
      <trkpt lat="45.29872" lon="1.43798">
        <ele>379</ele>
        <time>2011-07-07T15:57:07Z</time>
      </trkpt>
      <trkpt lat="45.29877" lon="1.43806">
        <ele>376</ele>
        <time>2011-07-07T15:57:08Z</time>
      </trkpt>
      <trkpt lat="45.29883" lon="1.43813">
        <ele>376</ele>
        <time>2011-07-07T15:57:09Z</time>
      </trkpt>
      <trkpt lat="45.29885" lon="1.43822">
        <ele>378</ele>
        <time>2011-07-07T15:57:10Z</time>
      </trkpt>
      <trkpt lat="45.29884" lon="1.43831">
        <ele>380</ele>
        <time>2011-07-07T15:57:11Z</time>
      </trkpt>
      <trkpt lat="45.29883" lon="1.43839">
        <ele>380</ele>
        <time>2011-07-07T15:57:12Z</time>
      </trkpt>
      <trkpt lat="45.29878" lon="1.43844">
        <ele>377</ele>
        <time>2011-07-07T15:57:13Z</time>
      </trkpt>
      <trkpt lat="45.29871" lon="1.43853">
        <ele>376</ele>
        <time>2011-07-07T15:57:15Z</time>
      </trkpt>
      <trkpt lat="45.29866" lon="1.43858">
        <ele>376</ele>
        <time>2011-07-07T15:57:16Z</time>
      </trkpt>
      <trkpt lat="45.29862" lon="1.43862">
        <ele>372</ele>
        <time>2011-07-07T15:57:17Z</time>
      </trkpt>
      <trkpt lat="45.29859" lon="1.43867">
        <ele>374</ele>
        <time>2011-07-07T15:57:18Z</time>
      </trkpt>
      <trkpt lat="45.29855" lon="1.43872">
        <ele>373</ele>
        <time>2011-07-07T15:57:19Z</time>
      </trkpt>
      <trkpt lat="45.29852" lon="1.43877">
        <ele>372</ele>
        <time>2011-07-07T15:57:20Z</time>
      </trkpt>
      <trkpt lat="45.29848" lon="1.43882">
        <ele>374</ele>
        <time>2011-07-07T15:57:21Z</time>
      </trkpt>
      <trkpt lat="45.29844" lon="1.43888">
        <ele>377</ele>
        <time>2011-07-07T15:57:22Z</time>
      </trkpt>
      <trkpt lat="45.2984" lon="1.43893">
        <ele>374</ele>
        <time>2011-07-07T15:57:23Z</time>
      </trkpt>
      <trkpt lat="45.29835" lon="1.439">
        <ele>377</ele>
        <time>2011-07-07T15:57:24Z</time>
      </trkpt>
      <trkpt lat="45.2983" lon="1.43907">
        <ele>376</ele>
        <time>2011-07-07T15:57:25Z</time>
      </trkpt>
      <trkpt lat="45.29826" lon="1.43914">
        <ele>378</ele>
        <time>2011-07-07T15:57:26Z</time>
      </trkpt>
      <trkpt lat="45.29821" lon="1.43921">
        <ele>376</ele>
        <time>2011-07-07T15:57:27Z</time>
      </trkpt>
      <trkpt lat="45.29817" lon="1.43927">
        <ele>373</ele>
        <time>2011-07-07T15:57:28Z</time>
      </trkpt>
      <trkpt lat="45.29812" lon="1.43932">
        <ele>372</ele>
        <time>2011-07-07T15:57:29Z</time>
      </trkpt>
      <trkpt lat="45.29806" lon="1.43937">
        <ele>374</ele>
        <time>2011-07-07T15:57:30Z</time>
      </trkpt>
      <trkpt lat="45.29801" lon="1.43942">
        <ele>377</ele>
        <time>2011-07-07T15:57:31Z</time>
      </trkpt>
      <trkpt lat="45.29795" lon="1.43947">
        <ele>379</ele>
        <time>2011-07-07T15:57:32Z</time>
      </trkpt>
      <trkpt lat="45.29788" lon="1.4395">
        <ele>376</ele>
        <time>2011-07-07T15:57:33Z</time>
      </trkpt>
      <trkpt lat="45.2978" lon="1.43953">
        <ele>376</ele>
        <time>2011-07-07T15:57:34Z</time>
      </trkpt>
      <trkpt lat="45.29773" lon="1.43957">
        <ele>376</ele>
        <time>2011-07-07T15:57:35Z</time>
      </trkpt>
      <trkpt lat="45.29766" lon="1.43961">
        <ele>377</ele>
        <time>2011-07-07T15:57:36Z</time>
      </trkpt>
      <trkpt lat="45.29758" lon="1.43966">
        <ele>375</ele>
        <time>2011-07-07T15:57:37Z</time>
      </trkpt>
      <trkpt lat="45.29752" lon="1.43971">
        <ele>372</ele>
        <time>2011-07-07T15:57:38Z</time>
      </trkpt>
      <trkpt lat="45.29745" lon="1.43973">
        <ele>371</ele>
        <time>2011-07-07T15:57:39Z</time>
      </trkpt>
      <trkpt lat="45.29739" lon="1.43975">
        <ele>367</ele>
        <time>2011-07-07T15:57:40Z</time>
      </trkpt>
      <trkpt lat="45.29734" lon="1.43979">
        <ele>366</ele>
        <time>2011-07-07T15:57:41Z</time>
      </trkpt>
      <trkpt lat="45.2973" lon="1.43983">
        <ele>365</ele>
        <time>2011-07-07T15:57:42Z</time>
      </trkpt>
      <trkpt lat="45.29727" lon="1.43988">
        <ele>365</ele>
        <time>2011-07-07T15:57:43Z</time>
      </trkpt>
      <trkpt lat="45.29722" lon="1.43995">
        <ele>363</ele>
        <time>2011-07-07T15:57:45Z</time>
      </trkpt>
      <trkpt lat="45.29719" lon="1.44002">
        <ele>364</ele>
        <time>2011-07-07T15:57:47Z</time>
      </trkpt>
      <trkpt lat="45.29717" lon="1.44011">
        <ele>361</ele>
        <time>2011-07-07T15:57:49Z</time>
      </trkpt>
      <trkpt lat="45.29716" lon="1.44021">
        <ele>355</ele>
        <time>2011-07-07T15:57:51Z</time>
      </trkpt>
      <trkpt lat="45.29716" lon="1.4403">
        <ele>361</ele>
        <time>2011-07-07T15:57:53Z</time>
      </trkpt>
      <trkpt lat="45.29717" lon="1.44037">
        <ele>362</ele>
        <time>2011-07-07T15:57:55Z</time>
      </trkpt>
      <trkpt lat="45.29719" lon="1.44046">
        <ele>362</ele>
        <time>2011-07-07T15:57:57Z</time>
      </trkpt>
      <trkpt lat="45.29723" lon="1.44054">
        <ele>365</ele>
        <time>2011-07-07T15:57:59Z</time>
      </trkpt>
      <trkpt lat="45.29726" lon="1.4406">
        <ele>365</ele>
        <time>2011-07-07T15:58:01Z</time>
      </trkpt>
      <trkpt lat="45.2973" lon="1.44066">
        <ele>365</ele>
        <time>2011-07-07T15:58:03Z</time>
      </trkpt>
      <trkpt lat="45.29732" lon="1.44071">
        <ele>368</ele>
        <time>2011-07-07T15:58:05Z</time>
      </trkpt>
      <trkpt lat="45.29737" lon="1.44075">
        <ele>370</ele>
        <time>2011-07-07T15:58:07Z</time>
      </trkpt>
      <trkpt lat="45.29741" lon="1.4408">
        <ele>371</ele>
        <time>2011-07-07T15:58:09Z</time>
      </trkpt>
      <trkpt lat="45.29745" lon="1.44085">
        <ele>372</ele>
        <time>2011-07-07T15:58:11Z</time>
      </trkpt>
      <trkpt lat="45.2975" lon="1.44088">
        <ele>376</ele>
        <time>2011-07-07T15:58:13Z</time>
      </trkpt>
      <trkpt lat="45.29753" lon="1.44093">
        <ele>376</ele>
        <time>2011-07-07T15:58:15Z</time>
      </trkpt>
      <trkpt lat="45.29756" lon="1.44098">
        <ele>377</ele>
        <time>2011-07-07T15:58:17Z</time>
      </trkpt>
      <trkpt lat="45.29761" lon="1.44104">
        <ele>378</ele>
        <time>2011-07-07T15:58:19Z</time>
      </trkpt>
      <trkpt lat="45.29764" lon="1.44109">
        <ele>377</ele>
        <time>2011-07-07T15:58:21Z</time>
      </trkpt>
      <trkpt lat="45.29767" lon="1.44114">
        <ele>377</ele>
        <time>2011-07-07T15:58:23Z</time>
      </trkpt>
      <trkpt lat="45.2977" lon="1.44119">
        <ele>378</ele>
        <time>2011-07-07T15:58:25Z</time>
      </trkpt>
      <trkpt lat="45.29775" lon="1.44124">
        <ele>381</ele>
        <time>2011-07-07T15:58:28Z</time>
      </trkpt>
      <trkpt lat="45.29778" lon="1.44128">
        <ele>382</ele>
        <time>2011-07-07T15:58:30Z</time>
      </trkpt>
      <trkpt lat="45.29781" lon="1.44134">
        <ele>378</ele>
        <time>2011-07-07T15:58:32Z</time>
      </trkpt>
      <trkpt lat="45.29784" lon="1.4414">
        <ele>378</ele>
        <time>2011-07-07T15:58:34Z</time>
      </trkpt>
      <trkpt lat="45.29787" lon="1.44147">
        <ele>379</ele>
        <time>2011-07-07T15:58:37Z</time>
      </trkpt>
      <trkpt lat="45.29787" lon="1.44147">
        <ele>379</ele>
        <time>2011-07-07T15:58:37Z</time>
      </trkpt>
      <trkpt lat="45.29787" lon="1.44147">
        <ele>379</ele>
        <time>2011-07-07T15:58:44Z</time>
      </trkpt>
      <trkpt lat="45.29796" lon="1.44156">
        <ele>372</ele>
        <time>2011-07-07T15:58:45Z</time>
      </trkpt>
      <trkpt lat="45.29796" lon="1.44156">
        <ele>372</ele>
        <time>2011-07-07T15:58:45Z</time>
      </trkpt>
      <trkpt lat="45.29796" lon="1.44156">
        <ele>372</ele>
        <time>2011-07-07T15:58:50Z</time>
      </trkpt>
      <trkpt lat="45.29807" lon="1.44165">
        <ele>372</ele>
        <time>2011-07-07T15:58:51Z</time>
      </trkpt>
      <trkpt lat="45.29811" lon="1.44168">
        <ele>373</ele>
        <time>2011-07-07T15:58:52Z</time>
      </trkpt>
      <trkpt lat="45.29821" lon="1.44185">
        <ele>378</ele>
        <time>2011-07-07T15:58:57Z</time>
      </trkpt>
      <trkpt lat="45.29821" lon="1.44185">
        <ele>378</ele>
        <time>2011-07-07T15:58:57Z</time>
      </trkpt>
      <trkpt lat="45.29821" lon="1.44185">
        <ele>378</ele>
        <time>2011-07-07T15:58:59Z</time>
      </trkpt>
      <trkpt lat="45.29825" lon="1.44196">
        <ele>379</ele>
        <time>2011-07-07T15:59:00Z</time>
      </trkpt>
      <trkpt lat="45.29828" lon="1.44201">
        <ele>380</ele>
        <time>2011-07-07T15:59:02Z</time>
      </trkpt>
      <trkpt lat="45.29832" lon="1.44209">
        <ele>381</ele>
        <time>2011-07-07T15:59:06Z</time>
      </trkpt>
      <trkpt lat="45.29839" lon="1.4422">
        <ele>380</ele>
        <time>2011-07-07T15:59:10Z</time>
      </trkpt>
      <trkpt lat="45.29839" lon="1.4422">
        <ele>380</ele>
        <time>2011-07-07T15:59:10Z</time>
      </trkpt>
      <trkpt lat="45.29839" lon="1.4422">
        <ele>380</ele>
        <time>2011-07-07T15:59:11Z</time>
      </trkpt>
      <trkpt lat="45.29842" lon="1.44225">
        <ele>381</ele>
        <time>2011-07-07T15:59:12Z</time>
      </trkpt>
      <trkpt lat="45.29844" lon="1.44231">
        <ele>377</ele>
        <time>2011-07-07T15:59:14Z</time>
      </trkpt>
      <trkpt lat="45.29844" lon="1.44241">
        <ele>374</ele>
        <time>2011-07-07T15:59:16Z</time>
      </trkpt>
      <trkpt lat="45.29845" lon="1.4425">
        <ele>373</ele>
        <time>2011-07-07T15:59:18Z</time>
      </trkpt>
      <trkpt lat="45.29845" lon="1.44268">
        <ele>372</ele>
        <time>2011-07-07T15:59:22Z</time>
      </trkpt>
      <trkpt lat="45.29844" lon="1.44277">
        <ele>373</ele>
        <time>2011-07-07T15:59:24Z</time>
      </trkpt>
      <trkpt lat="45.29842" lon="1.44286">
        <ele>375</ele>
        <time>2011-07-07T15:59:26Z</time>
      </trkpt>
      <trkpt lat="45.29842" lon="1.44296">
        <ele>379</ele>
        <time>2011-07-07T15:59:28Z</time>
      </trkpt>
      <trkpt lat="45.29841" lon="1.44303">
        <ele>382</ele>
        <time>2011-07-07T15:59:30Z</time>
      </trkpt>
      <trkpt lat="45.29841" lon="1.4431">
        <ele>385</ele>
        <time>2011-07-07T15:59:32Z</time>
      </trkpt>
      <trkpt lat="45.2984" lon="1.44318">
        <ele>386</ele>
        <time>2011-07-07T15:59:34Z</time>
      </trkpt>
      <trkpt lat="45.2984" lon="1.44324">
        <ele>386</ele>
        <time>2011-07-07T15:59:36Z</time>
      </trkpt>
      <trkpt lat="45.29841" lon="1.44333">
        <ele>387</ele>
        <time>2011-07-07T15:59:39Z</time>
      </trkpt>
      <trkpt lat="45.29842" lon="1.44342">
        <ele>386</ele>
        <time>2011-07-07T15:59:42Z</time>
      </trkpt>
      <trkpt lat="45.29841" lon="1.4435">
        <ele>386</ele>
        <time>2011-07-07T15:59:45Z</time>
      </trkpt>
      <trkpt lat="45.29842" lon="1.44359">
        <ele>386</ele>
        <time>2011-07-07T15:59:48Z</time>
      </trkpt>
      <trkpt lat="45.29843" lon="1.44366">
        <ele>387</ele>
        <time>2011-07-07T15:59:50Z</time>
      </trkpt>
      <trkpt lat="45.29846" lon="1.44371">
        <ele>386</ele>
        <time>2011-07-07T15:59:52Z</time>
      </trkpt>
      <trkpt lat="45.29847" lon="1.4438">
        <ele>386</ele>
        <time>2011-07-07T15:59:55Z</time>
      </trkpt>
      <trkpt lat="45.29849" lon="1.44387">
        <ele>387</ele>
        <time>2011-07-07T15:59:57Z</time>
      </trkpt>
      <trkpt lat="45.2985" lon="1.44394">
        <ele>388</ele>
        <time>2011-07-07T16:00:00Z</time>
      </trkpt>
      <trkpt lat="45.29851" lon="1.44402">
        <ele>388</ele>
        <time>2011-07-07T16:00:03Z</time>
      </trkpt>
      <trkpt lat="45.29853" lon="1.4441">
        <ele>391</ele>
        <time>2011-07-07T16:00:06Z</time>
      </trkpt>
      <trkpt lat="45.29855" lon="1.44417">
        <ele>392</ele>
        <time>2011-07-07T16:00:08Z</time>
      </trkpt>
      <trkpt lat="45.29857" lon="1.44423">
        <ele>391</ele>
        <time>2011-07-07T16:00:10Z</time>
      </trkpt>
      <trkpt lat="45.29859" lon="1.44429">
        <ele>392</ele>
        <time>2011-07-07T16:00:12Z</time>
      </trkpt>
      <trkpt lat="45.29862" lon="1.44437">
        <ele>390</ele>
        <time>2011-07-07T16:00:15Z</time>
      </trkpt>
      <trkpt lat="45.29864" lon="1.44443">
        <ele>386</ele>
        <time>2011-07-07T16:00:17Z</time>
      </trkpt>
      <trkpt lat="45.29866" lon="1.4445">
        <ele>388</ele>
        <time>2011-07-07T16:00:20Z</time>
      </trkpt>
      <trkpt lat="45.29867" lon="1.44456">
        <ele>388</ele>
        <time>2011-07-07T16:00:22Z</time>
      </trkpt>
      <trkpt lat="45.29871" lon="1.44464">
        <ele>390</ele>
        <time>2011-07-07T16:00:25Z</time>
      </trkpt>
      <trkpt lat="45.29874" lon="1.4447">
        <ele>391</ele>
        <time>2011-07-07T16:00:27Z</time>
      </trkpt>
      <trkpt lat="45.29877" lon="1.44475">
        <ele>392</ele>
        <time>2011-07-07T16:00:29Z</time>
      </trkpt>
      <trkpt lat="45.2988" lon="1.4448">
        <ele>395</ele>
        <time>2011-07-07T16:00:31Z</time>
      </trkpt>
      <trkpt lat="45.29883" lon="1.44485">
        <ele>395</ele>
        <time>2011-07-07T16:00:33Z</time>
      </trkpt>
      <trkpt lat="45.29886" lon="1.44491">
        <ele>397</ele>
        <time>2011-07-07T16:00:35Z</time>
      </trkpt>
      <trkpt lat="45.2989" lon="1.44497">
        <ele>398</ele>
        <time>2011-07-07T16:00:38Z</time>
      </trkpt>
      <trkpt lat="45.29893" lon="1.44503">
        <ele>397</ele>
        <time>2011-07-07T16:00:41Z</time>
      </trkpt>
      <trkpt lat="45.29896" lon="1.44508">
        <ele>398</ele>
        <time>2011-07-07T16:00:44Z</time>
      </trkpt>
      <trkpt lat="45.299" lon="1.44512">
        <ele>398</ele>
        <time>2011-07-07T16:00:47Z</time>
      </trkpt>
      <trkpt lat="45.29905" lon="1.44518">
        <ele>399</ele>
        <time>2011-07-07T16:00:50Z</time>
      </trkpt>
      <trkpt lat="45.29909" lon="1.44524">
        <ele>399</ele>
        <time>2011-07-07T16:00:53Z</time>
      </trkpt>
      <trkpt lat="45.29913" lon="1.4453">
        <ele>399</ele>
        <time>2011-07-07T16:00:56Z</time>
      </trkpt>
      <trkpt lat="45.29918" lon="1.44536">
        <ele>400</ele>
        <time>2011-07-07T16:00:59Z</time>
      </trkpt>
      <trkpt lat="45.29922" lon="1.44542">
        <ele>401</ele>
        <time>2011-07-07T16:01:02Z</time>
      </trkpt>
      <trkpt lat="45.29926" lon="1.44547">
        <ele>401</ele>
        <time>2011-07-07T16:01:05Z</time>
      </trkpt>
      <trkpt lat="45.2993" lon="1.44553">
        <ele>403</ele>
        <time>2011-07-07T16:01:08Z</time>
      </trkpt>
      <trkpt lat="45.29934" lon="1.4456">
        <ele>403</ele>
        <time>2011-07-07T16:01:11Z</time>
      </trkpt>
      <trkpt lat="45.29937" lon="1.44565">
        <ele>403</ele>
        <time>2011-07-07T16:01:14Z</time>
      </trkpt>
      <trkpt lat="45.2994" lon="1.44571">
        <ele>402</ele>
        <time>2011-07-07T16:01:17Z</time>
      </trkpt>
      <trkpt lat="45.29941" lon="1.44579">
        <ele>402</ele>
        <time>2011-07-07T16:01:20Z</time>
      </trkpt>
      <trkpt lat="45.29943" lon="1.44587">
        <ele>402</ele>
        <time>2011-07-07T16:01:23Z</time>
      </trkpt>
      <trkpt lat="45.29945" lon="1.44594">
        <ele>403</ele>
        <time>2011-07-07T16:01:26Z</time>
      </trkpt>
      <trkpt lat="45.29948" lon="1.446">
        <ele>404</ele>
        <time>2011-07-07T16:01:29Z</time>
      </trkpt>
      <trkpt lat="45.29951" lon="1.44606">
        <ele>403</ele>
        <time>2011-07-07T16:01:32Z</time>
      </trkpt>
      <trkpt lat="45.29954" lon="1.44612">
        <ele>404</ele>
        <time>2011-07-07T16:01:35Z</time>
      </trkpt>
      <trkpt lat="45.29956" lon="1.44617">
        <ele>405</ele>
        <time>2011-07-07T16:01:38Z</time>
      </trkpt>
      <trkpt lat="45.29959" lon="1.44624">
        <ele>407</ele>
        <time>2011-07-07T16:01:41Z</time>
      </trkpt>
      <trkpt lat="45.29961" lon="1.4463">
        <ele>406</ele>
        <time>2011-07-07T16:01:44Z</time>
      </trkpt>
      <trkpt lat="45.29963" lon="1.44636">
        <ele>407</ele>
        <time>2011-07-07T16:01:47Z</time>
      </trkpt>
      <trkpt lat="45.29966" lon="1.44641">
        <ele>408</ele>
        <time>2011-07-07T16:01:50Z</time>
      </trkpt>
      <trkpt lat="45.29968" lon="1.44647">
        <ele>409</ele>
        <time>2011-07-07T16:01:53Z</time>
      </trkpt>
      <trkpt lat="45.29971" lon="1.44654">
        <ele>408</ele>
        <time>2011-07-07T16:01:57Z</time>
      </trkpt>
      <trkpt lat="45.29974" lon="1.4466">
        <ele>409</ele>
        <time>2011-07-07T16:02:00Z</time>
      </trkpt>
      <trkpt lat="45.29977" lon="1.44667">
        <ele>410</ele>
        <time>2011-07-07T16:02:03Z</time>
      </trkpt>
      <trkpt lat="45.2998" lon="1.44674">
        <ele>409</ele>
        <time>2011-07-07T16:02:06Z</time>
      </trkpt>
      <trkpt lat="45.29983" lon="1.44679">
        <ele>410</ele>
        <time>2011-07-07T16:02:09Z</time>
      </trkpt>
      <trkpt lat="45.29987" lon="1.44684">
        <ele>413</ele>
        <time>2011-07-07T16:02:13Z</time>
      </trkpt>
      <trkpt lat="45.2999" lon="1.44693">
        <ele>416</ele>
        <time>2011-07-07T16:02:19Z</time>
      </trkpt>
      <trkpt lat="45.29993" lon="1.44698">
        <ele>414</ele>
        <time>2011-07-07T16:02:22Z</time>
      </trkpt>
      <trkpt lat="45.29996" lon="1.44704">
        <ele>417</ele>
        <time>2011-07-07T16:02:25Z</time>
      </trkpt>
      <trkpt lat="45.3" lon="1.4471">
        <ele>416</ele>
        <time>2011-07-07T16:02:29Z</time>
      </trkpt>
      <trkpt lat="45.30004" lon="1.44715">
        <ele>416</ele>
        <time>2011-07-07T16:02:34Z</time>
      </trkpt>
      <trkpt lat="45.30009" lon="1.44721">
        <ele>414</ele>
        <time>2011-07-07T16:02:38Z</time>
      </trkpt>
      <trkpt lat="45.30013" lon="1.44726">
        <ele>417</ele>
        <time>2011-07-07T16:02:41Z</time>
      </trkpt>
      <trkpt lat="45.30016" lon="1.44732">
        <ele>417</ele>
        <time>2011-07-07T16:02:44Z</time>
      </trkpt>
      <trkpt lat="45.3002" lon="1.44737">
        <ele>421</ele>
        <time>2011-07-07T16:02:49Z</time>
      </trkpt>
      <trkpt lat="45.30023" lon="1.44743">
        <ele>423</ele>
        <time>2011-07-07T16:02:53Z</time>
      </trkpt>
      <trkpt lat="45.30027" lon="1.44748">
        <ele>421</ele>
        <time>2011-07-07T16:02:56Z</time>
      </trkpt>
      <trkpt lat="45.3003" lon="1.44754">
        <ele>421</ele>
        <time>2011-07-07T16:03:00Z</time>
      </trkpt>
      <trkpt lat="45.30033" lon="1.44759">
        <ele>426</ele>
        <time>2011-07-07T16:03:03Z</time>
      </trkpt>
      <trkpt lat="45.30037" lon="1.44764">
        <ele>426</ele>
        <time>2011-07-07T16:03:07Z</time>
      </trkpt>
      <trkpt lat="45.30041" lon="1.4477">
        <ele>426</ele>
        <time>2011-07-07T16:03:11Z</time>
      </trkpt>
      <trkpt lat="45.30045" lon="1.44774">
        <ele>430</ele>
        <time>2011-07-07T16:03:14Z</time>
      </trkpt>
      <trkpt lat="45.30048" lon="1.4478">
        <ele>430</ele>
        <time>2011-07-07T16:03:18Z</time>
      </trkpt>
      <trkpt lat="45.30052" lon="1.44784">
        <ele>430</ele>
        <time>2011-07-07T16:03:22Z</time>
      </trkpt>
      <trkpt lat="45.30056" lon="1.44788">
        <ele>426</ele>
        <time>2011-07-07T16:03:25Z</time>
      </trkpt>
      <trkpt lat="45.30061" lon="1.44794">
        <ele>426</ele>
        <time>2011-07-07T16:03:28Z</time>
      </trkpt>
      <trkpt lat="45.30064" lon="1.448">
        <ele>427</ele>
        <time>2011-07-07T16:03:32Z</time>
      </trkpt>
      <trkpt lat="45.30069" lon="1.44804">
        <ele>426</ele>
        <time>2011-07-07T16:03:36Z</time>
      </trkpt>
      <trkpt lat="45.30074" lon="1.44808">
        <ele>426</ele>
        <time>2011-07-07T16:03:39Z</time>
      </trkpt>
      <trkpt lat="45.30079" lon="1.44813">
        <ele>429</ele>
        <time>2011-07-07T16:03:42Z</time>
      </trkpt>
      <trkpt lat="45.30083" lon="1.44818">
        <ele>430</ele>
        <time>2011-07-07T16:03:45Z</time>
      </trkpt>
      <trkpt lat="45.30088" lon="1.44822">
        <ele>430</ele>
        <time>2011-07-07T16:03:48Z</time>
      </trkpt>
      <trkpt lat="45.30093" lon="1.44825">
        <ele>430</ele>
        <time>2011-07-07T16:03:51Z</time>
      </trkpt>
      <trkpt lat="45.30097" lon="1.4483">
        <ele>430</ele>
        <time>2011-07-07T16:03:54Z</time>
      </trkpt>
      <trkpt lat="45.30101" lon="1.44833">
        <ele>430</ele>
        <time>2011-07-07T16:03:57Z</time>
      </trkpt>
      <trkpt lat="45.30105" lon="1.44837">
        <ele>430</ele>
        <time>2011-07-07T16:04:00Z</time>
      </trkpt>
      <trkpt lat="45.3011" lon="1.44841">
        <ele>429</ele>
        <time>2011-07-07T16:04:03Z</time>
      </trkpt>
      <trkpt lat="45.30114" lon="1.44846">
        <ele>430</ele>
        <time>2011-07-07T16:04:07Z</time>
      </trkpt>
      <trkpt lat="45.30114" lon="1.44854">
        <ele>432</ele>
        <time>2011-07-07T16:04:11Z</time>
      </trkpt>
      <trkpt lat="45.30113" lon="1.44863">
        <ele>431</ele>
        <time>2011-07-07T16:04:14Z</time>
      </trkpt>
      <trkpt lat="45.30115" lon="1.4487">
        <ele>430</ele>
        <time>2011-07-07T16:04:16Z</time>
      </trkpt>
      <trkpt lat="45.30118" lon="1.44878">
        <ele>430</ele>
        <time>2011-07-07T16:04:18Z</time>
      </trkpt>
      <trkpt lat="45.30121" lon="1.44885">
        <ele>432</ele>
        <time>2011-07-07T16:04:20Z</time>
      </trkpt>
      <trkpt lat="45.30124" lon="1.44892">
        <ele>431</ele>
        <time>2011-07-07T16:04:22Z</time>
      </trkpt>
      <trkpt lat="45.30119" lon="1.44885">
        <ele>429</ele>
        <time>2011-07-07T16:04:29Z</time>
      </trkpt>
      <trkpt lat="45.30116" lon="1.4488">
        <ele>429</ele>
        <time>2011-07-07T16:04:31Z</time>
      </trkpt>
      <trkpt lat="45.30112" lon="1.44875">
        <ele>430</ele>
        <time>2011-07-07T16:04:34Z</time>
      </trkpt>
      <trkpt lat="45.30107" lon="1.4487">
        <ele>430</ele>
        <time>2011-07-07T16:04:38Z</time>
      </trkpt>
      <trkpt lat="45.30101" lon="1.44868">
        <ele>429</ele>
        <time>2011-07-07T16:04:41Z</time>
      </trkpt>
      <trkpt lat="45.30095" lon="1.44866">
        <ele>429</ele>
        <time>2011-07-07T16:04:43Z</time>
      </trkpt>
      <trkpt lat="45.30089" lon="1.44864">
        <ele>428</ele>
        <time>2011-07-07T16:04:45Z</time>
      </trkpt>
      <trkpt lat="45.30082" lon="1.44865">
        <ele>429</ele>
        <time>2011-07-07T16:04:47Z</time>
      </trkpt>
      <trkpt lat="45.30077" lon="1.44873">
        <ele>428</ele>
        <time>2011-07-07T16:04:49Z</time>
      </trkpt>
      <trkpt lat="45.30073" lon="1.44884">
        <ele>425</ele>
        <time>2011-07-07T16:04:51Z</time>
      </trkpt>
      <trkpt lat="45.30071" lon="1.44892">
        <ele>426</ele>
        <time>2011-07-07T16:04:52Z</time>
      </trkpt>
      <trkpt lat="45.30068" lon="1.449">
        <ele>426</ele>
        <time>2011-07-07T16:04:53Z</time>
      </trkpt>
      <trkpt lat="45.30065" lon="1.44909">
        <ele>426</ele>
        <time>2011-07-07T16:04:54Z</time>
      </trkpt>
      <trkpt lat="45.30062" lon="1.44919">
        <ele>425</ele>
        <time>2011-07-07T16:04:55Z</time>
      </trkpt>
      <trkpt lat="45.30058" lon="1.44929">
        <ele>424</ele>
        <time>2011-07-07T16:04:56Z</time>
      </trkpt>
      <trkpt lat="45.30055" lon="1.4494">
        <ele>423</ele>
        <time>2011-07-07T16:04:57Z</time>
      </trkpt>
      <trkpt lat="45.30051" lon="1.44951">
        <ele>421</ele>
        <time>2011-07-07T16:04:58Z</time>
      </trkpt>
      <trkpt lat="45.30047" lon="1.44964">
        <ele>420</ele>
        <time>2011-07-07T16:04:59Z</time>
      </trkpt>
      <trkpt lat="45.30042" lon="1.44976">
        <ele>417</ele>
        <time>2011-07-07T16:05:00Z</time>
      </trkpt>
      <trkpt lat="45.30038" lon="1.4499">
        <ele>415</ele>
        <time>2011-07-07T16:05:01Z</time>
      </trkpt>
      <trkpt lat="45.30033" lon="1.45003">
        <ele>413</ele>
        <time>2011-07-07T16:05:02Z</time>
      </trkpt>
      <trkpt lat="45.30028" lon="1.45014">
        <ele>412</ele>
        <time>2011-07-07T16:05:03Z</time>
      </trkpt>
      <trkpt lat="45.30025" lon="1.45023">
        <ele>413</ele>
        <time>2011-07-07T16:05:04Z</time>
      </trkpt>
      <trkpt lat="45.30022" lon="1.45036">
        <ele>413</ele>
        <time>2011-07-07T16:05:06Z</time>
      </trkpt>
      <trkpt lat="45.30022" lon="1.45044">
        <ele>412</ele>
        <time>2011-07-07T16:05:07Z</time>
      </trkpt>
      <trkpt lat="45.30022" lon="1.45052">
        <ele>413</ele>
        <time>2011-07-07T16:05:08Z</time>
      </trkpt>
      <trkpt lat="45.30021" lon="1.45061">
        <ele>415</ele>
        <time>2011-07-07T16:05:09Z</time>
      </trkpt>
      <trkpt lat="45.30019" lon="1.45068">
        <ele>415</ele>
        <time>2011-07-07T16:05:10Z</time>
      </trkpt>
      <trkpt lat="45.30016" lon="1.45075">
        <ele>416</ele>
        <time>2011-07-07T16:05:12Z</time>
      </trkpt>
      <trkpt lat="45.3001" lon="1.45082">
        <ele>413</ele>
        <time>2011-07-07T16:05:14Z</time>
      </trkpt>
      <trkpt lat="45.30006" lon="1.45086">
        <ele>413</ele>
        <time>2011-07-07T16:05:15Z</time>
      </trkpt>
      <trkpt lat="45.30002" lon="1.45091">
        <ele>413</ele>
        <time>2011-07-07T16:05:16Z</time>
      </trkpt>
      <trkpt lat="45.29998" lon="1.45095">
        <ele>413</ele>
        <time>2011-07-07T16:05:17Z</time>
      </trkpt>
      <trkpt lat="45.29994" lon="1.45099">
        <ele>412</ele>
        <time>2011-07-07T16:05:18Z</time>
      </trkpt>
      <trkpt lat="45.2999" lon="1.45103">
        <ele>412</ele>
        <time>2011-07-07T16:05:19Z</time>
      </trkpt>
      <trkpt lat="45.29986" lon="1.45107">
        <ele>412</ele>
        <time>2011-07-07T16:05:20Z</time>
      </trkpt>
      <trkpt lat="45.29982" lon="1.4511">
        <ele>412</ele>
        <time>2011-07-07T16:05:21Z</time>
      </trkpt>
      <trkpt lat="45.29978" lon="1.45114">
        <ele>411</ele>
        <time>2011-07-07T16:05:22Z</time>
      </trkpt>
      <trkpt lat="45.29972" lon="1.45121">
        <ele>411</ele>
        <time>2011-07-07T16:05:24Z</time>
      </trkpt>
      <trkpt lat="45.29968" lon="1.45125">
        <ele>410</ele>
        <time>2011-07-07T16:05:25Z</time>
      </trkpt>
      <trkpt lat="45.29964" lon="1.45129">
        <ele>410</ele>
        <time>2011-07-07T16:05:26Z</time>
      </trkpt>
      <trkpt lat="45.2996" lon="1.45133">
        <ele>411</ele>
        <time>2011-07-07T16:05:27Z</time>
      </trkpt>
      <trkpt lat="45.29955" lon="1.45137">
        <ele>412</ele>
        <time>2011-07-07T16:05:28Z</time>
      </trkpt>
      <trkpt lat="45.29951" lon="1.45141">
        <ele>412</ele>
        <time>2011-07-07T16:05:29Z</time>
      </trkpt>
      <trkpt lat="45.29946" lon="1.45146">
        <ele>412</ele>
        <time>2011-07-07T16:05:30Z</time>
      </trkpt>
      <trkpt lat="45.29941" lon="1.45152">
        <ele>411</ele>
        <time>2011-07-07T16:05:31Z</time>
      </trkpt>
      <trkpt lat="45.29936" lon="1.45158">
        <ele>408</ele>
        <time>2011-07-07T16:05:32Z</time>
      </trkpt>
      <trkpt lat="45.29931" lon="1.45164">
        <ele>408</ele>
        <time>2011-07-07T16:05:33Z</time>
      </trkpt>
      <trkpt lat="45.29926" lon="1.45172">
        <ele>406</ele>
        <time>2011-07-07T16:05:34Z</time>
      </trkpt>
      <trkpt lat="45.29922" lon="1.45179">
        <ele>407</ele>
        <time>2011-07-07T16:05:35Z</time>
      </trkpt>
      <trkpt lat="45.29918" lon="1.45187">
        <ele>405</ele>
        <time>2011-07-07T16:05:36Z</time>
      </trkpt>
      <trkpt lat="45.29914" lon="1.45194">
        <ele>405</ele>
        <time>2011-07-07T16:05:37Z</time>
      </trkpt>
      <trkpt lat="45.29911" lon="1.45202">
        <ele>407</ele>
        <time>2011-07-07T16:05:38Z</time>
      </trkpt>
      <trkpt lat="45.29908" lon="1.45208">
        <ele>410</ele>
        <time>2011-07-07T16:05:39Z</time>
      </trkpt>
      <trkpt lat="45.29904" lon="1.45218">
        <ele>414</ele>
        <time>2011-07-07T16:05:41Z</time>
      </trkpt>
      <trkpt lat="45.29901" lon="1.45225">
        <ele>414</ele>
        <time>2011-07-07T16:05:43Z</time>
      </trkpt>
      <trkpt lat="45.299" lon="1.45231">
        <ele>417</ele>
        <time>2011-07-07T16:05:45Z</time>
      </trkpt>
      <trkpt lat="45.29898" lon="1.45238">
        <ele>418</ele>
        <time>2011-07-07T16:05:47Z</time>
      </trkpt>
      <trkpt lat="45.29896" lon="1.45244">
        <ele>416</ele>
        <time>2011-07-07T16:05:49Z</time>
      </trkpt>
      <trkpt lat="45.29894" lon="1.4525">
        <ele>416</ele>
        <time>2011-07-07T16:05:51Z</time>
      </trkpt>
      <trkpt lat="45.29891" lon="1.45258">
        <ele>417</ele>
        <time>2011-07-07T16:05:54Z</time>
      </trkpt>
      <trkpt lat="45.29888" lon="1.45264">
        <ele>417</ele>
        <time>2011-07-07T16:05:56Z</time>
      </trkpt>
      <trkpt lat="45.29886" lon="1.45271">
        <ele>419</ele>
        <time>2011-07-07T16:05:59Z</time>
      </trkpt>
      <trkpt lat="45.29884" lon="1.45277">
        <ele>418</ele>
        <time>2011-07-07T16:06:02Z</time>
      </trkpt>
      <trkpt lat="45.29884" lon="1.45285">
        <ele>420</ele>
        <time>2011-07-07T16:06:06Z</time>
      </trkpt>
      <trkpt lat="45.2988" lon="1.4529">
        <ele>417</ele>
        <time>2011-07-07T16:06:09Z</time>
      </trkpt>
      <trkpt lat="45.29874" lon="1.45291">
        <ele>416</ele>
        <time>2011-07-07T16:06:11Z</time>
      </trkpt>
      <trkpt lat="45.29865" lon="1.45291">
        <ele>415</ele>
        <time>2011-07-07T16:06:13Z</time>
      </trkpt>
      <trkpt lat="45.2986" lon="1.45289">
        <ele>414</ele>
        <time>2011-07-07T16:06:14Z</time>
      </trkpt>
      <trkpt lat="45.29855" lon="1.45285">
        <ele>413</ele>
        <time>2011-07-07T16:06:15Z</time>
      </trkpt>
      <trkpt lat="45.29849" lon="1.45281">
        <ele>413</ele>
        <time>2011-07-07T16:06:16Z</time>
      </trkpt>
      <trkpt lat="45.29844" lon="1.45274">
        <ele>413</ele>
        <time>2011-07-07T16:06:17Z</time>
      </trkpt>
      <trkpt lat="45.29839" lon="1.45267">
        <ele>411</ele>
        <time>2011-07-07T16:06:18Z</time>
      </trkpt>
      <trkpt lat="45.29834" lon="1.45259">
        <ele>412</ele>
        <time>2011-07-07T16:06:19Z</time>
      </trkpt>
      <trkpt lat="45.29829" lon="1.4525">
        <ele>410</ele>
        <time>2011-07-07T16:06:20Z</time>
      </trkpt>
      <trkpt lat="45.29824" lon="1.45242">
        <ele>409</ele>
        <time>2011-07-07T16:06:21Z</time>
      </trkpt>
      <trkpt lat="45.2982" lon="1.45236">
        <ele>408</ele>
        <time>2011-07-07T16:06:22Z</time>
      </trkpt>
      <trkpt lat="45.29816" lon="1.4523">
        <ele>406</ele>
        <time>2011-07-07T16:06:23Z</time>
      </trkpt>
      <trkpt lat="45.29812" lon="1.45224">
        <ele>406</ele>
        <time>2011-07-07T16:06:24Z</time>
      </trkpt>
      <trkpt lat="45.29807" lon="1.45218">
        <ele>408</ele>
        <time>2011-07-07T16:06:25Z</time>
      </trkpt>
      <trkpt lat="45.29801" lon="1.45211">
        <ele>407</ele>
        <time>2011-07-07T16:06:26Z</time>
      </trkpt>
      <trkpt lat="45.29795" lon="1.45204">
        <ele>405</ele>
        <time>2011-07-07T16:06:27Z</time>
      </trkpt>
      <trkpt lat="45.29787" lon="1.45196">
        <ele>405</ele>
        <time>2011-07-07T16:06:28Z</time>
      </trkpt>
      <trkpt lat="45.29778" lon="1.45188">
        <ele>405</ele>
        <time>2011-07-07T16:06:29Z</time>
      </trkpt>
      <trkpt lat="45.29768" lon="1.4518">
        <ele>405</ele>
        <time>2011-07-07T16:06:30Z</time>
      </trkpt>
      <trkpt lat="45.29759" lon="1.45171">
        <ele>404</ele>
        <time>2011-07-07T16:06:31Z</time>
      </trkpt>
      <trkpt lat="45.29749" lon="1.45162">
        <ele>405</ele>
        <time>2011-07-07T16:06:32Z</time>
      </trkpt>
      <trkpt lat="45.2974" lon="1.45155">
        <ele>405</ele>
        <time>2011-07-07T16:06:33Z</time>
      </trkpt>
      <trkpt lat="45.29733" lon="1.4515">
        <ele>402</ele>
        <time>2011-07-07T16:06:34Z</time>
      </trkpt>
      <trkpt lat="45.29726" lon="1.4515">
        <ele>402</ele>
        <time>2011-07-07T16:06:35Z</time>
      </trkpt>
      <trkpt lat="45.29719" lon="1.4515">
        <ele>403</ele>
        <time>2011-07-07T16:06:36Z</time>
      </trkpt>
      <trkpt lat="45.29712" lon="1.45152">
        <ele>402</ele>
        <time>2011-07-07T16:06:38Z</time>
      </trkpt>
      <trkpt lat="45.29705" lon="1.45154">
        <ele>405</ele>
        <time>2011-07-07T16:06:40Z</time>
      </trkpt>
      <trkpt lat="45.29698" lon="1.45154">
        <ele>403</ele>
        <time>2011-07-07T16:06:46Z</time>
      </trkpt>
      <trkpt lat="45.29694" lon="1.45155">
        <ele>403</ele>
        <time>2011-07-07T16:06:50Z</time>
      </trkpt>
      <trkpt lat="45.29694" lon="1.45155">
        <ele>403</ele>
        <time>2011-07-07T16:06:50Z</time>
      </trkpt>
      <trkpt lat="45.29694" lon="1.45155">
        <ele>403</ele>
        <time>2011-07-07T16:06:52Z</time>
      </trkpt>
      <trkpt lat="45.29688" lon="1.45156">
        <ele>406</ele>
        <time>2011-07-07T16:06:53Z</time>
      </trkpt>
      <trkpt lat="45.29682" lon="1.45157">
        <ele>402</ele>
        <time>2011-07-07T16:06:55Z</time>
      </trkpt>
      <trkpt lat="45.29674" lon="1.45158">
        <ele>398</ele>
        <time>2011-07-07T16:06:57Z</time>
      </trkpt>
      <trkpt lat="45.29664" lon="1.45158">
        <ele>395</ele>
        <time>2011-07-07T16:06:59Z</time>
      </trkpt>
      <trkpt lat="45.29659" lon="1.45158">
        <ele>394</ele>
        <time>2011-07-07T16:07:00Z</time>
      </trkpt>
      <trkpt lat="45.29654" lon="1.45159">
        <ele>394</ele>
        <time>2011-07-07T16:07:01Z</time>
      </trkpt>
      <trkpt lat="45.29648" lon="1.45159">
        <ele>397</ele>
        <time>2011-07-07T16:07:02Z</time>
      </trkpt>
      <trkpt lat="45.2964" lon="1.45161">
        <ele>398</ele>
        <time>2011-07-07T16:07:04Z</time>
      </trkpt>
      <trkpt lat="45.29633" lon="1.45166">
        <ele>397</ele>
        <time>2011-07-07T16:07:06Z</time>
      </trkpt>
      <trkpt lat="45.29628" lon="1.45169">
        <ele>398</ele>
        <time>2011-07-07T16:07:08Z</time>
      </trkpt>
      <trkpt lat="45.29628" lon="1.45169">
        <ele>398</ele>
        <time>2011-07-07T16:07:08Z</time>
      </trkpt>
      <trkpt lat="45.29628" lon="1.45169">
        <ele>398</ele>
        <time>2011-07-07T16:07:11Z</time>
      </trkpt>
      <trkpt lat="45.29624" lon="1.45168">
        <ele>397</ele>
        <time>2011-07-07T16:07:13Z</time>
      </trkpt>
      <trkpt lat="45.29624" lon="1.45161">
        <ele>394</ele>
        <time>2011-07-07T16:07:16Z</time>
      </trkpt>
      <trkpt lat="45.29626" lon="1.45155">
        <ele>393</ele>
        <time>2011-07-07T16:07:18Z</time>
      </trkpt>
      <trkpt lat="45.2963" lon="1.4515">
        <ele>391</ele>
        <time>2011-07-07T16:07:20Z</time>
      </trkpt>
      <trkpt lat="45.29632" lon="1.45143">
        <ele>388</ele>
        <time>2011-07-07T16:07:23Z</time>
      </trkpt>
      <trkpt lat="45.29626" lon="1.45144">
        <ele>385</ele>
        <time>2011-07-07T16:07:27Z</time>
      </trkpt>
      <trkpt lat="45.29622" lon="1.45147">
        <ele>385</ele>
        <time>2011-07-07T16:07:29Z</time>
      </trkpt>
      <trkpt lat="45.29615" lon="1.45151">
        <ele>383</ele>
        <time>2011-07-07T16:07:31Z</time>
      </trkpt>
      <trkpt lat="45.29607" lon="1.45157">
        <ele>389</ele>
        <time>2011-07-07T16:07:33Z</time>
      </trkpt>
      <trkpt lat="45.29603" lon="1.45161">
        <ele>391</ele>
        <time>2011-07-07T16:07:34Z</time>
      </trkpt>
      <trkpt lat="45.29596" lon="1.45166">
        <ele>394</ele>
        <time>2011-07-07T16:07:35Z</time>
      </trkpt>
      <trkpt lat="45.29589" lon="1.45169">
        <ele>394</ele>
        <time>2011-07-07T16:07:36Z</time>
      </trkpt>
      <trkpt lat="45.29586" lon="1.45175">
        <ele>396</ele>
        <time>2011-07-07T16:07:37Z</time>
      </trkpt>
      <trkpt lat="45.29585" lon="1.45182">
        <ele>399</ele>
        <time>2011-07-07T16:07:38Z</time>
      </trkpt>
      <trkpt lat="45.2958" lon="1.45194">
        <ele>397</ele>
        <time>2011-07-07T16:07:40Z</time>
      </trkpt>
      <trkpt lat="45.29578" lon="1.45201">
        <ele>396</ele>
        <time>2011-07-07T16:07:41Z</time>
      </trkpt>
      <trkpt lat="45.29576" lon="1.45207">
        <ele>397</ele>
        <time>2011-07-07T16:07:42Z</time>
      </trkpt>
      <trkpt lat="45.2957" lon="1.45218">
        <ele>395</ele>
        <time>2011-07-07T16:07:44Z</time>
      </trkpt>
      <trkpt lat="45.29566" lon="1.45224">
        <ele>395</ele>
        <time>2011-07-07T16:07:45Z</time>
      </trkpt>
      <trkpt lat="45.29563" lon="1.45231">
        <ele>393</ele>
        <time>2011-07-07T16:07:46Z</time>
      </trkpt>
      <trkpt lat="45.29558" lon="1.45237">
        <ele>392</ele>
        <time>2011-07-07T16:07:47Z</time>
      </trkpt>
      <trkpt lat="45.29552" lon="1.45242">
        <ele>392</ele>
        <time>2011-07-07T16:07:48Z</time>
      </trkpt>
      <trkpt lat="45.29547" lon="1.45247">
        <ele>391</ele>
        <time>2011-07-07T16:07:49Z</time>
      </trkpt>
      <trkpt lat="45.2954" lon="1.45253">
        <ele>391</ele>
        <time>2011-07-07T16:07:50Z</time>
      </trkpt>
      <trkpt lat="45.29534" lon="1.45258">
        <ele>392</ele>
        <time>2011-07-07T16:07:51Z</time>
      </trkpt>
      <trkpt lat="45.29528" lon="1.45263">
        <ele>389</ele>
        <time>2011-07-07T16:07:52Z</time>
      </trkpt>
      <trkpt lat="45.29521" lon="1.45269">
        <ele>385</ele>
        <time>2011-07-07T16:07:53Z</time>
      </trkpt>
      <trkpt lat="45.29515" lon="1.45275">
        <ele>382</ele>
        <time>2011-07-07T16:07:54Z</time>
      </trkpt>
      <trkpt lat="45.29508" lon="1.45282">
        <ele>380</ele>
        <time>2011-07-07T16:07:55Z</time>
      </trkpt>
      <trkpt lat="45.29501" lon="1.45289">
        <ele>383</ele>
        <time>2011-07-07T16:07:56Z</time>
      </trkpt>
      <trkpt lat="45.29494" lon="1.45296">
        <ele>384</ele>
        <time>2011-07-07T16:07:57Z</time>
      </trkpt>
      <trkpt lat="45.29487" lon="1.45304">
        <ele>385</ele>
        <time>2011-07-07T16:07:58Z</time>
      </trkpt>
      <trkpt lat="45.29479" lon="1.45311">
        <ele>384</ele>
        <time>2011-07-07T16:07:59Z</time>
      </trkpt>
      <trkpt lat="45.29473" lon="1.45317">
        <ele>386</ele>
        <time>2011-07-07T16:08:00Z</time>
      </trkpt>
      <trkpt lat="45.29465" lon="1.45316">
        <ele>384</ele>
        <time>2011-07-07T16:08:01Z</time>
      </trkpt>
      <trkpt lat="45.2946" lon="1.45315">
        <ele>383</ele>
        <time>2011-07-07T16:08:02Z</time>
      </trkpt>
      <trkpt lat="45.29455" lon="1.45308">
        <ele>383</ele>
        <time>2011-07-07T16:08:03Z</time>
      </trkpt>
      <trkpt lat="45.29451" lon="1.453">
        <ele>383</ele>
        <time>2011-07-07T16:08:04Z</time>
      </trkpt>
      <trkpt lat="45.29449" lon="1.45293">
        <ele>383</ele>
        <time>2011-07-07T16:08:05Z</time>
      </trkpt>
      <trkpt lat="45.29447" lon="1.45286">
        <ele>381</ele>
        <time>2011-07-07T16:08:06Z</time>
      </trkpt>
      <trkpt lat="45.29444" lon="1.45278">
        <ele>381</ele>
        <time>2011-07-07T16:08:08Z</time>
      </trkpt>
      <trkpt lat="45.2944" lon="1.4527">
        <ele>382</ele>
        <time>2011-07-07T16:08:10Z</time>
      </trkpt>
      <trkpt lat="45.29437" lon="1.45262">
        <ele>384</ele>
        <time>2011-07-07T16:08:12Z</time>
      </trkpt>
      <trkpt lat="45.29436" lon="1.45256">
        <ele>386</ele>
        <time>2011-07-07T16:08:13Z</time>
      </trkpt>
      <trkpt lat="45.29434" lon="1.45249">
        <ele>383</ele>
        <time>2011-07-07T16:08:14Z</time>
      </trkpt>
      <trkpt lat="45.29432" lon="1.45243">
        <ele>382</ele>
        <time>2011-07-07T16:08:15Z</time>
      </trkpt>
      <trkpt lat="45.29428" lon="1.45231">
        <ele>380</ele>
        <time>2011-07-07T16:08:17Z</time>
      </trkpt>
      <trkpt lat="45.29426" lon="1.45224">
        <ele>377</ele>
        <time>2011-07-07T16:08:18Z</time>
      </trkpt>
      <trkpt lat="45.29424" lon="1.45218">
        <ele>380</ele>
        <time>2011-07-07T16:08:19Z</time>
      </trkpt>
      <trkpt lat="45.29424" lon="1.45211">
        <ele>378</ele>
        <time>2011-07-07T16:08:20Z</time>
      </trkpt>
      <trkpt lat="45.29424" lon="1.45204">
        <ele>381</ele>
        <time>2011-07-07T16:08:21Z</time>
      </trkpt>
      <trkpt lat="45.29424" lon="1.45196">
        <ele>381</ele>
        <time>2011-07-07T16:08:22Z</time>
      </trkpt>
      <trkpt lat="45.29423" lon="1.45189">
        <ele>379</ele>
        <time>2011-07-07T16:08:23Z</time>
      </trkpt>
      <trkpt lat="45.29423" lon="1.45181">
        <ele>374</ele>
        <time>2011-07-07T16:08:24Z</time>
      </trkpt>
      <trkpt lat="45.29421" lon="1.45172">
        <ele>374</ele>
        <time>2011-07-07T16:08:25Z</time>
      </trkpt>
      <trkpt lat="45.29419" lon="1.45165">
        <ele>378</ele>
        <time>2011-07-07T16:08:26Z</time>
      </trkpt>
      <trkpt lat="45.29417" lon="1.45159">
        <ele>378</ele>
        <time>2011-07-07T16:08:27Z</time>
      </trkpt>
      <trkpt lat="45.29413" lon="1.45154">
        <ele>378</ele>
        <time>2011-07-07T16:08:28Z</time>
      </trkpt>
      <trkpt lat="45.2941" lon="1.45149">
        <ele>379</ele>
        <time>2011-07-07T16:08:29Z</time>
      </trkpt>
      <trkpt lat="45.29405" lon="1.45144">
        <ele>380</ele>
        <time>2011-07-07T16:08:30Z</time>
      </trkpt>
      <trkpt lat="45.29399" lon="1.45139">
        <ele>378</ele>
        <time>2011-07-07T16:08:31Z</time>
      </trkpt>
      <trkpt lat="45.29393" lon="1.45134">
        <ele>380</ele>
        <time>2011-07-07T16:08:32Z</time>
      </trkpt>
      <trkpt lat="45.29387" lon="1.4513">
        <ele>380</ele>
        <time>2011-07-07T16:08:33Z</time>
      </trkpt>
      <trkpt lat="45.29381" lon="1.45125">
        <ele>380</ele>
        <time>2011-07-07T16:08:34Z</time>
      </trkpt>
      <trkpt lat="45.29374" lon="1.45122">
        <ele>381</ele>
        <time>2011-07-07T16:08:35Z</time>
      </trkpt>
      <trkpt lat="45.29368" lon="1.45118">
        <ele>380</ele>
        <time>2011-07-07T16:08:36Z</time>
      </trkpt>
      <trkpt lat="45.29362" lon="1.45115">
        <ele>375</ele>
        <time>2011-07-07T16:08:37Z</time>
      </trkpt>
      <trkpt lat="45.29354" lon="1.45111">
        <ele>374</ele>
        <time>2011-07-07T16:08:38Z</time>
      </trkpt>
      <trkpt lat="45.29347" lon="1.45107">
        <ele>373</ele>
        <time>2011-07-07T16:08:39Z</time>
      </trkpt>
      <trkpt lat="45.29341" lon="1.45104">
        <ele>373</ele>
        <time>2011-07-07T16:08:40Z</time>
      </trkpt>
      <trkpt lat="45.29333" lon="1.451">
        <ele>374</ele>
        <time>2011-07-07T16:08:41Z</time>
      </trkpt>
      <trkpt lat="45.29322" lon="1.45096">
        <ele>371</ele>
        <time>2011-07-07T16:08:42Z</time>
      </trkpt>
      <trkpt lat="45.29312" lon="1.45094">
        <ele>372</ele>
        <time>2011-07-07T16:08:43Z</time>
      </trkpt>
      <trkpt lat="45.29304" lon="1.45093">
        <ele>372</ele>
        <time>2011-07-07T16:08:44Z</time>
      </trkpt>
      <trkpt lat="45.29295" lon="1.45092">
        <ele>373</ele>
        <time>2011-07-07T16:08:45Z</time>
      </trkpt>
      <trkpt lat="45.29284" lon="1.45089">
        <ele>373</ele>
        <time>2011-07-07T16:08:46Z</time>
      </trkpt>
      <trkpt lat="45.29272" lon="1.45086">
        <ele>372</ele>
        <time>2011-07-07T16:08:47Z</time>
      </trkpt>
      <trkpt lat="45.2926" lon="1.45083">
        <ele>373</ele>
        <time>2011-07-07T16:08:48Z</time>
      </trkpt>
      <trkpt lat="45.2925" lon="1.45082">
        <ele>374</ele>
        <time>2011-07-07T16:08:49Z</time>
      </trkpt>
      <trkpt lat="45.29238" lon="1.45082">
        <ele>374</ele>
        <time>2011-07-07T16:08:50Z</time>
      </trkpt>
      <trkpt lat="45.29228" lon="1.45083">
        <ele>374</ele>
        <time>2011-07-07T16:08:51Z</time>
      </trkpt>
      <trkpt lat="45.29219" lon="1.45084">
        <ele>373</ele>
        <time>2011-07-07T16:08:52Z</time>
      </trkpt>
      <trkpt lat="45.29212" lon="1.45088">
        <ele>371</ele>
        <time>2011-07-07T16:08:53Z</time>
      </trkpt>
      <trkpt lat="45.29207" lon="1.45095">
        <ele>371</ele>
        <time>2011-07-07T16:08:54Z</time>
      </trkpt>
      <trkpt lat="45.29203" lon="1.45102">
        <ele>371</ele>
        <time>2011-07-07T16:08:55Z</time>
      </trkpt>
      <trkpt lat="45.29199" lon="1.45111">
        <ele>370</ele>
        <time>2011-07-07T16:08:56Z</time>
      </trkpt>
      <trkpt lat="45.29194" lon="1.45119">
        <ele>370</ele>
        <time>2011-07-07T16:08:57Z</time>
      </trkpt>
      <trkpt lat="45.29189" lon="1.45125">
        <ele>368</ele>
        <time>2011-07-07T16:08:58Z</time>
      </trkpt>
      <trkpt lat="45.29183" lon="1.45131">
        <ele>366</ele>
        <time>2011-07-07T16:08:59Z</time>
      </trkpt>
      <trkpt lat="45.29177" lon="1.45136">
        <ele>370</ele>
        <time>2011-07-07T16:09:00Z</time>
      </trkpt>
      <trkpt lat="45.29171" lon="1.45138">
        <ele>370</ele>
        <time>2011-07-07T16:09:01Z</time>
      </trkpt>
      <trkpt lat="45.29165" lon="1.45138">
        <ele>369</ele>
        <time>2011-07-07T16:09:02Z</time>
      </trkpt>
      <trkpt lat="45.29161" lon="1.45135">
        <ele>370</ele>
        <time>2011-07-07T16:09:03Z</time>
      </trkpt>
      <trkpt lat="45.29154" lon="1.45126">
        <ele>372</ele>
        <time>2011-07-07T16:09:05Z</time>
      </trkpt>
      <trkpt lat="45.2915" lon="1.45118">
        <ele>371</ele>
        <time>2011-07-07T16:09:06Z</time>
      </trkpt>
      <trkpt lat="45.29146" lon="1.4511">
        <ele>370</ele>
        <time>2011-07-07T16:09:07Z</time>
      </trkpt>
      <trkpt lat="45.29142" lon="1.45103">
        <ele>368</ele>
        <time>2011-07-07T16:09:08Z</time>
      </trkpt>
      <trkpt lat="45.29138" lon="1.45096">
        <ele>366</ele>
        <time>2011-07-07T16:09:09Z</time>
      </trkpt>
      <trkpt lat="45.29132" lon="1.45092">
        <ele>368</ele>
        <time>2011-07-07T16:09:10Z</time>
      </trkpt>
      <trkpt lat="45.29124" lon="1.45089">
        <ele>369</ele>
        <time>2011-07-07T16:09:11Z</time>
      </trkpt>
      <trkpt lat="45.29118" lon="1.45089">
        <ele>367</ele>
        <time>2011-07-07T16:09:12Z</time>
      </trkpt>
      <trkpt lat="45.29111" lon="1.45088">
        <ele>365</ele>
        <time>2011-07-07T16:09:13Z</time>
      </trkpt>
      <trkpt lat="45.29103" lon="1.45089">
        <ele>367</ele>
        <time>2011-07-07T16:09:14Z</time>
      </trkpt>
      <trkpt lat="45.29094" lon="1.4509">
        <ele>362</ele>
        <time>2011-07-07T16:09:15Z</time>
      </trkpt>
      <trkpt lat="45.29086" lon="1.45092">
        <ele>359</ele>
        <time>2011-07-07T16:09:16Z</time>
      </trkpt>
      <trkpt lat="45.29078" lon="1.45094">
        <ele>357</ele>
        <time>2011-07-07T16:09:17Z</time>
      </trkpt>
      <trkpt lat="45.29071" lon="1.45097">
        <ele>357</ele>
        <time>2011-07-07T16:09:18Z</time>
      </trkpt>
      <trkpt lat="45.29064" lon="1.45099">
        <ele>360</ele>
        <time>2011-07-07T16:09:19Z</time>
      </trkpt>
      <trkpt lat="45.29058" lon="1.45101">
        <ele>364</ele>
        <time>2011-07-07T16:09:20Z</time>
      </trkpt>
      <trkpt lat="45.29052" lon="1.45101">
        <ele>367</ele>
        <time>2011-07-07T16:09:21Z</time>
      </trkpt>
      <trkpt lat="45.29048" lon="1.45096">
        <ele>365</ele>
        <time>2011-07-07T16:09:22Z</time>
      </trkpt>
      <trkpt lat="45.29044" lon="1.45089">
        <ele>367</ele>
        <time>2011-07-07T16:09:23Z</time>
      </trkpt>
      <trkpt lat="45.29039" lon="1.45081">
        <ele>368</ele>
        <time>2011-07-07T16:09:24Z</time>
      </trkpt>
      <trkpt lat="45.29036" lon="1.45074">
        <ele>369</ele>
        <time>2011-07-07T16:09:25Z</time>
      </trkpt>
      <trkpt lat="45.29033" lon="1.45067">
        <ele>370</ele>
        <time>2011-07-07T16:09:26Z</time>
      </trkpt>
      <trkpt lat="45.29031" lon="1.45053">
        <ele>372</ele>
        <time>2011-07-07T16:09:28Z</time>
      </trkpt>
      <trkpt lat="45.2903" lon="1.45047">
        <ele>372</ele>
        <time>2011-07-07T16:09:29Z</time>
      </trkpt>
      <trkpt lat="45.29028" lon="1.45039">
        <ele>372</ele>
        <time>2011-07-07T16:09:30Z</time>
      </trkpt>
      <trkpt lat="45.29026" lon="1.45031">
        <ele>372</ele>
        <time>2011-07-07T16:09:31Z</time>
      </trkpt>
      <trkpt lat="45.29023" lon="1.45023">
        <ele>372</ele>
        <time>2011-07-07T16:09:32Z</time>
      </trkpt>
      <trkpt lat="45.29021" lon="1.45017">
        <ele>372</ele>
        <time>2011-07-07T16:09:33Z</time>
      </trkpt>
      <trkpt lat="45.29019" lon="1.45011">
        <ele>374</ele>
        <time>2011-07-07T16:09:34Z</time>
      </trkpt>
      <trkpt lat="45.29015" lon="1.45006">
        <ele>368</ele>
        <time>2011-07-07T16:09:35Z</time>
      </trkpt>
      <trkpt lat="45.2901" lon="1.45">
        <ele>364</ele>
        <time>2011-07-07T16:09:36Z</time>
      </trkpt>
      <trkpt lat="45.29007" lon="1.44996">
        <ele>364</ele>
        <time>2011-07-07T16:09:37Z</time>
      </trkpt>
      <trkpt lat="45.29002" lon="1.44992">
        <ele>360</ele>
        <time>2011-07-07T16:09:44Z</time>
      </trkpt>
      <trkpt lat="45.29002" lon="1.44992">
        <ele>360</ele>
        <time>2011-07-07T16:09:44Z</time>
      </trkpt>
      <trkpt lat="45.29002" lon="1.44992">
        <ele>360</ele>
        <time>2011-07-07T16:09:46Z</time>
      </trkpt>
      <trkpt lat="45.28996" lon="1.44989">
        <ele>355</ele>
        <time>2011-07-07T16:09:47Z</time>
      </trkpt>
      <trkpt lat="45.28988" lon="1.44986">
        <ele>350</ele>
        <time>2011-07-07T16:09:50Z</time>
      </trkpt>
      <trkpt lat="45.28983" lon="1.44984">
        <ele>351</ele>
        <time>2011-07-07T16:09:51Z</time>
      </trkpt>
      <trkpt lat="45.28978" lon="1.44982">
        <ele>349</ele>
        <time>2011-07-07T16:09:52Z</time>
      </trkpt>
      <trkpt lat="45.28969" lon="1.44979">
        <ele>346</ele>
        <time>2011-07-07T16:09:53Z</time>
      </trkpt>
      <trkpt lat="45.28961" lon="1.44976">
        <ele>343</ele>
        <time>2011-07-07T16:09:54Z</time>
      </trkpt>
      <trkpt lat="45.28955" lon="1.44974">
        <ele>341</ele>
        <time>2011-07-07T16:09:55Z</time>
      </trkpt>
      <trkpt lat="45.28948" lon="1.44973">
        <ele>344</ele>
        <time>2011-07-07T16:09:56Z</time>
      </trkpt>
      <trkpt lat="45.28942" lon="1.44971">
        <ele>345</ele>
        <time>2011-07-07T16:09:57Z</time>
      </trkpt>
      <trkpt lat="45.28935" lon="1.44968">
        <ele>343</ele>
        <time>2011-07-07T16:09:58Z</time>
      </trkpt>
      <trkpt lat="45.28929" lon="1.44965">
        <ele>344</ele>
        <time>2011-07-07T16:09:59Z</time>
      </trkpt>
      <trkpt lat="45.28922" lon="1.44962">
        <ele>343</ele>
        <time>2011-07-07T16:10:00Z</time>
      </trkpt>
      <trkpt lat="45.28913" lon="1.44959">
        <ele>341</ele>
        <time>2011-07-07T16:10:01Z</time>
      </trkpt>
      <trkpt lat="45.28904" lon="1.44957">
        <ele>338</ele>
        <time>2011-07-07T16:10:02Z</time>
      </trkpt>
      <trkpt lat="45.28896" lon="1.44957">
        <ele>335</ele>
        <time>2011-07-07T16:10:03Z</time>
      </trkpt>
      <trkpt lat="45.28888" lon="1.44958">
        <ele>335</ele>
        <time>2011-07-07T16:10:04Z</time>
      </trkpt>
      <trkpt lat="45.2888" lon="1.4496">
        <ele>332</ele>
        <time>2011-07-07T16:10:05Z</time>
      </trkpt>
      <trkpt lat="45.28872" lon="1.44962">
        <ele>333</ele>
        <time>2011-07-07T16:10:06Z</time>
      </trkpt>
      <trkpt lat="45.28866" lon="1.44965">
        <ele>330</ele>
        <time>2011-07-07T16:10:07Z</time>
      </trkpt>
      <trkpt lat="45.28861" lon="1.44969">
        <ele>333</ele>
        <time>2011-07-07T16:10:08Z</time>
      </trkpt>
      <trkpt lat="45.28856" lon="1.44973">
        <ele>335</ele>
        <time>2011-07-07T16:10:09Z</time>
      </trkpt>
      <trkpt lat="45.28852" lon="1.44977">
        <ele>335</ele>
        <time>2011-07-07T16:10:10Z</time>
      </trkpt>
      <trkpt lat="45.28846" lon="1.4498">
        <ele>335</ele>
        <time>2011-07-07T16:10:11Z</time>
      </trkpt>
      <trkpt lat="45.2884" lon="1.44984">
        <ele>336</ele>
        <time>2011-07-07T16:10:12Z</time>
      </trkpt>
      <trkpt lat="45.28835" lon="1.44988">
        <ele>336</ele>
        <time>2011-07-07T16:10:13Z</time>
      </trkpt>
      <trkpt lat="45.28829" lon="1.44992">
        <ele>334</ele>
        <time>2011-07-07T16:10:14Z</time>
      </trkpt>
      <trkpt lat="45.28825" lon="1.44997">
        <ele>333</ele>
        <time>2011-07-07T16:10:15Z</time>
      </trkpt>
      <trkpt lat="45.28821" lon="1.45004">
        <ele>334</ele>
        <time>2011-07-07T16:10:16Z</time>
      </trkpt>
      <trkpt lat="45.2882" lon="1.45012">
        <ele>333</ele>
        <time>2011-07-07T16:10:18Z</time>
      </trkpt>
      <trkpt lat="45.2882" lon="1.45019">
        <ele>336</ele>
        <time>2011-07-07T16:10:20Z</time>
      </trkpt>
      <trkpt lat="45.2882" lon="1.45019">
        <ele>336</ele>
        <time>2011-07-07T16:10:20Z</time>
      </trkpt>
      <trkpt lat="45.2882" lon="1.45019">
        <ele>336</ele>
        <time>2011-07-07T16:10:21Z</time>
      </trkpt>
      <trkpt lat="45.28818" lon="1.45028">
        <ele>339</ele>
        <time>2011-07-07T16:10:23Z</time>
      </trkpt>
      <trkpt lat="45.28818" lon="1.45028">
        <ele>339</ele>
        <time>2011-07-07T16:10:23Z</time>
      </trkpt>
      <trkpt lat="45.28818" lon="1.45028">
        <ele>339</ele>
        <time>2011-07-07T16:10:24Z</time>
      </trkpt>
      <trkpt lat="45.28815" lon="1.45041">
        <ele>339</ele>
        <time>2011-07-07T16:10:30Z</time>
      </trkpt>
      <trkpt lat="45.28814" lon="1.45048">
        <ele>336</ele>
        <time>2011-07-07T16:10:33Z</time>
      </trkpt>
      <trkpt lat="45.28811" lon="1.45055">
        <ele>338</ele>
        <time>2011-07-07T16:10:36Z</time>
      </trkpt>
      <trkpt lat="45.28809" lon="1.45063">
        <ele>338</ele>
        <time>2011-07-07T16:10:39Z</time>
      </trkpt>
      <trkpt lat="45.28807" lon="1.45069">
        <ele>337</ele>
        <time>2011-07-07T16:10:42Z</time>
      </trkpt>
      <trkpt lat="45.28806" lon="1.45075">
        <ele>339</ele>
        <time>2011-07-07T16:10:45Z</time>
      </trkpt>
      <trkpt lat="45.28803" lon="1.45082">
        <ele>338</ele>
        <time>2011-07-07T16:10:49Z</time>
      </trkpt>
      <trkpt lat="45.288" lon="1.4509">
        <ele>338</ele>
        <time>2011-07-07T16:10:53Z</time>
      </trkpt>
      <trkpt lat="45.28798" lon="1.45096">
        <ele>338</ele>
        <time>2011-07-07T16:10:57Z</time>
      </trkpt>
      <trkpt lat="45.28795" lon="1.45102">
        <ele>338</ele>
        <time>2011-07-07T16:11:00Z</time>
      </trkpt>
      <trkpt lat="45.28792" lon="1.45108">
        <ele>337</ele>
        <time>2011-07-07T16:11:03Z</time>
      </trkpt>
      <trkpt lat="45.2879" lon="1.45115">
        <ele>340</ele>
        <time>2011-07-07T16:11:06Z</time>
      </trkpt>
      <trkpt lat="45.2879" lon="1.45115">
        <ele>340</ele>
        <time>2011-07-07T16:11:06Z</time>
      </trkpt>
      <trkpt lat="45.2879" lon="1.45115">
        <ele>340</ele>
        <time>2011-07-07T16:11:09Z</time>
      </trkpt>
      <trkpt lat="45.28786" lon="1.45127">
        <ele>341</ele>
        <time>2011-07-07T16:11:10Z</time>
      </trkpt>
      <trkpt lat="45.28782" lon="1.45131">
        <ele>345</ele>
        <time>2011-07-07T16:11:14Z</time>
      </trkpt>
      <trkpt lat="45.28777" lon="1.45134">
        <ele>348</ele>
        <time>2011-07-07T16:11:17Z</time>
      </trkpt>
      <trkpt lat="45.28773" lon="1.45139">
        <ele>349</ele>
        <time>2011-07-07T16:11:20Z</time>
      </trkpt>
      <trkpt lat="45.28769" lon="1.45145">
        <ele>349</ele>
        <time>2011-07-07T16:11:23Z</time>
      </trkpt>
      <trkpt lat="45.28766" lon="1.4515">
        <ele>347</ele>
        <time>2011-07-07T16:11:26Z</time>
      </trkpt>
      <trkpt lat="45.28763" lon="1.45158">
        <ele>346</ele>
        <time>2011-07-07T16:11:30Z</time>
      </trkpt>
      <trkpt lat="45.28761" lon="1.45164">
        <ele>348</ele>
        <time>2011-07-07T16:11:33Z</time>
      </trkpt>
      <trkpt lat="45.28758" lon="1.4517">
        <ele>349</ele>
        <time>2011-07-07T16:11:36Z</time>
      </trkpt>
      <trkpt lat="45.28755" lon="1.45175">
        <ele>347</ele>
        <time>2011-07-07T16:11:39Z</time>
      </trkpt>
      <trkpt lat="45.28751" lon="1.45181">
        <ele>348</ele>
        <time>2011-07-07T16:11:42Z</time>
      </trkpt>
      <trkpt lat="45.28748" lon="1.45186">
        <ele>350</ele>
        <time>2011-07-07T16:11:45Z</time>
      </trkpt>
      <trkpt lat="45.28745" lon="1.45191">
        <ele>353</ele>
        <time>2011-07-07T16:11:48Z</time>
      </trkpt>
      <trkpt lat="45.28742" lon="1.45196">
        <ele>352</ele>
        <time>2011-07-07T16:11:51Z</time>
      </trkpt>
      <trkpt lat="45.28739" lon="1.45202">
        <ele>352</ele>
        <time>2011-07-07T16:11:54Z</time>
      </trkpt>
      <trkpt lat="45.28736" lon="1.45207">
        <ele>355</ele>
        <time>2011-07-07T16:11:57Z</time>
      </trkpt>
      <trkpt lat="45.28732" lon="1.45215">
        <ele>354</ele>
        <time>2011-07-07T16:12:01Z</time>
      </trkpt>
      <trkpt lat="45.28729" lon="1.45223">
        <ele>357</ele>
        <time>2011-07-07T16:12:04Z</time>
      </trkpt>
      <trkpt lat="45.28725" lon="1.45229">
        <ele>357</ele>
        <time>2011-07-07T16:12:07Z</time>
      </trkpt>
      <trkpt lat="45.28723" lon="1.45235">
        <ele>356</ele>
        <time>2011-07-07T16:12:10Z</time>
      </trkpt>
      <trkpt lat="45.28719" lon="1.45241">
        <ele>358</ele>
        <time>2011-07-07T16:12:13Z</time>
      </trkpt>
      <trkpt lat="45.28719" lon="1.45241">
        <ele>358</ele>
        <time>2011-07-07T16:12:13Z</time>
      </trkpt>
      <trkpt lat="45.28719" lon="1.45241">
        <ele>358</ele>
        <time>2011-07-07T16:12:14Z</time>
      </trkpt>
      <trkpt lat="45.28716" lon="1.45246">
        <ele>357</ele>
        <time>2011-07-07T16:12:16Z</time>
      </trkpt>
      <trkpt lat="45.28711" lon="1.45254">
        <ele>361</ele>
        <time>2011-07-07T16:12:20Z</time>
      </trkpt>
      <trkpt lat="45.28711" lon="1.45254">
        <ele>361</ele>
        <time>2011-07-07T16:12:20Z</time>
      </trkpt>
      <trkpt lat="45.28711" lon="1.45254">
        <ele>361</ele>
        <time>2011-07-07T16:12:22Z</time>
      </trkpt>
      <trkpt lat="45.28709" lon="1.4526">
        <ele>361</ele>
        <time>2011-07-07T16:12:23Z</time>
      </trkpt>
      <trkpt lat="45.28709" lon="1.4526">
        <ele>361</ele>
        <time>2011-07-07T16:12:23Z</time>
      </trkpt>
      <trkpt lat="45.28709" lon="1.4526">
        <ele>361</ele>
        <time>2011-07-07T16:12:25Z</time>
      </trkpt>
      <trkpt lat="45.28705" lon="1.45266">
        <ele>359</ele>
        <time>2011-07-07T16:12:26Z</time>
      </trkpt>
      <trkpt lat="45.28702" lon="1.45271">
        <ele>359</ele>
        <time>2011-07-07T16:12:28Z</time>
      </trkpt>
      <trkpt lat="45.28697" lon="1.45275">
        <ele>353</ele>
        <time>2011-07-07T16:12:32Z</time>
      </trkpt>
      <trkpt lat="45.28697" lon="1.45275">
        <ele>353</ele>
        <time>2011-07-07T16:12:32Z</time>
      </trkpt>
      <trkpt lat="45.28697" lon="1.45275">
        <ele>353</ele>
        <time>2011-07-07T16:12:33Z</time>
      </trkpt>
      <trkpt lat="45.28694" lon="1.45282">
        <ele>355</ele>
        <time>2011-07-07T16:12:37Z</time>
      </trkpt>
      <trkpt lat="45.28693" lon="1.4529">
        <ele>355</ele>
        <time>2011-07-07T16:12:40Z</time>
      </trkpt>
      <trkpt lat="45.28692" lon="1.45296">
        <ele>357</ele>
        <time>2011-07-07T16:12:43Z</time>
      </trkpt>
      <trkpt lat="45.2869" lon="1.45306">
        <ele>357</ele>
        <time>2011-07-07T16:12:48Z</time>
      </trkpt>
      <trkpt lat="45.28688" lon="1.45313">
        <ele>359</ele>
        <time>2011-07-07T16:12:51Z</time>
      </trkpt>
      <trkpt lat="45.28686" lon="1.4532">
        <ele>358</ele>
        <time>2011-07-07T16:12:54Z</time>
      </trkpt>
      <trkpt lat="45.28684" lon="1.45328">
        <ele>363</ele>
        <time>2011-07-07T16:12:57Z</time>
      </trkpt>
      <trkpt lat="45.28683" lon="1.45334">
        <ele>363</ele>
        <time>2011-07-07T16:13:00Z</time>
      </trkpt>
      <trkpt lat="45.28683" lon="1.45334">
        <ele>363</ele>
        <time>2011-07-07T16:13:00Z</time>
      </trkpt>
      <trkpt lat="45.28683" lon="1.45334">
        <ele>363</ele>
        <time>2011-07-07T16:13:02Z</time>
      </trkpt>
      <trkpt lat="45.28682" lon="1.45342">
        <ele>364</ele>
        <time>2011-07-07T16:13:03Z</time>
      </trkpt>
      <trkpt lat="45.28681" lon="1.45348">
        <ele>366</ele>
        <time>2011-07-07T16:13:06Z</time>
      </trkpt>
      <trkpt lat="45.28678" lon="1.45356">
        <ele>366</ele>
        <time>2011-07-07T16:13:10Z</time>
      </trkpt>
      <trkpt lat="45.28678" lon="1.45356">
        <ele>366</ele>
        <time>2011-07-07T16:13:10Z</time>
      </trkpt>
      <trkpt lat="45.28678" lon="1.45356">
        <ele>366</ele>
        <time>2011-07-07T16:13:11Z</time>
      </trkpt>
      <trkpt lat="45.28676" lon="1.45362">
        <ele>367</ele>
        <time>2011-07-07T16:13:13Z</time>
      </trkpt>
      <trkpt lat="45.28676" lon="1.45369">
        <ele>367</ele>
        <time>2011-07-07T16:13:16Z</time>
      </trkpt>
      <trkpt lat="45.28676" lon="1.45378">
        <ele>363</ele>
        <time>2011-07-07T16:13:19Z</time>
      </trkpt>
      <trkpt lat="45.28673" lon="1.45385">
        <ele>359</ele>
        <time>2011-07-07T16:13:22Z</time>
      </trkpt>
      <trkpt lat="45.28668" lon="1.45392">
        <ele>361</ele>
        <time>2011-07-07T16:13:25Z</time>
      </trkpt>
      <trkpt lat="45.28664" lon="1.45395">
        <ele>359</ele>
        <time>2011-07-07T16:13:26Z</time>
      </trkpt>
      <trkpt lat="45.2866" lon="1.454">
        <ele>361</ele>
        <time>2011-07-07T16:13:27Z</time>
      </trkpt>
      <trkpt lat="45.28654" lon="1.45404">
        <ele>362</ele>
        <time>2011-07-07T16:13:28Z</time>
      </trkpt>
      <trkpt lat="45.28648" lon="1.45408">
        <ele>363</ele>
        <time>2011-07-07T16:13:29Z</time>
      </trkpt>
      <trkpt lat="45.28641" lon="1.45412">
        <ele>364</ele>
        <time>2011-07-07T16:13:30Z</time>
      </trkpt>
      <trkpt lat="45.28634" lon="1.45416">
        <ele>363</ele>
        <time>2011-07-07T16:13:31Z</time>
      </trkpt>
      <trkpt lat="45.28627" lon="1.4542">
        <ele>363</ele>
        <time>2011-07-07T16:13:32Z</time>
      </trkpt>
      <trkpt lat="45.2862" lon="1.45426">
        <ele>363</ele>
        <time>2011-07-07T16:13:33Z</time>
      </trkpt>
      <trkpt lat="45.28612" lon="1.45432">
        <ele>363</ele>
        <time>2011-07-07T16:13:34Z</time>
      </trkpt>
      <trkpt lat="45.28606" lon="1.4544">
        <ele>361</ele>
        <time>2011-07-07T16:13:35Z</time>
      </trkpt>
      <trkpt lat="45.28602" lon="1.45448">
        <ele>361</ele>
        <time>2011-07-07T16:13:36Z</time>
      </trkpt>
      <trkpt lat="45.28598" lon="1.45455">
        <ele>359</ele>
        <time>2011-07-07T16:13:37Z</time>
      </trkpt>
      <trkpt lat="45.28594" lon="1.45462">
        <ele>357</ele>
        <time>2011-07-07T16:13:38Z</time>
      </trkpt>
      <trkpt lat="45.2859" lon="1.45468">
        <ele>357</ele>
        <time>2011-07-07T16:13:39Z</time>
      </trkpt>
      <trkpt lat="45.28587" lon="1.45474">
        <ele>356</ele>
        <time>2011-07-07T16:13:40Z</time>
      </trkpt>
      <trkpt lat="45.28585" lon="1.4548">
        <ele>357</ele>
        <time>2011-07-07T16:13:41Z</time>
      </trkpt>
      <trkpt lat="45.28584" lon="1.45488">
        <ele>357</ele>
        <time>2011-07-07T16:13:42Z</time>
      </trkpt>
      <trkpt lat="45.28589" lon="1.45494">
        <ele>356</ele>
        <time>2011-07-07T16:13:43Z</time>
      </trkpt>
      <trkpt lat="45.28594" lon="1.45499">
        <ele>355</ele>
        <time>2011-07-07T16:13:44Z</time>
      </trkpt>
      <trkpt lat="45.28601" lon="1.45504">
        <ele>354</ele>
        <time>2011-07-07T16:13:45Z</time>
      </trkpt>
      <trkpt lat="45.28608" lon="1.45508">
        <ele>352</ele>
        <time>2011-07-07T16:13:46Z</time>
      </trkpt>
      <trkpt lat="45.28616" lon="1.45514">
        <ele>352</ele>
        <time>2011-07-07T16:13:47Z</time>
      </trkpt>
      <trkpt lat="45.28624" lon="1.45519">
        <ele>351</ele>
        <time>2011-07-07T16:13:48Z</time>
      </trkpt>
      <trkpt lat="45.28632" lon="1.45526">
        <ele>351</ele>
        <time>2011-07-07T16:13:49Z</time>
      </trkpt>
      <trkpt lat="45.28639" lon="1.45534">
        <ele>352</ele>
        <time>2011-07-07T16:13:50Z</time>
      </trkpt>
      <trkpt lat="45.28644" lon="1.45543">
        <ele>351</ele>
        <time>2011-07-07T16:13:51Z</time>
      </trkpt>
      <trkpt lat="45.28649" lon="1.45553">
        <ele>350</ele>
        <time>2011-07-07T16:13:52Z</time>
      </trkpt>
      <trkpt lat="45.28651" lon="1.45562">
        <ele>349</ele>
        <time>2011-07-07T16:13:53Z</time>
      </trkpt>
      <trkpt lat="45.28654" lon="1.45573">
        <ele>348</ele>
        <time>2011-07-07T16:13:54Z</time>
      </trkpt>
      <trkpt lat="45.28654" lon="1.45583">
        <ele>348</ele>
        <time>2011-07-07T16:13:55Z</time>
      </trkpt>
      <trkpt lat="45.28654" lon="1.45593">
        <ele>348</ele>
        <time>2011-07-07T16:13:56Z</time>
      </trkpt>
      <trkpt lat="45.28656" lon="1.45604">
        <ele>351</ele>
        <time>2011-07-07T16:13:57Z</time>
      </trkpt>
      <trkpt lat="45.2866" lon="1.45612">
        <ele>351</ele>
        <time>2011-07-07T16:13:58Z</time>
      </trkpt>
      <trkpt lat="45.2866" lon="1.45623">
        <ele>349</ele>
        <time>2011-07-07T16:13:59Z</time>
      </trkpt>
      <trkpt lat="45.28659" lon="1.45634">
        <ele>346</ele>
        <time>2011-07-07T16:14:00Z</time>
      </trkpt>
      <trkpt lat="45.28658" lon="1.45643">
        <ele>345</ele>
        <time>2011-07-07T16:14:01Z</time>
      </trkpt>
      <trkpt lat="45.28656" lon="1.45652">
        <ele>346</ele>
        <time>2011-07-07T16:14:02Z</time>
      </trkpt>
      <trkpt lat="45.28654" lon="1.45661">
        <ele>346</ele>
        <time>2011-07-07T16:14:03Z</time>
      </trkpt>
      <trkpt lat="45.28654" lon="1.4567">
        <ele>348</ele>
        <time>2011-07-07T16:14:04Z</time>
      </trkpt>
      <trkpt lat="45.28654" lon="1.45677">
        <ele>347</ele>
        <time>2011-07-07T16:14:05Z</time>
      </trkpt>
      <trkpt lat="45.28654" lon="1.45685">
        <ele>349</ele>
        <time>2011-07-07T16:14:06Z</time>
      </trkpt>
      <trkpt lat="45.28657" lon="1.45699">
        <ele>348</ele>
        <time>2011-07-07T16:14:08Z</time>
      </trkpt>
      <trkpt lat="45.28658" lon="1.45708">
        <ele>348</ele>
        <time>2011-07-07T16:14:09Z</time>
      </trkpt>
      <trkpt lat="45.28661" lon="1.45715">
        <ele>344</ele>
        <time>2011-07-07T16:14:10Z</time>
      </trkpt>
      <trkpt lat="45.28662" lon="1.45721">
        <ele>345</ele>
        <time>2011-07-07T16:14:11Z</time>
      </trkpt>
      <trkpt lat="45.28656" lon="1.45728">
        <ele>342</ele>
        <time>2011-07-07T16:14:13Z</time>
      </trkpt>
      <trkpt lat="45.28651" lon="1.4573">
        <ele>342</ele>
        <time>2011-07-07T16:14:14Z</time>
      </trkpt>
      <trkpt lat="45.28645" lon="1.4573">
        <ele>340</ele>
        <time>2011-07-07T16:14:15Z</time>
      </trkpt>
      <trkpt lat="45.28638" lon="1.45725">
        <ele>341</ele>
        <time>2011-07-07T16:14:17Z</time>
      </trkpt>
      <trkpt lat="45.28633" lon="1.45722">
        <ele>340</ele>
        <time>2011-07-07T16:14:18Z</time>
      </trkpt>
      <trkpt lat="45.28626" lon="1.45719">
        <ele>337</ele>
        <time>2011-07-07T16:14:19Z</time>
      </trkpt>
      <trkpt lat="45.28617" lon="1.45716">
        <ele>339</ele>
        <time>2011-07-07T16:14:20Z</time>
      </trkpt>
      <trkpt lat="45.28609" lon="1.45716">
        <ele>341</ele>
        <time>2011-07-07T16:14:21Z</time>
      </trkpt>
      <trkpt lat="45.286" lon="1.45717">
        <ele>342</ele>
        <time>2011-07-07T16:14:22Z</time>
      </trkpt>
      <trkpt lat="45.2859" lon="1.45719">
        <ele>341</ele>
        <time>2011-07-07T16:14:23Z</time>
      </trkpt>
      <trkpt lat="45.2858" lon="1.4572">
        <ele>340</ele>
        <time>2011-07-07T16:14:24Z</time>
      </trkpt>
      <trkpt lat="45.28571" lon="1.45722">
        <ele>337</ele>
        <time>2011-07-07T16:14:25Z</time>
      </trkpt>
      <trkpt lat="45.28563" lon="1.4572">
        <ele>336</ele>
        <time>2011-07-07T16:14:26Z</time>
      </trkpt>
      <trkpt lat="45.28556" lon="1.45716">
        <ele>333</ele>
        <time>2011-07-07T16:14:27Z</time>
      </trkpt>
      <trkpt lat="45.28546" lon="1.4571">
        <ele>333</ele>
        <time>2011-07-07T16:14:28Z</time>
      </trkpt>
      <trkpt lat="45.28536" lon="1.45703">
        <ele>332</ele>
        <time>2011-07-07T16:14:29Z</time>
      </trkpt>
      <trkpt lat="45.28526" lon="1.45696">
        <ele>331</ele>
        <time>2011-07-07T16:14:30Z</time>
      </trkpt>
      <trkpt lat="45.28516" lon="1.4569">
        <ele>331</ele>
        <time>2011-07-07T16:14:31Z</time>
      </trkpt>
      <trkpt lat="45.28507" lon="1.45686">
        <ele>330</ele>
        <time>2011-07-07T16:14:32Z</time>
      </trkpt>
      <trkpt lat="45.285" lon="1.45682">
        <ele>330</ele>
        <time>2011-07-07T16:14:33Z</time>
      </trkpt>
      <trkpt lat="45.28494" lon="1.4568">
        <ele>330</ele>
        <time>2011-07-07T16:14:34Z</time>
      </trkpt>
      <trkpt lat="45.28488" lon="1.45678">
        <ele>330</ele>
        <time>2011-07-07T16:14:35Z</time>
      </trkpt>
      <trkpt lat="45.28482" lon="1.45674">
        <ele>330</ele>
        <time>2011-07-07T16:14:36Z</time>
      </trkpt>
      <trkpt lat="45.28472" lon="1.45672">
        <ele>328</ele>
        <time>2011-07-07T16:14:37Z</time>
      </trkpt>
      <trkpt lat="45.28462" lon="1.45674">
        <ele>327</ele>
        <time>2011-07-07T16:14:38Z</time>
      </trkpt>
      <trkpt lat="45.28453" lon="1.45677">
        <ele>326</ele>
        <time>2011-07-07T16:14:39Z</time>
      </trkpt>
      <trkpt lat="45.28444" lon="1.4568">
        <ele>322</ele>
        <time>2011-07-07T16:14:40Z</time>
      </trkpt>
      <trkpt lat="45.28435" lon="1.45681">
        <ele>323</ele>
        <time>2011-07-07T16:14:41Z</time>
      </trkpt>
      <trkpt lat="45.28426" lon="1.45683">
        <ele>320</ele>
        <time>2011-07-07T16:14:42Z</time>
      </trkpt>
      <trkpt lat="45.28416" lon="1.45682">
        <ele>320</ele>
        <time>2011-07-07T16:14:43Z</time>
      </trkpt>
      <trkpt lat="45.28408" lon="1.45682">
        <ele>319</ele>
        <time>2011-07-07T16:14:44Z</time>
      </trkpt>
      <trkpt lat="45.284" lon="1.45681">
        <ele>315</ele>
        <time>2011-07-07T16:14:45Z</time>
      </trkpt>
      <trkpt lat="45.28391" lon="1.45681">
        <ele>316</ele>
        <time>2011-07-07T16:14:46Z</time>
      </trkpt>
      <trkpt lat="45.28382" lon="1.4568">
        <ele>318</ele>
        <time>2011-07-07T16:14:47Z</time>
      </trkpt>
      <trkpt lat="45.28373" lon="1.45679">
        <ele>315</ele>
        <time>2011-07-07T16:14:48Z</time>
      </trkpt>
      <trkpt lat="45.28363" lon="1.45678">
        <ele>313</ele>
        <time>2011-07-07T16:14:49Z</time>
      </trkpt>
      <trkpt lat="45.28357" lon="1.45679">
        <ele>311</ele>
        <time>2011-07-07T16:14:50Z</time>
      </trkpt>
      <trkpt lat="45.28351" lon="1.45682">
        <ele>309</ele>
        <time>2011-07-07T16:14:51Z</time>
      </trkpt>
      <trkpt lat="45.28344" lon="1.45685">
        <ele>305</ele>
        <time>2011-07-07T16:14:52Z</time>
      </trkpt>
      <trkpt lat="45.28339" lon="1.45688">
        <ele>301</ele>
        <time>2011-07-07T16:14:53Z</time>
      </trkpt>
      <trkpt lat="45.28333" lon="1.45689">
        <ele>302</ele>
        <time>2011-07-07T16:14:54Z</time>
      </trkpt>
      <trkpt lat="45.28326" lon="1.45686">
        <ele>300</ele>
        <time>2011-07-07T16:14:56Z</time>
      </trkpt>
      <trkpt lat="45.28324" lon="1.45674">
        <ele>296</ele>
        <time>2011-07-07T16:14:58Z</time>
      </trkpt>
      <trkpt lat="45.28323" lon="1.45664">
        <ele>297</ele>
        <time>2011-07-07T16:15:00Z</time>
      </trkpt>
      <trkpt lat="45.2832" lon="1.45659">
        <ele>300</ele>
        <time>2011-07-07T16:15:02Z</time>
      </trkpt>
      <trkpt lat="45.28315" lon="1.45656">
        <ele>294</ele>
        <time>2011-07-07T16:15:03Z</time>
      </trkpt>
      <trkpt lat="45.2831" lon="1.45653">
        <ele>294</ele>
        <time>2011-07-07T16:15:04Z</time>
      </trkpt>
      <trkpt lat="45.28305" lon="1.4565">
        <ele>292</ele>
        <time>2011-07-07T16:15:05Z</time>
      </trkpt>
      <trkpt lat="45.28299" lon="1.45647">
        <ele>292</ele>
        <time>2011-07-07T16:15:06Z</time>
      </trkpt>
      <trkpt lat="45.28291" lon="1.45644">
        <ele>293</ele>
        <time>2011-07-07T16:15:07Z</time>
      </trkpt>
      <trkpt lat="45.28284" lon="1.45641">
        <ele>290</ele>
        <time>2011-07-07T16:15:08Z</time>
      </trkpt>
      <trkpt lat="45.28276" lon="1.45637">
        <ele>288</ele>
        <time>2011-07-07T16:15:09Z</time>
      </trkpt>
      <trkpt lat="45.28267" lon="1.45634">
        <ele>286</ele>
        <time>2011-07-07T16:15:10Z</time>
      </trkpt>
      <trkpt lat="45.28257" lon="1.4563">
        <ele>288</ele>
        <time>2011-07-07T16:15:11Z</time>
      </trkpt>
      <trkpt lat="45.28244" lon="1.45624">
        <ele>282</ele>
        <time>2011-07-07T16:15:12Z</time>
      </trkpt>
      <trkpt lat="45.28232" lon="1.45618">
        <ele>281</ele>
        <time>2011-07-07T16:15:13Z</time>
      </trkpt>
      <trkpt lat="45.28224" lon="1.45614">
        <ele>280</ele>
        <time>2011-07-07T16:15:14Z</time>
      </trkpt>
      <trkpt lat="45.28215" lon="1.45608">
        <ele>277</ele>
        <time>2011-07-07T16:15:15Z</time>
      </trkpt>
      <trkpt lat="45.28208" lon="1.45602">
        <ele>276</ele>
        <time>2011-07-07T16:15:16Z</time>
      </trkpt>
      <trkpt lat="45.282" lon="1.45596">
        <ele>277</ele>
        <time>2011-07-07T16:15:17Z</time>
      </trkpt>
      <trkpt lat="45.28192" lon="1.45594">
        <ele>277</ele>
        <time>2011-07-07T16:15:18Z</time>
      </trkpt>
      <trkpt lat="45.28182" lon="1.45591">
        <ele>272</ele>
        <time>2011-07-07T16:15:19Z</time>
      </trkpt>
      <trkpt lat="45.28172" lon="1.4559">
        <ele>271</ele>
        <time>2011-07-07T16:15:20Z</time>
      </trkpt>
      <trkpt lat="45.28164" lon="1.45589">
        <ele>275</ele>
        <time>2011-07-07T16:15:21Z</time>
      </trkpt>
      <trkpt lat="45.28156" lon="1.45588">
        <ele>272</ele>
        <time>2011-07-07T16:15:22Z</time>
      </trkpt>
      <trkpt lat="45.2815" lon="1.45586">
        <ele>273</ele>
        <time>2011-07-07T16:15:23Z</time>
      </trkpt>
      <trkpt lat="45.28143" lon="1.45585">
        <ele>273</ele>
        <time>2011-07-07T16:15:24Z</time>
      </trkpt>
      <trkpt lat="45.28137" lon="1.45584">
        <ele>268</ele>
        <time>2011-07-07T16:15:25Z</time>
      </trkpt>
      <trkpt lat="45.28133" lon="1.45581">
        <ele>274</ele>
        <time>2011-07-07T16:15:26Z</time>
      </trkpt>
      <trkpt lat="45.28128" lon="1.45578">
        <ele>272</ele>
        <time>2011-07-07T16:15:27Z</time>
      </trkpt>
      <trkpt lat="45.28123" lon="1.45575">
        <ele>271</ele>
        <time>2011-07-07T16:15:28Z</time>
      </trkpt>
      <trkpt lat="45.28116" lon="1.45574">
        <ele>267</ele>
        <time>2011-07-07T16:15:29Z</time>
      </trkpt>
      <trkpt lat="45.28107" lon="1.45572">
        <ele>267</ele>
        <time>2011-07-07T16:15:30Z</time>
      </trkpt>
      <trkpt lat="45.28098" lon="1.45572">
        <ele>269</ele>
        <time>2011-07-07T16:15:31Z</time>
      </trkpt>
      <trkpt lat="45.28089" lon="1.45571">
        <ele>263</ele>
        <time>2011-07-07T16:15:32Z</time>
      </trkpt>
      <trkpt lat="45.28079" lon="1.4557">
        <ele>262</ele>
        <time>2011-07-07T16:15:33Z</time>
      </trkpt>
      <trkpt lat="45.28069" lon="1.4557">
        <ele>261</ele>
        <time>2011-07-07T16:15:34Z</time>
      </trkpt>
      <trkpt lat="45.28059" lon="1.45568">
        <ele>257</ele>
        <time>2011-07-07T16:15:35Z</time>
      </trkpt>
      <trkpt lat="45.2805" lon="1.45566">
        <ele>256</ele>
        <time>2011-07-07T16:15:36Z</time>
      </trkpt>
      <trkpt lat="45.2804" lon="1.45564">
        <ele>250</ele>
        <time>2011-07-07T16:15:37Z</time>
      </trkpt>
      <trkpt lat="45.28031" lon="1.45563">
        <ele>252</ele>
        <time>2011-07-07T16:15:38Z</time>
      </trkpt>
      <trkpt lat="45.28023" lon="1.45562">
        <ele>248</ele>
        <time>2011-07-07T16:15:39Z</time>
      </trkpt>
      <trkpt lat="45.28017" lon="1.4556">
        <ele>246</ele>
        <time>2011-07-07T16:15:40Z</time>
      </trkpt>
      <trkpt lat="45.28012" lon="1.4556">
        <ele>245</ele>
        <time>2011-07-07T16:15:41Z</time>
      </trkpt>
      <trkpt lat="45.28006" lon="1.45558">
        <ele>243</ele>
        <time>2011-07-07T16:15:42Z</time>
      </trkpt>
      <trkpt lat="45.28001" lon="1.45554">
        <ele>244</ele>
        <time>2011-07-07T16:15:43Z</time>
      </trkpt>
      <trkpt lat="45.27997" lon="1.4555">
        <ele>245</ele>
        <time>2011-07-07T16:15:44Z</time>
      </trkpt>
      <trkpt lat="45.27993" lon="1.45544">
        <ele>243</ele>
        <time>2011-07-07T16:15:45Z</time>
      </trkpt>
      <trkpt lat="45.27989" lon="1.45537">
        <ele>242</ele>
        <time>2011-07-07T16:15:46Z</time>
      </trkpt>
      <trkpt lat="45.27988" lon="1.4553">
        <ele>241</ele>
        <time>2011-07-07T16:15:47Z</time>
      </trkpt>
      <trkpt lat="45.27986" lon="1.45522">
        <ele>241</ele>
        <time>2011-07-07T16:15:48Z</time>
      </trkpt>
      <trkpt lat="45.27984" lon="1.45514">
        <ele>241</ele>
        <time>2011-07-07T16:15:49Z</time>
      </trkpt>
      <trkpt lat="45.27984" lon="1.45507">
        <ele>239</ele>
        <time>2011-07-07T16:15:50Z</time>
      </trkpt>
      <trkpt lat="45.27986" lon="1.45499">
        <ele>240</ele>
        <time>2011-07-07T16:15:51Z</time>
      </trkpt>
      <trkpt lat="45.27988" lon="1.4549">
        <ele>236</ele>
        <time>2011-07-07T16:15:52Z</time>
      </trkpt>
      <trkpt lat="45.2799" lon="1.45482">
        <ele>235</ele>
        <time>2011-07-07T16:15:53Z</time>
      </trkpt>
      <trkpt lat="45.27992" lon="1.45474">
        <ele>234</ele>
        <time>2011-07-07T16:15:54Z</time>
      </trkpt>
      <trkpt lat="45.27994" lon="1.45468">
        <ele>234</ele>
        <time>2011-07-07T16:15:55Z</time>
      </trkpt>
      <trkpt lat="45.27996" lon="1.45461">
        <ele>237</ele>
        <time>2011-07-07T16:15:56Z</time>
      </trkpt>
      <trkpt lat="45.27999" lon="1.45454">
        <ele>237</ele>
        <time>2011-07-07T16:15:57Z</time>
      </trkpt>
      <trkpt lat="45.28004" lon="1.45447">
        <ele>239</ele>
        <time>2011-07-07T16:15:58Z</time>
      </trkpt>
      <trkpt lat="45.28009" lon="1.45441">
        <ele>240</ele>
        <time>2011-07-07T16:15:59Z</time>
      </trkpt>
      <trkpt lat="45.28014" lon="1.45436">
        <ele>240</ele>
        <time>2011-07-07T16:16:00Z</time>
      </trkpt>
      <trkpt lat="45.2802" lon="1.45431">
        <ele>240</ele>
        <time>2011-07-07T16:16:01Z</time>
      </trkpt>
      <trkpt lat="45.28025" lon="1.45425">
        <ele>240</ele>
        <time>2011-07-07T16:16:02Z</time>
      </trkpt>
      <trkpt lat="45.2803" lon="1.4542">
        <ele>239</ele>
        <time>2011-07-07T16:16:03Z</time>
      </trkpt>
      <trkpt lat="45.28037" lon="1.45413">
        <ele>240</ele>
        <time>2011-07-07T16:16:04Z</time>
      </trkpt>
      <trkpt lat="45.28044" lon="1.4541">
        <ele>237</ele>
        <time>2011-07-07T16:16:05Z</time>
      </trkpt>
      <trkpt lat="45.28052" lon="1.45408">
        <ele>238</ele>
        <time>2011-07-07T16:16:06Z</time>
      </trkpt>
      <trkpt lat="45.28059" lon="1.45408">
        <ele>237</ele>
        <time>2011-07-07T16:16:07Z</time>
      </trkpt>
      <trkpt lat="45.28067" lon="1.4541">
        <ele>235</ele>
        <time>2011-07-07T16:16:08Z</time>
      </trkpt>
      <trkpt lat="45.28073" lon="1.45413">
        <ele>233</ele>
        <time>2011-07-07T16:16:09Z</time>
      </trkpt>
      <trkpt lat="45.28079" lon="1.45415">
        <ele>239</ele>
        <time>2011-07-07T16:16:10Z</time>
      </trkpt>
      <trkpt lat="45.28084" lon="1.45415">
        <ele>244</ele>
        <time>2011-07-07T16:16:12Z</time>
      </trkpt>
      <trkpt lat="45.28084" lon="1.45415">
        <ele>244</ele>
        <time>2011-07-07T16:16:12Z</time>
      </trkpt>
      <trkpt lat="45.28084" lon="1.45415">
        <ele>244</ele>
        <time>2011-07-07T16:16:15Z</time>
      </trkpt>
      <trkpt lat="45.28087" lon="1.45408">
        <ele>247</ele>
        <time>2011-07-07T16:16:16Z</time>
      </trkpt>
      <trkpt lat="45.28087" lon="1.45408">
        <ele>247</ele>
        <time>2011-07-07T16:16:16Z</time>
      </trkpt>
      <trkpt lat="45.28087" lon="1.45408">
        <ele>247</ele>
        <time>2011-07-07T16:16:17Z</time>
      </trkpt>
      <trkpt lat="45.28086" lon="1.45394">
        <ele>248</ele>
        <time>2011-07-07T16:16:18Z</time>
      </trkpt>
      <trkpt lat="45.28083" lon="1.45386">
        <ele>246</ele>
        <time>2011-07-07T16:16:19Z</time>
      </trkpt>
      <trkpt lat="45.28081" lon="1.45379">
        <ele>244</ele>
        <time>2011-07-07T16:16:20Z</time>
      </trkpt>
      <trkpt lat="45.28079" lon="1.45372">
        <ele>248</ele>
        <time>2011-07-07T16:16:21Z</time>
      </trkpt>
      <trkpt lat="45.28076" lon="1.45366">
        <ele>251</ele>
        <time>2011-07-07T16:16:22Z</time>
      </trkpt>
      <trkpt lat="45.28072" lon="1.45358">
        <ele>251</ele>
        <time>2011-07-07T16:16:23Z</time>
      </trkpt>
      <trkpt lat="45.28069" lon="1.45352">
        <ele>252</ele>
        <time>2011-07-07T16:16:24Z</time>
      </trkpt>
      <trkpt lat="45.28059" lon="1.45342">
        <ele>252</ele>
        <time>2011-07-07T16:16:26Z</time>
      </trkpt>
      <trkpt lat="45.28051" lon="1.45335">
        <ele>253</ele>
        <time>2011-07-07T16:16:27Z</time>
      </trkpt>
      <trkpt lat="45.28044" lon="1.45331">
        <ele>253</ele>
        <time>2011-07-07T16:16:28Z</time>
      </trkpt>
      <trkpt lat="45.28038" lon="1.45328">
        <ele>254</ele>
        <time>2011-07-07T16:16:29Z</time>
      </trkpt>
      <trkpt lat="45.28032" lon="1.45326">
        <ele>254</ele>
        <time>2011-07-07T16:16:30Z</time>
      </trkpt>
      <trkpt lat="45.28025" lon="1.45324">
        <ele>254</ele>
        <time>2011-07-07T16:16:31Z</time>
      </trkpt>
      <trkpt lat="45.2802" lon="1.45322">
        <ele>253</ele>
        <time>2011-07-07T16:16:32Z</time>
      </trkpt>
      <trkpt lat="45.28015" lon="1.4532">
        <ele>255</ele>
        <time>2011-07-07T16:16:33Z</time>
      </trkpt>
      <trkpt lat="45.2801" lon="1.45318">
        <ele>255</ele>
        <time>2011-07-07T16:16:34Z</time>
      </trkpt>
      <trkpt lat="45.28006" lon="1.45316">
        <ele>256</ele>
        <time>2011-07-07T16:16:35Z</time>
      </trkpt>
      <trkpt lat="45.27997" lon="1.45314">
        <ele>256</ele>
        <time>2011-07-07T16:16:37Z</time>
      </trkpt>
      <trkpt lat="45.27988" lon="1.45311">
        <ele>257</ele>
        <time>2011-07-07T16:16:39Z</time>
      </trkpt>
      <trkpt lat="45.2798" lon="1.45309">
        <ele>256</ele>
        <time>2011-07-07T16:16:41Z</time>
      </trkpt>
      <trkpt lat="45.27972" lon="1.4531">
        <ele>258</ele>
        <time>2011-07-07T16:16:43Z</time>
      </trkpt>
      <trkpt lat="45.27968" lon="1.45311">
        <ele>259</ele>
        <time>2011-07-07T16:16:44Z</time>
      </trkpt>
      <trkpt lat="45.27962" lon="1.45313">
        <ele>256</ele>
        <time>2011-07-07T16:16:45Z</time>
      </trkpt>
      <trkpt lat="45.27956" lon="1.45317">
        <ele>257</ele>
        <time>2011-07-07T16:16:46Z</time>
      </trkpt>
      <trkpt lat="45.27951" lon="1.45322">
        <ele>259</ele>
        <time>2011-07-07T16:16:47Z</time>
      </trkpt>
      <trkpt lat="45.27945" lon="1.45326">
        <ele>259</ele>
        <time>2011-07-07T16:16:48Z</time>
      </trkpt>
      <trkpt lat="45.2794" lon="1.45332">
        <ele>259</ele>
        <time>2011-07-07T16:16:49Z</time>
      </trkpt>
      <trkpt lat="45.27935" lon="1.4534">
        <ele>258</ele>
        <time>2011-07-07T16:16:50Z</time>
      </trkpt>
      <trkpt lat="45.27932" lon="1.4535">
        <ele>258</ele>
        <time>2011-07-07T16:16:51Z</time>
      </trkpt>
      <trkpt lat="45.27928" lon="1.4536">
        <ele>258</ele>
        <time>2011-07-07T16:16:52Z</time>
      </trkpt>
      <trkpt lat="45.27919" lon="1.4537">
        <ele>257</ele>
        <time>2011-07-07T16:16:53Z</time>
      </trkpt>
      <trkpt lat="45.27909" lon="1.4538">
        <ele>256</ele>
        <time>2011-07-07T16:16:54Z</time>
      </trkpt>
      <trkpt lat="45.27895" lon="1.45392">
        <ele>257</ele>
        <time>2011-07-07T16:16:55Z</time>
      </trkpt>
      <trkpt lat="45.27885" lon="1.45402">
        <ele>256</ele>
        <time>2011-07-07T16:16:56Z</time>
      </trkpt>
      <trkpt lat="45.2787" lon="1.4541">
        <ele>256</ele>
        <time>2011-07-07T16:16:57Z</time>
      </trkpt>
      <trkpt lat="45.27859" lon="1.45418">
        <ele>247</ele>
        <time>2011-07-07T16:16:58Z</time>
      </trkpt>
      <trkpt lat="45.2785" lon="1.45426">
        <ele>234</ele>
        <time>2011-07-07T16:16:59Z</time>
      </trkpt>
      <trkpt lat="45.27842" lon="1.45435">
        <ele>228</ele>
        <time>2011-07-07T16:17:00Z</time>
      </trkpt>
      <trkpt lat="45.27834" lon="1.45442">
        <ele>223</ele>
        <time>2011-07-07T16:17:01Z</time>
      </trkpt>
      <trkpt lat="45.27828" lon="1.4545">
        <ele>215</ele>
        <time>2011-07-07T16:17:02Z</time>
      </trkpt>
      <trkpt lat="45.27821" lon="1.45458">
        <ele>204</ele>
        <time>2011-07-07T16:17:03Z</time>
      </trkpt>
      <trkpt lat="45.27815" lon="1.45466">
        <ele>200</ele>
        <time>2011-07-07T16:17:04Z</time>
      </trkpt>
      <trkpt lat="45.2781" lon="1.45473">
        <ele>201</ele>
        <time>2011-07-07T16:17:05Z</time>
      </trkpt>
      <trkpt lat="45.27805" lon="1.4548">
        <ele>199</ele>
        <time>2011-07-07T16:17:06Z</time>
      </trkpt>
      <trkpt lat="45.27801" lon="1.4549">
        <ele>194</ele>
        <time>2011-07-07T16:17:07Z</time>
      </trkpt>
      <trkpt lat="45.27798" lon="1.45499">
        <ele>192</ele>
        <time>2011-07-07T16:17:08Z</time>
      </trkpt>
      <trkpt lat="45.27795" lon="1.45508">
        <ele>196</ele>
        <time>2011-07-07T16:17:09Z</time>
      </trkpt>
      <trkpt lat="45.27795" lon="1.45508">
        <ele>196</ele>
        <time>2011-07-07T16:17:09Z</time>
      </trkpt>
      <trkpt lat="45.27795" lon="1.45508">
        <ele>196</ele>
        <time>2011-07-07T16:17:10Z</time>
      </trkpt>
      <trkpt lat="45.27793" lon="1.45515">
        <ele>191</ele>
        <time>2011-07-07T16:17:11Z</time>
      </trkpt>
      <trkpt lat="45.27788" lon="1.45521">
        <ele>182</ele>
        <time>2011-07-07T16:17:12Z</time>
      </trkpt>
      <trkpt lat="45.27784" lon="1.45527">
        <ele>181</ele>
        <time>2011-07-07T16:17:13Z</time>
      </trkpt>
      <trkpt lat="45.27784" lon="1.45527">
        <ele>181</ele>
        <time>2011-07-07T16:17:13Z</time>
      </trkpt>
      <trkpt lat="45.27784" lon="1.45527">
        <ele>181</ele>
        <time>2011-07-07T16:17:16Z</time>
      </trkpt>
      <trkpt lat="45.27776" lon="1.45536">
        <ele>191</ele>
        <time>2011-07-07T16:17:17Z</time>
      </trkpt>
      <trkpt lat="45.27771" lon="1.45542">
        <ele>193</ele>
        <time>2011-07-07T16:17:18Z</time>
      </trkpt>
      <trkpt lat="45.27767" lon="1.45548">
        <ele>195</ele>
        <time>2011-07-07T16:17:19Z</time>
      </trkpt>
      <trkpt lat="45.27761" lon="1.45553">
        <ele>193</ele>
        <time>2011-07-07T16:17:20Z</time>
      </trkpt>
      <trkpt lat="45.27755" lon="1.45558">
        <ele>194</ele>
        <time>2011-07-07T16:17:21Z</time>
      </trkpt>
      <trkpt lat="45.2775" lon="1.45562">
        <ele>196</ele>
        <time>2011-07-07T16:17:22Z</time>
      </trkpt>
      <trkpt lat="45.27744" lon="1.45566">
        <ele>196</ele>
        <time>2011-07-07T16:17:23Z</time>
      </trkpt>
      <trkpt lat="45.27738" lon="1.4557">
        <ele>194</ele>
        <time>2011-07-07T16:17:24Z</time>
      </trkpt>
      <trkpt lat="45.27732" lon="1.45573">
        <ele>194</ele>
        <time>2011-07-07T16:17:25Z</time>
      </trkpt>
      <trkpt lat="45.27728" lon="1.45577">
        <ele>193</ele>
        <time>2011-07-07T16:17:26Z</time>
      </trkpt>
      <trkpt lat="45.27723" lon="1.45582">
        <ele>195</ele>
        <time>2011-07-07T16:17:27Z</time>
      </trkpt>
      <trkpt lat="45.27717" lon="1.4559">
        <ele>181</ele>
        <time>2011-07-07T16:17:29Z</time>
      </trkpt>
      <trkpt lat="45.27712" lon="1.45593">
        <ele>175</ele>
        <time>2011-07-07T16:17:31Z</time>
      </trkpt>
      <trkpt lat="45.27712" lon="1.45593">
        <ele>175</ele>
        <time>2011-07-07T16:17:31Z</time>
      </trkpt>
      <trkpt lat="45.27712" lon="1.45593">
        <ele>175</ele>
        <time>2011-07-07T16:17:32Z</time>
      </trkpt>
      <trkpt lat="45.27706" lon="1.45598">
        <ele>175</ele>
        <time>2011-07-07T16:17:33Z</time>
      </trkpt>
      <trkpt lat="45.277" lon="1.45606">
        <ele>175</ele>
        <time>2011-07-07T16:17:35Z</time>
      </trkpt>
      <trkpt lat="45.27696" lon="1.4561">
        <ele>174</ele>
        <time>2011-07-07T16:17:36Z</time>
      </trkpt>
      <trkpt lat="45.27692" lon="1.45614">
        <ele>174</ele>
        <time>2011-07-07T16:17:37Z</time>
      </trkpt>
      <trkpt lat="45.27688" lon="1.45618">
        <ele>173</ele>
        <time>2011-07-07T16:17:38Z</time>
      </trkpt>
      <trkpt lat="45.27684" lon="1.45622">
        <ele>173</ele>
        <time>2011-07-07T16:17:39Z</time>
      </trkpt>
      <trkpt lat="45.2768" lon="1.45626">
        <ele>173</ele>
        <time>2011-07-07T16:17:40Z</time>
      </trkpt>
      <trkpt lat="45.27677" lon="1.4563">
        <ele>173</ele>
        <time>2011-07-07T16:17:41Z</time>
      </trkpt>
      <trkpt lat="45.27673" lon="1.45635">
        <ele>172</ele>
        <time>2011-07-07T16:17:42Z</time>
      </trkpt>
      <trkpt lat="45.27667" lon="1.45644">
        <ele>171</ele>
        <time>2011-07-07T16:17:44Z</time>
      </trkpt>
      <trkpt lat="45.27659" lon="1.45653">
        <ele>164</ele>
        <time>2011-07-07T16:17:46Z</time>
      </trkpt>
      <trkpt lat="45.27652" lon="1.45655">
        <ele>160</ele>
        <time>2011-07-07T16:17:47Z</time>
      </trkpt>
      <trkpt lat="45.27646" lon="1.45656">
        <ele>160</ele>
        <time>2011-07-07T16:17:48Z</time>
      </trkpt>
      <trkpt lat="45.27638" lon="1.45656">
        <ele>162</ele>
        <time>2011-07-07T16:17:49Z</time>
      </trkpt>
      <trkpt lat="45.27631" lon="1.45655">
        <ele>163</ele>
        <time>2011-07-07T16:17:50Z</time>
      </trkpt>
      <trkpt lat="45.27622" lon="1.45654">
        <ele>163</ele>
        <time>2011-07-07T16:17:51Z</time>
      </trkpt>
      <trkpt lat="45.27614" lon="1.45653">
        <ele>159</ele>
        <time>2011-07-07T16:17:52Z</time>
      </trkpt>
      <trkpt lat="45.27607" lon="1.45652">
        <ele>159</ele>
        <time>2011-07-07T16:17:53Z</time>
      </trkpt>
      <trkpt lat="45.27602" lon="1.4565">
        <ele>161</ele>
        <time>2011-07-07T16:17:54Z</time>
      </trkpt>
      <trkpt lat="45.27595" lon="1.45643">
        <ele>162</ele>
        <time>2011-07-07T16:17:56Z</time>
      </trkpt>
      <trkpt lat="45.27588" lon="1.45632">
        <ele>161</ele>
        <time>2011-07-07T16:17:58Z</time>
      </trkpt>
      <trkpt lat="45.27584" lon="1.45626">
        <ele>162</ele>
        <time>2011-07-07T16:17:59Z</time>
      </trkpt>
      <trkpt lat="45.2758" lon="1.4562">
        <ele>163</ele>
        <time>2011-07-07T16:18:00Z</time>
      </trkpt>
      <trkpt lat="45.27576" lon="1.45614">
        <ele>163</ele>
        <time>2011-07-07T16:18:01Z</time>
      </trkpt>
      <trkpt lat="45.27573" lon="1.45608">
        <ele>161</ele>
        <time>2011-07-07T16:18:02Z</time>
      </trkpt>
      <trkpt lat="45.2757" lon="1.45603">
        <ele>160</ele>
        <time>2011-07-07T16:18:03Z</time>
      </trkpt>
      <trkpt lat="45.27567" lon="1.45597">
        <ele>162</ele>
        <time>2011-07-07T16:18:04Z</time>
      </trkpt>
      <trkpt lat="45.27563" lon="1.45591">
        <ele>163</ele>
        <time>2011-07-07T16:18:05Z</time>
      </trkpt>
      <trkpt lat="45.27559" lon="1.45584">
        <ele>162</ele>
        <time>2011-07-07T16:18:06Z</time>
      </trkpt>
      <trkpt lat="45.27555" lon="1.45578">
        <ele>162</ele>
        <time>2011-07-07T16:18:07Z</time>
      </trkpt>
      <trkpt lat="45.27551" lon="1.45573">
        <ele>162</ele>
        <time>2011-07-07T16:18:08Z</time>
      </trkpt>
      <trkpt lat="45.27547" lon="1.45568">
        <ele>163</ele>
        <time>2011-07-07T16:18:09Z</time>
      </trkpt>
      <trkpt lat="45.27543" lon="1.45563">
        <ele>164</ele>
        <time>2011-07-07T16:18:10Z</time>
      </trkpt>
      <trkpt lat="45.2754" lon="1.45558">
        <ele>164</ele>
        <time>2011-07-07T16:18:11Z</time>
      </trkpt>
      <trkpt lat="45.27536" lon="1.45553">
        <ele>165</ele>
        <time>2011-07-07T16:18:12Z</time>
      </trkpt>
      <trkpt lat="45.27532" lon="1.45548">
        <ele>164</ele>
        <time>2011-07-07T16:18:13Z</time>
      </trkpt>
      <trkpt lat="45.27528" lon="1.45544">
        <ele>163</ele>
        <time>2011-07-07T16:18:14Z</time>
      </trkpt>
      <trkpt lat="45.27522" lon="1.45536">
        <ele>164</ele>
        <time>2011-07-07T16:18:16Z</time>
      </trkpt>
      <trkpt lat="45.27516" lon="1.45529">
        <ele>163</ele>
        <time>2011-07-07T16:18:18Z</time>
      </trkpt>
      <trkpt lat="45.2751" lon="1.45522">
        <ele>164</ele>
        <time>2011-07-07T16:18:20Z</time>
      </trkpt>
      <trkpt lat="45.27503" lon="1.45518">
        <ele>163</ele>
        <time>2011-07-07T16:18:22Z</time>
      </trkpt>
      <trkpt lat="45.27497" lon="1.45518">
        <ele>162</ele>
        <time>2011-07-07T16:18:24Z</time>
      </trkpt>
      <trkpt lat="45.27497" lon="1.45518">
        <ele>162</ele>
        <time>2011-07-07T16:18:24Z</time>
      </trkpt>
      <trkpt lat="45.27497" lon="1.45518">
        <ele>162</ele>
        <time>2011-07-07T16:18:25Z</time>
      </trkpt>
      <trkpt lat="45.27491" lon="1.45519">
        <ele>163</ele>
        <time>2011-07-07T16:18:26Z</time>
      </trkpt>
      <trkpt lat="45.27485" lon="1.45524">
        <ele>164</ele>
        <time>2011-07-07T16:18:29Z</time>
      </trkpt>
      <trkpt lat="45.2748" lon="1.45528">
        <ele>165</ele>
        <time>2011-07-07T16:18:31Z</time>
      </trkpt>
      <trkpt lat="45.27475" lon="1.45526">
        <ele>167</ele>
        <time>2011-07-07T16:18:33Z</time>
      </trkpt>
      <trkpt lat="45.27468" lon="1.45521">
        <ele>166</ele>
        <time>2011-07-07T16:18:35Z</time>
      </trkpt>
      <trkpt lat="45.27463" lon="1.45521">
        <ele>161</ele>
        <time>2011-07-07T16:18:37Z</time>
      </trkpt>
      <trkpt lat="45.27458" lon="1.45521">
        <ele>159</ele>
        <time>2011-07-07T16:18:39Z</time>
      </trkpt>
      <trkpt lat="45.27453" lon="1.45519">
        <ele>164</ele>
        <time>2011-07-07T16:18:41Z</time>
      </trkpt>
      <trkpt lat="45.27448" lon="1.45516">
        <ele>170</ele>
        <time>2011-07-07T16:18:44Z</time>
      </trkpt>
      <trkpt lat="45.2744" lon="1.45521">
        <ele>168</ele>
        <time>2011-07-07T16:18:47Z</time>
      </trkpt>
      <trkpt lat="45.27435" lon="1.45526">
        <ele>167</ele>
        <time>2011-07-07T16:18:48Z</time>
      </trkpt>
      <trkpt lat="45.2743" lon="1.4553">
        <ele>167</ele>
        <time>2011-07-07T16:18:49Z</time>
      </trkpt>
      <trkpt lat="45.27424" lon="1.45535">
        <ele>167</ele>
        <time>2011-07-07T16:18:50Z</time>
      </trkpt>
      <trkpt lat="45.27417" lon="1.45541">
        <ele>165</ele>
        <time>2011-07-07T16:18:51Z</time>
      </trkpt>
      <trkpt lat="45.27411" lon="1.45545">
        <ele>164</ele>
        <time>2011-07-07T16:18:52Z</time>
      </trkpt>
      <trkpt lat="45.27406" lon="1.45548">
        <ele>163</ele>
        <time>2011-07-07T16:18:53Z</time>
      </trkpt>
      <trkpt lat="45.27399" lon="1.4555">
        <ele>162</ele>
        <time>2011-07-07T16:18:54Z</time>
      </trkpt>
      <trkpt lat="45.27394" lon="1.4555">
        <ele>163</ele>
        <time>2011-07-07T16:18:55Z</time>
      </trkpt>
      <trkpt lat="45.27387" lon="1.45549">
        <ele>165</ele>
        <time>2011-07-07T16:18:56Z</time>
      </trkpt>
      <trkpt lat="45.27379" lon="1.45548">
        <ele>164</ele>
        <time>2011-07-07T16:18:57Z</time>
      </trkpt>
      <trkpt lat="45.27372" lon="1.45546">
        <ele>164</ele>
        <time>2011-07-07T16:18:58Z</time>
      </trkpt>
      <trkpt lat="45.27367" lon="1.45544">
        <ele>163</ele>
        <time>2011-07-07T16:18:59Z</time>
      </trkpt>
      <trkpt lat="45.27361" lon="1.45542">
        <ele>162</ele>
        <time>2011-07-07T16:19:00Z</time>
      </trkpt>
      <trkpt lat="45.27356" lon="1.4554">
        <ele>162</ele>
        <time>2011-07-07T16:19:01Z</time>
      </trkpt>
      <trkpt lat="45.27351" lon="1.45539">
        <ele>162</ele>
        <time>2011-07-07T16:19:02Z</time>
      </trkpt>
      <trkpt lat="45.27346" lon="1.45538">
        <ele>161</ele>
        <time>2011-07-07T16:19:03Z</time>
      </trkpt>
      <trkpt lat="45.27342" lon="1.45537">
        <ele>161</ele>
        <time>2011-07-07T16:19:04Z</time>
      </trkpt>
      <trkpt lat="45.27333" lon="1.45534">
        <ele>163</ele>
        <time>2011-07-07T16:19:06Z</time>
      </trkpt>
      <trkpt lat="45.27329" lon="1.45532">
        <ele>163</ele>
        <time>2011-07-07T16:19:07Z</time>
      </trkpt>
      <trkpt lat="45.27324" lon="1.45529">
        <ele>163</ele>
        <time>2011-07-07T16:19:08Z</time>
      </trkpt>
      <trkpt lat="45.27317" lon="1.45524">
        <ele>161</ele>
        <time>2011-07-07T16:19:10Z</time>
      </trkpt>
      <trkpt lat="45.27309" lon="1.45519">
        <ele>160</ele>
        <time>2011-07-07T16:19:12Z</time>
      </trkpt>
      <trkpt lat="45.27301" lon="1.45515">
        <ele>160</ele>
        <time>2011-07-07T16:19:14Z</time>
      </trkpt>
      <trkpt lat="45.27296" lon="1.45511">
        <ele>160</ele>
        <time>2011-07-07T16:19:15Z</time>
      </trkpt>
      <trkpt lat="45.27294" lon="1.45505">
        <ele>160</ele>
        <time>2011-07-07T16:19:16Z</time>
      </trkpt>
      <trkpt lat="45.27295" lon="1.45494">
        <ele>161</ele>
        <time>2011-07-07T16:19:18Z</time>
      </trkpt>
      <trkpt lat="45.27297" lon="1.45484">
        <ele>161</ele>
        <time>2011-07-07T16:19:20Z</time>
      </trkpt>
      <trkpt lat="45.27301" lon="1.45474">
        <ele>163</ele>
        <time>2011-07-07T16:19:22Z</time>
      </trkpt>
      <trkpt lat="45.27306" lon="1.45465">
        <ele>163</ele>
        <time>2011-07-07T16:19:24Z</time>
      </trkpt>
      <trkpt lat="45.2731" lon="1.45456">
        <ele>165</ele>
        <time>2011-07-07T16:19:26Z</time>
      </trkpt>
      <trkpt lat="45.27314" lon="1.45448">
        <ele>166</ele>
        <time>2011-07-07T16:19:28Z</time>
      </trkpt>
      <trkpt lat="45.27318" lon="1.4544">
        <ele>165</ele>
        <time>2011-07-07T16:19:30Z</time>
      </trkpt>
      <trkpt lat="45.27324" lon="1.45432">
        <ele>168</ele>
        <time>2011-07-07T16:19:32Z</time>
      </trkpt>
      <trkpt lat="45.27329" lon="1.45426">
        <ele>169</ele>
        <time>2011-07-07T16:19:34Z</time>
      </trkpt>
      <trkpt lat="45.27333" lon="1.4542">
        <ele>170</ele>
        <time>2011-07-07T16:19:36Z</time>
      </trkpt>
      <trkpt lat="45.27338" lon="1.4541">
        <ele>168</ele>
        <time>2011-07-07T16:19:38Z</time>
      </trkpt>
      <trkpt lat="45.2734" lon="1.45404">
        <ele>167</ele>
        <time>2011-07-07T16:19:39Z</time>
      </trkpt>
      <trkpt lat="45.27342" lon="1.45398">
        <ele>167</ele>
        <time>2011-07-07T16:19:40Z</time>
      </trkpt>
      <trkpt lat="45.27343" lon="1.45392">
        <ele>166</ele>
        <time>2011-07-07T16:19:41Z</time>
      </trkpt>
      <trkpt lat="45.27344" lon="1.45385">
        <ele>165</ele>
        <time>2011-07-07T16:19:42Z</time>
      </trkpt>
      <trkpt lat="45.27345" lon="1.45377">
        <ele>165</ele>
        <time>2011-07-07T16:19:43Z</time>
      </trkpt>
      <trkpt lat="45.27346" lon="1.4537">
        <ele>164</ele>
        <time>2011-07-07T16:19:44Z</time>
      </trkpt>
      <trkpt lat="45.27346" lon="1.45361">
        <ele>164</ele>
        <time>2011-07-07T16:19:45Z</time>
      </trkpt>
      <trkpt lat="45.27345" lon="1.45353">
        <ele>164</ele>
        <time>2011-07-07T16:19:46Z</time>
      </trkpt>
      <trkpt lat="45.27343" lon="1.45346">
        <ele>163</ele>
        <time>2011-07-07T16:19:47Z</time>
      </trkpt>
      <trkpt lat="45.27342" lon="1.45339">
        <ele>163</ele>
        <time>2011-07-07T16:19:48Z</time>
      </trkpt>
      <trkpt lat="45.2734" lon="1.45332">
        <ele>163</ele>
        <time>2011-07-07T16:19:49Z</time>
      </trkpt>
      <trkpt lat="45.27336" lon="1.45326">
        <ele>163</ele>
        <time>2011-07-07T16:19:50Z</time>
      </trkpt>
      <trkpt lat="45.27331" lon="1.4532">
        <ele>164</ele>
        <time>2011-07-07T16:19:51Z</time>
      </trkpt>
      <trkpt lat="45.27327" lon="1.45314">
        <ele>165</ele>
        <time>2011-07-07T16:19:52Z</time>
      </trkpt>
      <trkpt lat="45.27323" lon="1.45307">
        <ele>165</ele>
        <time>2011-07-07T16:19:53Z</time>
      </trkpt>
      <trkpt lat="45.27318" lon="1.45302">
        <ele>165</ele>
        <time>2011-07-07T16:19:54Z</time>
      </trkpt>
      <trkpt lat="45.27314" lon="1.45296">
        <ele>165</ele>
        <time>2011-07-07T16:19:55Z</time>
      </trkpt>
      <trkpt lat="45.27311" lon="1.4529">
        <ele>165</ele>
        <time>2011-07-07T16:19:56Z</time>
      </trkpt>
      <trkpt lat="45.27308" lon="1.45283">
        <ele>165</ele>
        <time>2011-07-07T16:19:57Z</time>
      </trkpt>
      <trkpt lat="45.27306" lon="1.45276">
        <ele>165</ele>
        <time>2011-07-07T16:19:58Z</time>
      </trkpt>
      <trkpt lat="45.27304" lon="1.45269">
        <ele>165</ele>
        <time>2011-07-07T16:19:59Z</time>
      </trkpt>
      <trkpt lat="45.27302" lon="1.45262">
        <ele>165</ele>
        <time>2011-07-07T16:20:00Z</time>
      </trkpt>
      <trkpt lat="45.27301" lon="1.45254">
        <ele>164</ele>
        <time>2011-07-07T16:20:01Z</time>
      </trkpt>
      <trkpt lat="45.273" lon="1.45247">
        <ele>163</ele>
        <time>2011-07-07T16:20:02Z</time>
      </trkpt>
      <trkpt lat="45.27298" lon="1.4524">
        <ele>164</ele>
        <time>2011-07-07T16:20:03Z</time>
      </trkpt>
      <trkpt lat="45.27297" lon="1.45233">
        <ele>163</ele>
        <time>2011-07-07T16:20:04Z</time>
      </trkpt>
      <trkpt lat="45.27296" lon="1.45226">
        <ele>163</ele>
        <time>2011-07-07T16:20:05Z</time>
      </trkpt>
      <trkpt lat="45.27295" lon="1.45219">
        <ele>163</ele>
        <time>2011-07-07T16:20:06Z</time>
      </trkpt>
      <trkpt lat="45.27294" lon="1.45212">
        <ele>162</ele>
        <time>2011-07-07T16:20:07Z</time>
      </trkpt>
      <trkpt lat="45.27292" lon="1.45205">
        <ele>162</ele>
        <time>2011-07-07T16:20:08Z</time>
      </trkpt>
      <trkpt lat="45.27291" lon="1.45198">
        <ele>163</ele>
        <time>2011-07-07T16:20:09Z</time>
      </trkpt>
      <trkpt lat="45.2729" lon="1.45192">
        <ele>163</ele>
        <time>2011-07-07T16:20:10Z</time>
      </trkpt>
      <trkpt lat="45.27288" lon="1.45185">
        <ele>164</ele>
        <time>2011-07-07T16:20:11Z</time>
      </trkpt>
      <trkpt lat="45.27284" lon="1.4518">
        <ele>164</ele>
        <time>2011-07-07T16:20:12Z</time>
      </trkpt>
      <trkpt lat="45.2728" lon="1.45177">
        <ele>164</ele>
        <time>2011-07-07T16:20:13Z</time>
      </trkpt>
      <trkpt lat="45.27274" lon="1.45175">
        <ele>165</ele>
        <time>2011-07-07T16:20:14Z</time>
      </trkpt>
      <trkpt lat="45.27269" lon="1.45174">
        <ele>164</ele>
        <time>2011-07-07T16:20:15Z</time>
      </trkpt>
      <trkpt lat="45.27264" lon="1.45174">
        <ele>164</ele>
        <time>2011-07-07T16:20:16Z</time>
      </trkpt>
      <trkpt lat="45.27259" lon="1.45175">
        <ele>164</ele>
        <time>2011-07-07T16:20:17Z</time>
      </trkpt>
      <trkpt lat="45.27254" lon="1.45175">
        <ele>163</ele>
        <time>2011-07-07T16:20:18Z</time>
      </trkpt>
      <trkpt lat="45.27249" lon="1.45176">
        <ele>163</ele>
        <time>2011-07-07T16:20:19Z</time>
      </trkpt>
      <trkpt lat="45.27244" lon="1.45177">
        <ele>163</ele>
        <time>2011-07-07T16:20:20Z</time>
      </trkpt>
      <trkpt lat="45.27238" lon="1.45178">
        <ele>163</ele>
        <time>2011-07-07T16:20:21Z</time>
      </trkpt>
      <trkpt lat="45.27233" lon="1.4518">
        <ele>163</ele>
        <time>2011-07-07T16:20:22Z</time>
      </trkpt>
      <trkpt lat="45.27228" lon="1.4518">
        <ele>163</ele>
        <time>2011-07-07T16:20:23Z</time>
      </trkpt>
      <trkpt lat="45.27222" lon="1.45182">
        <ele>163</ele>
        <time>2011-07-07T16:20:24Z</time>
      </trkpt>
      <trkpt lat="45.27217" lon="1.45183">
        <ele>163</ele>
        <time>2011-07-07T16:20:25Z</time>
      </trkpt>
      <trkpt lat="45.27212" lon="1.45184">
        <ele>163</ele>
        <time>2011-07-07T16:20:26Z</time>
      </trkpt>
      <trkpt lat="45.27207" lon="1.45186">
        <ele>162</ele>
        <time>2011-07-07T16:20:27Z</time>
      </trkpt>
      <trkpt lat="45.27202" lon="1.45187">
        <ele>161</ele>
        <time>2011-07-07T16:20:28Z</time>
      </trkpt>
      <trkpt lat="45.27197" lon="1.45189">
        <ele>161</ele>
        <time>2011-07-07T16:20:29Z</time>
      </trkpt>
      <trkpt lat="45.27192" lon="1.45192">
        <ele>161</ele>
        <time>2011-07-07T16:20:30Z</time>
      </trkpt>
      <trkpt lat="45.27187" lon="1.45194">
        <ele>161</ele>
        <time>2011-07-07T16:20:31Z</time>
      </trkpt>
      <trkpt lat="45.27182" lon="1.45197">
        <ele>161</ele>
        <time>2011-07-07T16:20:32Z</time>
      </trkpt>
      <trkpt lat="45.27177" lon="1.45201">
        <ele>161</ele>
        <time>2011-07-07T16:20:33Z</time>
      </trkpt>
      <trkpt lat="45.27172" lon="1.45205">
        <ele>162</ele>
        <time>2011-07-07T16:20:34Z</time>
      </trkpt>
      <trkpt lat="45.27167" lon="1.45209">
        <ele>161</ele>
        <time>2011-07-07T16:20:35Z</time>
      </trkpt>
      <trkpt lat="45.27163" lon="1.45214">
        <ele>160</ele>
        <time>2011-07-07T16:20:36Z</time>
      </trkpt>
      <trkpt lat="45.27159" lon="1.45218">
        <ele>160</ele>
        <time>2011-07-07T16:20:37Z</time>
      </trkpt>
      <trkpt lat="45.27155" lon="1.45221">
        <ele>160</ele>
        <time>2011-07-07T16:20:38Z</time>
      </trkpt>
      <trkpt lat="45.27151" lon="1.45224">
        <ele>160</ele>
        <time>2011-07-07T16:20:39Z</time>
      </trkpt>
      <trkpt lat="45.27146" lon="1.45228">
        <ele>161</ele>
        <time>2011-07-07T16:20:40Z</time>
      </trkpt>
      <trkpt lat="45.27141" lon="1.4523">
        <ele>161</ele>
        <time>2011-07-07T16:20:41Z</time>
      </trkpt>
      <trkpt lat="45.27135" lon="1.45232">
        <ele>161</ele>
        <time>2011-07-07T16:20:42Z</time>
      </trkpt>
      <trkpt lat="45.27129" lon="1.45233">
        <ele>161</ele>
        <time>2011-07-07T16:20:43Z</time>
      </trkpt>
      <trkpt lat="45.27123" lon="1.45233">
        <ele>161</ele>
        <time>2011-07-07T16:20:44Z</time>
      </trkpt>
      <trkpt lat="45.27118" lon="1.45233">
        <ele>161</ele>
        <time>2011-07-07T16:20:45Z</time>
      </trkpt>
      <trkpt lat="45.27113" lon="1.45233">
        <ele>161</ele>
        <time>2011-07-07T16:20:46Z</time>
      </trkpt>
      <trkpt lat="45.27108" lon="1.45233">
        <ele>161</ele>
        <time>2011-07-07T16:20:47Z</time>
      </trkpt>
      <trkpt lat="45.27103" lon="1.45232">
        <ele>161</ele>
        <time>2011-07-07T16:20:48Z</time>
      </trkpt>
      <trkpt lat="45.27098" lon="1.45233">
        <ele>161</ele>
        <time>2011-07-07T16:20:49Z</time>
      </trkpt>
      <trkpt lat="45.27092" lon="1.45233">
        <ele>161</ele>
        <time>2011-07-07T16:20:50Z</time>
      </trkpt>
      <trkpt lat="45.27086" lon="1.45234">
        <ele>161</ele>
        <time>2011-07-07T16:20:51Z</time>
      </trkpt>
      <trkpt lat="45.27081" lon="1.45234">
        <ele>161</ele>
        <time>2011-07-07T16:20:52Z</time>
      </trkpt>
      <trkpt lat="45.27076" lon="1.45235">
        <ele>160</ele>
        <time>2011-07-07T16:20:53Z</time>
      </trkpt>
      <trkpt lat="45.2707" lon="1.45237">
        <ele>160</ele>
        <time>2011-07-07T16:20:54Z</time>
      </trkpt>
      <trkpt lat="45.27065" lon="1.45238">
        <ele>160</ele>
        <time>2011-07-07T16:20:55Z</time>
      </trkpt>
      <trkpt lat="45.2706" lon="1.4524">
        <ele>161</ele>
        <time>2011-07-07T16:20:56Z</time>
      </trkpt>
      <trkpt lat="45.27054" lon="1.45242">
        <ele>161</ele>
        <time>2011-07-07T16:20:57Z</time>
      </trkpt>
      <trkpt lat="45.27049" lon="1.45244">
        <ele>162</ele>
        <time>2011-07-07T16:20:58Z</time>
      </trkpt>
      <trkpt lat="45.27043" lon="1.45247">
        <ele>163</ele>
        <time>2011-07-07T16:20:59Z</time>
      </trkpt>
      <trkpt lat="45.27037" lon="1.45249">
        <ele>163</ele>
        <time>2011-07-07T16:21:00Z</time>
      </trkpt>
      <trkpt lat="45.27032" lon="1.45252">
        <ele>163</ele>
        <time>2011-07-07T16:21:01Z</time>
      </trkpt>
      <trkpt lat="45.27027" lon="1.45254">
        <ele>163</ele>
        <time>2011-07-07T16:21:02Z</time>
      </trkpt>
      <trkpt lat="45.27022" lon="1.45256">
        <ele>163</ele>
        <time>2011-07-07T16:21:03Z</time>
      </trkpt>
      <trkpt lat="45.27016" lon="1.45258">
        <ele>163</ele>
        <time>2011-07-07T16:21:04Z</time>
      </trkpt>
      <trkpt lat="45.27011" lon="1.45261">
        <ele>164</ele>
        <time>2011-07-07T16:21:05Z</time>
      </trkpt>
      <trkpt lat="45.27005" lon="1.45263">
        <ele>163</ele>
        <time>2011-07-07T16:21:06Z</time>
      </trkpt>
      <trkpt lat="45.26999" lon="1.45265">
        <ele>163</ele>
        <time>2011-07-07T16:21:07Z</time>
      </trkpt>
      <trkpt lat="45.26993" lon="1.45266">
        <ele>163</ele>
        <time>2011-07-07T16:21:08Z</time>
      </trkpt>
      <trkpt lat="45.26987" lon="1.45268">
        <ele>164</ele>
        <time>2011-07-07T16:21:09Z</time>
      </trkpt>
      <trkpt lat="45.26981" lon="1.45268">
        <ele>164</ele>
        <time>2011-07-07T16:21:10Z</time>
      </trkpt>
      <trkpt lat="45.26975" lon="1.45268">
        <ele>164</ele>
        <time>2011-07-07T16:21:11Z</time>
      </trkpt>
      <trkpt lat="45.2697" lon="1.45268">
        <ele>163</ele>
        <time>2011-07-07T16:21:12Z</time>
      </trkpt>
      <trkpt lat="45.26964" lon="1.45266">
        <ele>163</ele>
        <time>2011-07-07T16:21:13Z</time>
      </trkpt>
      <trkpt lat="45.26958" lon="1.45265">
        <ele>163</ele>
        <time>2011-07-07T16:21:14Z</time>
      </trkpt>
      <trkpt lat="45.26953" lon="1.45263">
        <ele>163</ele>
        <time>2011-07-07T16:21:15Z</time>
      </trkpt>
      <trkpt lat="45.26948" lon="1.45261">
        <ele>162</ele>
        <time>2011-07-07T16:21:16Z</time>
      </trkpt>
      <trkpt lat="45.26943" lon="1.45258">
        <ele>162</ele>
        <time>2011-07-07T16:21:17Z</time>
      </trkpt>
      <trkpt lat="45.26938" lon="1.45255">
        <ele>162</ele>
        <time>2011-07-07T16:21:18Z</time>
      </trkpt>
      <trkpt lat="45.26932" lon="1.45252">
        <ele>162</ele>
        <time>2011-07-07T16:21:19Z</time>
      </trkpt>
      <trkpt lat="45.26927" lon="1.45249">
        <ele>162</ele>
        <time>2011-07-07T16:21:20Z</time>
      </trkpt>
      <trkpt lat="45.26922" lon="1.45246">
        <ele>162</ele>
        <time>2011-07-07T16:21:21Z</time>
      </trkpt>
      <trkpt lat="45.26917" lon="1.45243">
        <ele>162</ele>
        <time>2011-07-07T16:21:22Z</time>
      </trkpt>
      <trkpt lat="45.26912" lon="1.4524">
        <ele>162</ele>
        <time>2011-07-07T16:21:23Z</time>
      </trkpt>
      <trkpt lat="45.26907" lon="1.45238">
        <ele>162</ele>
        <time>2011-07-07T16:21:24Z</time>
      </trkpt>
      <trkpt lat="45.26902" lon="1.45235">
        <ele>162</ele>
        <time>2011-07-07T16:21:25Z</time>
      </trkpt>
      <trkpt lat="45.26897" lon="1.45232">
        <ele>162</ele>
        <time>2011-07-07T16:21:26Z</time>
      </trkpt>
      <trkpt lat="45.26892" lon="1.45229">
        <ele>163</ele>
        <time>2011-07-07T16:21:27Z</time>
      </trkpt>
      <trkpt lat="45.26887" lon="1.45227">
        <ele>163</ele>
        <time>2011-07-07T16:21:28Z</time>
      </trkpt>
      <trkpt lat="45.26882" lon="1.45224">
        <ele>163</ele>
        <time>2011-07-07T16:21:29Z</time>
      </trkpt>
      <trkpt lat="45.26878" lon="1.45221">
        <ele>162</ele>
        <time>2011-07-07T16:21:30Z</time>
      </trkpt>
      <trkpt lat="45.26873" lon="1.45219">
        <ele>162</ele>
        <time>2011-07-07T16:21:31Z</time>
      </trkpt>
      <trkpt lat="45.26868" lon="1.45216">
        <ele>162</ele>
        <time>2011-07-07T16:21:32Z</time>
      </trkpt>
      <trkpt lat="45.26864" lon="1.45214">
        <ele>162</ele>
        <time>2011-07-07T16:21:33Z</time>
      </trkpt>
      <trkpt lat="45.26859" lon="1.45212">
        <ele>162</ele>
        <time>2011-07-07T16:21:34Z</time>
      </trkpt>
      <trkpt lat="45.26854" lon="1.45209">
        <ele>162</ele>
        <time>2011-07-07T16:21:35Z</time>
      </trkpt>
      <trkpt lat="45.2685" lon="1.45207">
        <ele>162</ele>
        <time>2011-07-07T16:21:36Z</time>
      </trkpt>
      <trkpt lat="45.26845" lon="1.45204">
        <ele>162</ele>
        <time>2011-07-07T16:21:37Z</time>
      </trkpt>
      <trkpt lat="45.2684" lon="1.45202">
        <ele>162</ele>
        <time>2011-07-07T16:21:38Z</time>
      </trkpt>
      <trkpt lat="45.26835" lon="1.45199">
        <ele>161</ele>
        <time>2011-07-07T16:21:39Z</time>
      </trkpt>
      <trkpt lat="45.26831" lon="1.45197">
        <ele>162</ele>
        <time>2011-07-07T16:21:40Z</time>
      </trkpt>
      <trkpt lat="45.26826" lon="1.45195">
        <ele>162</ele>
        <time>2011-07-07T16:21:41Z</time>
      </trkpt>
      <trkpt lat="45.26821" lon="1.45193">
        <ele>163</ele>
        <time>2011-07-07T16:21:42Z</time>
      </trkpt>
      <trkpt lat="45.26817" lon="1.45191">
        <ele>163</ele>
        <time>2011-07-07T16:21:43Z</time>
      </trkpt>
      <trkpt lat="45.26812" lon="1.4519">
        <ele>163</ele>
        <time>2011-07-07T16:21:44Z</time>
      </trkpt>
      <trkpt lat="45.26807" lon="1.45188">
        <ele>163</ele>
        <time>2011-07-07T16:21:45Z</time>
      </trkpt>
      <trkpt lat="45.26802" lon="1.45187">
        <ele>163</ele>
        <time>2011-07-07T16:21:46Z</time>
      </trkpt>
      <trkpt lat="45.26797" lon="1.45185">
        <ele>163</ele>
        <time>2011-07-07T16:21:47Z</time>
      </trkpt>
      <trkpt lat="45.26792" lon="1.45184">
        <ele>162</ele>
        <time>2011-07-07T16:21:48Z</time>
      </trkpt>
      <trkpt lat="45.26787" lon="1.45183">
        <ele>163</ele>
        <time>2011-07-07T16:21:49Z</time>
      </trkpt>
      <trkpt lat="45.26782" lon="1.45182">
        <ele>163</ele>
        <time>2011-07-07T16:21:50Z</time>
      </trkpt>
      <trkpt lat="45.26777" lon="1.45182">
        <ele>164</ele>
        <time>2011-07-07T16:21:51Z</time>
      </trkpt>
      <trkpt lat="45.26772" lon="1.45181">
        <ele>164</ele>
        <time>2011-07-07T16:21:52Z</time>
      </trkpt>
      <trkpt lat="45.26766" lon="1.4518">
        <ele>164</ele>
        <time>2011-07-07T16:21:53Z</time>
      </trkpt>
      <trkpt lat="45.26761" lon="1.4518">
        <ele>164</ele>
        <time>2011-07-07T16:21:54Z</time>
      </trkpt>
      <trkpt lat="45.26756" lon="1.45179">
        <ele>164</ele>
        <time>2011-07-07T16:21:55Z</time>
      </trkpt>
      <trkpt lat="45.26751" lon="1.45178">
        <ele>164</ele>
        <time>2011-07-07T16:21:56Z</time>
      </trkpt>
      <trkpt lat="45.26746" lon="1.45177">
        <ele>164</ele>
        <time>2011-07-07T16:21:57Z</time>
      </trkpt>
      <trkpt lat="45.26741" lon="1.45176">
        <ele>164</ele>
        <time>2011-07-07T16:21:58Z</time>
      </trkpt>
      <trkpt lat="45.26736" lon="1.45175">
        <ele>164</ele>
        <time>2011-07-07T16:21:59Z</time>
      </trkpt>
      <trkpt lat="45.26731" lon="1.45174">
        <ele>164</ele>
        <time>2011-07-07T16:22:00Z</time>
      </trkpt>
      <trkpt lat="45.26726" lon="1.45172">
        <ele>164</ele>
        <time>2011-07-07T16:22:01Z</time>
      </trkpt>
      <trkpt lat="45.26721" lon="1.4517">
        <ele>163</ele>
        <time>2011-07-07T16:22:02Z</time>
      </trkpt>
      <trkpt lat="45.26716" lon="1.45168">
        <ele>163</ele>
        <time>2011-07-07T16:22:03Z</time>
      </trkpt>
      <trkpt lat="45.26711" lon="1.45166">
        <ele>164</ele>
        <time>2011-07-07T16:22:04Z</time>
      </trkpt>
      <trkpt lat="45.26706" lon="1.45162">
        <ele>164</ele>
        <time>2011-07-07T16:22:05Z</time>
      </trkpt>
      <trkpt lat="45.26702" lon="1.45159">
        <ele>164</ele>
        <time>2011-07-07T16:22:06Z</time>
      </trkpt>
      <trkpt lat="45.26697" lon="1.45155">
        <ele>164</ele>
        <time>2011-07-07T16:22:07Z</time>
      </trkpt>
      <trkpt lat="45.26693" lon="1.45151">
        <ele>164</ele>
        <time>2011-07-07T16:22:08Z</time>
      </trkpt>
      <trkpt lat="45.26688" lon="1.45146">
        <ele>164</ele>
        <time>2011-07-07T16:22:09Z</time>
      </trkpt>
      <trkpt lat="45.26684" lon="1.45142">
        <ele>164</ele>
        <time>2011-07-07T16:22:10Z</time>
      </trkpt>
      <trkpt lat="45.2668" lon="1.45137">
        <ele>163</ele>
        <time>2011-07-07T16:22:11Z</time>
      </trkpt>
      <trkpt lat="45.26676" lon="1.45133">
        <ele>164</ele>
        <time>2011-07-07T16:22:12Z</time>
      </trkpt>
      <trkpt lat="45.26672" lon="1.45128">
        <ele>164</ele>
        <time>2011-07-07T16:22:13Z</time>
      </trkpt>
      <trkpt lat="45.26668" lon="1.45124">
        <ele>164</ele>
        <time>2011-07-07T16:22:14Z</time>
      </trkpt>
      <trkpt lat="45.26664" lon="1.4512">
        <ele>164</ele>
        <time>2011-07-07T16:22:15Z</time>
      </trkpt>
      <trkpt lat="45.2666" lon="1.45116">
        <ele>163</ele>
        <time>2011-07-07T16:22:16Z</time>
      </trkpt>
      <trkpt lat="45.26656" lon="1.45112">
        <ele>163</ele>
        <time>2011-07-07T16:22:17Z</time>
      </trkpt>
      <trkpt lat="45.26651" lon="1.45109">
        <ele>164</ele>
        <time>2011-07-07T16:22:18Z</time>
      </trkpt>
      <trkpt lat="45.26647" lon="1.45106">
        <ele>163</ele>
        <time>2011-07-07T16:22:19Z</time>
      </trkpt>
      <trkpt lat="45.26642" lon="1.45102">
        <ele>163</ele>
        <time>2011-07-07T16:22:20Z</time>
      </trkpt>
      <trkpt lat="45.26638" lon="1.45099">
        <ele>164</ele>
        <time>2011-07-07T16:22:21Z</time>
      </trkpt>
      <trkpt lat="45.26633" lon="1.45097">
        <ele>164</ele>
        <time>2011-07-07T16:22:22Z</time>
      </trkpt>
      <trkpt lat="45.26628" lon="1.45094">
        <ele>163</ele>
        <time>2011-07-07T16:22:23Z</time>
      </trkpt>
      <trkpt lat="45.26624" lon="1.45091">
        <ele>163</ele>
        <time>2011-07-07T16:22:24Z</time>
      </trkpt>
      <trkpt lat="45.26619" lon="1.45088">
        <ele>163</ele>
        <time>2011-07-07T16:22:25Z</time>
      </trkpt>
      <trkpt lat="45.26615" lon="1.45086">
        <ele>163</ele>
        <time>2011-07-07T16:22:26Z</time>
      </trkpt>
      <trkpt lat="45.2661" lon="1.45083">
        <ele>163</ele>
        <time>2011-07-07T16:22:27Z</time>
      </trkpt>
      <trkpt lat="45.26606" lon="1.4508">
        <ele>163</ele>
        <time>2011-07-07T16:22:28Z</time>
      </trkpt>
      <trkpt lat="45.26602" lon="1.45076">
        <ele>163</ele>
        <time>2011-07-07T16:22:29Z</time>
      </trkpt>
      <trkpt lat="45.26598" lon="1.45071">
        <ele>163</ele>
        <time>2011-07-07T16:22:30Z</time>
      </trkpt>
      <trkpt lat="45.26595" lon="1.45066">
        <ele>163</ele>
        <time>2011-07-07T16:22:31Z</time>
      </trkpt>
      <trkpt lat="45.26591" lon="1.45061">
        <ele>163</ele>
        <time>2011-07-07T16:22:32Z</time>
      </trkpt>
      <trkpt lat="45.26588" lon="1.45055">
        <ele>163</ele>
        <time>2011-07-07T16:22:33Z</time>
      </trkpt>
      <trkpt lat="45.26586" lon="1.4505">
        <ele>163</ele>
        <time>2011-07-07T16:22:34Z</time>
      </trkpt>
      <trkpt lat="45.26583" lon="1.45044">
        <ele>163</ele>
        <time>2011-07-07T16:22:35Z</time>
      </trkpt>
      <trkpt lat="45.2658" lon="1.45038">
        <ele>163</ele>
        <time>2011-07-07T16:22:36Z</time>
      </trkpt>
      <trkpt lat="45.26577" lon="1.45032">
        <ele>163</ele>
        <time>2011-07-07T16:22:37Z</time>
      </trkpt>
      <trkpt lat="45.26573" lon="1.45021">
        <ele>161</ele>
        <time>2011-07-07T16:22:39Z</time>
      </trkpt>
      <trkpt lat="45.26569" lon="1.45009">
        <ele>160</ele>
        <time>2011-07-07T16:22:41Z</time>
      </trkpt>
      <trkpt lat="45.26566" lon="1.45003">
        <ele>161</ele>
        <time>2011-07-07T16:22:42Z</time>
      </trkpt>
      <trkpt lat="45.26563" lon="1.44998">
        <ele>162</ele>
        <time>2011-07-07T16:22:43Z</time>
      </trkpt>
      <trkpt lat="45.2656" lon="1.44993">
        <ele>163</ele>
        <time>2011-07-07T16:22:44Z</time>
      </trkpt>
      <trkpt lat="45.26557" lon="1.44988">
        <ele>163</ele>
        <time>2011-07-07T16:22:45Z</time>
      </trkpt>
      <trkpt lat="45.2655" lon="1.44979">
        <ele>163</ele>
        <time>2011-07-07T16:22:47Z</time>
      </trkpt>
      <trkpt lat="45.26546" lon="1.44975">
        <ele>163</ele>
        <time>2011-07-07T16:22:48Z</time>
      </trkpt>
      <trkpt lat="45.26542" lon="1.44971">
        <ele>163</ele>
        <time>2011-07-07T16:22:49Z</time>
      </trkpt>
      <trkpt lat="45.26539" lon="1.44968">
        <ele>163</ele>
        <time>2011-07-07T16:22:50Z</time>
      </trkpt>
      <trkpt lat="45.26535" lon="1.44964">
        <ele>163</ele>
        <time>2011-07-07T16:22:51Z</time>
      </trkpt>
      <trkpt lat="45.26527" lon="1.44957">
        <ele>164</ele>
        <time>2011-07-07T16:22:53Z</time>
      </trkpt>
      <trkpt lat="45.26523" lon="1.44954">
        <ele>164</ele>
        <time>2011-07-07T16:22:54Z</time>
      </trkpt>
      <trkpt lat="45.26516" lon="1.44947">
        <ele>163</ele>
        <time>2011-07-07T16:22:56Z</time>
      </trkpt>
      <trkpt lat="45.26512" lon="1.44943">
        <ele>163</ele>
        <time>2011-07-07T16:22:57Z</time>
      </trkpt>
      <trkpt lat="45.26505" lon="1.44937">
        <ele>163</ele>
        <time>2011-07-07T16:22:59Z</time>
      </trkpt>
      <trkpt lat="45.26497" lon="1.44934">
        <ele>164</ele>
        <time>2011-07-07T16:23:01Z</time>
      </trkpt>
      <trkpt lat="45.26492" lon="1.44932">
        <ele>163</ele>
        <time>2011-07-07T16:23:02Z</time>
      </trkpt>
      <trkpt lat="45.26488" lon="1.44931">
        <ele>160</ele>
        <time>2011-07-07T16:23:03Z</time>
      </trkpt>
      <trkpt lat="45.26483" lon="1.4493">
        <ele>157</ele>
        <time>2011-07-07T16:23:04Z</time>
      </trkpt>
      <trkpt lat="45.26475" lon="1.4493">
        <ele>155</ele>
        <time>2011-07-07T16:23:06Z</time>
      </trkpt>
      <trkpt lat="45.26469" lon="1.44926">
        <ele>156</ele>
        <time>2011-07-07T16:23:08Z</time>
      </trkpt>
      <trkpt lat="45.26465" lon="1.4492">
        <ele>158</ele>
        <time>2011-07-07T16:23:10Z</time>
      </trkpt>
      <trkpt lat="45.26462" lon="1.44913">
        <ele>160</ele>
        <time>2011-07-07T16:23:13Z</time>
      </trkpt>
      <trkpt lat="45.2646" lon="1.44906">
        <ele>163</ele>
        <time>2011-07-07T16:23:16Z</time>
      </trkpt>
      <trkpt lat="45.26458" lon="1.44898">
        <ele>168</ele>
        <time>2011-07-07T16:23:20Z</time>
      </trkpt>
      <trkpt lat="45.26457" lon="1.44891">
        <ele>167</ele>
        <time>2011-07-07T16:23:23Z</time>
      </trkpt>
      <trkpt lat="45.26455" lon="1.44884">
        <ele>166</ele>
        <time>2011-07-07T16:23:26Z</time>
      </trkpt>
      <trkpt lat="45.26453" lon="1.44876">
        <ele>166</ele>
        <time>2011-07-07T16:23:29Z</time>
      </trkpt>
      <trkpt lat="45.26451" lon="1.44868">
        <ele>167</ele>
        <time>2011-07-07T16:23:32Z</time>
      </trkpt>
      <trkpt lat="45.26449" lon="1.44862">
        <ele>167</ele>
        <time>2011-07-07T16:23:34Z</time>
      </trkpt>
      <trkpt lat="45.26447" lon="1.44854">
        <ele>167</ele>
        <time>2011-07-07T16:23:36Z</time>
      </trkpt>
      <trkpt lat="45.26444" lon="1.44846">
        <ele>167</ele>
        <time>2011-07-07T16:23:38Z</time>
      </trkpt>
      <trkpt lat="45.26442" lon="1.44839">
        <ele>168</ele>
        <time>2011-07-07T16:23:40Z</time>
      </trkpt>
      <trkpt lat="45.26439" lon="1.44831">
        <ele>168</ele>
        <time>2011-07-07T16:23:42Z</time>
      </trkpt>
      <trkpt lat="45.26437" lon="1.44823">
        <ele>169</ele>
        <time>2011-07-07T16:23:44Z</time>
      </trkpt>
      <trkpt lat="45.26434" lon="1.44815">
        <ele>169</ele>
        <time>2011-07-07T16:23:46Z</time>
      </trkpt>
      <trkpt lat="45.26432" lon="1.44808">
        <ele>170</ele>
        <time>2011-07-07T16:23:48Z</time>
      </trkpt>
      <trkpt lat="45.2643" lon="1.44799">
        <ele>171</ele>
        <time>2011-07-07T16:23:50Z</time>
      </trkpt>
      <trkpt lat="45.26428" lon="1.44791">
        <ele>173</ele>
        <time>2011-07-07T16:23:52Z</time>
      </trkpt>
      <trkpt lat="45.26428" lon="1.44782">
        <ele>175</ele>
        <time>2011-07-07T16:23:54Z</time>
      </trkpt>
      <trkpt lat="45.26428" lon="1.44773">
        <ele>174</ele>
        <time>2011-07-07T16:23:56Z</time>
      </trkpt>
      <trkpt lat="45.26428" lon="1.44763">
        <ele>172</ele>
        <time>2011-07-07T16:23:58Z</time>
      </trkpt>
      <trkpt lat="45.26429" lon="1.44752">
        <ele>172</ele>
        <time>2011-07-07T16:24:00Z</time>
      </trkpt>
      <trkpt lat="45.2643" lon="1.44741">
        <ele>171</ele>
        <time>2011-07-07T16:24:02Z</time>
      </trkpt>
      <trkpt lat="45.26431" lon="1.44731">
        <ele>171</ele>
        <time>2011-07-07T16:24:04Z</time>
      </trkpt>
      <trkpt lat="45.26432" lon="1.44719">
        <ele>171</ele>
        <time>2011-07-07T16:24:06Z</time>
      </trkpt>
      <trkpt lat="45.26432" lon="1.44708">
        <ele>171</ele>
        <time>2011-07-07T16:24:08Z</time>
      </trkpt>
      <trkpt lat="45.26432" lon="1.44696">
        <ele>171</ele>
        <time>2011-07-07T16:24:10Z</time>
      </trkpt>
      <trkpt lat="45.26432" lon="1.44684">
        <ele>170</ele>
        <time>2011-07-07T16:24:12Z</time>
      </trkpt>
      <trkpt lat="45.26433" lon="1.44672">
        <ele>170</ele>
        <time>2011-07-07T16:24:14Z</time>
      </trkpt>
      <trkpt lat="45.26433" lon="1.4466">
        <ele>171</ele>
        <time>2011-07-07T16:24:16Z</time>
      </trkpt>
      <trkpt lat="45.26434" lon="1.44649">
        <ele>171</ele>
        <time>2011-07-07T16:24:18Z</time>
      </trkpt>
      <trkpt lat="45.26434" lon="1.44639">
        <ele>170</ele>
        <time>2011-07-07T16:24:20Z</time>
      </trkpt>
      <trkpt lat="45.26434" lon="1.44628">
        <ele>171</ele>
        <time>2011-07-07T16:24:22Z</time>
      </trkpt>
      <trkpt lat="45.26435" lon="1.44617">
        <ele>174</ele>
        <time>2011-07-07T16:24:24Z</time>
      </trkpt>
      <trkpt lat="45.26435" lon="1.44606">
        <ele>174</ele>
        <time>2011-07-07T16:24:26Z</time>
      </trkpt>
      <trkpt lat="45.26435" lon="1.44595">
        <ele>174</ele>
        <time>2011-07-07T16:24:28Z</time>
      </trkpt>
      <trkpt lat="45.26435" lon="1.44584">
        <ele>173</ele>
        <time>2011-07-07T16:24:30Z</time>
      </trkpt>
      <trkpt lat="45.26436" lon="1.44572">
        <ele>173</ele>
        <time>2011-07-07T16:24:32Z</time>
      </trkpt>
      <trkpt lat="45.26436" lon="1.44561">
        <ele>174</ele>
        <time>2011-07-07T16:24:34Z</time>
      </trkpt>
      <trkpt lat="45.26436" lon="1.4455">
        <ele>173</ele>
        <time>2011-07-07T16:24:36Z</time>
      </trkpt>
      <trkpt lat="45.26436" lon="1.44537">
        <ele>173</ele>
        <time>2011-07-07T16:24:38Z</time>
      </trkpt>
      <trkpt lat="45.26436" lon="1.44526">
        <ele>173</ele>
        <time>2011-07-07T16:24:40Z</time>
      </trkpt>
      <trkpt lat="45.26436" lon="1.44515">
        <ele>174</ele>
        <time>2011-07-07T16:24:42Z</time>
      </trkpt>
      <trkpt lat="45.26436" lon="1.44504">
        <ele>174</ele>
        <time>2011-07-07T16:24:44Z</time>
      </trkpt>
      <trkpt lat="45.26436" lon="1.44493">
        <ele>173</ele>
        <time>2011-07-07T16:24:46Z</time>
      </trkpt>
      <trkpt lat="45.26432" lon="1.44486">
        <ele>174</ele>
        <time>2011-07-07T16:24:48Z</time>
      </trkpt>
      <trkpt lat="45.26426" lon="1.44486">
        <ele>177</ele>
        <time>2011-07-07T16:24:50Z</time>
      </trkpt>
      <trkpt lat="45.26419" lon="1.44489">
        <ele>177</ele>
        <time>2011-07-07T16:24:52Z</time>
      </trkpt>
      <trkpt lat="45.26412" lon="1.44493">
        <ele>177</ele>
        <time>2011-07-07T16:24:54Z</time>
      </trkpt>
      <trkpt lat="45.26405" lon="1.44498">
        <ele>177</ele>
        <time>2011-07-07T16:24:56Z</time>
      </trkpt>
      <trkpt lat="45.26397" lon="1.44502">
        <ele>178</ele>
        <time>2011-07-07T16:24:58Z</time>
      </trkpt>
      <trkpt lat="45.2639" lon="1.44507">
        <ele>178</ele>
        <time>2011-07-07T16:25:00Z</time>
      </trkpt>
      <trkpt lat="45.26382" lon="1.44513">
        <ele>178</ele>
        <time>2011-07-07T16:25:02Z</time>
      </trkpt>
      <trkpt lat="45.26375" lon="1.44517">
        <ele>179</ele>
        <time>2011-07-07T16:25:04Z</time>
      </trkpt>
      <trkpt lat="45.26368" lon="1.44522">
        <ele>178</ele>
        <time>2011-07-07T16:25:06Z</time>
      </trkpt>
      <trkpt lat="45.26361" lon="1.44525">
        <ele>176</ele>
        <time>2011-07-07T16:25:08Z</time>
      </trkpt>
      <trkpt lat="45.26354" lon="1.44529">
        <ele>175</ele>
        <time>2011-07-07T16:25:10Z</time>
      </trkpt>
      <trkpt lat="45.26347" lon="1.44533">
        <ele>177</ele>
        <time>2011-07-07T16:25:12Z</time>
      </trkpt>
      <trkpt lat="45.26339" lon="1.44538">
        <ele>177</ele>
        <time>2011-07-07T16:25:14Z</time>
      </trkpt>
      <trkpt lat="45.26331" lon="1.44542">
        <ele>176</ele>
        <time>2011-07-07T16:25:16Z</time>
      </trkpt>
      <trkpt lat="45.26323" lon="1.44546">
        <ele>178</ele>
        <time>2011-07-07T16:25:18Z</time>
      </trkpt>
      <trkpt lat="45.26319" lon="1.44548">
        <ele>178</ele>
        <time>2011-07-07T16:25:19Z</time>
      </trkpt>
      <trkpt lat="45.2631" lon="1.44551">
        <ele>177</ele>
        <time>2011-07-07T16:25:21Z</time>
      </trkpt>
      <trkpt lat="45.26306" lon="1.44554">
        <ele>176</ele>
        <time>2011-07-07T16:25:22Z</time>
      </trkpt>
      <trkpt lat="45.26302" lon="1.44556">
        <ele>175</ele>
        <time>2011-07-07T16:25:23Z</time>
      </trkpt>
      <trkpt lat="45.26294" lon="1.4456">
        <ele>173</ele>
        <time>2011-07-07T16:25:25Z</time>
      </trkpt>
      <trkpt lat="45.26287" lon="1.44562">
        <ele>175</ele>
        <time>2011-07-07T16:25:27Z</time>
      </trkpt>
      <trkpt lat="45.2628" lon="1.44564">
        <ele>175</ele>
        <time>2011-07-07T16:25:29Z</time>
      </trkpt>
      <trkpt lat="45.26271" lon="1.44564">
        <ele>177</ele>
        <time>2011-07-07T16:25:31Z</time>
      </trkpt>
      <trkpt lat="45.26262" lon="1.44564">
        <ele>178</ele>
        <time>2011-07-07T16:25:33Z</time>
      </trkpt>
      <trkpt lat="45.26258" lon="1.44563">
        <ele>178</ele>
        <time>2011-07-07T16:25:34Z</time>
      </trkpt>
      <trkpt lat="45.26253" lon="1.44562">
        <ele>177</ele>
        <time>2011-07-07T16:25:35Z</time>
      </trkpt>
      <trkpt lat="45.26247" lon="1.44561">
        <ele>178</ele>
        <time>2011-07-07T16:25:36Z</time>
      </trkpt>
      <trkpt lat="45.26242" lon="1.44559">
        <ele>178</ele>
        <time>2011-07-07T16:25:37Z</time>
      </trkpt>
      <trkpt lat="45.26237" lon="1.44557">
        <ele>177</ele>
        <time>2011-07-07T16:25:38Z</time>
      </trkpt>
      <trkpt lat="45.26232" lon="1.44555">
        <ele>176</ele>
        <time>2011-07-07T16:25:39Z</time>
      </trkpt>
      <trkpt lat="45.26227" lon="1.44552">
        <ele>176</ele>
        <time>2011-07-07T16:25:40Z</time>
      </trkpt>
      <trkpt lat="45.26222" lon="1.4455">
        <ele>175</ele>
        <time>2011-07-07T16:25:41Z</time>
      </trkpt>
      <trkpt lat="45.26218" lon="1.44548">
        <ele>175</ele>
        <time>2011-07-07T16:25:42Z</time>
      </trkpt>
      <trkpt lat="45.26213" lon="1.44546">
        <ele>175</ele>
        <time>2011-07-07T16:25:43Z</time>
      </trkpt>
      <trkpt lat="45.26205" lon="1.44543">
        <ele>176</ele>
        <time>2011-07-07T16:25:45Z</time>
      </trkpt>
      <trkpt lat="45.262" lon="1.4454">
        <ele>176</ele>
        <time>2011-07-07T16:25:46Z</time>
      </trkpt>
      <trkpt lat="45.26196" lon="1.44538">
        <ele>176</ele>
        <time>2011-07-07T16:25:47Z</time>
      </trkpt>
      <trkpt lat="45.26191" lon="1.44536">
        <ele>176</ele>
        <time>2011-07-07T16:25:48Z</time>
      </trkpt>
      <trkpt lat="45.26186" lon="1.44535">
        <ele>176</ele>
        <time>2011-07-07T16:25:49Z</time>
      </trkpt>
      <trkpt lat="45.26181" lon="1.44533">
        <ele>176</ele>
        <time>2011-07-07T16:25:50Z</time>
      </trkpt>
      <trkpt lat="45.26177" lon="1.44532">
        <ele>175</ele>
        <time>2011-07-07T16:25:51Z</time>
      </trkpt>
      <trkpt lat="45.26168" lon="1.4453">
        <ele>176</ele>
        <time>2011-07-07T16:25:53Z</time>
      </trkpt>
      <trkpt lat="45.26159" lon="1.44529">
        <ele>175</ele>
        <time>2011-07-07T16:25:55Z</time>
      </trkpt>
      <trkpt lat="45.26154" lon="1.44529">
        <ele>176</ele>
        <time>2011-07-07T16:25:56Z</time>
      </trkpt>
      <trkpt lat="45.26146" lon="1.44529">
        <ele>177</ele>
        <time>2011-07-07T16:25:58Z</time>
      </trkpt>
      <trkpt lat="45.26137" lon="1.4453">
        <ele>177</ele>
        <time>2011-07-07T16:26:00Z</time>
      </trkpt>
      <trkpt lat="45.26128" lon="1.44531">
        <ele>177</ele>
        <time>2011-07-07T16:26:02Z</time>
      </trkpt>
      <trkpt lat="45.26123" lon="1.44532">
        <ele>176</ele>
        <time>2011-07-07T16:26:03Z</time>
      </trkpt>
      <trkpt lat="45.26118" lon="1.44533">
        <ele>176</ele>
        <time>2011-07-07T16:26:04Z</time>
      </trkpt>
      <trkpt lat="45.26114" lon="1.44533">
        <ele>176</ele>
        <time>2011-07-07T16:26:05Z</time>
      </trkpt>
      <trkpt lat="45.26109" lon="1.44534">
        <ele>175</ele>
        <time>2011-07-07T16:26:06Z</time>
      </trkpt>
      <trkpt lat="45.26104" lon="1.44534">
        <ele>175</ele>
        <time>2011-07-07T16:26:07Z</time>
      </trkpt>
      <trkpt lat="45.261" lon="1.44536">
        <ele>175</ele>
        <time>2011-07-07T16:26:08Z</time>
      </trkpt>
      <trkpt lat="45.26095" lon="1.44537">
        <ele>175</ele>
        <time>2011-07-07T16:26:09Z</time>
      </trkpt>
      <trkpt lat="45.2609" lon="1.44538">
        <ele>175</ele>
        <time>2011-07-07T16:26:10Z</time>
      </trkpt>
      <trkpt lat="45.26085" lon="1.44538">
        <ele>175</ele>
        <time>2011-07-07T16:26:11Z</time>
      </trkpt>
      <trkpt lat="45.2608" lon="1.4454">
        <ele>174</ele>
        <time>2011-07-07T16:26:12Z</time>
      </trkpt>
      <trkpt lat="45.26075" lon="1.44541">
        <ele>174</ele>
        <time>2011-07-07T16:26:13Z</time>
      </trkpt>
      <trkpt lat="45.2607" lon="1.44542">
        <ele>174</ele>
        <time>2011-07-07T16:26:14Z</time>
      </trkpt>
      <trkpt lat="45.26064" lon="1.44544">
        <ele>174</ele>
        <time>2011-07-07T16:26:15Z</time>
      </trkpt>
      <trkpt lat="45.26059" lon="1.44545">
        <ele>173</ele>
        <time>2011-07-07T16:26:16Z</time>
      </trkpt>
      <trkpt lat="45.26054" lon="1.44547">
        <ele>173</ele>
        <time>2011-07-07T16:26:17Z</time>
      </trkpt>
      <trkpt lat="45.26049" lon="1.44549">
        <ele>173</ele>
        <time>2011-07-07T16:26:18Z</time>
      </trkpt>
      <trkpt lat="45.26044" lon="1.44551">
        <ele>173</ele>
        <time>2011-07-07T16:26:19Z</time>
      </trkpt>
      <trkpt lat="45.2604" lon="1.44554">
        <ele>172</ele>
        <time>2011-07-07T16:26:20Z</time>
      </trkpt>
      <trkpt lat="45.26035" lon="1.44556">
        <ele>172</ele>
        <time>2011-07-07T16:26:21Z</time>
      </trkpt>
      <trkpt lat="45.2603" lon="1.44559">
        <ele>172</ele>
        <time>2011-07-07T16:26:22Z</time>
      </trkpt>
      <trkpt lat="45.26025" lon="1.44561">
        <ele>172</ele>
        <time>2011-07-07T16:26:23Z</time>
      </trkpt>
      <trkpt lat="45.26021" lon="1.44562">
        <ele>171</ele>
        <time>2011-07-07T16:26:24Z</time>
      </trkpt>
      <trkpt lat="45.26016" lon="1.44561">
        <ele>170</ele>
        <time>2011-07-07T16:26:25Z</time>
      </trkpt>
      <trkpt lat="45.26012" lon="1.44558">
        <ele>173</ele>
        <time>2011-07-07T16:26:26Z</time>
      </trkpt>
      <trkpt lat="45.26007" lon="1.44556">
        <ele>173</ele>
        <time>2011-07-07T16:26:27Z</time>
      </trkpt>
      <trkpt lat="45.25998" lon="1.44552">
        <ele>172</ele>
        <time>2011-07-07T16:26:29Z</time>
      </trkpt>
      <trkpt lat="45.25991" lon="1.44547">
        <ele>173</ele>
        <time>2011-07-07T16:26:31Z</time>
      </trkpt>
      <trkpt lat="45.25983" lon="1.4454">
        <ele>173</ele>
        <time>2011-07-07T16:26:33Z</time>
      </trkpt>
      <trkpt lat="45.25979" lon="1.44537">
        <ele>174</ele>
        <time>2011-07-07T16:26:34Z</time>
      </trkpt>
      <trkpt lat="45.25975" lon="1.44534">
        <ele>174</ele>
        <time>2011-07-07T16:26:35Z</time>
      </trkpt>
      <trkpt lat="45.25967" lon="1.44527">
        <ele>174</ele>
        <time>2011-07-07T16:26:37Z</time>
      </trkpt>
      <trkpt lat="45.2596" lon="1.4452">
        <ele>175</ele>
        <time>2011-07-07T16:26:39Z</time>
      </trkpt>
      <trkpt lat="45.25953" lon="1.44512">
        <ele>176</ele>
        <time>2011-07-07T16:26:41Z</time>
      </trkpt>
      <trkpt lat="45.25947" lon="1.44503">
        <ele>176</ele>
        <time>2011-07-07T16:26:43Z</time>
      </trkpt>
      <trkpt lat="45.2594" lon="1.44494">
        <ele>176</ele>
        <time>2011-07-07T16:26:45Z</time>
      </trkpt>
      <trkpt lat="45.25934" lon="1.44486">
        <ele>178</ele>
        <time>2011-07-07T16:26:47Z</time>
      </trkpt>
      <trkpt lat="45.25929" lon="1.44478">
        <ele>177</ele>
        <time>2011-07-07T16:26:49Z</time>
      </trkpt>
      <trkpt lat="45.25924" lon="1.4447">
        <ele>177</ele>
        <time>2011-07-07T16:26:51Z</time>
      </trkpt>
      <trkpt lat="45.25918" lon="1.44462">
        <ele>177</ele>
        <time>2011-07-07T16:26:53Z</time>
      </trkpt>
      <trkpt lat="45.25913" lon="1.44454">
        <ele>175</ele>
        <time>2011-07-07T16:26:55Z</time>
      </trkpt>
      <trkpt lat="45.25909" lon="1.44445">
        <ele>176</ele>
        <time>2011-07-07T16:26:57Z</time>
      </trkpt>
      <trkpt lat="45.25905" lon="1.44437">
        <ele>176</ele>
        <time>2011-07-07T16:26:59Z</time>
      </trkpt>
      <trkpt lat="45.259" lon="1.44429">
        <ele>177</ele>
        <time>2011-07-07T16:27:01Z</time>
      </trkpt>
      <trkpt lat="45.25896" lon="1.4442">
        <ele>178</ele>
        <time>2011-07-07T16:27:03Z</time>
      </trkpt>
      <trkpt lat="45.25892" lon="1.44412">
        <ele>178</ele>
        <time>2011-07-07T16:27:05Z</time>
      </trkpt>
      <trkpt lat="45.25888" lon="1.44403">
        <ele>177</ele>
        <time>2011-07-07T16:27:07Z</time>
      </trkpt>
      <trkpt lat="45.25884" lon="1.44394">
        <ele>178</ele>
        <time>2011-07-07T16:27:09Z</time>
      </trkpt>
      <trkpt lat="45.25879" lon="1.44387">
        <ele>179</ele>
        <time>2011-07-07T16:27:11Z</time>
      </trkpt>
      <trkpt lat="45.25872" lon="1.44383">
        <ele>180</ele>
        <time>2011-07-07T16:27:13Z</time>
      </trkpt>
      <trkpt lat="45.25868" lon="1.44386">
        <ele>181</ele>
        <time>2011-07-07T16:27:15Z</time>
      </trkpt>
      <trkpt lat="45.25862" lon="1.44394">
        <ele>181</ele>
        <time>2011-07-07T16:27:17Z</time>
      </trkpt>
      <trkpt lat="45.25855" lon="1.44402">
        <ele>180</ele>
        <time>2011-07-07T16:27:19Z</time>
      </trkpt>
      <trkpt lat="45.25851" lon="1.44408">
        <ele>182</ele>
        <time>2011-07-07T16:27:20Z</time>
      </trkpt>
      <trkpt lat="45.25848" lon="1.44414">
        <ele>181</ele>
        <time>2011-07-07T16:27:21Z</time>
      </trkpt>
      <trkpt lat="45.25843" lon="1.4442">
        <ele>181</ele>
        <time>2011-07-07T16:27:22Z</time>
      </trkpt>
      <trkpt lat="45.25838" lon="1.44426">
        <ele>180</ele>
        <time>2011-07-07T16:27:23Z</time>
      </trkpt>
      <trkpt lat="45.25833" lon="1.44432">
        <ele>180</ele>
        <time>2011-07-07T16:27:24Z</time>
      </trkpt>
      <trkpt lat="45.25828" lon="1.44439">
        <ele>179</ele>
        <time>2011-07-07T16:27:25Z</time>
      </trkpt>
      <trkpt lat="45.25822" lon="1.44444">
        <ele>177</ele>
        <time>2011-07-07T16:27:26Z</time>
      </trkpt>
      <trkpt lat="45.25816" lon="1.4445">
        <ele>176</ele>
        <time>2011-07-07T16:27:27Z</time>
      </trkpt>
      <trkpt lat="45.25809" lon="1.44453">
        <ele>176</ele>
        <time>2011-07-07T16:27:28Z</time>
      </trkpt>
      <trkpt lat="45.25802" lon="1.44456">
        <ele>176</ele>
        <time>2011-07-07T16:27:29Z</time>
      </trkpt>
      <trkpt lat="45.25794" lon="1.4446">
        <ele>176</ele>
        <time>2011-07-07T16:27:30Z</time>
      </trkpt>
      <trkpt lat="45.25786" lon="1.44463">
        <ele>175</ele>
        <time>2011-07-07T16:27:31Z</time>
      </trkpt>
      <trkpt lat="45.25778" lon="1.44468">
        <ele>175</ele>
        <time>2011-07-07T16:27:32Z</time>
      </trkpt>
      <trkpt lat="45.25771" lon="1.44474">
        <ele>178</ele>
        <time>2011-07-07T16:27:33Z</time>
      </trkpt>
      <trkpt lat="45.25767" lon="1.44478">
        <ele>177</ele>
        <time>2011-07-07T16:27:34Z</time>
      </trkpt>
      <trkpt lat="45.25762" lon="1.44483">
        <ele>178</ele>
        <time>2011-07-07T16:27:35Z</time>
      </trkpt>
      <trkpt lat="45.25758" lon="1.44489">
        <ele>178</ele>
        <time>2011-07-07T16:27:36Z</time>
      </trkpt>
      <trkpt lat="45.25754" lon="1.44495">
        <ele>178</ele>
        <time>2011-07-07T16:27:37Z</time>
      </trkpt>
      <trkpt lat="45.2575" lon="1.445">
        <ele>179</ele>
        <time>2011-07-07T16:27:38Z</time>
      </trkpt>
      <trkpt lat="45.25745" lon="1.44507">
        <ele>178</ele>
        <time>2011-07-07T16:27:39Z</time>
      </trkpt>
      <trkpt lat="45.25741" lon="1.44514">
        <ele>176</ele>
        <time>2011-07-07T16:27:40Z</time>
      </trkpt>
      <trkpt lat="45.25737" lon="1.44521">
        <ele>176</ele>
        <time>2011-07-07T16:27:41Z</time>
      </trkpt>
      <trkpt lat="45.25732" lon="1.44527">
        <ele>174</ele>
        <time>2011-07-07T16:27:42Z</time>
      </trkpt>
      <trkpt lat="45.25728" lon="1.44532">
        <ele>177</ele>
        <time>2011-07-07T16:27:43Z</time>
      </trkpt>
      <trkpt lat="45.25724" lon="1.44537">
        <ele>175</ele>
        <time>2011-07-07T16:27:44Z</time>
      </trkpt>
      <trkpt lat="45.2572" lon="1.44541">
        <ele>174</ele>
        <time>2011-07-07T16:27:45Z</time>
      </trkpt>
      <trkpt lat="45.25716" lon="1.44546">
        <ele>171</ele>
        <time>2011-07-07T16:27:46Z</time>
      </trkpt>
      <trkpt lat="45.25712" lon="1.44551">
        <ele>174</ele>
        <time>2011-07-07T16:27:47Z</time>
      </trkpt>
      <trkpt lat="45.25709" lon="1.44555">
        <ele>172</ele>
        <time>2011-07-07T16:27:48Z</time>
      </trkpt>
      <trkpt lat="45.25705" lon="1.4456">
        <ele>170</ele>
        <time>2011-07-07T16:27:49Z</time>
      </trkpt>
      <trkpt lat="45.25702" lon="1.44565">
        <ele>171</ele>
        <time>2011-07-07T16:27:50Z</time>
      </trkpt>
      <trkpt lat="45.25699" lon="1.4457">
        <ele>169</ele>
        <time>2011-07-07T16:27:51Z</time>
      </trkpt>
      <trkpt lat="45.25695" lon="1.44575">
        <ele>169</ele>
        <time>2011-07-07T16:27:51Z</time>
      </trkpt>
      <trkpt lat="45.25692" lon="1.4458">
        <ele>170</ele>
        <time>2011-07-07T16:27:53Z</time>
      </trkpt>
      <trkpt lat="45.25688" lon="1.44585">
        <ele>171</ele>
        <time>2011-07-07T16:27:54Z</time>
      </trkpt>
      <trkpt lat="45.25683" lon="1.44591">
        <ele>169</ele>
        <time>2011-07-07T16:27:55Z</time>
      </trkpt>
      <trkpt lat="45.25679" lon="1.44597">
        <ele>168</ele>
        <time>2011-07-07T16:27:56Z</time>
      </trkpt>
      <trkpt lat="45.25674" lon="1.44603">
        <ele>170</ele>
        <time>2011-07-07T16:27:57Z</time>
      </trkpt>
      <trkpt lat="45.25669" lon="1.44608">
        <ele>171</ele>
        <time>2011-07-07T16:27:58Z</time>
      </trkpt>
      <trkpt lat="45.25664" lon="1.44612">
        <ele>171</ele>
        <time>2011-07-07T16:27:59Z</time>
      </trkpt>
      <trkpt lat="45.2566" lon="1.44616">
        <ele>171</ele>
        <time>2011-07-07T16:28:00Z</time>
      </trkpt>
      <trkpt lat="45.25655" lon="1.4462">
        <ele>172</ele>
        <time>2011-07-07T16:28:01Z</time>
      </trkpt>
      <trkpt lat="45.2565" lon="1.44624">
        <ele>172</ele>
        <time>2011-07-07T16:28:02Z</time>
      </trkpt>
      <trkpt lat="45.25645" lon="1.44628">
        <ele>172</ele>
        <time>2011-07-07T16:28:03Z</time>
      </trkpt>
      <trkpt lat="45.25639" lon="1.44632">
        <ele>171</ele>
        <time>2011-07-07T16:28:04Z</time>
      </trkpt>
      <trkpt lat="45.25634" lon="1.44635">
        <ele>172</ele>
        <time>2011-07-07T16:28:05Z</time>
      </trkpt>
      <trkpt lat="45.25628" lon="1.44638">
        <ele>172</ele>
        <time>2011-07-07T16:28:06Z</time>
      </trkpt>
      <trkpt lat="45.25621" lon="1.44641">
        <ele>174</ele>
        <time>2011-07-07T16:28:07Z</time>
      </trkpt>
      <trkpt lat="45.25615" lon="1.44644">
        <ele>175</ele>
        <time>2011-07-07T16:28:08Z</time>
      </trkpt>
      <trkpt lat="45.25609" lon="1.44647">
        <ele>174</ele>
        <time>2011-07-07T16:28:09Z</time>
      </trkpt>
      <trkpt lat="45.25604" lon="1.4465">
        <ele>174</ele>
        <time>2011-07-07T16:28:10Z</time>
      </trkpt>
      <trkpt lat="45.25598" lon="1.44653">
        <ele>173</ele>
        <time>2011-07-07T16:28:11Z</time>
      </trkpt>
      <trkpt lat="45.25593" lon="1.44656">
        <ele>173</ele>
        <time>2011-07-07T16:28:12Z</time>
      </trkpt>
      <trkpt lat="45.25588" lon="1.44659">
        <ele>172</ele>
        <time>2011-07-07T16:28:13Z</time>
      </trkpt>
      <trkpt lat="45.25582" lon="1.44663">
        <ele>171</ele>
        <time>2011-07-07T16:28:14Z</time>
      </trkpt>
      <trkpt lat="45.25577" lon="1.44666">
        <ele>171</ele>
        <time>2011-07-07T16:28:15Z</time>
      </trkpt>
      <trkpt lat="45.25571" lon="1.4467">
        <ele>171</ele>
        <time>2011-07-07T16:28:16Z</time>
      </trkpt>
      <trkpt lat="45.25565" lon="1.44673">
        <ele>170</ele>
        <time>2011-07-07T16:28:17Z</time>
      </trkpt>
      <trkpt lat="45.25559" lon="1.44677">
        <ele>169</ele>
        <time>2011-07-07T16:28:18Z</time>
      </trkpt>
      <trkpt lat="45.25553" lon="1.4468">
        <ele>169</ele>
        <time>2011-07-07T16:28:19Z</time>
      </trkpt>
      <trkpt lat="45.25546" lon="1.44684">
        <ele>169</ele>
        <time>2011-07-07T16:28:20Z</time>
      </trkpt>
      <trkpt lat="45.25539" lon="1.44689">
        <ele>169</ele>
        <time>2011-07-07T16:28:21Z</time>
      </trkpt>
      <trkpt lat="45.25532" lon="1.44693">
        <ele>169</ele>
        <time>2011-07-07T16:28:22Z</time>
      </trkpt>
      <trkpt lat="45.25525" lon="1.44697">
        <ele>168</ele>
        <time>2011-07-07T16:28:23Z</time>
      </trkpt>
      <trkpt lat="45.25518" lon="1.44701">
        <ele>168</ele>
        <time>2011-07-07T16:28:24Z</time>
      </trkpt>
      <trkpt lat="45.2551" lon="1.44704">
        <ele>168</ele>
        <time>2011-07-07T16:28:25Z</time>
      </trkpt>
      <trkpt lat="45.25504" lon="1.44708">
        <ele>167</ele>
        <time>2011-07-07T16:28:26Z</time>
      </trkpt>
      <trkpt lat="45.25498" lon="1.44714">
        <ele>169</ele>
        <time>2011-07-07T16:28:27Z</time>
      </trkpt>
      <trkpt lat="45.25492" lon="1.4472">
        <ele>168</ele>
        <time>2011-07-07T16:28:28Z</time>
      </trkpt>
      <trkpt lat="45.25488" lon="1.44727">
        <ele>169</ele>
        <time>2011-07-07T16:28:29Z</time>
      </trkpt>
      <trkpt lat="45.25484" lon="1.44735">
        <ele>168</ele>
        <time>2011-07-07T16:28:30Z</time>
      </trkpt>
      <trkpt lat="45.25482" lon="1.44743">
        <ele>168</ele>
        <time>2011-07-07T16:28:31Z</time>
      </trkpt>
      <trkpt lat="45.25479" lon="1.44751">
        <ele>167</ele>
        <time>2011-07-07T16:28:32Z</time>
      </trkpt>
      <trkpt lat="45.25478" lon="1.44758">
        <ele>166</ele>
        <time>2011-07-07T16:28:33Z</time>
      </trkpt>
      <trkpt lat="45.25477" lon="1.44764">
        <ele>166</ele>
        <time>2011-07-07T16:28:34Z</time>
      </trkpt>
      <trkpt lat="45.25475" lon="1.44772">
        <ele>167</ele>
        <time>2011-07-07T16:28:35Z</time>
      </trkpt>
      <trkpt lat="45.25474" lon="1.4478">
        <ele>168</ele>
        <time>2011-07-07T16:28:36Z</time>
      </trkpt>
      <trkpt lat="45.25472" lon="1.44786">
        <ele>168</ele>
        <time>2011-07-07T16:28:37Z</time>
      </trkpt>
      <trkpt lat="45.25472" lon="1.44793">
        <ele>166</ele>
        <time>2011-07-07T16:28:38Z</time>
      </trkpt>
      <trkpt lat="45.25469" lon="1.448">
        <ele>166</ele>
        <time>2011-07-07T16:28:39Z</time>
      </trkpt>
      <trkpt lat="45.25467" lon="1.44807">
        <ele>162</ele>
        <time>2011-07-07T16:28:40Z</time>
      </trkpt>
      <trkpt lat="45.25465" lon="1.44814">
        <ele>161</ele>
        <time>2011-07-07T16:28:41Z</time>
      </trkpt>
      <trkpt lat="45.25459" lon="1.44822">
        <ele>163</ele>
        <time>2011-07-07T16:28:43Z</time>
      </trkpt>
      <trkpt lat="45.25452" lon="1.44819">
        <ele>166</ele>
        <time>2011-07-07T16:28:45Z</time>
      </trkpt>
      <trkpt lat="45.25447" lon="1.44816">
        <ele>168</ele>
        <time>2011-07-07T16:28:46Z</time>
      </trkpt>
      <trkpt lat="45.25441" lon="1.44811">
        <ele>164</ele>
        <time>2011-07-07T16:28:48Z</time>
      </trkpt>
      <trkpt lat="45.25435" lon="1.44806">
        <ele>165</ele>
        <time>2011-07-07T16:28:50Z</time>
      </trkpt>
      <trkpt lat="45.25429" lon="1.448">
        <ele>165</ele>
        <time>2011-07-07T16:28:52Z</time>
      </trkpt>
      <trkpt lat="45.25423" lon="1.44793">
        <ele>165</ele>
        <time>2011-07-07T16:28:54Z</time>
      </trkpt>
      <trkpt lat="45.25418" lon="1.44787">
        <ele>161</ele>
        <time>2011-07-07T16:28:56Z</time>
      </trkpt>
      <trkpt lat="45.25412" lon="1.44781">
        <ele>164</ele>
        <time>2011-07-07T16:28:58Z</time>
      </trkpt>
      <trkpt lat="45.25406" lon="1.44774">
        <ele>164</ele>
        <time>2011-07-07T16:29:00Z</time>
      </trkpt>
      <trkpt lat="45.25401" lon="1.44768">
        <ele>164</ele>
        <time>2011-07-07T16:29:02Z</time>
      </trkpt>
      <trkpt lat="45.25395" lon="1.44762">
        <ele>166</ele>
        <time>2011-07-07T16:29:04Z</time>
      </trkpt>
      <trkpt lat="45.25389" lon="1.44755">
        <ele>169</ele>
        <time>2011-07-07T16:29:06Z</time>
      </trkpt>
      <trkpt lat="45.25381" lon="1.44749">
        <ele>169</ele>
        <time>2011-07-07T16:29:08Z</time>
      </trkpt>
      <trkpt lat="45.25376" lon="1.44745">
        <ele>170</ele>
        <time>2011-07-07T16:29:10Z</time>
      </trkpt>
      <trkpt lat="45.2537" lon="1.44741">
        <ele>167</ele>
        <time>2011-07-07T16:29:12Z</time>
      </trkpt>
      <trkpt lat="45.25366" lon="1.44735">
        <ele>168</ele>
        <time>2011-07-07T16:29:14Z</time>
      </trkpt>
      <trkpt lat="45.25363" lon="1.4473">
        <ele>173</ele>
        <time>2011-07-07T16:29:17Z</time>
      </trkpt>
      <trkpt lat="45.25359" lon="1.44724">
        <ele>173</ele>
        <time>2011-07-07T16:29:20Z</time>
      </trkpt>
      <trkpt lat="45.2536" lon="1.44716">
        <ele>172</ele>
        <time>2011-07-07T16:29:23Z</time>
      </trkpt>
      <trkpt lat="45.2536" lon="1.44716">
        <ele>172</ele>
        <time>2011-07-07T16:29:23Z</time>
      </trkpt>
      <trkpt lat="45.2536" lon="1.44716">
        <ele>172</ele>
        <time>2011-07-07T16:29:25Z</time>
      </trkpt>
      <trkpt lat="45.25363" lon="1.44707">
        <ele>169</ele>
        <time>2011-07-07T16:29:27Z</time>
      </trkpt>
      <trkpt lat="45.25366" lon="1.44701">
        <ele>169</ele>
        <time>2011-07-07T16:29:29Z</time>
      </trkpt>
      <trkpt lat="45.2537" lon="1.44692">
        <ele>173</ele>
        <time>2011-07-07T16:29:32Z</time>
      </trkpt>
      <trkpt lat="45.25373" lon="1.44684">
        <ele>173</ele>
        <time>2011-07-07T16:29:34Z</time>
      </trkpt>
      <trkpt lat="45.25377" lon="1.44674">
        <ele>172</ele>
        <time>2011-07-07T16:29:37Z</time>
      </trkpt>
      <trkpt lat="45.25381" lon="1.44668">
        <ele>174</ele>
        <time>2011-07-07T16:29:39Z</time>
      </trkpt>
      <trkpt lat="45.25384" lon="1.44662">
        <ele>171</ele>
        <time>2011-07-07T16:29:41Z</time>
      </trkpt>
      <trkpt lat="45.25388" lon="1.44654">
        <ele>170</ele>
        <time>2011-07-07T16:29:43Z</time>
      </trkpt>
      <trkpt lat="45.25391" lon="1.44646">
        <ele>172</ele>
        <time>2011-07-07T16:29:45Z</time>
      </trkpt>
      <trkpt lat="45.25394" lon="1.4464">
        <ele>171</ele>
        <time>2011-07-07T16:29:47Z</time>
      </trkpt>
      <trkpt lat="45.25397" lon="1.44634">
        <ele>167</ele>
        <time>2011-07-07T16:29:49Z</time>
      </trkpt>
      <trkpt lat="45.254" lon="1.44628">
        <ele>168</ele>
        <time>2011-07-07T16:29:51Z</time>
      </trkpt>
      <trkpt lat="45.25401" lon="1.44621">
        <ele>170</ele>
        <time>2011-07-07T16:29:53Z</time>
      </trkpt>
      <trkpt lat="45.25403" lon="1.44614">
        <ele>169</ele>
        <time>2011-07-07T16:29:55Z</time>
      </trkpt>
      <trkpt lat="45.25406" lon="1.44608">
        <ele>169</ele>
        <time>2011-07-07T16:29:57Z</time>
      </trkpt>
      <trkpt lat="45.25408" lon="1.44602">
        <ele>172</ele>
        <time>2011-07-07T16:29:59Z</time>
      </trkpt>
      <trkpt lat="45.25412" lon="1.44595">
        <ele>174</ele>
        <time>2011-07-07T16:30:02Z</time>
      </trkpt>
      <trkpt lat="45.25414" lon="1.44588">
        <ele>178</ele>
        <time>2011-07-07T16:30:04Z</time>
      </trkpt>
      <trkpt lat="45.25416" lon="1.4458">
        <ele>175</ele>
        <time>2011-07-07T16:30:06Z</time>
      </trkpt>
      <trkpt lat="45.25418" lon="1.44572">
        <ele>175</ele>
        <time>2011-07-07T16:30:08Z</time>
      </trkpt>
      <trkpt lat="45.2542" lon="1.44564">
        <ele>175</ele>
        <time>2011-07-07T16:30:11Z</time>
      </trkpt>
      <trkpt lat="45.25422" lon="1.44557">
        <ele>177</ele>
        <time>2011-07-07T16:30:13Z</time>
      </trkpt>
      <trkpt lat="45.25425" lon="1.44549">
        <ele>179</ele>
        <time>2011-07-07T16:30:15Z</time>
      </trkpt>
      <trkpt lat="45.25427" lon="1.44542">
        <ele>179</ele>
        <time>2011-07-07T16:30:17Z</time>
      </trkpt>
      <trkpt lat="45.25428" lon="1.44536">
        <ele>178</ele>
        <time>2011-07-07T16:30:19Z</time>
      </trkpt>
      <trkpt lat="45.2543" lon="1.44528">
        <ele>179</ele>
        <time>2011-07-07T16:30:21Z</time>
      </trkpt>
      <trkpt lat="45.25431" lon="1.44522">
        <ele>177</ele>
        <time>2011-07-07T16:30:23Z</time>
      </trkpt>
      <trkpt lat="45.25432" lon="1.44515">
        <ele>179</ele>
        <time>2011-07-07T16:30:25Z</time>
      </trkpt>
      <trkpt lat="45.25433" lon="1.44506">
        <ele>177</ele>
        <time>2011-07-07T16:30:28Z</time>
      </trkpt>
      <trkpt lat="45.25434" lon="1.44499">
        <ele>179</ele>
        <time>2011-07-07T16:30:30Z</time>
      </trkpt>
      <trkpt lat="45.25434" lon="1.44492">
        <ele>179</ele>
        <time>2011-07-07T16:30:32Z</time>
      </trkpt>
      <trkpt lat="45.25434" lon="1.44485">
        <ele>178</ele>
        <time>2011-07-07T16:30:34Z</time>
      </trkpt>
      <trkpt lat="45.25435" lon="1.44478">
        <ele>178</ele>
        <time>2011-07-07T16:30:36Z</time>
      </trkpt>
      <trkpt lat="45.25435" lon="1.4447">
        <ele>179</ele>
        <time>2011-07-07T16:30:38Z</time>
      </trkpt>
      <trkpt lat="45.25435" lon="1.4446">
        <ele>181</ele>
        <time>2011-07-07T16:30:40Z</time>
      </trkpt>
      <trkpt lat="45.25434" lon="1.44453">
        <ele>180</ele>
        <time>2011-07-07T16:30:42Z</time>
      </trkpt>
      <trkpt lat="45.25434" lon="1.44444">
        <ele>179</ele>
        <time>2011-07-07T16:30:44Z</time>
      </trkpt>
      <trkpt lat="45.25434" lon="1.44436">
        <ele>180</ele>
        <time>2011-07-07T16:30:46Z</time>
      </trkpt>
      <trkpt lat="45.25434" lon="1.44425">
        <ele>181</ele>
        <time>2011-07-07T16:30:48Z</time>
      </trkpt>
      <trkpt lat="45.25435" lon="1.44414">
        <ele>181</ele>
        <time>2011-07-07T16:30:50Z</time>
      </trkpt>
      <trkpt lat="45.25434" lon="1.44405">
        <ele>183</ele>
        <time>2011-07-07T16:30:52Z</time>
      </trkpt>
      <trkpt lat="45.25432" lon="1.44397">
        <ele>185</ele>
        <time>2011-07-07T16:30:54Z</time>
      </trkpt>
      <trkpt lat="45.25432" lon="1.44388">
        <ele>186</ele>
        <time>2011-07-07T16:30:56Z</time>
      </trkpt>
      <trkpt lat="45.2543" lon="1.44379">
        <ele>188</ele>
        <time>2011-07-07T16:30:58Z</time>
      </trkpt>
      <trkpt lat="45.25429" lon="1.44372">
        <ele>192</ele>
        <time>2011-07-07T16:31:00Z</time>
      </trkpt>
      <trkpt lat="45.25427" lon="1.44365">
        <ele>190</ele>
        <time>2011-07-07T16:31:02Z</time>
      </trkpt>
      <trkpt lat="45.25426" lon="1.44357">
        <ele>186</ele>
        <time>2011-07-07T16:31:04Z</time>
      </trkpt>
      <trkpt lat="45.25425" lon="1.4435">
        <ele>185</ele>
        <time>2011-07-07T16:31:06Z</time>
      </trkpt>
      <trkpt lat="45.25424" lon="1.44343">
        <ele>190</ele>
        <time>2011-07-07T16:31:08Z</time>
      </trkpt>
      <trkpt lat="45.25423" lon="1.44335">
        <ele>189</ele>
        <time>2011-07-07T16:31:10Z</time>
      </trkpt>
      <trkpt lat="45.25422" lon="1.44329">
        <ele>188</ele>
        <time>2011-07-07T16:31:12Z</time>
      </trkpt>
      <trkpt lat="45.25421" lon="1.44321">
        <ele>188</ele>
        <time>2011-07-07T16:31:14Z</time>
      </trkpt>
      <trkpt lat="45.25421" lon="1.44314">
        <ele>187</ele>
        <time>2011-07-07T16:31:16Z</time>
      </trkpt>
      <trkpt lat="45.2542" lon="1.44307">
        <ele>189</ele>
        <time>2011-07-07T16:31:18Z</time>
      </trkpt>
      <trkpt lat="45.2542" lon="1.44307">
        <ele>189</ele>
        <time>2011-07-07T16:31:18Z</time>
      </trkpt>
      <trkpt lat="45.2542" lon="1.44307">
        <ele>189</ele>
        <time>2011-07-07T16:31:20Z</time>
      </trkpt>
      <trkpt lat="45.25414" lon="1.44309">
        <ele>190</ele>
        <time>2011-07-07T16:31:23Z</time>
      </trkpt>
      <trkpt lat="45.25414" lon="1.44309">
        <ele>190</ele>
        <time>2011-07-07T16:31:23Z</time>
      </trkpt>
      <trkpt lat="45.25414" lon="1.44309">
        <ele>190</ele>
        <time>2011-07-07T16:31:24Z</time>
      </trkpt>
      <trkpt lat="45.25408" lon="1.4431">
        <ele>191</ele>
        <time>2011-07-07T16:31:25Z</time>
      </trkpt>
      <trkpt lat="45.25401" lon="1.44312">
        <ele>192</ele>
        <time>2011-07-07T16:31:27Z</time>
      </trkpt>
      <trkpt lat="45.25395" lon="1.44313">
        <ele>191</ele>
        <time>2011-07-07T16:31:30Z</time>
      </trkpt>
      <trkpt lat="45.25395" lon="1.44313">
        <ele>191</ele>
        <time>2011-07-07T16:31:30Z</time>
      </trkpt>
      <trkpt lat="45.25395" lon="1.44313">
        <ele>191</ele>
        <time>2011-07-07T16:31:38Z</time>
      </trkpt>
      <trkpt lat="45.25387" lon="1.44318">
        <ele>191</ele>
        <time>2011-07-07T16:31:39Z</time>
      </trkpt>
      <trkpt lat="45.25387" lon="1.44318">
        <ele>191</ele>
        <time>2011-07-07T16:31:39Z</time>
      </trkpt>
      <trkpt lat="45.25387" lon="1.44318">
        <ele>191</ele>
        <time>2011-07-07T16:31:40Z</time>
      </trkpt>
      <trkpt lat="45.25382" lon="1.44322">
        <ele>192</ele>
        <time>2011-07-07T16:31:41Z</time>
      </trkpt>
      <trkpt lat="45.25382" lon="1.44322">
        <ele>192</ele>
        <time>2011-07-07T16:31:41Z</time>
      </trkpt>
      <trkpt lat="45.25382" lon="1.44322">
        <ele>192</ele>
        <time>2011-07-07T16:31:42Z</time>
      </trkpt>
      <trkpt lat="45.25377" lon="1.44325">
        <ele>184</ele>
        <time>2011-07-07T16:31:43Z</time>
      </trkpt>
      <trkpt lat="45.25377" lon="1.44325">
        <ele>184</ele>
        <time>2011-07-07T16:31:43Z</time>
      </trkpt>
      <trkpt lat="45.25377" lon="1.44325">
        <ele>184</ele>
        <time>2011-07-07T16:31:44Z</time>
      </trkpt>
      <trkpt lat="45.25366" lon="1.44337">
        <ele>186</ele>
        <time>2011-07-07T16:31:52Z</time>
      </trkpt>
      <trkpt lat="45.25366" lon="1.44337">
        <ele>186</ele>
        <time>2011-07-07T16:31:52Z</time>
      </trkpt>
      <trkpt lat="45.25366" lon="1.44337">
        <ele>186</ele>
        <time>2011-07-07T16:31:58Z</time>
      </trkpt>
      <trkpt lat="45.25362" lon="1.44342">
        <ele>187</ele>
        <time>2011-07-07T16:31:59Z</time>
      </trkpt>
      <trkpt lat="45.25354" lon="1.44344">
        <ele>186</ele>
        <time>2011-07-07T16:32:02Z</time>
      </trkpt>
      <trkpt lat="45.25354" lon="1.44344">
        <ele>186</ele>
        <time>2011-07-07T16:32:02Z</time>
      </trkpt>
      <trkpt lat="45.25354" lon="1.44344">
        <ele>186</ele>
        <time>2011-07-07T16:32:03Z</time>
      </trkpt>
      <trkpt lat="45.25349" lon="1.44342">
        <ele>188</ele>
        <time>2011-07-07T16:32:04Z</time>
      </trkpt>
      <trkpt lat="45.25341" lon="1.44341">
        <ele>189</ele>
        <time>2011-07-07T16:32:08Z</time>
      </trkpt>
      <trkpt lat="45.25334" lon="1.44343">
        <ele>191</ele>
        <time>2011-07-07T16:32:10Z</time>
      </trkpt>
      <trkpt lat="45.25334" lon="1.44343">
        <ele>191</ele>
        <time>2011-07-07T16:32:10Z</time>
      </trkpt>
      <trkpt lat="45.25334" lon="1.44343">
        <ele>191</ele>
        <time>2011-07-07T16:32:13Z</time>
      </trkpt>
      <trkpt lat="45.25328" lon="1.44347">
        <ele>182</ele>
        <time>2011-07-07T16:32:14Z</time>
      </trkpt>
      <trkpt lat="45.25328" lon="1.44347">
        <ele>182</ele>
        <time>2011-07-07T16:32:14Z</time>
      </trkpt>
      <trkpt lat="45.25328" lon="1.44347">
        <ele>182</ele>
        <time>2011-07-07T16:32:15Z</time>
      </trkpt>
      <trkpt lat="45.25322" lon="1.44342">
        <ele>186</ele>
        <time>2011-07-07T16:32:22Z</time>
      </trkpt>
      <trkpt lat="45.25317" lon="1.44324">
        <ele>193</ele>
        <time>2011-07-07T16:32:34Z</time>
      </trkpt>
      <trkpt lat="45.25317" lon="1.44324">
        <ele>193</ele>
        <time>2011-07-07T16:32:34Z</time>
      </trkpt>
      <trkpt lat="45.25317" lon="1.44324">
        <ele>193</ele>
        <time>2011-07-07T16:32:36Z</time>
      </trkpt>
      <trkpt lat="45.25314" lon="1.44316">
        <ele>189</ele>
        <time>2011-07-07T16:32:37Z</time>
      </trkpt>
      <trkpt lat="45.25306" lon="1.44307">
        <ele>193</ele>
        <time>2011-07-07T16:32:43Z</time>
      </trkpt>
      <trkpt lat="45.25306" lon="1.44307">
        <ele>193</ele>
        <time>2011-07-07T16:32:43Z</time>
      </trkpt>
      <trkpt lat="45.25306" lon="1.44307">
        <ele>193</ele>
        <time>2011-07-07T16:32:48Z</time>
      </trkpt>
      <trkpt lat="45.253" lon="1.44298">
        <ele>201</ele>
        <time>2011-07-07T16:32:49Z</time>
      </trkpt>
      <trkpt lat="45.253" lon="1.44298">
        <ele>201</ele>
        <time>2011-07-07T16:32:49Z</time>
      </trkpt>
      <trkpt lat="45.253" lon="1.44298">
        <ele>201</ele>
        <time>2011-07-07T16:33:01Z</time>
      </trkpt>
      <trkpt lat="45.25296" lon="1.44282">
        <ele>204</ele>
        <time>2011-07-07T16:33:02Z</time>
      </trkpt>
      <trkpt lat="45.25296" lon="1.44282">
        <ele>204</ele>
        <time>2011-07-07T16:33:02Z</time>
      </trkpt>
      <trkpt lat="45.25296" lon="1.44282">
        <ele>204</ele>
        <time>2011-07-07T16:33:08Z</time>
      </trkpt>
      <trkpt lat="45.25293" lon="1.4427">
        <ele>198</ele>
        <time>2011-07-07T16:33:09Z</time>
      </trkpt>
      <trkpt lat="45.25293" lon="1.4427">
        <ele>198</ele>
        <time>2011-07-07T16:33:09Z</time>
      </trkpt>
      <trkpt lat="45.25293" lon="1.4427">
        <ele>198</ele>
        <time>2011-07-07T16:33:18Z</time>
      </trkpt>
      <trkpt lat="45.25297" lon="1.44256">
        <ele>205</ele>
        <time>2011-07-07T16:33:19Z</time>
      </trkpt>
      <trkpt lat="45.25297" lon="1.44256">
        <ele>205</ele>
        <time>2011-07-07T16:33:19Z</time>
      </trkpt>
      <trkpt lat="45.25297" lon="1.44256">
        <ele>205</ele>
        <time>2011-07-07T16:33:24Z</time>
      </trkpt>
      <trkpt lat="45.25298" lon="1.44238">
        <ele>199</ele>
        <time>2011-07-07T16:33:25Z</time>
      </trkpt>
      <trkpt lat="45.25298" lon="1.44238">
        <ele>199</ele>
        <time>2011-07-07T16:33:25Z</time>
      </trkpt>
      <trkpt lat="45.25298" lon="1.44238">
        <ele>199</ele>
        <time>2011-07-07T16:33:26Z</time>
      </trkpt>
      <trkpt lat="45.253" lon="1.44225">
        <ele>205</ele>
        <time>2011-07-07T16:33:27Z</time>
      </trkpt>
      <trkpt lat="45.25303" lon="1.44211">
        <ele>206</ele>
        <time>2011-07-07T16:33:29Z</time>
      </trkpt>
      <trkpt lat="45.25304" lon="1.44202">
        <ele>206</ele>
        <time>2011-07-07T16:33:31Z</time>
      </trkpt>
      <trkpt lat="45.25302" lon="1.44193">
        <ele>208</ele>
        <time>2011-07-07T16:33:33Z</time>
      </trkpt>
      <trkpt lat="45.253" lon="1.44187">
        <ele>209</ele>
        <time>2011-07-07T16:33:35Z</time>
      </trkpt>
      <trkpt lat="45.25298" lon="1.44179">
        <ele>207</ele>
        <time>2011-07-07T16:33:38Z</time>
      </trkpt>
      <trkpt lat="45.25295" lon="1.44172">
        <ele>203</ele>
        <time>2011-07-07T16:33:41Z</time>
      </trkpt>
      <trkpt lat="45.25292" lon="1.44167">
        <ele>200</ele>
        <time>2011-07-07T16:33:45Z</time>
      </trkpt>
      <trkpt lat="45.25288" lon="1.44161">
        <ele>207</ele>
        <time>2011-07-07T16:33:52Z</time>
      </trkpt>
      <trkpt lat="45.25285" lon="1.44154">
        <ele>209</ele>
        <time>2011-07-07T16:33:59Z</time>
      </trkpt>
      <trkpt lat="45.25281" lon="1.44147">
        <ele>211</ele>
        <time>2011-07-07T16:34:03Z</time>
      </trkpt>
      <trkpt lat="45.25276" lon="1.44141">
        <ele>210</ele>
        <time>2011-07-07T16:34:06Z</time>
      </trkpt>
      <trkpt lat="45.25272" lon="1.44137">
        <ele>209</ele>
        <time>2011-07-07T16:34:09Z</time>
      </trkpt>
      <trkpt lat="45.25266" lon="1.44134">
        <ele>210</ele>
        <time>2011-07-07T16:34:12Z</time>
      </trkpt>
      <trkpt lat="45.25262" lon="1.44129">
        <ele>208</ele>
        <time>2011-07-07T16:34:15Z</time>
      </trkpt>
      <trkpt lat="45.25252" lon="1.44111">
        <ele>212</ele>
        <time>2011-07-07T16:34:25Z</time>
      </trkpt>
      <trkpt lat="45.25249" lon="1.44105">
        <ele>208</ele>
        <time>2011-07-07T16:34:29Z</time>
      </trkpt>
      <trkpt lat="45.25247" lon="1.44099">
        <ele>211</ele>
        <time>2011-07-07T16:34:34Z</time>
      </trkpt>
      <trkpt lat="45.25243" lon="1.44094">
        <ele>213</ele>
        <time>2011-07-07T16:34:37Z</time>
      </trkpt>
      <trkpt lat="45.25239" lon="1.4409">
        <ele>214</ele>
        <time>2011-07-07T16:34:40Z</time>
      </trkpt>
      <trkpt lat="45.25236" lon="1.44083">
        <ele>214</ele>
        <time>2011-07-07T16:34:44Z</time>
      </trkpt>
      <trkpt lat="45.25232" lon="1.44076">
        <ele>215</ele>
        <time>2011-07-07T16:34:48Z</time>
      </trkpt>
      <trkpt lat="45.25229" lon="1.44071">
        <ele>216</ele>
        <time>2011-07-07T16:34:51Z</time>
      </trkpt>
      <trkpt lat="45.25224" lon="1.44066">
        <ele>217</ele>
        <time>2011-07-07T16:34:54Z</time>
      </trkpt>
      <trkpt lat="45.25221" lon="1.44061">
        <ele>217</ele>
        <time>2011-07-07T16:34:57Z</time>
      </trkpt>
      <trkpt lat="45.25217" lon="1.44055">
        <ele>217</ele>
        <time>2011-07-07T16:35:01Z</time>
      </trkpt>
      <trkpt lat="45.25214" lon="1.4405">
        <ele>215</ele>
        <time>2011-07-07T16:35:05Z</time>
      </trkpt>
      <trkpt lat="45.25209" lon="1.44047">
        <ele>212</ele>
        <time>2011-07-07T16:35:07Z</time>
      </trkpt>
      <trkpt lat="45.25204" lon="1.44045">
        <ele>215</ele>
        <time>2011-07-07T16:35:11Z</time>
      </trkpt>
      <trkpt lat="45.25201" lon="1.44038">
        <ele>220</ele>
        <time>2011-07-07T16:35:17Z</time>
      </trkpt>
      <trkpt lat="45.25198" lon="1.44032">
        <ele>222</ele>
        <time>2011-07-07T16:35:21Z</time>
      </trkpt>
      <trkpt lat="45.25195" lon="1.44027">
        <ele>223</ele>
        <time>2011-07-07T16:35:24Z</time>
      </trkpt>
      <trkpt lat="45.2519" lon="1.44021">
        <ele>230</ele>
        <time>2011-07-07T16:35:29Z</time>
      </trkpt>
      <trkpt lat="45.25186" lon="1.44017">
        <ele>228</ele>
        <time>2011-07-07T16:35:33Z</time>
      </trkpt>
      <trkpt lat="45.25179" lon="1.44016">
        <ele>217</ele>
        <time>2011-07-07T16:35:37Z</time>
      </trkpt>
      <trkpt lat="45.25174" lon="1.44018">
        <ele>217</ele>
        <time>2011-07-07T16:35:40Z</time>
      </trkpt>
      <trkpt lat="45.25169" lon="1.4402">
        <ele>220</ele>
        <time>2011-07-07T16:35:44Z</time>
      </trkpt>
      <trkpt lat="45.25164" lon="1.4402">
        <ele>219</ele>
        <time>2011-07-07T16:35:49Z</time>
      </trkpt>
      <trkpt lat="45.2516" lon="1.44024">
        <ele>215</ele>
        <time>2011-07-07T16:35:54Z</time>
      </trkpt>
      <trkpt lat="45.25154" lon="1.44023">
        <ele>216</ele>
        <time>2011-07-07T16:35:58Z</time>
      </trkpt>
      <trkpt lat="45.2515" lon="1.44018">
        <ele>223</ele>
        <time>2011-07-07T16:36:03Z</time>
      </trkpt>
      <trkpt lat="45.25147" lon="1.44013">
        <ele>227</ele>
        <time>2011-07-07T16:36:06Z</time>
      </trkpt>
      <trkpt lat="45.25143" lon="1.44007">
        <ele>228</ele>
        <time>2011-07-07T16:36:09Z</time>
      </trkpt>
      <trkpt lat="45.25139" lon="1.44001">
        <ele>230</ele>
        <time>2011-07-07T16:36:12Z</time>
      </trkpt>
      <trkpt lat="45.25135" lon="1.43995">
        <ele>231</ele>
        <time>2011-07-07T16:36:15Z</time>
      </trkpt>
      <trkpt lat="45.25132" lon="1.43988">
        <ele>233</ele>
        <time>2011-07-07T16:36:18Z</time>
      </trkpt>
      <trkpt lat="45.25128" lon="1.43982">
        <ele>232</ele>
        <time>2011-07-07T16:36:21Z</time>
      </trkpt>
      <trkpt lat="45.25126" lon="1.43975">
        <ele>229</ele>
        <time>2011-07-07T16:36:24Z</time>
      </trkpt>
      <trkpt lat="45.25124" lon="1.43968">
        <ele>230</ele>
        <time>2011-07-07T16:36:27Z</time>
      </trkpt>
      <trkpt lat="45.25125" lon="1.4396">
        <ele>231</ele>
        <time>2011-07-07T16:36:30Z</time>
      </trkpt>
      <trkpt lat="45.25129" lon="1.43954">
        <ele>235</ele>
        <time>2011-07-07T16:36:33Z</time>
      </trkpt>
      <trkpt lat="45.25132" lon="1.43947">
        <ele>236</ele>
        <time>2011-07-07T16:36:35Z</time>
      </trkpt>
      <trkpt lat="45.25133" lon="1.43938">
        <ele>234</ele>
        <time>2011-07-07T16:36:38Z</time>
      </trkpt>
      <trkpt lat="45.25133" lon="1.43931">
        <ele>234</ele>
        <time>2011-07-07T16:36:40Z</time>
      </trkpt>
      <trkpt lat="45.25133" lon="1.43924">
        <ele>231</ele>
        <time>2011-07-07T16:36:42Z</time>
      </trkpt>
      <trkpt lat="45.25132" lon="1.43916">
        <ele>229</ele>
        <time>2011-07-07T16:36:44Z</time>
      </trkpt>
      <trkpt lat="45.25132" lon="1.43908">
        <ele>229</ele>
        <time>2011-07-07T16:36:46Z</time>
      </trkpt>
      <trkpt lat="45.25132" lon="1.439">
        <ele>229</ele>
        <time>2011-07-07T16:36:48Z</time>
      </trkpt>
      <trkpt lat="45.25131" lon="1.43892">
        <ele>228</ele>
        <time>2011-07-07T16:36:50Z</time>
      </trkpt>
      <trkpt lat="45.2513" lon="1.43883">
        <ele>231</ele>
        <time>2011-07-07T16:36:52Z</time>
      </trkpt>
      <trkpt lat="45.25128" lon="1.43876">
        <ele>232</ele>
        <time>2011-07-07T16:36:54Z</time>
      </trkpt>
      <trkpt lat="45.25127" lon="1.43869">
        <ele>234</ele>
        <time>2011-07-07T16:36:56Z</time>
      </trkpt>
      <trkpt lat="45.25126" lon="1.43862">
        <ele>235</ele>
        <time>2011-07-07T16:36:58Z</time>
      </trkpt>
      <trkpt lat="45.25126" lon="1.43855">
        <ele>235</ele>
        <time>2011-07-07T16:37:00Z</time>
      </trkpt>
      <trkpt lat="45.25125" lon="1.43847">
        <ele>234</ele>
        <time>2011-07-07T16:37:02Z</time>
      </trkpt>
      <trkpt lat="45.25124" lon="1.4384">
        <ele>232</ele>
        <time>2011-07-07T16:37:04Z</time>
      </trkpt>
      <trkpt lat="45.25124" lon="1.43833">
        <ele>231</ele>
        <time>2011-07-07T16:37:06Z</time>
      </trkpt>
      <trkpt lat="45.25124" lon="1.43824">
        <ele>231</ele>
        <time>2011-07-07T16:37:08Z</time>
      </trkpt>
      <trkpt lat="45.25123" lon="1.43815">
        <ele>232</ele>
        <time>2011-07-07T16:37:10Z</time>
      </trkpt>
      <trkpt lat="45.25123" lon="1.43804">
        <ele>233</ele>
        <time>2011-07-07T16:37:12Z</time>
      </trkpt>
      <trkpt lat="45.25124" lon="1.43795">
        <ele>235</ele>
        <time>2011-07-07T16:37:14Z</time>
      </trkpt>
      <trkpt lat="45.25125" lon="1.43786">
        <ele>238</ele>
        <time>2011-07-07T16:37:16Z</time>
      </trkpt>
      <trkpt lat="45.25125" lon="1.43776">
        <ele>238</ele>
        <time>2011-07-07T16:37:18Z</time>
      </trkpt>
      <trkpt lat="45.25127" lon="1.43767">
        <ele>239</ele>
        <time>2011-07-07T16:37:20Z</time>
      </trkpt>
      <trkpt lat="45.2513" lon="1.43758">
        <ele>238</ele>
        <time>2011-07-07T16:37:22Z</time>
      </trkpt>
      <trkpt lat="45.25134" lon="1.43748">
        <ele>239</ele>
        <time>2011-07-07T16:37:24Z</time>
      </trkpt>
      <trkpt lat="45.2514" lon="1.43741">
        <ele>241</ele>
        <time>2011-07-07T16:37:26Z</time>
      </trkpt>
      <trkpt lat="45.25146" lon="1.43734">
        <ele>245</ele>
        <time>2011-07-07T16:37:28Z</time>
      </trkpt>
      <trkpt lat="45.25152" lon="1.43726">
        <ele>246</ele>
        <time>2011-07-07T16:37:30Z</time>
      </trkpt>
      <trkpt lat="45.25154" lon="1.43717">
        <ele>248</ele>
        <time>2011-07-07T16:37:32Z</time>
      </trkpt>
      <trkpt lat="45.25156" lon="1.43709">
        <ele>249</ele>
        <time>2011-07-07T16:37:34Z</time>
      </trkpt>
      <trkpt lat="45.25159" lon="1.43698">
        <ele>248</ele>
        <time>2011-07-07T16:37:36Z</time>
      </trkpt>
      <trkpt lat="45.25162" lon="1.43693">
        <ele>248</ele>
        <time>2011-07-07T16:37:37Z</time>
      </trkpt>
      <trkpt lat="45.25165" lon="1.43682">
        <ele>247</ele>
        <time>2011-07-07T16:37:39Z</time>
      </trkpt>
      <trkpt lat="45.25168" lon="1.43673">
        <ele>247</ele>
        <time>2011-07-07T16:37:41Z</time>
      </trkpt>
      <trkpt lat="45.25172" lon="1.43664">
        <ele>244</ele>
        <time>2011-07-07T16:37:43Z</time>
      </trkpt>
      <trkpt lat="45.25176" lon="1.43657">
        <ele>245</ele>
        <time>2011-07-07T16:37:45Z</time>
      </trkpt>
      <trkpt lat="45.25181" lon="1.43649">
        <ele>243</ele>
        <time>2011-07-07T16:37:47Z</time>
      </trkpt>
      <trkpt lat="45.25184" lon="1.43642">
        <ele>244</ele>
        <time>2011-07-07T16:37:49Z</time>
      </trkpt>
      <trkpt lat="45.25187" lon="1.43635">
        <ele>244</ele>
        <time>2011-07-07T16:37:51Z</time>
      </trkpt>
      <trkpt lat="45.25189" lon="1.43626">
        <ele>245</ele>
        <time>2011-07-07T16:37:53Z</time>
      </trkpt>
      <trkpt lat="45.25194" lon="1.4362">
        <ele>243</ele>
        <time>2011-07-07T16:37:55Z</time>
      </trkpt>
      <trkpt lat="45.25198" lon="1.43614">
        <ele>249</ele>
        <time>2011-07-07T16:37:57Z</time>
      </trkpt>
      <trkpt lat="45.25203" lon="1.43609">
        <ele>245</ele>
        <time>2011-07-07T16:37:59Z</time>
      </trkpt>
      <trkpt lat="45.25208" lon="1.43604">
        <ele>240</ele>
        <time>2011-07-07T16:38:01Z</time>
      </trkpt>
      <trkpt lat="45.25215" lon="1.43599">
        <ele>239</ele>
        <time>2011-07-07T16:38:04Z</time>
      </trkpt>
      <trkpt lat="45.25222" lon="1.43595">
        <ele>241</ele>
        <time>2011-07-07T16:38:06Z</time>
      </trkpt>
      <trkpt lat="45.25228" lon="1.4359">
        <ele>233</ele>
        <time>2011-07-07T16:38:08Z</time>
      </trkpt>
      <trkpt lat="45.25235" lon="1.43587">
        <ele>231</ele>
        <time>2011-07-07T16:38:10Z</time>
      </trkpt>
      <trkpt lat="45.25243" lon="1.43584">
        <ele>231</ele>
        <time>2011-07-07T16:38:12Z</time>
      </trkpt>
      <trkpt lat="45.2525" lon="1.43582">
        <ele>232</ele>
        <time>2011-07-07T16:38:14Z</time>
      </trkpt>
      <trkpt lat="45.25255" lon="1.4358">
        <ele>234</ele>
        <time>2011-07-07T16:38:16Z</time>
      </trkpt>
      <trkpt lat="45.2526" lon="1.43576">
        <ele>237</ele>
        <time>2011-07-07T16:38:18Z</time>
      </trkpt>
      <trkpt lat="45.25261" lon="1.43567">
        <ele>240</ele>
        <time>2011-07-07T16:38:21Z</time>
      </trkpt>
      <trkpt lat="45.25259" lon="1.4356">
        <ele>242</ele>
        <time>2011-07-07T16:38:23Z</time>
      </trkpt>
      <trkpt lat="45.25257" lon="1.43554">
        <ele>243</ele>
        <time>2011-07-07T16:38:25Z</time>
      </trkpt>
      <trkpt lat="45.25254" lon="1.43547">
        <ele>243</ele>
        <time>2011-07-07T16:38:27Z</time>
      </trkpt>
      <trkpt lat="45.2525" lon="1.4354">
        <ele>243</ele>
        <time>2011-07-07T16:38:29Z</time>
      </trkpt>
      <trkpt lat="45.25248" lon="1.43534">
        <ele>241</ele>
        <time>2011-07-07T16:38:31Z</time>
      </trkpt>
      <trkpt lat="45.25245" lon="1.43528">
        <ele>240</ele>
        <time>2011-07-07T16:38:33Z</time>
      </trkpt>
      <trkpt lat="45.25242" lon="1.43523">
        <ele>242</ele>
        <time>2011-07-07T16:38:35Z</time>
      </trkpt>
      <trkpt lat="45.25239" lon="1.43515">
        <ele>244</ele>
        <time>2011-07-07T16:38:37Z</time>
      </trkpt>
      <trkpt lat="45.25235" lon="1.43508">
        <ele>244</ele>
        <time>2011-07-07T16:38:39Z</time>
      </trkpt>
      <trkpt lat="45.25232" lon="1.43502">
        <ele>244</ele>
        <time>2011-07-07T16:38:41Z</time>
      </trkpt>
      <trkpt lat="45.25228" lon="1.43494">
        <ele>242</ele>
        <time>2011-07-07T16:38:43Z</time>
      </trkpt>
      <trkpt lat="45.25226" lon="1.43487">
        <ele>242</ele>
        <time>2011-07-07T16:38:45Z</time>
      </trkpt>
      <trkpt lat="45.25222" lon="1.4348">
        <ele>243</ele>
        <time>2011-07-07T16:38:47Z</time>
      </trkpt>
      <trkpt lat="45.25219" lon="1.43474">
        <ele>243</ele>
        <time>2011-07-07T16:38:49Z</time>
      </trkpt>
      <trkpt lat="45.25216" lon="1.43466">
        <ele>243</ele>
        <time>2011-07-07T16:38:51Z</time>
      </trkpt>
      <trkpt lat="45.25213" lon="1.4346">
        <ele>243</ele>
        <time>2011-07-07T16:38:53Z</time>
      </trkpt>
      <trkpt lat="45.2521" lon="1.43454">
        <ele>245</ele>
        <time>2011-07-07T16:38:55Z</time>
      </trkpt>
      <trkpt lat="45.25207" lon="1.43448">
        <ele>245</ele>
        <time>2011-07-07T16:38:57Z</time>
      </trkpt>
      <trkpt lat="45.25203" lon="1.43442">
        <ele>246</ele>
        <time>2011-07-07T16:38:59Z</time>
      </trkpt>
      <trkpt lat="45.25199" lon="1.43436">
        <ele>246</ele>
        <time>2011-07-07T16:39:01Z</time>
      </trkpt>
      <trkpt lat="45.25196" lon="1.43431">
        <ele>249</ele>
        <time>2011-07-07T16:39:03Z</time>
      </trkpt>
      <trkpt lat="45.25192" lon="1.43427">
        <ele>247</ele>
        <time>2011-07-07T16:39:05Z</time>
      </trkpt>
      <trkpt lat="45.25188" lon="1.43421">
        <ele>246</ele>
        <time>2011-07-07T16:39:07Z</time>
      </trkpt>
      <trkpt lat="45.25183" lon="1.43415">
        <ele>245</ele>
        <time>2011-07-07T16:39:09Z</time>
      </trkpt>
      <trkpt lat="45.2518" lon="1.43407">
        <ele>246</ele>
        <time>2011-07-07T16:39:11Z</time>
      </trkpt>
      <trkpt lat="45.25179" lon="1.43398">
        <ele>247</ele>
        <time>2011-07-07T16:39:13Z</time>
      </trkpt>
      <trkpt lat="45.25176" lon="1.43387">
        <ele>249</ele>
        <time>2011-07-07T16:39:15Z</time>
      </trkpt>
      <trkpt lat="45.25176" lon="1.43376">
        <ele>250</ele>
        <time>2011-07-07T16:39:17Z</time>
      </trkpt>
      <trkpt lat="45.25176" lon="1.43369">
        <ele>251</ele>
        <time>2011-07-07T16:39:18Z</time>
      </trkpt>
      <trkpt lat="45.25177" lon="1.43357">
        <ele>250</ele>
        <time>2011-07-07T16:39:20Z</time>
      </trkpt>
      <trkpt lat="45.25177" lon="1.43345">
        <ele>254</ele>
        <time>2011-07-07T16:39:22Z</time>
      </trkpt>
      <trkpt lat="45.25177" lon="1.43338">
        <ele>257</ele>
        <time>2011-07-07T16:39:23Z</time>
      </trkpt>
      <trkpt lat="45.25177" lon="1.43331">
        <ele>258</ele>
        <time>2011-07-07T16:39:24Z</time>
      </trkpt>
      <trkpt lat="45.25174" lon="1.43319">
        <ele>256</ele>
        <time>2011-07-07T16:39:26Z</time>
      </trkpt>
      <trkpt lat="45.25171" lon="1.43308">
        <ele>258</ele>
        <time>2011-07-07T16:39:28Z</time>
      </trkpt>
      <trkpt lat="45.25169" lon="1.43298">
        <ele>256</ele>
        <time>2011-07-07T16:39:30Z</time>
      </trkpt>
      <trkpt lat="45.25167" lon="1.43286">
        <ele>255</ele>
        <time>2011-07-07T16:39:32Z</time>
      </trkpt>
      <trkpt lat="45.25166" lon="1.4328">
        <ele>255</ele>
        <time>2011-07-07T16:39:33Z</time>
      </trkpt>
      <trkpt lat="45.25165" lon="1.43268">
        <ele>256</ele>
        <time>2011-07-07T16:39:35Z</time>
      </trkpt>
      <trkpt lat="45.25163" lon="1.43257">
        <ele>253</ele>
        <time>2011-07-07T16:39:37Z</time>
      </trkpt>
      <trkpt lat="45.25161" lon="1.43246">
        <ele>250</ele>
        <time>2011-07-07T16:39:39Z</time>
      </trkpt>
      <trkpt lat="45.2516" lon="1.43239">
        <ele>250</ele>
        <time>2011-07-07T16:39:40Z</time>
      </trkpt>
      <trkpt lat="45.25158" lon="1.4323">
        <ele>249</ele>
        <time>2011-07-07T16:39:41Z</time>
      </trkpt>
      <trkpt lat="45.25155" lon="1.4322">
        <ele>248</ele>
        <time>2011-07-07T16:39:42Z</time>
      </trkpt>
      <trkpt lat="45.25152" lon="1.43209">
        <ele>247</ele>
        <time>2011-07-07T16:39:43Z</time>
      </trkpt>
      <trkpt lat="45.2515" lon="1.43199">
        <ele>245</ele>
        <time>2011-07-07T16:39:44Z</time>
      </trkpt>
      <trkpt lat="45.25147" lon="1.43188">
        <ele>243</ele>
        <time>2011-07-07T16:39:45Z</time>
      </trkpt>
      <trkpt lat="45.25143" lon="1.43176">
        <ele>243</ele>
        <time>2011-07-07T16:39:46Z</time>
      </trkpt>
      <trkpt lat="45.2514" lon="1.43164">
        <ele>241</ele>
        <time>2011-07-07T16:39:47Z</time>
      </trkpt>
      <trkpt lat="45.25135" lon="1.43149">
        <ele>239</ele>
        <time>2011-07-07T16:39:48Z</time>
      </trkpt>
      <trkpt lat="45.25131" lon="1.43134">
        <ele>240</ele>
        <time>2011-07-07T16:39:49Z</time>
      </trkpt>
      <trkpt lat="45.25127" lon="1.43117">
        <ele>239</ele>
        <time>2011-07-07T16:39:50Z</time>
      </trkpt>
      <trkpt lat="45.25123" lon="1.431">
        <ele>238</ele>
        <time>2011-07-07T16:39:51Z</time>
      </trkpt>
      <trkpt lat="45.2512" lon="1.43083">
        <ele>237</ele>
        <time>2011-07-07T16:39:52Z</time>
      </trkpt>
      <trkpt lat="45.25117" lon="1.43067">
        <ele>237</ele>
        <time>2011-07-07T16:39:53Z</time>
      </trkpt>
      <trkpt lat="45.25114" lon="1.43051">
        <ele>236</ele>
        <time>2011-07-07T16:39:54Z</time>
      </trkpt>
      <trkpt lat="45.2511" lon="1.43036">
        <ele>233</ele>
        <time>2011-07-07T16:39:55Z</time>
      </trkpt>
      <trkpt lat="45.25104" lon="1.43025">
        <ele>232</ele>
        <time>2011-07-07T16:39:56Z</time>
      </trkpt>
      <trkpt lat="45.25098" lon="1.43015">
        <ele>231</ele>
        <time>2011-07-07T16:39:57Z</time>
      </trkpt>
      <trkpt lat="45.25092" lon="1.43005">
        <ele>229</ele>
        <time>2011-07-07T16:39:58Z</time>
      </trkpt>
      <trkpt lat="45.25087" lon="1.42996">
        <ele>229</ele>
        <time>2011-07-07T16:39:59Z</time>
      </trkpt>
      <trkpt lat="45.25081" lon="1.42987">
        <ele>229</ele>
        <time>2011-07-07T16:40:00Z</time>
      </trkpt>
      <trkpt lat="45.25075" lon="1.4298">
        <ele>229</ele>
        <time>2011-07-07T16:40:01Z</time>
      </trkpt>
      <trkpt lat="45.25069" lon="1.42972">
        <ele>230</ele>
        <time>2011-07-07T16:40:02Z</time>
      </trkpt>
      <trkpt lat="45.25062" lon="1.42966">
        <ele>231</ele>
        <time>2011-07-07T16:40:03Z</time>
      </trkpt>
      <trkpt lat="45.25057" lon="1.42962">
        <ele>231</ele>
        <time>2011-07-07T16:40:04Z</time>
      </trkpt>
      <trkpt lat="45.25051" lon="1.42957">
        <ele>231</ele>
        <time>2011-07-07T16:40:05Z</time>
      </trkpt>
      <trkpt lat="45.25045" lon="1.42952">
        <ele>232</ele>
        <time>2011-07-07T16:40:06Z</time>
      </trkpt>
      <trkpt lat="45.25039" lon="1.42948">
        <ele>231</ele>
        <time>2011-07-07T16:40:07Z</time>
      </trkpt>
      <trkpt lat="45.25033" lon="1.42944">
        <ele>230</ele>
        <time>2011-07-07T16:40:08Z</time>
      </trkpt>
      <trkpt lat="45.25028" lon="1.42939">
        <ele>229</ele>
        <time>2011-07-07T16:40:09Z</time>
      </trkpt>
      <trkpt lat="45.25022" lon="1.42934">
        <ele>226</ele>
        <time>2011-07-07T16:40:10Z</time>
      </trkpt>
      <trkpt lat="45.25018" lon="1.42927">
        <ele>224</ele>
        <time>2011-07-07T16:40:11Z</time>
      </trkpt>
      <trkpt lat="45.25013" lon="1.4292">
        <ele>225</ele>
        <time>2011-07-07T16:40:12Z</time>
      </trkpt>
      <trkpt lat="45.25008" lon="1.42912">
        <ele>224</ele>
        <time>2011-07-07T16:40:13Z</time>
      </trkpt>
      <trkpt lat="45.25003" lon="1.42904">
        <ele>225</ele>
        <time>2011-07-07T16:40:14Z</time>
      </trkpt>
      <trkpt lat="45.24998" lon="1.42896">
        <ele>224</ele>
        <time>2011-07-07T16:40:15Z</time>
      </trkpt>
      <trkpt lat="45.24994" lon="1.42887">
        <ele>224</ele>
        <time>2011-07-07T16:40:16Z</time>
      </trkpt>
      <trkpt lat="45.24989" lon="1.42877">
        <ele>223</ele>
        <time>2011-07-07T16:40:17Z</time>
      </trkpt>
      <trkpt lat="45.24985" lon="1.42866">
        <ele>223</ele>
        <time>2011-07-07T16:40:18Z</time>
      </trkpt>
      <trkpt lat="45.24981" lon="1.42854">
        <ele>222</ele>
        <time>2011-07-07T16:40:19Z</time>
      </trkpt>
      <trkpt lat="45.24978" lon="1.42842">
        <ele>222</ele>
        <time>2011-07-07T16:40:20Z</time>
      </trkpt>
      <trkpt lat="45.24975" lon="1.4283">
        <ele>222</ele>
        <time>2011-07-07T16:40:21Z</time>
      </trkpt>
      <trkpt lat="45.24972" lon="1.42817">
        <ele>221</ele>
        <time>2011-07-07T16:40:22Z</time>
      </trkpt>
      <trkpt lat="45.24969" lon="1.42804">
        <ele>220</ele>
        <time>2011-07-07T16:40:23Z</time>
      </trkpt>
      <trkpt lat="45.24966" lon="1.4279">
        <ele>220</ele>
        <time>2011-07-07T16:40:24Z</time>
      </trkpt>
      <trkpt lat="45.24963" lon="1.42776">
        <ele>220</ele>
        <time>2011-07-07T16:40:25Z</time>
      </trkpt>
      <trkpt lat="45.2496" lon="1.42762">
        <ele>219</ele>
        <time>2011-07-07T16:40:26Z</time>
      </trkpt>
      <trkpt lat="45.24958" lon="1.42751">
        <ele>217</ele>
        <time>2011-07-07T16:40:27Z</time>
      </trkpt>
      <trkpt lat="45.24956" lon="1.4274">
        <ele>216</ele>
        <time>2011-07-07T16:40:28Z</time>
      </trkpt>
      <trkpt lat="45.24953" lon="1.4273">
        <ele>215</ele>
        <time>2011-07-07T16:40:29Z</time>
      </trkpt>
      <trkpt lat="45.24949" lon="1.4272">
        <ele>213</ele>
        <time>2011-07-07T16:40:30Z</time>
      </trkpt>
      <trkpt lat="45.24944" lon="1.4271">
        <ele>212</ele>
        <time>2011-07-07T16:40:31Z</time>
      </trkpt>
      <trkpt lat="45.24938" lon="1.427">
        <ele>211</ele>
        <time>2011-07-07T16:40:32Z</time>
      </trkpt>
      <trkpt lat="45.24931" lon="1.4269">
        <ele>210</ele>
        <time>2011-07-07T16:40:33Z</time>
      </trkpt>
      <trkpt lat="45.24923" lon="1.4268">
        <ele>209</ele>
        <time>2011-07-07T16:40:34Z</time>
      </trkpt>
      <trkpt lat="45.24916" lon="1.42671">
        <ele>208</ele>
        <time>2011-07-07T16:40:35Z</time>
      </trkpt>
      <trkpt lat="45.24909" lon="1.42666">
        <ele>208</ele>
        <time>2011-07-07T16:40:36Z</time>
      </trkpt>
      <trkpt lat="45.24903" lon="1.42661">
        <ele>207</ele>
        <time>2011-07-07T16:40:37Z</time>
      </trkpt>
      <trkpt lat="45.24897" lon="1.42656">
        <ele>210</ele>
        <time>2011-07-07T16:40:38Z</time>
      </trkpt>
      <trkpt lat="45.24893" lon="1.42649">
        <ele>209</ele>
        <time>2011-07-07T16:40:39Z</time>
      </trkpt>
      <trkpt lat="45.24889" lon="1.42642">
        <ele>209</ele>
        <time>2011-07-07T16:40:40Z</time>
      </trkpt>
      <trkpt lat="45.24884" lon="1.42635">
        <ele>208</ele>
        <time>2011-07-07T16:40:41Z</time>
      </trkpt>
      <trkpt lat="45.2488" lon="1.42627">
        <ele>209</ele>
        <time>2011-07-07T16:40:42Z</time>
      </trkpt>
      <trkpt lat="45.24875" lon="1.42618">
        <ele>207</ele>
        <time>2011-07-07T16:40:43Z</time>
      </trkpt>
      <trkpt lat="45.2487" lon="1.4261">
        <ele>206</ele>
        <time>2011-07-07T16:40:44Z</time>
      </trkpt>
      <trkpt lat="45.24865" lon="1.42602">
        <ele>205</ele>
        <time>2011-07-07T16:40:45Z</time>
      </trkpt>
      <trkpt lat="45.24861" lon="1.42594">
        <ele>206</ele>
        <time>2011-07-07T16:40:46Z</time>
      </trkpt>
      <trkpt lat="45.24856" lon="1.42585">
        <ele>206</ele>
        <time>2011-07-07T16:40:47Z</time>
      </trkpt>
      <trkpt lat="45.24851" lon="1.42576">
        <ele>205</ele>
        <time>2011-07-07T16:40:48Z</time>
      </trkpt>
      <trkpt lat="45.24846" lon="1.42566">
        <ele>204</ele>
        <time>2011-07-07T16:40:49Z</time>
      </trkpt>
      <trkpt lat="45.2484" lon="1.42556">
        <ele>203</ele>
        <time>2011-07-07T16:40:50Z</time>
      </trkpt>
      <trkpt lat="45.24835" lon="1.42547">
        <ele>202</ele>
        <time>2011-07-07T16:40:51Z</time>
      </trkpt>
      <trkpt lat="45.2483" lon="1.42536">
        <ele>202</ele>
        <time>2011-07-07T16:40:52Z</time>
      </trkpt>
      <trkpt lat="45.24825" lon="1.42526">
        <ele>202</ele>
        <time>2011-07-07T16:40:53Z</time>
      </trkpt>
      <trkpt lat="45.24819" lon="1.42515">
        <ele>201</ele>
        <time>2011-07-07T16:40:54Z</time>
      </trkpt>
      <trkpt lat="45.24814" lon="1.42504">
        <ele>202</ele>
        <time>2011-07-07T16:40:55Z</time>
      </trkpt>
      <trkpt lat="45.24809" lon="1.42494">
        <ele>201</ele>
        <time>2011-07-07T16:40:56Z</time>
      </trkpt>
      <trkpt lat="45.24804" lon="1.42484">
        <ele>200</ele>
        <time>2011-07-07T16:40:57Z</time>
      </trkpt>
      <trkpt lat="45.248" lon="1.42474">
        <ele>199</ele>
        <time>2011-07-07T16:40:58Z</time>
      </trkpt>
      <trkpt lat="45.24795" lon="1.42464">
        <ele>199</ele>
        <time>2011-07-07T16:40:59Z</time>
      </trkpt>
      <trkpt lat="45.24789" lon="1.42454">
        <ele>200</ele>
        <time>2011-07-07T16:41:00Z</time>
      </trkpt>
      <trkpt lat="45.24784" lon="1.42444">
        <ele>199</ele>
        <time>2011-07-07T16:41:01Z</time>
      </trkpt>
      <trkpt lat="45.24779" lon="1.42434">
        <ele>198</ele>
        <time>2011-07-07T16:41:02Z</time>
      </trkpt>
      <trkpt lat="45.24773" lon="1.42424">
        <ele>198</ele>
        <time>2011-07-07T16:41:03Z</time>
      </trkpt>
      <trkpt lat="45.24768" lon="1.42414">
        <ele>199</ele>
        <time>2011-07-07T16:41:04Z</time>
      </trkpt>
      <trkpt lat="45.24764" lon="1.42404">
        <ele>198</ele>
        <time>2011-07-07T16:41:05Z</time>
      </trkpt>
      <trkpt lat="45.24759" lon="1.42394">
        <ele>199</ele>
        <time>2011-07-07T16:41:06Z</time>
      </trkpt>
      <trkpt lat="45.24754" lon="1.42383">
        <ele>199</ele>
        <time>2011-07-07T16:41:07Z</time>
      </trkpt>
      <trkpt lat="45.2475" lon="1.42373">
        <ele>200</ele>
        <time>2011-07-07T16:41:08Z</time>
      </trkpt>
      <trkpt lat="45.24745" lon="1.42362">
        <ele>200</ele>
        <time>2011-07-07T16:41:09Z</time>
      </trkpt>
      <trkpt lat="45.2474" lon="1.42351">
        <ele>200</ele>
        <time>2011-07-07T16:41:10Z</time>
      </trkpt>
      <trkpt lat="45.24736" lon="1.4234">
        <ele>200</ele>
        <time>2011-07-07T16:41:11Z</time>
      </trkpt>
      <trkpt lat="45.24732" lon="1.42329">
        <ele>201</ele>
        <time>2011-07-07T16:41:12Z</time>
      </trkpt>
      <trkpt lat="45.24728" lon="1.42318">
        <ele>201</ele>
        <time>2011-07-07T16:41:13Z</time>
      </trkpt>
      <trkpt lat="45.24725" lon="1.42308">
        <ele>201</ele>
        <time>2011-07-07T16:41:14Z</time>
      </trkpt>
      <trkpt lat="45.24721" lon="1.42297">
        <ele>196</ele>
        <time>2011-07-07T16:41:15Z</time>
      </trkpt>
      <trkpt lat="45.24718" lon="1.42287">
        <ele>197</ele>
        <time>2011-07-07T16:41:16Z</time>
      </trkpt>
      <trkpt lat="45.24715" lon="1.42277">
        <ele>198</ele>
        <time>2011-07-07T16:41:17Z</time>
      </trkpt>
      <trkpt lat="45.24712" lon="1.42267">
        <ele>196</ele>
        <time>2011-07-07T16:41:18Z</time>
      </trkpt>
      <trkpt lat="45.24708" lon="1.42256">
        <ele>195</ele>
        <time>2011-07-07T16:41:19Z</time>
      </trkpt>
      <trkpt lat="45.24705" lon="1.42244">
        <ele>194</ele>
        <time>2011-07-07T16:41:20Z</time>
      </trkpt>
      <trkpt lat="45.24701" lon="1.42233">
        <ele>195</ele>
        <time>2011-07-07T16:41:21Z</time>
      </trkpt>
      <trkpt lat="45.24697" lon="1.42222">
        <ele>195</ele>
        <time>2011-07-07T16:41:22Z</time>
      </trkpt>
      <trkpt lat="45.24694" lon="1.42212">
        <ele>194</ele>
        <time>2011-07-07T16:41:23Z</time>
      </trkpt>
      <trkpt lat="45.2469" lon="1.42202">
        <ele>193</ele>
        <time>2011-07-07T16:41:24Z</time>
      </trkpt>
      <trkpt lat="45.24686" lon="1.42192">
        <ele>193</ele>
        <time>2011-07-07T16:41:25Z</time>
      </trkpt>
      <trkpt lat="45.24683" lon="1.42183">
        <ele>193</ele>
        <time>2011-07-07T16:41:26Z</time>
      </trkpt>
      <trkpt lat="45.24679" lon="1.42173">
        <ele>194</ele>
        <time>2011-07-07T16:41:27Z</time>
      </trkpt>
      <trkpt lat="45.24675" lon="1.42164">
        <ele>195</ele>
        <time>2011-07-07T16:41:28Z</time>
      </trkpt>
      <trkpt lat="45.24672" lon="1.42155">
        <ele>195</ele>
        <time>2011-07-07T16:41:29Z</time>
      </trkpt>
      <trkpt lat="45.24668" lon="1.42146">
        <ele>194</ele>
        <time>2011-07-07T16:41:30Z</time>
      </trkpt>
      <trkpt lat="45.24664" lon="1.42137">
        <ele>194</ele>
        <time>2011-07-07T16:41:31Z</time>
      </trkpt>
      <trkpt lat="45.2466" lon="1.42128">
        <ele>195</ele>
        <time>2011-07-07T16:41:32Z</time>
      </trkpt>
      <trkpt lat="45.24656" lon="1.42119">
        <ele>195</ele>
        <time>2011-07-07T16:41:33Z</time>
      </trkpt>
      <trkpt lat="45.24652" lon="1.4211">
        <ele>194</ele>
        <time>2011-07-07T16:41:34Z</time>
      </trkpt>
      <trkpt lat="45.24647" lon="1.42102">
        <ele>195</ele>
        <time>2011-07-07T16:41:35Z</time>
      </trkpt>
      <trkpt lat="45.24643" lon="1.42093">
        <ele>195</ele>
        <time>2011-07-07T16:41:36Z</time>
      </trkpt>
      <trkpt lat="45.24638" lon="1.42084">
        <ele>195</ele>
        <time>2011-07-07T16:41:37Z</time>
      </trkpt>
      <trkpt lat="45.24634" lon="1.42076">
        <ele>194</ele>
        <time>2011-07-07T16:41:38Z</time>
      </trkpt>
      <trkpt lat="45.2463" lon="1.42067">
        <ele>193</ele>
        <time>2011-07-07T16:41:39Z</time>
      </trkpt>
      <trkpt lat="45.24625" lon="1.42058">
        <ele>193</ele>
        <time>2011-07-07T16:41:40Z</time>
      </trkpt>
      <trkpt lat="45.2462" lon="1.4205">
        <ele>193</ele>
        <time>2011-07-07T16:41:41Z</time>
      </trkpt>
      <trkpt lat="45.24616" lon="1.42042">
        <ele>192</ele>
        <time>2011-07-07T16:41:42Z</time>
      </trkpt>
      <trkpt lat="45.24611" lon="1.42034">
        <ele>191</ele>
        <time>2011-07-07T16:41:43Z</time>
      </trkpt>
      <trkpt lat="45.24605" lon="1.42025">
        <ele>190</ele>
        <time>2011-07-07T16:41:44Z</time>
      </trkpt>
      <trkpt lat="45.24599" lon="1.42016">
        <ele>189</ele>
        <time>2011-07-07T16:41:45Z</time>
      </trkpt>
      <trkpt lat="45.24594" lon="1.42007">
        <ele>188</ele>
        <time>2011-07-07T16:41:46Z</time>
      </trkpt>
      <trkpt lat="45.24588" lon="1.41998">
        <ele>188</ele>
        <time>2011-07-07T16:41:47Z</time>
      </trkpt>
      <trkpt lat="45.24583" lon="1.4199">
        <ele>189</ele>
        <time>2011-07-07T16:41:48Z</time>
      </trkpt>
      <trkpt lat="45.24577" lon="1.41981">
        <ele>190</ele>
        <time>2011-07-07T16:41:49Z</time>
      </trkpt>
      <trkpt lat="45.24572" lon="1.41973">
        <ele>191</ele>
        <time>2011-07-07T16:41:50Z</time>
      </trkpt>
      <trkpt lat="45.24566" lon="1.41963">
        <ele>190</ele>
        <time>2011-07-07T16:41:51Z</time>
      </trkpt>
      <trkpt lat="45.2456" lon="1.41954">
        <ele>188</ele>
        <time>2011-07-07T16:41:52Z</time>
      </trkpt>
      <trkpt lat="45.24554" lon="1.41942">
        <ele>184</ele>
        <time>2011-07-07T16:41:53Z</time>
      </trkpt>
      <trkpt lat="45.24549" lon="1.41931">
        <ele>181</ele>
        <time>2011-07-07T16:41:54Z</time>
      </trkpt>
      <trkpt lat="45.24543" lon="1.4192">
        <ele>179</ele>
        <time>2011-07-07T16:41:55Z</time>
      </trkpt>
      <trkpt lat="45.24537" lon="1.41908">
        <ele>178</ele>
        <time>2011-07-07T16:41:56Z</time>
      </trkpt>
      <trkpt lat="45.24532" lon="1.41897">
        <ele>177</ele>
        <time>2011-07-07T16:41:57Z</time>
      </trkpt>
      <trkpt lat="45.24526" lon="1.41886">
        <ele>176</ele>
        <time>2011-07-07T16:41:58Z</time>
      </trkpt>
      <trkpt lat="45.2452" lon="1.41875">
        <ele>175</ele>
        <time>2011-07-07T16:41:59Z</time>
      </trkpt>
      <trkpt lat="45.24513" lon="1.41863">
        <ele>175</ele>
        <time>2011-07-07T16:42:00Z</time>
      </trkpt>
      <trkpt lat="45.24507" lon="1.41852">
        <ele>176</ele>
        <time>2011-07-07T16:42:01Z</time>
      </trkpt>
      <trkpt lat="45.24501" lon="1.4184">
        <ele>177</ele>
        <time>2011-07-07T16:42:02Z</time>
      </trkpt>
      <trkpt lat="45.24496" lon="1.4183">
        <ele>176</ele>
        <time>2011-07-07T16:42:03Z</time>
      </trkpt>
      <trkpt lat="45.2449" lon="1.41819">
        <ele>175</ele>
        <time>2011-07-07T16:42:04Z</time>
      </trkpt>
      <trkpt lat="45.24485" lon="1.41808">
        <ele>175</ele>
        <time>2011-07-07T16:42:05Z</time>
      </trkpt>
      <trkpt lat="45.24479" lon="1.41798">
        <ele>175</ele>
        <time>2011-07-07T16:42:06Z</time>
      </trkpt>
      <trkpt lat="45.24474" lon="1.41788">
        <ele>173</ele>
        <time>2011-07-07T16:42:07Z</time>
      </trkpt>
      <trkpt lat="45.24468" lon="1.4178">
        <ele>174</ele>
        <time>2011-07-07T16:42:08Z</time>
      </trkpt>
      <trkpt lat="45.24463" lon="1.41772">
        <ele>176</ele>
        <time>2011-07-07T16:42:09Z</time>
      </trkpt>
      <trkpt lat="45.24458" lon="1.41765">
        <ele>176</ele>
        <time>2011-07-07T16:42:10Z</time>
      </trkpt>
      <trkpt lat="45.24452" lon="1.41758">
        <ele>176</ele>
        <time>2011-07-07T16:42:11Z</time>
      </trkpt>
      <trkpt lat="45.24447" lon="1.41751">
        <ele>176</ele>
        <time>2011-07-07T16:42:12Z</time>
      </trkpt>
      <trkpt lat="45.24443" lon="1.41745">
        <ele>176</ele>
        <time>2011-07-07T16:42:13Z</time>
      </trkpt>
      <trkpt lat="45.24443" lon="1.41737">
        <ele>175</ele>
        <time>2011-07-07T16:42:14Z</time>
      </trkpt>
      <trkpt lat="45.24445" lon="1.4173">
        <ele>175</ele>
        <time>2011-07-07T16:42:15Z</time>
      </trkpt>
      <trkpt lat="45.24448" lon="1.41724">
        <ele>175</ele>
        <time>2011-07-07T16:42:16Z</time>
      </trkpt>
      <trkpt lat="45.24452" lon="1.41718">
        <ele>177</ele>
        <time>2011-07-07T16:42:17Z</time>
      </trkpt>
      <trkpt lat="45.24455" lon="1.41712">
        <ele>178</ele>
        <time>2011-07-07T16:42:18Z</time>
      </trkpt>
      <trkpt lat="45.24458" lon="1.41706">
        <ele>178</ele>
        <time>2011-07-07T16:42:19Z</time>
      </trkpt>
      <trkpt lat="45.24461" lon="1.41699">
        <ele>178</ele>
        <time>2011-07-07T16:42:20Z</time>
      </trkpt>
      <trkpt lat="45.24464" lon="1.41693">
        <ele>179</ele>
        <time>2011-07-07T16:42:21Z</time>
      </trkpt>
      <trkpt lat="45.24467" lon="1.41686">
        <ele>179</ele>
        <time>2011-07-07T16:42:22Z</time>
      </trkpt>
      <trkpt lat="45.2447" lon="1.4168">
        <ele>180</ele>
        <time>2011-07-07T16:42:23Z</time>
      </trkpt>
      <trkpt lat="45.24474" lon="1.41673">
        <ele>182</ele>
        <time>2011-07-07T16:42:24Z</time>
      </trkpt>
      <trkpt lat="45.24477" lon="1.41667">
        <ele>180</ele>
        <time>2011-07-07T16:42:25Z</time>
      </trkpt>
      <trkpt lat="45.2448" lon="1.41661">
        <ele>180</ele>
        <time>2011-07-07T16:42:26Z</time>
      </trkpt>
      <trkpt lat="45.24484" lon="1.41654">
        <ele>180</ele>
        <time>2011-07-07T16:42:27Z</time>
      </trkpt>
      <trkpt lat="45.24489" lon="1.41649">
        <ele>183</ele>
        <time>2011-07-07T16:42:28Z</time>
      </trkpt>
      <trkpt lat="45.24493" lon="1.41644">
        <ele>181</ele>
        <time>2011-07-07T16:42:29Z</time>
      </trkpt>
      <trkpt lat="45.24498" lon="1.4164">
        <ele>180</ele>
        <time>2011-07-07T16:42:30Z</time>
      </trkpt>
      <trkpt lat="45.24503" lon="1.41635">
        <ele>181</ele>
        <time>2011-07-07T16:42:31Z</time>
      </trkpt>
      <trkpt lat="45.24509" lon="1.41629">
        <ele>178</ele>
        <time>2011-07-07T16:42:32Z</time>
      </trkpt>
      <trkpt lat="45.24514" lon="1.41622">
        <ele>177</ele>
        <time>2011-07-07T16:42:33Z</time>
      </trkpt>
      <trkpt lat="45.2452" lon="1.41614">
        <ele>176</ele>
        <time>2011-07-07T16:42:34Z</time>
      </trkpt>
      <trkpt lat="45.24526" lon="1.41606">
        <ele>177</ele>
        <time>2011-07-07T16:42:35Z</time>
      </trkpt>
      <trkpt lat="45.2453" lon="1.41598">
        <ele>176</ele>
        <time>2011-07-07T16:42:36Z</time>
      </trkpt>
      <trkpt lat="45.24536" lon="1.4159">
        <ele>176</ele>
        <time>2011-07-07T16:42:37Z</time>
      </trkpt>
      <trkpt lat="45.24542" lon="1.41584">
        <ele>178</ele>
        <time>2011-07-07T16:42:38Z</time>
      </trkpt>
      <trkpt lat="45.24548" lon="1.41577">
        <ele>177</ele>
        <time>2011-07-07T16:42:39Z</time>
      </trkpt>
      <trkpt lat="45.24552" lon="1.41571">
        <ele>178</ele>
        <time>2011-07-07T16:42:40Z</time>
      </trkpt>
      <trkpt lat="45.24557" lon="1.41565">
        <ele>175</ele>
        <time>2011-07-07T16:42:41Z</time>
      </trkpt>
      <trkpt lat="45.24562" lon="1.41556">
        <ele>175</ele>
        <time>2011-07-07T16:42:42Z</time>
      </trkpt>
      <trkpt lat="45.24562" lon="1.41546">
        <ele>173</ele>
        <time>2011-07-07T16:42:43Z</time>
      </trkpt>
      <trkpt lat="45.24562" lon="1.41537">
        <ele>172</ele>
        <time>2011-07-07T16:42:44Z</time>
      </trkpt>
      <trkpt lat="45.24561" lon="1.41527">
        <ele>171</ele>
        <time>2011-07-07T16:42:45Z</time>
      </trkpt>
      <trkpt lat="45.24559" lon="1.41519">
        <ele>172</ele>
        <time>2011-07-07T16:42:46Z</time>
      </trkpt>
      <trkpt lat="45.24558" lon="1.41511">
        <ele>173</ele>
        <time>2011-07-07T16:42:47Z</time>
      </trkpt>
      <trkpt lat="45.24557" lon="1.41505">
        <ele>172</ele>
        <time>2011-07-07T16:42:48Z</time>
      </trkpt>
      <trkpt lat="45.24555" lon="1.41492">
        <ele>172</ele>
        <time>2011-07-07T16:42:50Z</time>
      </trkpt>
      <trkpt lat="45.24555" lon="1.41481">
        <ele>172</ele>
        <time>2011-07-07T16:42:52Z</time>
      </trkpt>
      <trkpt lat="45.24554" lon="1.41469">
        <ele>175</ele>
        <time>2011-07-07T16:42:54Z</time>
      </trkpt>
      <trkpt lat="45.24554" lon="1.41463">
        <ele>175</ele>
        <time>2011-07-07T16:42:55Z</time>
      </trkpt>
      <trkpt lat="45.24553" lon="1.41452">
        <ele>177</ele>
        <time>2011-07-07T16:42:57Z</time>
      </trkpt>
      <trkpt lat="45.24556" lon="1.41446">
        <ele>178</ele>
        <time>2011-07-07T16:42:59Z</time>
      </trkpt>
      <trkpt lat="45.24565" lon="1.41446">
        <ele>178</ele>
        <time>2011-07-07T16:43:03Z</time>
      </trkpt>
      <trkpt lat="45.24573" lon="1.41445">
        <ele>176</ele>
        <time>2011-07-07T16:43:05Z</time>
      </trkpt>
      <trkpt lat="45.24581" lon="1.41445">
        <ele>175</ele>
        <time>2011-07-07T16:43:07Z</time>
      </trkpt>
      <trkpt lat="45.24588" lon="1.41446">
        <ele>176</ele>
        <time>2011-07-07T16:43:09Z</time>
      </trkpt>
      <trkpt lat="45.24595" lon="1.4145">
        <ele>173</ele>
        <time>2011-07-07T16:43:11Z</time>
      </trkpt>
      <trkpt lat="45.24602" lon="1.41454">
        <ele>172</ele>
        <time>2011-07-07T16:43:13Z</time>
      </trkpt>
      <trkpt lat="45.2461" lon="1.41461">
        <ele>171</ele>
        <time>2011-07-07T16:43:15Z</time>
      </trkpt>
      <trkpt lat="45.24616" lon="1.41468">
        <ele>175</ele>
        <time>2011-07-07T16:43:17Z</time>
      </trkpt>
      <trkpt lat="45.24623" lon="1.41475">
        <ele>176</ele>
        <time>2011-07-07T16:43:19Z</time>
      </trkpt>
      <trkpt lat="45.2463" lon="1.4148">
        <ele>174</ele>
        <time>2011-07-07T16:43:21Z</time>
      </trkpt>
      <trkpt lat="45.24639" lon="1.41478">
        <ele>174</ele>
        <time>2011-07-07T16:43:23Z</time>
      </trkpt>
      <trkpt lat="45.24643" lon="1.41477">
        <ele>175</ele>
        <time>2011-07-07T16:43:24Z</time>
      </trkpt>
      <trkpt lat="45.2465" lon="1.41474">
        <ele>174</ele>
        <time>2011-07-07T16:43:26Z</time>
      </trkpt>
      <trkpt lat="45.24656" lon="1.41467">
        <ele>173</ele>
        <time>2011-07-07T16:43:28Z</time>
      </trkpt>
      <trkpt lat="45.24663" lon="1.4146">
        <ele>174</ele>
        <time>2011-07-07T16:43:30Z</time>
      </trkpt>
      <trkpt lat="45.2467" lon="1.41454">
        <ele>174</ele>
        <time>2011-07-07T16:43:32Z</time>
      </trkpt>
      <trkpt lat="45.24676" lon="1.41448">
        <ele>177</ele>
        <time>2011-07-07T16:43:34Z</time>
      </trkpt>
      <trkpt lat="45.24681" lon="1.41442">
        <ele>179</ele>
        <time>2011-07-07T16:43:36Z</time>
      </trkpt>
      <trkpt lat="45.24687" lon="1.41436">
        <ele>179</ele>
        <time>2011-07-07T16:43:38Z</time>
      </trkpt>
      <trkpt lat="45.24693" lon="1.4143">
        <ele>179</ele>
        <time>2011-07-07T16:43:40Z</time>
      </trkpt>
      <trkpt lat="45.24701" lon="1.41425">
        <ele>179</ele>
        <time>2011-07-07T16:43:42Z</time>
      </trkpt>
      <trkpt lat="45.24705" lon="1.41422">
        <ele>180</ele>
        <time>2011-07-07T16:43:43Z</time>
      </trkpt>
      <trkpt lat="45.24709" lon="1.41419">
        <ele>180</ele>
        <time>2011-07-07T16:43:44Z</time>
      </trkpt>
      <trkpt lat="45.24717" lon="1.41417">
        <ele>181</ele>
        <time>2011-07-07T16:43:46Z</time>
      </trkpt>
      <trkpt lat="45.24725" lon="1.41416">
        <ele>181</ele>
        <time>2011-07-07T16:43:48Z</time>
      </trkpt>
      <trkpt lat="45.24734" lon="1.41416">
        <ele>179</ele>
        <time>2011-07-07T16:43:50Z</time>
      </trkpt>
      <trkpt lat="45.24742" lon="1.41417">
        <ele>177</ele>
        <time>2011-07-07T16:43:52Z</time>
      </trkpt>
      <trkpt lat="45.24749" lon="1.41417">
        <ele>178</ele>
        <time>2011-07-07T16:43:54Z</time>
      </trkpt>
      <trkpt lat="45.24754" lon="1.41418">
        <ele>180</ele>
        <time>2011-07-07T16:43:55Z</time>
      </trkpt>
      <trkpt lat="45.24763" lon="1.41419">
        <ele>178</ele>
        <time>2011-07-07T16:43:57Z</time>
      </trkpt>
      <trkpt lat="45.24767" lon="1.4142">
        <ele>173</ele>
        <time>2011-07-07T16:43:58Z</time>
      </trkpt>
      <trkpt lat="45.24772" lon="1.41421">
        <ele>174</ele>
        <time>2011-07-07T16:43:59Z</time>
      </trkpt>
      <trkpt lat="45.24777" lon="1.41422">
        <ele>173</ele>
        <time>2011-07-07T16:44:00Z</time>
      </trkpt>
      <trkpt lat="45.24782" lon="1.41423">
        <ele>174</ele>
        <time>2011-07-07T16:44:01Z</time>
      </trkpt>
      <trkpt lat="45.24787" lon="1.41424">
        <ele>172</ele>
        <time>2011-07-07T16:44:02Z</time>
      </trkpt>
      <trkpt lat="45.24792" lon="1.41425">
        <ele>173</ele>
        <time>2011-07-07T16:44:03Z</time>
      </trkpt>
      <trkpt lat="45.24797" lon="1.41425">
        <ele>172</ele>
        <time>2011-07-07T16:44:04Z</time>
      </trkpt>
      <trkpt lat="45.24801" lon="1.41426">
        <ele>172</ele>
        <time>2011-07-07T16:44:05Z</time>
      </trkpt>
      <trkpt lat="45.24806" lon="1.41426">
        <ele>172</ele>
        <time>2011-07-07T16:44:06Z</time>
      </trkpt>
      <trkpt lat="45.24811" lon="1.41427">
        <ele>174</ele>
        <time>2011-07-07T16:44:07Z</time>
      </trkpt>
      <trkpt lat="45.24819" lon="1.41428">
        <ele>177</ele>
        <time>2011-07-07T16:44:09Z</time>
      </trkpt>
      <trkpt lat="45.24828" lon="1.4143">
        <ele>178</ele>
        <time>2011-07-07T16:44:11Z</time>
      </trkpt>
      <trkpt lat="45.24832" lon="1.41431">
        <ele>179</ele>
        <time>2011-07-07T16:44:12Z</time>
      </trkpt>
      <trkpt lat="45.24837" lon="1.41433">
        <ele>177</ele>
        <time>2011-07-07T16:44:13Z</time>
      </trkpt>
      <trkpt lat="45.24841" lon="1.41434">
        <ele>178</ele>
        <time>2011-07-07T16:44:14Z</time>
      </trkpt>
      <trkpt lat="45.24846" lon="1.41436">
        <ele>178</ele>
        <time>2011-07-07T16:44:15Z</time>
      </trkpt>
      <trkpt lat="45.24852" lon="1.41438">
        <ele>177</ele>
        <time>2011-07-07T16:44:16Z</time>
      </trkpt>
      <trkpt lat="45.24857" lon="1.4144">
        <ele>177</ele>
        <time>2011-07-07T16:44:17Z</time>
      </trkpt>
      <trkpt lat="45.24862" lon="1.41443">
        <ele>178</ele>
        <time>2011-07-07T16:44:18Z</time>
      </trkpt>
      <trkpt lat="45.24867" lon="1.41446">
        <ele>178</ele>
        <time>2011-07-07T16:44:19Z</time>
      </trkpt>
      <trkpt lat="45.24874" lon="1.41452">
        <ele>176</ele>
        <time>2011-07-07T16:44:21Z</time>
      </trkpt>
      <trkpt lat="45.24882" lon="1.41458">
        <ele>176</ele>
        <time>2011-07-07T16:44:23Z</time>
      </trkpt>
      <trkpt lat="45.24886" lon="1.41461">
        <ele>175</ele>
        <time>2011-07-07T16:44:24Z</time>
      </trkpt>
      <trkpt lat="45.2489" lon="1.41464">
        <ele>175</ele>
        <time>2011-07-07T16:44:25Z</time>
      </trkpt>
      <trkpt lat="45.24894" lon="1.41468">
        <ele>176</ele>
        <time>2011-07-07T16:44:26Z</time>
      </trkpt>
      <trkpt lat="45.24899" lon="1.41472">
        <ele>177</ele>
        <time>2011-07-07T16:44:27Z</time>
      </trkpt>
      <trkpt lat="45.24903" lon="1.41475">
        <ele>177</ele>
        <time>2011-07-07T16:44:28Z</time>
      </trkpt>
      <trkpt lat="45.24907" lon="1.41478">
        <ele>177</ele>
        <time>2011-07-07T16:44:29Z</time>
      </trkpt>
      <trkpt lat="45.24911" lon="1.41481">
        <ele>177</ele>
        <time>2011-07-07T16:44:30Z</time>
      </trkpt>
      <trkpt lat="45.24916" lon="1.41484">
        <ele>178</ele>
        <time>2011-07-07T16:44:31Z</time>
      </trkpt>
      <trkpt lat="45.2492" lon="1.41487">
        <ele>178</ele>
        <time>2011-07-07T16:44:32Z</time>
      </trkpt>
      <trkpt lat="45.24924" lon="1.4149">
        <ele>178</ele>
        <time>2011-07-07T16:44:33Z</time>
      </trkpt>
      <trkpt lat="45.24928" lon="1.41492">
        <ele>178</ele>
        <time>2011-07-07T16:44:34Z</time>
      </trkpt>
      <trkpt lat="45.24932" lon="1.41495">
        <ele>179</ele>
        <time>2011-07-07T16:44:35Z</time>
      </trkpt>
      <trkpt lat="45.24936" lon="1.41498">
        <ele>177</ele>
        <time>2011-07-07T16:44:36Z</time>
      </trkpt>
      <trkpt lat="45.2494" lon="1.415">
        <ele>179</ele>
        <time>2011-07-07T16:44:37Z</time>
      </trkpt>
      <trkpt lat="45.24945" lon="1.41503">
        <ele>179</ele>
        <time>2011-07-07T16:44:38Z</time>
      </trkpt>
      <trkpt lat="45.2495" lon="1.41505">
        <ele>179</ele>
        <time>2011-07-07T16:44:39Z</time>
      </trkpt>
      <trkpt lat="45.24958" lon="1.41509">
        <ele>180</ele>
        <time>2011-07-07T16:44:41Z</time>
      </trkpt>
      <trkpt lat="45.24966" lon="1.41513">
        <ele>179</ele>
        <time>2011-07-07T16:44:43Z</time>
      </trkpt>
      <trkpt lat="45.2497" lon="1.41514">
        <ele>179</ele>
        <time>2011-07-07T16:44:44Z</time>
      </trkpt>
      <trkpt lat="45.24975" lon="1.41516">
        <ele>182</ele>
        <time>2011-07-07T16:44:45Z</time>
      </trkpt>
      <trkpt lat="45.2498" lon="1.41518">
        <ele>183</ele>
        <time>2011-07-07T16:44:46Z</time>
      </trkpt>
      <trkpt lat="45.24984" lon="1.4152">
        <ele>182</ele>
        <time>2011-07-07T16:44:47Z</time>
      </trkpt>
      <trkpt lat="45.24992" lon="1.41523">
        <ele>180</ele>
        <time>2011-07-07T16:44:49Z</time>
      </trkpt>
      <trkpt lat="45.24997" lon="1.41525">
        <ele>181</ele>
        <time>2011-07-07T16:44:50Z</time>
      </trkpt>
      <trkpt lat="45.25006" lon="1.41528">
        <ele>181</ele>
        <time>2011-07-07T16:44:52Z</time>
      </trkpt>
      <trkpt lat="45.25013" lon="1.4153">
        <ele>181</ele>
        <time>2011-07-07T16:44:54Z</time>
      </trkpt>
      <trkpt lat="45.25021" lon="1.41533">
        <ele>180</ele>
        <time>2011-07-07T16:44:56Z</time>
      </trkpt>
      <trkpt lat="45.2503" lon="1.41537">
        <ele>183</ele>
        <time>2011-07-07T16:44:58Z</time>
      </trkpt>
      <trkpt lat="45.25034" lon="1.41539">
        <ele>184</ele>
        <time>2011-07-07T16:44:59Z</time>
      </trkpt>
      <trkpt lat="45.25039" lon="1.41541">
        <ele>181</ele>
        <time>2011-07-07T16:45:00Z</time>
      </trkpt>
      <trkpt lat="45.25043" lon="1.41543">
        <ele>181</ele>
        <time>2011-07-07T16:45:01Z</time>
      </trkpt>
      <trkpt lat="45.25051" lon="1.41547">
        <ele>182</ele>
        <time>2011-07-07T16:45:03Z</time>
      </trkpt>
      <trkpt lat="45.25059" lon="1.41549">
        <ele>181</ele>
        <time>2011-07-07T16:45:05Z</time>
      </trkpt>
      <trkpt lat="45.25065" lon="1.41551">
        <ele>179</ele>
        <time>2011-07-07T16:45:07Z</time>
      </trkpt>
      <trkpt lat="45.25072" lon="1.41554">
        <ele>180</ele>
        <time>2011-07-07T16:45:09Z</time>
      </trkpt>
      <trkpt lat="45.25079" lon="1.41554">
        <ele>181</ele>
        <time>2011-07-07T16:45:11Z</time>
      </trkpt>
      <trkpt lat="45.25081" lon="1.41546">
        <ele>185</ele>
        <time>2011-07-07T16:45:13Z</time>
      </trkpt>
      <trkpt lat="45.25082" lon="1.41535">
        <ele>185</ele>
        <time>2011-07-07T16:45:15Z</time>
      </trkpt>
      <trkpt lat="45.25084" lon="1.41523">
        <ele>186</ele>
        <time>2011-07-07T16:45:17Z</time>
      </trkpt>
      <trkpt lat="45.25084" lon="1.41516">
        <ele>186</ele>
        <time>2011-07-07T16:45:18Z</time>
      </trkpt>
      <trkpt lat="45.25085" lon="1.41509">
        <ele>186</ele>
        <time>2011-07-07T16:45:19Z</time>
      </trkpt>
      <trkpt lat="45.25086" lon="1.41502">
        <ele>183</ele>
        <time>2011-07-07T16:45:20Z</time>
      </trkpt>
      <trkpt lat="45.25087" lon="1.41495">
        <ele>183</ele>
        <time>2011-07-07T16:45:21Z</time>
      </trkpt>
      <trkpt lat="45.25088" lon="1.41487">
        <ele>183</ele>
        <time>2011-07-07T16:45:22Z</time>
      </trkpt>
      <trkpt lat="45.25089" lon="1.41479">
        <ele>187</ele>
        <time>2011-07-07T16:45:23Z</time>
      </trkpt>
      <trkpt lat="45.25091" lon="1.4147">
        <ele>187</ele>
        <time>2011-07-07T16:45:24Z</time>
      </trkpt>
      <trkpt lat="45.25092" lon="1.41462">
        <ele>186</ele>
        <time>2011-07-07T16:45:25Z</time>
      </trkpt>
      <trkpt lat="45.25093" lon="1.41452">
        <ele>186</ele>
        <time>2011-07-07T16:45:26Z</time>
      </trkpt>
      <trkpt lat="45.25095" lon="1.41443">
        <ele>188</ele>
        <time>2011-07-07T16:45:27Z</time>
      </trkpt>
      <trkpt lat="45.25096" lon="1.41435">
        <ele>187</ele>
        <time>2011-07-07T16:45:28Z</time>
      </trkpt>
      <trkpt lat="45.25098" lon="1.41428">
        <ele>188</ele>
        <time>2011-07-07T16:45:29Z</time>
      </trkpt>
      <trkpt lat="45.25104" lon="1.41426">
        <ele>189</ele>
        <time>2011-07-07T16:45:31Z</time>
      </trkpt>
      <trkpt lat="45.2511" lon="1.4143">
        <ele>186</ele>
        <time>2011-07-07T16:45:33Z</time>
      </trkpt>
      <trkpt lat="45.25117" lon="1.41435">
        <ele>185</ele>
        <time>2011-07-07T16:45:35Z</time>
      </trkpt>
      <trkpt lat="45.25122" lon="1.41437">
        <ele>186</ele>
        <time>2011-07-07T16:45:36Z</time>
      </trkpt>
      <trkpt lat="45.2513" lon="1.41443">
        <ele>189</ele>
        <time>2011-07-07T16:45:38Z</time>
      </trkpt>
      <trkpt lat="45.25136" lon="1.41443">
        <ele>193</ele>
        <time>2011-07-07T16:45:40Z</time>
      </trkpt>
      <trkpt lat="45.2514" lon="1.41438">
        <ele>190</ele>
        <time>2011-07-07T16:45:41Z</time>
      </trkpt>
      <trkpt lat="45.25142" lon="1.41433">
        <ele>187</ele>
        <time>2011-07-07T16:45:42Z</time>
      </trkpt>
      <trkpt lat="45.25145" lon="1.41427">
        <ele>189</ele>
        <time>2011-07-07T16:45:43Z</time>
      </trkpt>
      <trkpt lat="45.25148" lon="1.4142">
        <ele>183</ele>
        <time>2011-07-07T16:45:44Z</time>
      </trkpt>
      <trkpt lat="45.2515" lon="1.41412">
        <ele>186</ele>
        <time>2011-07-07T16:45:45Z</time>
      </trkpt>
      <trkpt lat="45.2515" lon="1.41412">
        <ele>186</ele>
        <time>2011-07-07T16:45:45Z</time>
      </trkpt>
      <trkpt lat="45.2515" lon="1.41412">
        <ele>186</ele>
        <time>2011-07-07T16:45:46Z</time>
      </trkpt>
      <trkpt lat="45.25155" lon="1.41405">
        <ele>185</ele>
        <time>2011-07-07T16:45:47Z</time>
      </trkpt>
      <trkpt lat="45.25162" lon="1.41404">
        <ele>186</ele>
        <time>2011-07-07T16:45:48Z</time>
      </trkpt>
      <trkpt lat="45.25169" lon="1.41405">
        <ele>183</ele>
        <time>2011-07-07T16:45:49Z</time>
      </trkpt>
      <trkpt lat="45.25175" lon="1.41406">
        <ele>185</ele>
        <time>2011-07-07T16:45:50Z</time>
      </trkpt>
      <trkpt lat="45.2518" lon="1.41406">
        <ele>182</ele>
        <time>2011-07-07T16:45:51Z</time>
      </trkpt>
      <trkpt lat="45.25186" lon="1.41407">
        <ele>180</ele>
        <time>2011-07-07T16:45:52Z</time>
      </trkpt>
      <trkpt lat="45.25192" lon="1.41408">
        <ele>181</ele>
        <time>2011-07-07T16:45:53Z</time>
      </trkpt>
      <trkpt lat="45.25196" lon="1.41411">
        <ele>181</ele>
        <time>2011-07-07T16:45:54Z</time>
      </trkpt>
      <trkpt lat="45.252" lon="1.41413">
        <ele>182</ele>
        <time>2011-07-07T16:45:55Z</time>
      </trkpt>
      <trkpt lat="45.25206" lon="1.41416">
        <ele>178</ele>
        <time>2011-07-07T16:45:56Z</time>
      </trkpt>
      <trkpt lat="45.25211" lon="1.41419">
        <ele>179</ele>
        <time>2011-07-07T16:45:57Z</time>
      </trkpt>
      <trkpt lat="45.25217" lon="1.41423">
        <ele>180</ele>
        <time>2011-07-07T16:45:58Z</time>
      </trkpt>
      <trkpt lat="45.25223" lon="1.41426">
        <ele>181</ele>
        <time>2011-07-07T16:45:59Z</time>
      </trkpt>
      <trkpt lat="45.25228" lon="1.41429">
        <ele>180</ele>
        <time>2011-07-07T16:46:00Z</time>
      </trkpt>
      <trkpt lat="45.25233" lon="1.41432">
        <ele>178</ele>
        <time>2011-07-07T16:46:01Z</time>
      </trkpt>
      <trkpt lat="45.25238" lon="1.41436">
        <ele>178</ele>
        <time>2011-07-07T16:46:02Z</time>
      </trkpt>
      <trkpt lat="45.25245" lon="1.41441">
        <ele>178</ele>
        <time>2011-07-07T16:46:04Z</time>
      </trkpt>
      <trkpt lat="45.2525" lon="1.41445">
        <ele>181</ele>
        <time>2011-07-07T16:46:06Z</time>
      </trkpt>
      <trkpt lat="45.25256" lon="1.41449">
        <ele>186</ele>
        <time>2011-07-07T16:46:09Z</time>
      </trkpt>
      <trkpt lat="45.25263" lon="1.41455">
        <ele>183</ele>
        <time>2011-07-07T16:46:11Z</time>
      </trkpt>
      <trkpt lat="45.2527" lon="1.41459">
        <ele>184</ele>
        <time>2011-07-07T16:46:13Z</time>
      </trkpt>
      <trkpt lat="45.25278" lon="1.41463">
        <ele>184</ele>
        <time>2011-07-07T16:46:15Z</time>
      </trkpt>
      <trkpt lat="45.25283" lon="1.41466">
        <ele>182</ele>
        <time>2011-07-07T16:46:16Z</time>
      </trkpt>
      <trkpt lat="45.25288" lon="1.41469">
        <ele>183</ele>
        <time>2011-07-07T16:46:17Z</time>
      </trkpt>
      <trkpt lat="45.25294" lon="1.41472">
        <ele>179</ele>
        <time>2011-07-07T16:46:18Z</time>
      </trkpt>
      <trkpt lat="45.253" lon="1.41474">
        <ele>178</ele>
        <time>2011-07-07T16:46:19Z</time>
      </trkpt>
      <trkpt lat="45.25305" lon="1.41476">
        <ele>177</ele>
        <time>2011-07-07T16:46:20Z</time>
      </trkpt>
      <trkpt lat="45.2531" lon="1.41478">
        <ele>178</ele>
        <time>2011-07-07T16:46:21Z</time>
      </trkpt>
      <trkpt lat="45.25316" lon="1.4148">
        <ele>179</ele>
        <time>2011-07-07T16:46:22Z</time>
      </trkpt>
      <trkpt lat="45.25322" lon="1.41482">
        <ele>183</ele>
        <time>2011-07-07T16:46:23Z</time>
      </trkpt>
      <trkpt lat="45.25328" lon="1.41484">
        <ele>185</ele>
        <time>2011-07-07T16:46:24Z</time>
      </trkpt>
      <trkpt lat="45.25335" lon="1.41486">
        <ele>185</ele>
        <time>2011-07-07T16:46:25Z</time>
      </trkpt>
      <trkpt lat="45.25341" lon="1.41488">
        <ele>183</ele>
        <time>2011-07-07T16:46:26Z</time>
      </trkpt>
      <trkpt lat="45.25348" lon="1.41489">
        <ele>181</ele>
        <time>2011-07-07T16:46:27Z</time>
      </trkpt>
      <trkpt lat="45.25355" lon="1.41488">
        <ele>181</ele>
        <time>2011-07-07T16:46:28Z</time>
      </trkpt>
      <trkpt lat="45.25362" lon="1.41486">
        <ele>181</ele>
        <time>2011-07-07T16:46:29Z</time>
      </trkpt>
      <trkpt lat="45.2537" lon="1.41483">
        <ele>182</ele>
        <time>2011-07-07T16:46:30Z</time>
      </trkpt>
      <trkpt lat="45.25378" lon="1.4148">
        <ele>181</ele>
        <time>2011-07-07T16:46:31Z</time>
      </trkpt>
      <trkpt lat="45.25386" lon="1.41477">
        <ele>179</ele>
        <time>2011-07-07T16:46:32Z</time>
      </trkpt>
      <trkpt lat="45.25394" lon="1.41474">
        <ele>176</ele>
        <time>2011-07-07T16:46:33Z</time>
      </trkpt>
      <trkpt lat="45.25402" lon="1.41471">
        <ele>177</ele>
        <time>2011-07-07T16:46:34Z</time>
      </trkpt>
      <trkpt lat="45.2541" lon="1.41469">
        <ele>177</ele>
        <time>2011-07-07T16:46:35Z</time>
      </trkpt>
      <trkpt lat="45.25416" lon="1.41467">
        <ele>182</ele>
        <time>2011-07-07T16:46:36Z</time>
      </trkpt>
      <trkpt lat="45.25424" lon="1.41464">
        <ele>180</ele>
        <time>2011-07-07T16:46:37Z</time>
      </trkpt>
      <trkpt lat="45.25431" lon="1.41462">
        <ele>180</ele>
        <time>2011-07-07T16:46:38Z</time>
      </trkpt>
      <trkpt lat="45.25438" lon="1.41459">
        <ele>180</ele>
        <time>2011-07-07T16:46:39Z</time>
      </trkpt>
      <trkpt lat="45.25443" lon="1.41457">
        <ele>180</ele>
        <time>2011-07-07T16:46:40Z</time>
      </trkpt>
      <trkpt lat="45.25449" lon="1.41455">
        <ele>177</ele>
        <time>2011-07-07T16:46:41Z</time>
      </trkpt>
      <trkpt lat="45.25454" lon="1.41453">
        <ele>176</ele>
        <time>2011-07-07T16:46:42Z</time>
      </trkpt>
      <trkpt lat="45.2546" lon="1.41451">
        <ele>176</ele>
        <time>2011-07-07T16:46:43Z</time>
      </trkpt>
      <trkpt lat="45.25465" lon="1.41449">
        <ele>176</ele>
        <time>2011-07-07T16:46:44Z</time>
      </trkpt>
      <trkpt lat="45.25472" lon="1.41446">
        <ele>176</ele>
        <time>2011-07-07T16:46:46Z</time>
      </trkpt>
      <trkpt lat="45.25478" lon="1.41444">
        <ele>176</ele>
        <time>2011-07-07T16:46:52Z</time>
      </trkpt>
      <trkpt lat="45.25487" lon="1.41443">
        <ele>178</ele>
        <time>2011-07-07T16:46:54Z</time>
      </trkpt>
      <trkpt lat="45.25492" lon="1.41443">
        <ele>179</ele>
        <time>2011-07-07T16:46:55Z</time>
      </trkpt>
      <trkpt lat="45.25497" lon="1.41445">
        <ele>179</ele>
        <time>2011-07-07T16:46:56Z</time>
      </trkpt>
      <trkpt lat="45.25503" lon="1.41447">
        <ele>178</ele>
        <time>2011-07-07T16:46:57Z</time>
      </trkpt>
      <trkpt lat="45.25509" lon="1.41446">
        <ele>178</ele>
        <time>2011-07-07T16:46:58Z</time>
      </trkpt>
      <trkpt lat="45.25514" lon="1.41446">
        <ele>178</ele>
        <time>2011-07-07T16:46:59Z</time>
      </trkpt>
      <trkpt lat="45.2552" lon="1.41446">
        <ele>177</ele>
        <time>2011-07-07T16:47:00Z</time>
      </trkpt>
      <trkpt lat="45.25525" lon="1.41445">
        <ele>177</ele>
        <time>2011-07-07T16:47:01Z</time>
      </trkpt>
      <trkpt lat="45.2553" lon="1.41444">
        <ele>176</ele>
        <time>2011-07-07T16:47:02Z</time>
      </trkpt>
      <trkpt lat="45.25536" lon="1.41443">
        <ele>177</ele>
        <time>2011-07-07T16:47:03Z</time>
      </trkpt>
      <trkpt lat="45.25541" lon="1.41441">
        <ele>177</ele>
        <time>2011-07-07T16:47:04Z</time>
      </trkpt>
      <trkpt lat="45.25546" lon="1.41439">
        <ele>177</ele>
        <time>2011-07-07T16:47:05Z</time>
      </trkpt>
      <trkpt lat="45.25551" lon="1.41437">
        <ele>177</ele>
        <time>2011-07-07T16:47:06Z</time>
      </trkpt>
      <trkpt lat="45.25556" lon="1.41435">
        <ele>176</ele>
        <time>2011-07-07T16:47:07Z</time>
      </trkpt>
      <trkpt lat="45.25565" lon="1.41431">
        <ele>175</ele>
        <time>2011-07-07T16:47:09Z</time>
      </trkpt>
      <trkpt lat="45.2557" lon="1.41429">
        <ele>175</ele>
        <time>2011-07-07T16:47:10Z</time>
      </trkpt>
      <trkpt lat="45.25575" lon="1.41426">
        <ele>174</ele>
        <time>2011-07-07T16:47:11Z</time>
      </trkpt>
      <trkpt lat="45.25579" lon="1.41424">
        <ele>174</ele>
        <time>2011-07-07T16:47:12Z</time>
      </trkpt>
      <trkpt lat="45.25584" lon="1.41422">
        <ele>174</ele>
        <time>2011-07-07T16:47:13Z</time>
      </trkpt>
      <trkpt lat="45.25588" lon="1.4142">
        <ele>175</ele>
        <time>2011-07-07T16:47:14Z</time>
      </trkpt>
      <trkpt lat="45.25593" lon="1.41417">
        <ele>179</ele>
        <time>2011-07-07T16:47:15Z</time>
      </trkpt>
      <trkpt lat="45.25601" lon="1.41412">
        <ele>176</ele>
        <time>2011-07-07T16:47:17Z</time>
      </trkpt>
      <trkpt lat="45.25605" lon="1.4141">
        <ele>176</ele>
        <time>2011-07-07T16:47:18Z</time>
      </trkpt>
      <trkpt lat="45.2561" lon="1.41407">
        <ele>176</ele>
        <time>2011-07-07T16:47:19Z</time>
      </trkpt>
      <trkpt lat="45.25615" lon="1.41405">
        <ele>176</ele>
        <time>2011-07-07T16:47:20Z</time>
      </trkpt>
      <trkpt lat="45.2562" lon="1.41403">
        <ele>176</ele>
        <time>2011-07-07T16:47:21Z</time>
      </trkpt>
      <trkpt lat="45.25626" lon="1.414">
        <ele>177</ele>
        <time>2011-07-07T16:47:22Z</time>
      </trkpt>
      <trkpt lat="45.25632" lon="1.41398">
        <ele>180</ele>
        <time>2011-07-07T16:47:23Z</time>
      </trkpt>
      <trkpt lat="45.25637" lon="1.41396">
        <ele>179</ele>
        <time>2011-07-07T16:47:24Z</time>
      </trkpt>
      <trkpt lat="45.25642" lon="1.41394">
        <ele>178</ele>
        <time>2011-07-07T16:47:25Z</time>
      </trkpt>
      <trkpt lat="45.25648" lon="1.41392">
        <ele>177</ele>
        <time>2011-07-07T16:47:26Z</time>
      </trkpt>
      <trkpt lat="45.25653" lon="1.4139">
        <ele>178</ele>
        <time>2011-07-07T16:47:27Z</time>
      </trkpt>
      <trkpt lat="45.25659" lon="1.41388">
        <ele>177</ele>
        <time>2011-07-07T16:47:28Z</time>
      </trkpt>
      <trkpt lat="45.25665" lon="1.41385">
        <ele>176</ele>
        <time>2011-07-07T16:47:29Z</time>
      </trkpt>
      <trkpt lat="45.25671" lon="1.41383">
        <ele>176</ele>
        <time>2011-07-07T16:47:30Z</time>
      </trkpt>
      <trkpt lat="45.25676" lon="1.4138">
        <ele>175</ele>
        <time>2011-07-07T16:47:31Z</time>
      </trkpt>
      <trkpt lat="45.25683" lon="1.41377">
        <ele>175</ele>
        <time>2011-07-07T16:47:32Z</time>
      </trkpt>
      <trkpt lat="45.25689" lon="1.41375">
        <ele>174</ele>
        <time>2011-07-07T16:47:33Z</time>
      </trkpt>
      <trkpt lat="45.25696" lon="1.41372">
        <ele>175</ele>
        <time>2011-07-07T16:47:34Z</time>
      </trkpt>
      <trkpt lat="45.25702" lon="1.41369">
        <ele>175</ele>
        <time>2011-07-07T16:47:35Z</time>
      </trkpt>
      <trkpt lat="45.25708" lon="1.41367">
        <ele>176</ele>
        <time>2011-07-07T16:47:36Z</time>
      </trkpt>
      <trkpt lat="45.25714" lon="1.41364">
        <ele>173</ele>
        <time>2011-07-07T16:47:37Z</time>
      </trkpt>
      <trkpt lat="45.2572" lon="1.41362">
        <ele>173</ele>
        <time>2011-07-07T16:47:38Z</time>
      </trkpt>
      <trkpt lat="45.25728" lon="1.41359">
        <ele>172</ele>
        <time>2011-07-07T16:47:39Z</time>
      </trkpt>
      <trkpt lat="45.25735" lon="1.41356">
        <ele>173</ele>
        <time>2011-07-07T16:47:40Z</time>
      </trkpt>
      <trkpt lat="45.25742" lon="1.41354">
        <ele>175</ele>
        <time>2011-07-07T16:47:41Z</time>
      </trkpt>
      <trkpt lat="45.2575" lon="1.41352">
        <ele>176</ele>
        <time>2011-07-07T16:47:42Z</time>
      </trkpt>
      <trkpt lat="45.25756" lon="1.41351">
        <ele>175</ele>
        <time>2011-07-07T16:47:43Z</time>
      </trkpt>
      <trkpt lat="45.25763" lon="1.4135">
        <ele>174</ele>
        <time>2011-07-07T16:47:44Z</time>
      </trkpt>
      <trkpt lat="45.25769" lon="1.41349">
        <ele>174</ele>
        <time>2011-07-07T16:47:45Z</time>
      </trkpt>
      <trkpt lat="45.25776" lon="1.41348">
        <ele>175</ele>
        <time>2011-07-07T16:47:46Z</time>
      </trkpt>
      <trkpt lat="45.25783" lon="1.41347">
        <ele>174</ele>
        <time>2011-07-07T16:47:47Z</time>
      </trkpt>
      <trkpt lat="45.2579" lon="1.41346">
        <ele>175</ele>
        <time>2011-07-07T16:47:48Z</time>
      </trkpt>
      <trkpt lat="45.25797" lon="1.41345">
        <ele>175</ele>
        <time>2011-07-07T16:47:49Z</time>
      </trkpt>
      <trkpt lat="45.25804" lon="1.41344">
        <ele>175</ele>
        <time>2011-07-07T16:47:50Z</time>
      </trkpt>
      <trkpt lat="45.25811" lon="1.41343">
        <ele>174</ele>
        <time>2011-07-07T16:47:51Z</time>
      </trkpt>
      <trkpt lat="45.25817" lon="1.41341">
        <ele>173</ele>
        <time>2011-07-07T16:47:52Z</time>
      </trkpt>
      <trkpt lat="45.25823" lon="1.4134">
        <ele>172</ele>
        <time>2011-07-07T16:47:53Z</time>
      </trkpt>
      <trkpt lat="45.2583" lon="1.41338">
        <ele>171</ele>
        <time>2011-07-07T16:47:54Z</time>
      </trkpt>
      <trkpt lat="45.25836" lon="1.41337">
        <ele>169</ele>
        <time>2011-07-07T16:47:55Z</time>
      </trkpt>
      <trkpt lat="45.25842" lon="1.41336">
        <ele>169</ele>
        <time>2011-07-07T16:47:56Z</time>
      </trkpt>
      <trkpt lat="45.25849" lon="1.41334">
        <ele>172</ele>
        <time>2011-07-07T16:47:57Z</time>
      </trkpt>
      <trkpt lat="45.25855" lon="1.41333">
        <ele>172</ele>
        <time>2011-07-07T16:47:58Z</time>
      </trkpt>
      <trkpt lat="45.25863" lon="1.41332">
        <ele>173</ele>
        <time>2011-07-07T16:47:59Z</time>
      </trkpt>
      <trkpt lat="45.2587" lon="1.4133">
        <ele>174</ele>
        <time>2011-07-07T16:48:00Z</time>
      </trkpt>
      <trkpt lat="45.25877" lon="1.41329">
        <ele>176</ele>
        <time>2011-07-07T16:48:01Z</time>
      </trkpt>
      <trkpt lat="45.25884" lon="1.41327">
        <ele>176</ele>
        <time>2011-07-07T16:48:02Z</time>
      </trkpt>
      <trkpt lat="45.25891" lon="1.41326">
        <ele>178</ele>
        <time>2011-07-07T16:48:03Z</time>
      </trkpt>
      <trkpt lat="45.25898" lon="1.41325">
        <ele>178</ele>
        <time>2011-07-07T16:48:04Z</time>
      </trkpt>
      <trkpt lat="45.25905" lon="1.41323">
        <ele>178</ele>
        <time>2011-07-07T16:48:05Z</time>
      </trkpt>
      <trkpt lat="45.25912" lon="1.41322">
        <ele>177</ele>
        <time>2011-07-07T16:48:06Z</time>
      </trkpt>
      <trkpt lat="45.25918" lon="1.4132">
        <ele>176</ele>
        <time>2011-07-07T16:48:07Z</time>
      </trkpt>
      <trkpt lat="45.25925" lon="1.41319">
        <ele>173</ele>
        <time>2011-07-07T16:48:08Z</time>
      </trkpt>
      <trkpt lat="45.25932" lon="1.41318">
        <ele>172</ele>
        <time>2011-07-07T16:48:09Z</time>
      </trkpt>
      <trkpt lat="45.25938" lon="1.41317">
        <ele>171</ele>
        <time>2011-07-07T16:48:10Z</time>
      </trkpt>
      <trkpt lat="45.25946" lon="1.41316">
        <ele>172</ele>
        <time>2011-07-07T16:48:11Z</time>
      </trkpt>
      <trkpt lat="45.25953" lon="1.41314">
        <ele>172</ele>
        <time>2011-07-07T16:48:12Z</time>
      </trkpt>
      <trkpt lat="45.25961" lon="1.41313">
        <ele>171</ele>
        <time>2011-07-07T16:48:13Z</time>
      </trkpt>
      <trkpt lat="45.25969" lon="1.41312">
        <ele>172</ele>
        <time>2011-07-07T16:48:14Z</time>
      </trkpt>
      <trkpt lat="45.25974" lon="1.41311">
        <ele>169</ele>
        <time>2011-07-07T16:48:15Z</time>
      </trkpt>
      <trkpt lat="45.25979" lon="1.4131">
        <ele>170</ele>
        <time>2011-07-07T16:48:16Z</time>
      </trkpt>
      <trkpt lat="45.25987" lon="1.41308">
        <ele>169</ele>
        <time>2011-07-07T16:48:17Z</time>
      </trkpt>
      <trkpt lat="45.25995" lon="1.41307">
        <ele>171</ele>
        <time>2011-07-07T16:48:18Z</time>
      </trkpt>
      <trkpt lat="45.26003" lon="1.41305">
        <ele>170</ele>
        <time>2011-07-07T16:48:19Z</time>
      </trkpt>
      <trkpt lat="45.26011" lon="1.41303">
        <ele>171</ele>
        <time>2011-07-07T16:48:20Z</time>
      </trkpt>
      <trkpt lat="45.26018" lon="1.41301">
        <ele>172</ele>
        <time>2011-07-07T16:48:21Z</time>
      </trkpt>
      <trkpt lat="45.26025" lon="1.413">
        <ele>173</ele>
        <time>2011-07-07T16:48:22Z</time>
      </trkpt>
      <trkpt lat="45.26033" lon="1.41299">
        <ele>174</ele>
        <time>2011-07-07T16:48:23Z</time>
      </trkpt>
      <trkpt lat="45.26041" lon="1.41297">
        <ele>173</ele>
        <time>2011-07-07T16:48:24Z</time>
      </trkpt>
      <trkpt lat="45.26048" lon="1.41295">
        <ele>177</ele>
        <time>2011-07-07T16:48:25Z</time>
      </trkpt>
      <trkpt lat="45.26054" lon="1.41294">
        <ele>178</ele>
        <time>2011-07-07T16:48:26Z</time>
      </trkpt>
      <trkpt lat="45.26062" lon="1.41292">
        <ele>175</ele>
        <time>2011-07-07T16:48:27Z</time>
      </trkpt>
      <trkpt lat="45.26068" lon="1.41291">
        <ele>174</ele>
        <time>2011-07-07T16:48:28Z</time>
      </trkpt>
      <trkpt lat="45.26075" lon="1.4129">
        <ele>174</ele>
        <time>2011-07-07T16:48:29Z</time>
      </trkpt>
      <trkpt lat="45.26083" lon="1.41289">
        <ele>176</ele>
        <time>2011-07-07T16:48:30Z</time>
      </trkpt>
      <trkpt lat="45.2609" lon="1.41287">
        <ele>175</ele>
        <time>2011-07-07T16:48:31Z</time>
      </trkpt>
      <trkpt lat="45.26097" lon="1.41285">
        <ele>174</ele>
        <time>2011-07-07T16:48:32Z</time>
      </trkpt>
      <trkpt lat="45.26103" lon="1.41282">
        <ele>174</ele>
        <time>2011-07-07T16:48:33Z</time>
      </trkpt>
      <trkpt lat="45.2611" lon="1.41279">
        <ele>174</ele>
        <time>2011-07-07T16:48:34Z</time>
      </trkpt>
      <trkpt lat="45.26116" lon="1.41275">
        <ele>174</ele>
        <time>2011-07-07T16:48:35Z</time>
      </trkpt>
      <trkpt lat="45.26123" lon="1.4127">
        <ele>176</ele>
        <time>2011-07-07T16:48:36Z</time>
      </trkpt>
      <trkpt lat="45.2613" lon="1.41265">
        <ele>177</ele>
        <time>2011-07-07T16:48:37Z</time>
      </trkpt>
      <trkpt lat="45.26136" lon="1.41259">
        <ele>178</ele>
        <time>2011-07-07T16:48:38Z</time>
      </trkpt>
      <trkpt lat="45.26143" lon="1.41254">
        <ele>178</ele>
        <time>2011-07-07T16:48:39Z</time>
      </trkpt>
      <trkpt lat="45.26149" lon="1.41248">
        <ele>179</ele>
        <time>2011-07-07T16:48:40Z</time>
      </trkpt>
      <trkpt lat="45.26155" lon="1.41242">
        <ele>180</ele>
        <time>2011-07-07T16:48:41Z</time>
      </trkpt>
      <trkpt lat="45.2616" lon="1.41236">
        <ele>180</ele>
        <time>2011-07-07T16:48:42Z</time>
      </trkpt>
      <trkpt lat="45.26166" lon="1.4123">
        <ele>181</ele>
        <time>2011-07-07T16:48:43Z</time>
      </trkpt>
      <trkpt lat="45.26172" lon="1.41224">
        <ele>181</ele>
        <time>2011-07-07T16:48:44Z</time>
      </trkpt>
      <trkpt lat="45.26178" lon="1.41219">
        <ele>183</ele>
        <time>2011-07-07T16:48:45Z</time>
      </trkpt>
      <trkpt lat="45.26183" lon="1.41213">
        <ele>182</ele>
        <time>2011-07-07T16:48:46Z</time>
      </trkpt>
      <trkpt lat="45.26189" lon="1.41207">
        <ele>183</ele>
        <time>2011-07-07T16:48:47Z</time>
      </trkpt>
      <trkpt lat="45.26194" lon="1.41202">
        <ele>183</ele>
        <time>2011-07-07T16:48:48Z</time>
      </trkpt>
      <trkpt lat="45.262" lon="1.41196">
        <ele>183</ele>
        <time>2011-07-07T16:48:49Z</time>
      </trkpt>
      <trkpt lat="45.26205" lon="1.4119">
        <ele>184</ele>
        <time>2011-07-07T16:48:50Z</time>
      </trkpt>
      <trkpt lat="45.26211" lon="1.41185">
        <ele>183</ele>
        <time>2011-07-07T16:48:51Z</time>
      </trkpt>
      <trkpt lat="45.26216" lon="1.4118">
        <ele>183</ele>
        <time>2011-07-07T16:48:52Z</time>
      </trkpt>
      <trkpt lat="45.26222" lon="1.41174">
        <ele>183</ele>
        <time>2011-07-07T16:48:53Z</time>
      </trkpt>
      <trkpt lat="45.26227" lon="1.41168">
        <ele>184</ele>
        <time>2011-07-07T16:48:54Z</time>
      </trkpt>
      <trkpt lat="45.26233" lon="1.41163">
        <ele>184</ele>
        <time>2011-07-07T16:48:55Z</time>
      </trkpt>
      <trkpt lat="45.26238" lon="1.41158">
        <ele>187</ele>
        <time>2011-07-07T16:48:56Z</time>
      </trkpt>
      <trkpt lat="45.26243" lon="1.41154">
        <ele>190</ele>
        <time>2011-07-07T16:48:57Z</time>
      </trkpt>
      <trkpt lat="45.26248" lon="1.41151">
        <ele>191</ele>
        <time>2011-07-07T16:48:58Z</time>
      </trkpt>
      <trkpt lat="45.26253" lon="1.41149">
        <ele>194</ele>
        <time>2011-07-07T16:48:59Z</time>
      </trkpt>
      <trkpt lat="45.26257" lon="1.41147">
        <ele>194</ele>
        <time>2011-07-07T16:49:00Z</time>
      </trkpt>
      <trkpt lat="45.26261" lon="1.41141">
        <ele>190</ele>
        <time>2011-07-07T16:49:01Z</time>
      </trkpt>
      <trkpt lat="45.26265" lon="1.41135">
        <ele>191</ele>
        <time>2011-07-07T16:49:02Z</time>
      </trkpt>
      <trkpt lat="45.26268" lon="1.41127">
        <ele>189</ele>
        <time>2011-07-07T16:49:03Z</time>
      </trkpt>
      <trkpt lat="45.26268" lon="1.41118">
        <ele>183</ele>
        <time>2011-07-07T16:49:04Z</time>
      </trkpt>
      <trkpt lat="45.26268" lon="1.41109">
        <ele>179</ele>
        <time>2011-07-07T16:49:05Z</time>
      </trkpt>
      <trkpt lat="45.26268" lon="1.41101">
        <ele>177</ele>
        <time>2011-07-07T16:49:06Z</time>
      </trkpt>
      <trkpt lat="45.26268" lon="1.41093">
        <ele>176</ele>
        <time>2011-07-07T16:49:07Z</time>
      </trkpt>
      <trkpt lat="45.26268" lon="1.41085">
        <ele>175</ele>
        <time>2011-07-07T16:49:08Z</time>
      </trkpt>
      <trkpt lat="45.26268" lon="1.41077">
        <ele>174</ele>
        <time>2011-07-07T16:49:09Z</time>
      </trkpt>
      <trkpt lat="45.26268" lon="1.41068">
        <ele>173</ele>
        <time>2011-07-07T16:49:10Z</time>
      </trkpt>
      <trkpt lat="45.26268" lon="1.41059">
        <ele>173</ele>
        <time>2011-07-07T16:49:11Z</time>
      </trkpt>
      <trkpt lat="45.26267" lon="1.41049">
        <ele>174</ele>
        <time>2011-07-07T16:49:12Z</time>
      </trkpt>
      <trkpt lat="45.26266" lon="1.4104">
        <ele>173</ele>
        <time>2011-07-07T16:49:13Z</time>
      </trkpt>
      <trkpt lat="45.26265" lon="1.41031">
        <ele>176</ele>
        <time>2011-07-07T16:49:14Z</time>
      </trkpt>
      <trkpt lat="45.26263" lon="1.41022">
        <ele>177</ele>
        <time>2011-07-07T16:49:15Z</time>
      </trkpt>
      <trkpt lat="45.26263" lon="1.41012">
        <ele>178</ele>
        <time>2011-07-07T16:49:16Z</time>
      </trkpt>
      <trkpt lat="45.26264" lon="1.41003">
        <ele>178</ele>
        <time>2011-07-07T16:49:17Z</time>
      </trkpt>
      <trkpt lat="45.26267" lon="1.40995">
        <ele>176</ele>
        <time>2011-07-07T16:49:18Z</time>
      </trkpt>
      <trkpt lat="45.26269" lon="1.40987">
        <ele>175</ele>
        <time>2011-07-07T16:49:19Z</time>
      </trkpt>
      <trkpt lat="45.26274" lon="1.40982">
        <ele>175</ele>
        <time>2011-07-07T16:49:20Z</time>
      </trkpt>
      <trkpt lat="45.26282" lon="1.40977">
        <ele>175</ele>
        <time>2011-07-07T16:49:22Z</time>
      </trkpt>
      <trkpt lat="45.26287" lon="1.40976">
        <ele>176</ele>
        <time>2011-07-07T16:49:23Z</time>
      </trkpt>
      <trkpt lat="45.26292" lon="1.40975">
        <ele>174</ele>
        <time>2011-07-07T16:49:24Z</time>
      </trkpt>
      <trkpt lat="45.26297" lon="1.40972">
        <ele>176</ele>
        <time>2011-07-07T16:49:25Z</time>
      </trkpt>
      <trkpt lat="45.26302" lon="1.4097">
        <ele>177</ele>
        <time>2011-07-07T16:49:26Z</time>
      </trkpt>
      <trkpt lat="45.2631" lon="1.4097">
        <ele>177</ele>
        <time>2011-07-07T16:49:28Z</time>
      </trkpt>
      <trkpt lat="45.26319" lon="1.40973">
        <ele>176</ele>
        <time>2011-07-07T16:49:30Z</time>
      </trkpt>
      <trkpt lat="45.26323" lon="1.40978">
        <ele>173</ele>
        <time>2011-07-07T16:49:31Z</time>
      </trkpt>
      <trkpt lat="45.26329" lon="1.40983">
        <ele>173</ele>
        <time>2011-07-07T16:49:32Z</time>
      </trkpt>
      <trkpt lat="45.26334" lon="1.4099">
        <ele>170</ele>
        <time>2011-07-07T16:49:33Z</time>
      </trkpt>
      <trkpt lat="45.2634" lon="1.40997">
        <ele>167</ele>
        <time>2011-07-07T16:49:34Z</time>
      </trkpt>
      <trkpt lat="45.26345" lon="1.41004">
        <ele>166</ele>
        <time>2011-07-07T16:49:35Z</time>
      </trkpt>
      <trkpt lat="45.2635" lon="1.41011">
        <ele>169</ele>
        <time>2011-07-07T16:49:36Z</time>
      </trkpt>
      <trkpt lat="45.26355" lon="1.41018">
        <ele>169</ele>
        <time>2011-07-07T16:49:37Z</time>
      </trkpt>
      <trkpt lat="45.26361" lon="1.41025">
        <ele>170</ele>
        <time>2011-07-07T16:49:38Z</time>
      </trkpt>
      <trkpt lat="45.26365" lon="1.41031">
        <ele>168</ele>
        <time>2011-07-07T16:49:39Z</time>
      </trkpt>
      <trkpt lat="45.2637" lon="1.41036">
        <ele>169</ele>
        <time>2011-07-07T16:49:40Z</time>
      </trkpt>
      <trkpt lat="45.26374" lon="1.41041">
        <ele>171</ele>
        <time>2011-07-07T16:49:41Z</time>
      </trkpt>
      <trkpt lat="45.2638" lon="1.41044">
        <ele>171</ele>
        <time>2011-07-07T16:49:42Z</time>
      </trkpt>
      <trkpt lat="45.26385" lon="1.41046">
        <ele>172</ele>
        <time>2011-07-07T16:49:43Z</time>
      </trkpt>
      <trkpt lat="45.2639" lon="1.41048">
        <ele>172</ele>
        <time>2011-07-07T16:49:44Z</time>
      </trkpt>
      <trkpt lat="45.26395" lon="1.4105">
        <ele>172</ele>
        <time>2011-07-07T16:49:45Z</time>
      </trkpt>
      <trkpt lat="45.264" lon="1.41052">
        <ele>175</ele>
        <time>2011-07-07T16:49:46Z</time>
      </trkpt>
      <trkpt lat="45.26405" lon="1.41054">
        <ele>176</ele>
        <time>2011-07-07T16:49:47Z</time>
      </trkpt>
      <trkpt lat="45.2641" lon="1.41056">
        <ele>176</ele>
        <time>2011-07-07T16:49:48Z</time>
      </trkpt>
      <trkpt lat="45.26415" lon="1.41058">
        <ele>175</ele>
        <time>2011-07-07T16:49:49Z</time>
      </trkpt>
      <trkpt lat="45.2642" lon="1.41059">
        <ele>174</ele>
        <time>2011-07-07T16:49:50Z</time>
      </trkpt>
      <trkpt lat="45.26425" lon="1.4106">
        <ele>173</ele>
        <time>2011-07-07T16:49:51Z</time>
      </trkpt>
      <trkpt lat="45.2643" lon="1.41062">
        <ele>173</ele>
        <time>2011-07-07T16:49:52Z</time>
      </trkpt>
      <trkpt lat="45.26436" lon="1.41062">
        <ele>172</ele>
        <time>2011-07-07T16:49:53Z</time>
      </trkpt>
      <trkpt lat="45.26441" lon="1.41061">
        <ele>172</ele>
        <time>2011-07-07T16:49:54Z</time>
      </trkpt>
      <trkpt lat="45.26447" lon="1.41061">
        <ele>172</ele>
        <time>2011-07-07T16:49:55Z</time>
      </trkpt>
      <trkpt lat="45.26452" lon="1.4106">
        <ele>171</ele>
        <time>2011-07-07T16:49:56Z</time>
      </trkpt>
      <trkpt lat="45.26457" lon="1.4106">
        <ele>171</ele>
        <time>2011-07-07T16:49:57Z</time>
      </trkpt>
      <trkpt lat="45.26462" lon="1.4106">
        <ele>171</ele>
        <time>2011-07-07T16:49:58Z</time>
      </trkpt>
      <trkpt lat="45.26467" lon="1.41061">
        <ele>171</ele>
        <time>2011-07-07T16:49:59Z</time>
      </trkpt>
      <trkpt lat="45.26472" lon="1.41063">
        <ele>170</ele>
        <time>2011-07-07T16:50:00Z</time>
      </trkpt>
      <trkpt lat="45.26477" lon="1.41064">
        <ele>171</ele>
        <time>2011-07-07T16:50:01Z</time>
      </trkpt>
      <trkpt lat="45.26481" lon="1.41066">
        <ele>169</ele>
        <time>2011-07-07T16:50:02Z</time>
      </trkpt>
      <trkpt lat="45.2649" lon="1.4107">
        <ele>169</ele>
        <time>2011-07-07T16:50:04Z</time>
      </trkpt>
      <trkpt lat="45.26495" lon="1.41072">
        <ele>170</ele>
        <time>2011-07-07T16:50:05Z</time>
      </trkpt>
      <trkpt lat="45.265" lon="1.41074">
        <ele>171</ele>
        <time>2011-07-07T16:50:06Z</time>
      </trkpt>
      <trkpt lat="45.26505" lon="1.41076">
        <ele>173</ele>
        <time>2011-07-07T16:50:07Z</time>
      </trkpt>
      <trkpt lat="45.2651" lon="1.41077">
        <ele>174</ele>
        <time>2011-07-07T16:50:08Z</time>
      </trkpt>
      <trkpt lat="45.26515" lon="1.41078">
        <ele>174</ele>
        <time>2011-07-07T16:50:09Z</time>
      </trkpt>
      <trkpt lat="45.2652" lon="1.41078">
        <ele>174</ele>
        <time>2011-07-07T16:50:10Z</time>
      </trkpt>
      <trkpt lat="45.26525" lon="1.41077">
        <ele>173</ele>
        <time>2011-07-07T16:50:11Z</time>
      </trkpt>
      <trkpt lat="45.26531" lon="1.41076">
        <ele>171</ele>
        <time>2011-07-07T16:50:12Z</time>
      </trkpt>
      <trkpt lat="45.26536" lon="1.41075">
        <ele>171</ele>
        <time>2011-07-07T16:50:13Z</time>
      </trkpt>
      <trkpt lat="45.26542" lon="1.41073">
        <ele>170</ele>
        <time>2011-07-07T16:50:14Z</time>
      </trkpt>
      <trkpt lat="45.26548" lon="1.41072">
        <ele>170</ele>
        <time>2011-07-07T16:50:15Z</time>
      </trkpt>
      <trkpt lat="45.26552" lon="1.41069">
        <ele>170</ele>
        <time>2011-07-07T16:50:16Z</time>
      </trkpt>
      <trkpt lat="45.26556" lon="1.41065">
        <ele>170</ele>
        <time>2011-07-07T16:50:17Z</time>
      </trkpt>
      <trkpt lat="45.2656" lon="1.41061">
        <ele>173</ele>
        <time>2011-07-07T16:50:18Z</time>
      </trkpt>
      <trkpt lat="45.26564" lon="1.41056">
        <ele>175</ele>
        <time>2011-07-07T16:50:19Z</time>
      </trkpt>
      <trkpt lat="45.26568" lon="1.41053">
        <ele>177</ele>
        <time>2011-07-07T16:50:20Z</time>
      </trkpt>
      <trkpt lat="45.26578" lon="1.41051">
        <ele>178</ele>
        <time>2011-07-07T16:50:22Z</time>
      </trkpt>
      <trkpt lat="45.26582" lon="1.4105">
        <ele>178</ele>
        <time>2011-07-07T16:50:23Z</time>
      </trkpt>
      <trkpt lat="45.26592" lon="1.41054">
        <ele>180</ele>
        <time>2011-07-07T16:50:25Z</time>
      </trkpt>
      <trkpt lat="45.26597" lon="1.41055">
        <ele>181</ele>
        <time>2011-07-07T16:50:26Z</time>
      </trkpt>
      <trkpt lat="45.26602" lon="1.41056">
        <ele>182</ele>
        <time>2011-07-07T16:50:27Z</time>
      </trkpt>
      <trkpt lat="45.26607" lon="1.41057">
        <ele>180</ele>
        <time>2011-07-07T16:50:28Z</time>
      </trkpt>
      <trkpt lat="45.26617" lon="1.41058">
        <ele>179</ele>
        <time>2011-07-07T16:50:30Z</time>
      </trkpt>
      <trkpt lat="45.26622" lon="1.41059">
        <ele>179</ele>
        <time>2011-07-07T16:50:31Z</time>
      </trkpt>
      <trkpt lat="45.26628" lon="1.4106">
        <ele>179</ele>
        <time>2011-07-07T16:50:32Z</time>
      </trkpt>
      <trkpt lat="45.26633" lon="1.41061">
        <ele>178</ele>
        <time>2011-07-07T16:50:33Z</time>
      </trkpt>
      <trkpt lat="45.26641" lon="1.41055">
        <ele>178</ele>
        <time>2011-07-07T16:50:35Z</time>
      </trkpt>
      <trkpt lat="45.26645" lon="1.41052">
        <ele>177</ele>
        <time>2011-07-07T16:50:36Z</time>
      </trkpt>
      <trkpt lat="45.26649" lon="1.41047">
        <ele>176</ele>
        <time>2011-07-07T16:50:37Z</time>
      </trkpt>
      <trkpt lat="45.26653" lon="1.41044">
        <ele>176</ele>
        <time>2011-07-07T16:50:38Z</time>
      </trkpt>
      <trkpt lat="45.26657" lon="1.4104">
        <ele>174</ele>
        <time>2011-07-07T16:50:39Z</time>
      </trkpt>
      <trkpt lat="45.26661" lon="1.41037">
        <ele>172</ele>
        <time>2011-07-07T16:50:40Z</time>
      </trkpt>
      <trkpt lat="45.26666" lon="1.41035">
        <ele>172</ele>
        <time>2011-07-07T16:50:41Z</time>
      </trkpt>
      <trkpt lat="45.2667" lon="1.41032">
        <ele>172</ele>
        <time>2011-07-07T16:50:42Z</time>
      </trkpt>
      <trkpt lat="45.26676" lon="1.4103">
        <ele>172</ele>
        <time>2011-07-07T16:50:43Z</time>
      </trkpt>
      <trkpt lat="45.26681" lon="1.41028">
        <ele>172</ele>
        <time>2011-07-07T16:50:44Z</time>
      </trkpt>
      <trkpt lat="45.26686" lon="1.41026">
        <ele>173</ele>
        <time>2011-07-07T16:50:45Z</time>
      </trkpt>
      <trkpt lat="45.26691" lon="1.41024">
        <ele>172</ele>
        <time>2011-07-07T16:50:46Z</time>
      </trkpt>
      <trkpt lat="45.26696" lon="1.41023">
        <ele>172</ele>
        <time>2011-07-07T16:50:47Z</time>
      </trkpt>
      <trkpt lat="45.26701" lon="1.41021">
        <ele>174</ele>
        <time>2011-07-07T16:50:48Z</time>
      </trkpt>
      <trkpt lat="45.26707" lon="1.4102">
        <ele>174</ele>
        <time>2011-07-07T16:50:49Z</time>
      </trkpt>
      <trkpt lat="45.26713" lon="1.41018">
        <ele>174</ele>
        <time>2011-07-07T16:50:50Z</time>
      </trkpt>
      <trkpt lat="45.26718" lon="1.41017">
        <ele>172</ele>
        <time>2011-07-07T16:50:51Z</time>
      </trkpt>
      <trkpt lat="45.26722" lon="1.41016">
        <ele>171</ele>
        <time>2011-07-07T16:50:52Z</time>
      </trkpt>
      <trkpt lat="45.26728" lon="1.41018">
        <ele>171</ele>
        <time>2011-07-07T16:50:53Z</time>
      </trkpt>
      <trkpt lat="45.26733" lon="1.4102">
        <ele>171</ele>
        <time>2011-07-07T16:50:54Z</time>
      </trkpt>
      <trkpt lat="45.26739" lon="1.41022">
        <ele>172</ele>
        <time>2011-07-07T16:50:55Z</time>
      </trkpt>
      <trkpt lat="45.26744" lon="1.41024">
        <ele>173</ele>
        <time>2011-07-07T16:50:56Z</time>
      </trkpt>
      <trkpt lat="45.26749" lon="1.41026">
        <ele>173</ele>
        <time>2011-07-07T16:50:57Z</time>
      </trkpt>
      <trkpt lat="45.26754" lon="1.41029">
        <ele>174</ele>
        <time>2011-07-07T16:50:58Z</time>
      </trkpt>
      <trkpt lat="45.26762" lon="1.41033">
        <ele>174</ele>
        <time>2011-07-07T16:51:00Z</time>
      </trkpt>
      <trkpt lat="45.2677" lon="1.41036">
        <ele>172</ele>
        <time>2011-07-07T16:51:02Z</time>
      </trkpt>
      <trkpt lat="45.26775" lon="1.41038">
        <ele>171</ele>
        <time>2011-07-07T16:51:03Z</time>
      </trkpt>
      <trkpt lat="45.2678" lon="1.4104">
        <ele>171</ele>
        <time>2011-07-07T16:51:04Z</time>
      </trkpt>
      <trkpt lat="45.26784" lon="1.41043">
        <ele>171</ele>
        <time>2011-07-07T16:51:05Z</time>
      </trkpt>
    </trkseg>
  </trk>
</gpx>